<?xml version='1.0' encoding='UTF-8'?><gpx version="1.1" creator="JPX - https://github.com/jenetics/jpx" xmlns="http://www.topografix.com/GPX/1/1"><trk><trkseg><trkpt lat="43.6315647" lon="11.2294786"><ele>297.0</ele><time>2026-05-02T12:30:12.976Z</time></trkpt><trkpt lat="43.6316171" lon="11.2295914"><ele>297.0</ele><time>2026-05-02T12:30:18.976Z</time></trkpt><trkpt lat="43.6316078" lon="11.2295036"><ele>297.0</ele><time>2026-05-02T12:32:03.976Z</time></trkpt><trkpt lat="43.6315696" lon="11.2294154"><ele>297.0</ele><time>2026-05-02T12:32:09.976Z</time></trkpt><trkpt lat="43.631524" lon="11.2293526"><ele>297.0</ele><time>2026-05-02T12:32:33.976Z</time></trkpt><trkpt lat="43.6314839" lon="11.2292838"><ele>297.0</ele><time>2026-05-02T12:32:35.976Z</time></trkpt><trkpt lat="43.6314279" lon="11.2292311"><ele>297.0</ele><time>2026-05-02T12:32:37.976Z</time></trkpt><trkpt lat="43.6314249" lon="11.2291364"><ele>297.0</ele><time>2026-05-02T12:32:40.976Z</time></trkpt><trkpt lat="43.631489" lon="11.2290175"><ele>297.0</ele><time>2026-05-02T12:32:43.977Z</time></trkpt><trkpt lat="43.6315311" lon="11.2289433"><ele>297.0</ele><time>2026-05-02T12:32:44.976Z</time></trkpt><trkpt lat="43.6315818" lon="11.22886"><ele>297.0</ele><time>2026-05-02T12:32:45.976Z</time></trkpt><trkpt lat="43.6316346" lon="11.2287631"><ele>297.0</ele><time>2026-05-02T12:32:46.976Z</time></trkpt><trkpt lat="43.6316896" lon="11.2286765"><ele>297.0</ele><time>2026-05-02T12:32:47.976Z</time></trkpt><trkpt lat="43.6317381" lon="11.2286035"><ele>296.6666666666667</ele><time>2026-05-02T12:32:48.976Z</time></trkpt><trkpt lat="43.6318107" lon="11.2284832"><ele>296.3333333333333</ele><time>2026-05-02T12:32:50.976Z</time></trkpt><trkpt lat="43.631862" lon="11.2283996"><ele>296.0</ele><time>2026-05-02T12:32:52.977Z</time></trkpt><trkpt lat="43.6319207" lon="11.2283573"><ele>295.66666666666663</ele><time>2026-05-02T12:32:55.976Z</time></trkpt><trkpt lat="43.63199" lon="11.2284418"><ele>295.3333333333333</ele><time>2026-05-02T12:32:58.976Z</time></trkpt><trkpt lat="43.632053" lon="11.2284044"><ele>295.0</ele><time>2026-05-02T12:33:02.976Z</time></trkpt><trkpt lat="43.632004" lon="11.2283135"><ele>295.0</ele><time>2026-05-02T12:33:05.976Z</time></trkpt><trkpt lat="43.6319354" lon="11.2283289"><ele>295.0</ele><time>2026-05-02T12:33:08.977Z</time></trkpt><trkpt lat="43.6318442" lon="11.2284561"><ele>295.0</ele><time>2026-05-02T12:33:10.976Z</time></trkpt><trkpt lat="43.631782" lon="11.228551"><ele>295.0</ele><time>2026-05-02T12:33:11.977Z</time></trkpt><trkpt lat="43.6317091" lon="11.2286551"><ele>295.0</ele><time>2026-05-02T12:33:12.976Z</time></trkpt><trkpt lat="43.6316443" lon="11.2287601"><ele>295.0</ele><time>2026-05-02T12:33:13.976Z</time></trkpt><trkpt lat="43.6315857" lon="11.2288536"><ele>295.0</ele><time>2026-05-02T12:33:14.976Z</time></trkpt><trkpt lat="43.631541" lon="11.2289269"><ele>295.0</ele><time>2026-05-02T12:33:15.976Z</time></trkpt><trkpt lat="43.6314677" lon="11.2290468"><ele>295.0</ele><time>2026-05-02T12:33:17.977Z</time></trkpt><trkpt lat="43.6314111" lon="11.2291225"><ele>295.0</ele><time>2026-05-02T12:33:19.976Z</time></trkpt><trkpt lat="43.6313956" lon="11.2292198"><ele>295.0</ele><time>2026-05-02T12:33:22.976Z</time></trkpt><trkpt lat="43.6314617" lon="11.2292534"><ele>295.0</ele><time>2026-05-02T12:33:26.976Z</time></trkpt><trkpt lat="43.6314875" lon="11.2291714"><ele>295.0</ele><time>2026-05-02T12:33:29.977Z</time></trkpt><trkpt lat="43.6315376" lon="11.2290468"><ele>295.0</ele><time>2026-05-02T12:33:31.976Z</time></trkpt><trkpt lat="43.6315812" lon="11.2289659"><ele>295.0</ele><time>2026-05-02T12:33:32.976Z</time></trkpt><trkpt lat="43.6316298" lon="11.2288956"><ele>295.0</ele><time>2026-05-02T12:33:33.976Z</time></trkpt><trkpt lat="43.6316879" lon="11.2288105"><ele>295.0</ele><time>2026-05-02T12:33:35.976Z</time></trkpt><trkpt lat="43.6317797" lon="11.2287627"><ele>295.0</ele><time>2026-05-02T12:33:38.977Z</time></trkpt><trkpt lat="43.6318232" lon="11.2286823"><ele>295.0</ele><time>2026-05-02T12:33:40.976Z</time></trkpt><trkpt lat="43.6318286" lon="11.2285857"><ele>295.0</ele><time>2026-05-02T12:33:43.976Z</time></trkpt><trkpt lat="43.6317406" lon="11.2286188"><ele>295.0</ele><time>2026-05-02T12:33:47.976Z</time></trkpt><trkpt lat="43.6316931" lon="11.2286864"><ele>295.0</ele><time>2026-05-02T12:33:48.976Z</time></trkpt><trkpt lat="43.6316397" lon="11.2287712"><ele>295.0</ele><time>2026-05-02T12:33:49.977Z</time></trkpt><trkpt lat="43.6315839" lon="11.2288646"><ele>295.0</ele><time>2026-05-02T12:33:50.976Z</time></trkpt><trkpt lat="43.6315268" lon="11.2289463"><ele>295.0</ele><time>2026-05-02T12:33:51.976Z</time></trkpt><trkpt lat="43.6314811" lon="11.229013"><ele>295.0</ele><time>2026-05-02T12:33:52.976Z</time></trkpt><trkpt lat="43.6314211" lon="11.2291181"><ele>295.0</ele><time>2026-05-02T12:33:54.976Z</time></trkpt><trkpt lat="43.6313975" lon="11.2292193"><ele>295.0</ele><time>2026-05-02T12:33:57.976Z</time></trkpt><trkpt lat="43.6314553" lon="11.2292773"><ele>295.0</ele><time>2026-05-02T12:34:00.976Z</time></trkpt><trkpt lat="43.6315184" lon="11.229344"><ele>295.0</ele><time>2026-05-02T12:34:03.976Z</time></trkpt><trkpt lat="43.6314778" lon="11.2292136"><ele>295.0</ele><time>2026-05-02T12:35:02.976Z</time></trkpt><trkpt lat="43.6314574" lon="11.2291069"><ele>295.0</ele><time>2026-05-02T12:35:04.975Z</time></trkpt><trkpt lat="43.6314902" lon="11.2290093"><ele>295.0</ele><time>2026-05-02T12:35:06.975Z</time></trkpt><trkpt lat="43.6315684" lon="11.2288659"><ele>295.0</ele><time>2026-05-02T12:35:08.975Z</time></trkpt><trkpt lat="43.6316308" lon="11.2287668"><ele>295.0</ele><time>2026-05-02T12:35:09.975Z</time></trkpt><trkpt lat="43.6316955" lon="11.2286671"><ele>295.0</ele><time>2026-05-02T12:35:10.975Z</time></trkpt><trkpt lat="43.6317509" lon="11.2285831"><ele>295.0</ele><time>2026-05-02T12:35:11.975Z</time></trkpt><trkpt lat="43.6318215" lon="11.2284757"><ele>295.0</ele><time>2026-05-02T12:35:13.975Z</time></trkpt><trkpt lat="43.6318758" lon="11.2284143"><ele>295.0</ele><time>2026-05-02T12:35:16.975Z</time></trkpt><trkpt lat="43.6319639" lon="11.2285245"><ele>295.0</ele><time>2026-05-02T12:35:19.975Z</time></trkpt><trkpt lat="43.632024" lon="11.2285829"><ele>295.0</ele><time>2026-05-02T12:35:22.975Z</time></trkpt><trkpt lat="43.6320454" lon="11.2284809"><ele>295.0</ele><time>2026-05-02T12:35:25.975Z</time></trkpt><trkpt lat="43.6319859" lon="11.2284305"><ele>295.0</ele><time>2026-05-02T12:35:28.976Z</time></trkpt><trkpt lat="43.6319419" lon="11.2283634"><ele>295.0</ele><time>2026-05-02T12:35:31.976Z</time></trkpt><trkpt lat="43.6318692" lon="11.2284187"><ele>295.0</ele><time>2026-05-02T12:35:34.975Z</time></trkpt><trkpt lat="43.6317812" lon="11.2285478"><ele>295.0</ele><time>2026-05-02T12:35:36.975Z</time></trkpt><trkpt lat="43.631725" lon="11.2286413"><ele>295.0</ele><time>2026-05-02T12:35:37.975Z</time></trkpt><trkpt lat="43.6316562" lon="11.2287524"><ele>295.0</ele><time>2026-05-02T12:35:38.975Z</time></trkpt><trkpt lat="43.6315937" lon="11.2288556"><ele>295.0</ele><time>2026-05-02T12:35:39.975Z</time></trkpt><trkpt lat="43.6315401" lon="11.2289331"><ele>295.0</ele><time>2026-05-02T12:35:40.975Z</time></trkpt><trkpt lat="43.6314655" lon="11.2290452"><ele>295.0</ele><time>2026-05-02T12:35:42.976Z</time></trkpt><trkpt lat="43.6314128" lon="11.2291254"><ele>295.0</ele><time>2026-05-02T12:35:44.975Z</time></trkpt><trkpt lat="43.6313903" lon="11.2292265"><ele>295.0</ele><time>2026-05-02T12:35:47.976Z</time></trkpt><trkpt lat="43.6314627" lon="11.2292436"><ele>295.0</ele><time>2026-05-02T12:35:51.975Z</time></trkpt><trkpt lat="43.6315008" lon="11.2291422"><ele>295.0</ele><time>2026-05-02T12:35:53.975Z</time></trkpt><trkpt lat="43.6315288" lon="11.2290478"><ele>295.0</ele><time>2026-05-02T12:35:54.975Z</time></trkpt><trkpt lat="43.6315836" lon="11.2289576"><ele>295.0</ele><time>2026-05-02T12:35:55.976Z</time></trkpt><trkpt lat="43.6316479" lon="11.2288566"><ele>295.0</ele><time>2026-05-02T12:35:56.975Z</time></trkpt><trkpt lat="43.6317153" lon="11.2287558"><ele>295.0</ele><time>2026-05-02T12:35:57.975Z</time></trkpt><trkpt lat="43.6317714" lon="11.2286675"><ele>295.0</ele><time>2026-05-02T12:35:58.975Z</time></trkpt><trkpt lat="43.6318176" lon="11.228592"><ele>295.0</ele><time>2026-05-02T12:35:59.975Z</time></trkpt><trkpt lat="43.6318682" lon="11.2285062"><ele>295.0</ele><time>2026-05-02T12:36:01.975Z</time></trkpt><trkpt lat="43.6318014" lon="11.228519"><ele>295.0</ele><time>2026-05-02T12:36:06.976Z</time></trkpt><trkpt lat="43.6317559" lon="11.228598"><ele>295.0</ele><time>2026-05-02T12:36:08.975Z</time></trkpt><trkpt lat="43.6316838" lon="11.2287052"><ele>295.0</ele><time>2026-05-02T12:36:10.975Z</time></trkpt><trkpt lat="43.6316336" lon="11.2287815"><ele>295.0</ele><time>2026-05-02T12:36:11.975Z</time></trkpt><trkpt lat="43.6315823" lon="11.228877"><ele>295.0</ele><time>2026-05-02T12:36:12.976Z</time></trkpt><trkpt lat="43.6315296" lon="11.2289624"><ele>295.0</ele><time>2026-05-02T12:36:13.975Z</time></trkpt><trkpt lat="43.6314847" lon="11.2290315"><ele>295.4</ele><time>2026-05-02T12:36:14.975Z</time></trkpt><trkpt lat="43.6314134" lon="11.229141"><ele>295.8</ele><time>2026-05-02T12:36:16.975Z</time></trkpt><trkpt lat="43.631425" lon="11.2292432"><ele>296.2</ele><time>2026-05-02T12:36:19.975Z</time></trkpt><trkpt lat="43.6314979" lon="11.2293145"><ele>296.6</ele><time>2026-05-02T12:36:22.975Z</time></trkpt><trkpt lat="43.6315495" lon="11.2293971"><ele>297.0</ele><time>2026-05-02T12:36:25.975Z</time></trkpt><trkpt lat="43.6315537" lon="11.2292486"><ele>297.0</ele><time>2026-05-02T12:37:25.975Z</time></trkpt><trkpt lat="43.6316297" lon="11.2291523"><ele>297.0</ele><time>2026-05-02T12:37:27.976Z</time></trkpt><trkpt lat="43.6317018" lon="11.2291523"><ele>297.0</ele><time>2026-05-02T12:37:28.975Z</time></trkpt><trkpt lat="43.6317864" lon="11.2291949"><ele>297.0</ele><time>2026-05-02T12:37:29.975Z</time></trkpt><trkpt lat="43.6318825" lon="11.2292664"><ele>297.0</ele><time>2026-05-02T12:37:30.975Z</time></trkpt><trkpt lat="43.6319955" lon="11.2293558"><ele>296.25</ele><time>2026-05-02T12:37:31.975Z</time></trkpt><trkpt lat="43.6321206" lon="11.2294562"><ele>295.5</ele><time>2026-05-02T12:37:32.975Z</time></trkpt><trkpt lat="43.632241" lon="11.2295566"><ele>294.75</ele><time>2026-05-02T12:37:33.975Z</time></trkpt><trkpt lat="43.6323525" lon="11.2296405"><ele>294.0</ele><time>2026-05-02T12:37:34.976Z</time></trkpt><trkpt lat="43.6324535" lon="11.229708"><ele>294.0</ele><time>2026-05-02T12:37:35.975Z</time></trkpt><trkpt lat="43.6325451" lon="11.2297597"><ele>294.0</ele><time>2026-05-02T12:37:36.975Z</time></trkpt><trkpt lat="43.6326388" lon="11.229786"><ele>294.0</ele><time>2026-05-02T12:37:37.975Z</time></trkpt><trkpt lat="43.6327398" lon="11.229804"><ele>294.0</ele><time>2026-05-02T12:37:38.975Z</time></trkpt><trkpt lat="43.6328441" lon="11.2298108"><ele>294.0</ele><time>2026-05-02T12:37:39.975Z</time></trkpt><trkpt lat="43.6329551" lon="11.2298063"><ele>294.2</ele><time>2026-05-02T12:37:40.975Z</time></trkpt><trkpt lat="43.6330645" lon="11.2298078"><ele>294.4</ele><time>2026-05-02T12:37:41.975Z</time></trkpt><trkpt lat="43.6331742" lon="11.2298082"><ele>294.6</ele><time>2026-05-02T12:37:42.975Z</time></trkpt><trkpt lat="43.6332848" lon="11.2298144"><ele>294.8</ele><time>2026-05-02T12:37:43.975Z</time></trkpt><trkpt lat="43.6333962" lon="11.2298234"><ele>295.0</ele><time>2026-05-02T12:37:44.975Z</time></trkpt><trkpt lat="43.633492" lon="11.2298329"><ele>295.0</ele><time>2026-05-02T12:37:45.975Z</time></trkpt><trkpt lat="43.6335827" lon="11.2298286"><ele>295.0</ele><time>2026-05-02T12:37:46.975Z</time></trkpt><trkpt lat="43.6336674" lon="11.2298374"><ele>295.0</ele><time>2026-05-02T12:37:47.975Z</time></trkpt><trkpt lat="43.6337378" lon="11.2298395"><ele>295.0</ele><time>2026-05-02T12:37:48.975Z</time></trkpt><trkpt lat="43.6338026" lon="11.2298445"><ele>295.0</ele><time>2026-05-02T12:37:49.976Z</time></trkpt><trkpt lat="43.6339225" lon="11.2298599"><ele>295.0</ele><time>2026-05-02T12:37:51.975Z</time></trkpt><trkpt lat="43.6339906" lon="11.2299233"><ele>294.8</ele><time>2026-05-02T12:37:52.976Z</time></trkpt><trkpt lat="43.6340704" lon="11.2300253"><ele>294.6</ele><time>2026-05-02T12:37:53.975Z</time></trkpt><trkpt lat="43.6341564" lon="11.2301002"><ele>294.4</ele><time>2026-05-02T12:37:54.975Z</time></trkpt><trkpt lat="43.6342266" lon="11.2301649"><ele>294.2</ele><time>2026-05-02T12:37:55.975Z</time></trkpt><trkpt lat="43.6342863" lon="11.2302189"><ele>294.0</ele><time>2026-05-02T12:37:56.976Z</time></trkpt><trkpt lat="43.6343567" lon="11.2302852"><ele>294.0</ele><time>2026-05-02T12:37:58.975Z</time></trkpt><trkpt lat="43.6343971" lon="11.2303599"><ele>294.0</ele><time>2026-05-02T12:38:06.975Z</time></trkpt><trkpt lat="43.6344639" lon="11.230331"><ele>294.0</ele><time>2026-05-02T12:38:08.975Z</time></trkpt><trkpt lat="43.6345412" lon="11.2302556"><ele>294.0</ele><time>2026-05-02T12:38:09.976Z</time></trkpt><trkpt lat="43.6345948" lon="11.2301335"><ele>294.0</ele><time>2026-05-02T12:38:10.975Z</time></trkpt><trkpt lat="43.6347008" lon="11.2300211"><ele>294.6666666666667</ele><time>2026-05-02T12:38:11.975Z</time></trkpt><trkpt lat="43.6348338" lon="11.2298929"><ele>295.33333333333337</ele><time>2026-05-02T12:38:12.975Z</time></trkpt><trkpt lat="43.6349855" lon="11.2297498"><ele>296.0</ele><time>2026-05-02T12:38:13.975Z</time></trkpt><trkpt lat="43.635139" lon="11.2295973"><ele>296.0</ele><time>2026-05-02T12:38:14.976Z</time></trkpt><trkpt lat="43.6352815" lon="11.2294482"><ele>296.0</ele><time>2026-05-02T12:38:15.975Z</time></trkpt><trkpt lat="43.6354141" lon="11.2293089"><ele>296.0</ele><time>2026-05-02T12:38:16.975Z</time></trkpt><trkpt lat="43.6355449" lon="11.2291826"><ele>296.0</ele><time>2026-05-02T12:38:17.975Z</time></trkpt><trkpt lat="43.6356725" lon="11.2290682"><ele>296.0</ele><time>2026-05-02T12:38:18.976Z</time></trkpt><trkpt lat="43.6357889" lon="11.2289489"><ele>296.0</ele><time>2026-05-02T12:38:19.975Z</time></trkpt><trkpt lat="43.6359145" lon="11.2288268"><ele>296.0</ele><time>2026-05-02T12:38:20.975Z</time></trkpt><trkpt lat="43.6360326" lon="11.2287054"><ele>296.0</ele><time>2026-05-02T12:38:21.976Z</time></trkpt><trkpt lat="43.6361494" lon="11.2285873"><ele>296.0</ele><time>2026-05-02T12:38:22.976Z</time></trkpt><trkpt lat="43.6362766" lon="11.2284687"><ele>296.0</ele><time>2026-05-02T12:38:23.975Z</time></trkpt><trkpt lat="43.6364002" lon="11.22835"><ele>295.25</ele><time>2026-05-02T12:38:24.975Z</time></trkpt><trkpt lat="43.6365169" lon="11.2282454"><ele>294.5</ele><time>2026-05-02T12:38:25.976Z</time></trkpt><trkpt lat="43.636633" lon="11.2281426"><ele>293.75</ele><time>2026-05-02T12:38:26.975Z</time></trkpt><trkpt lat="43.636749" lon="11.2280315"><ele>293.0</ele><time>2026-05-02T12:38:27.975Z</time></trkpt><trkpt lat="43.6368382" lon="11.2278885"><ele>292.33333333333337</ele><time>2026-05-02T12:38:28.975Z</time></trkpt><trkpt lat="43.6369028" lon="11.227698"><ele>291.6666666666667</ele><time>2026-05-02T12:38:29.976Z</time></trkpt><trkpt lat="43.6369621" lon="11.2274857"><ele>291.0</ele><time>2026-05-02T12:38:30.975Z</time></trkpt><trkpt lat="43.6370115" lon="11.2272655"><ele>293.3333333333333</ele><time>2026-05-02T12:38:31.974Z</time></trkpt><trkpt lat="43.6370417" lon="11.2270156"><ele>295.66666666666663</ele><time>2026-05-02T12:38:32.974Z</time></trkpt><trkpt lat="43.6370478" lon="11.2267535"><ele>298.0</ele><time>2026-05-02T12:38:33.974Z</time></trkpt><trkpt lat="43.637037" lon="11.2264755"><ele>298.3333333333333</ele><time>2026-05-02T12:38:34.974Z</time></trkpt><trkpt lat="43.637009" lon="11.2262033"><ele>298.6666666666667</ele><time>2026-05-02T12:38:35.974Z</time></trkpt><trkpt lat="43.6369634" lon="11.2259508"><ele>299.0</ele><time>2026-05-02T12:38:36.974Z</time></trkpt><trkpt lat="43.6369041" lon="11.2257122"><ele>299.33333333333337</ele><time>2026-05-02T12:38:37.974Z</time></trkpt><trkpt lat="43.6368376" lon="11.2254814"><ele>299.6666666666667</ele><time>2026-05-02T12:38:38.974Z</time></trkpt><trkpt lat="43.6367778" lon="11.2252548"><ele>300.0</ele><time>2026-05-02T12:38:39.974Z</time></trkpt><trkpt lat="43.6367216" lon="11.2250369"><ele>300.0</ele><time>2026-05-02T12:38:40.975Z</time></trkpt><trkpt lat="43.6366657" lon="11.224831"><ele>300.0</ele><time>2026-05-02T12:38:41.974Z</time></trkpt><trkpt lat="43.6366096" lon="11.2246348"><ele>300.0</ele><time>2026-05-02T12:38:42.974Z</time></trkpt><trkpt lat="43.6365595" lon="11.224438"><ele>300.0</ele><time>2026-05-02T12:38:43.974Z</time></trkpt><trkpt lat="43.6365174" lon="11.2242452"><ele>300.0</ele><time>2026-05-02T12:38:44.974Z</time></trkpt><trkpt lat="43.6364821" lon="11.2240597"><ele>300.0</ele><time>2026-05-02T12:38:45.974Z</time></trkpt><trkpt lat="43.6364444" lon="11.2238761"><ele>300.0</ele><time>2026-05-02T12:38:46.974Z</time></trkpt><trkpt lat="43.6364092" lon="11.2237029"><ele>299.5</ele><time>2026-05-02T12:38:47.974Z</time></trkpt><trkpt lat="43.6363835" lon="11.2235419"><ele>299.0</ele><time>2026-05-02T12:38:48.974Z</time></trkpt><trkpt lat="43.6363636" lon="11.2233801"><ele>298.5</ele><time>2026-05-02T12:38:49.974Z</time></trkpt><trkpt lat="43.6363515" lon="11.2232228"><ele>298.0</ele><time>2026-05-02T12:38:50.974Z</time></trkpt><trkpt lat="43.6363441" lon="11.2230598"><ele>297.75</ele><time>2026-05-02T12:38:51.974Z</time></trkpt><trkpt lat="43.6363423" lon="11.2228999"><ele>297.5</ele><time>2026-05-02T12:38:52.974Z</time></trkpt><trkpt lat="43.6363639" lon="11.2227387"><ele>297.25</ele><time>2026-05-02T12:38:53.974Z</time></trkpt><trkpt lat="43.6364182" lon="11.2225815"><ele>297.0</ele><time>2026-05-02T12:38:54.974Z</time></trkpt><trkpt lat="43.6365022" lon="11.2224365"><ele>297.4</ele><time>2026-05-02T12:38:55.974Z</time></trkpt><trkpt lat="43.6365836" lon="11.2223108"><ele>297.79999999999995</ele><time>2026-05-02T12:38:56.974Z</time></trkpt><trkpt lat="43.6366578" lon="11.2222089"><ele>298.2</ele><time>2026-05-02T12:38:57.974Z</time></trkpt><trkpt lat="43.6367235" lon="11.2221225"><ele>298.59999999999997</ele><time>2026-05-02T12:38:58.974Z</time></trkpt><trkpt lat="43.6367641" lon="11.222049"><ele>299.0</ele><time>2026-05-02T12:38:59.975Z</time></trkpt><trkpt lat="43.6367957" lon="11.2219217"><ele>299.0</ele><time>2026-05-02T12:39:01.974Z</time></trkpt><trkpt lat="43.6368071" lon="11.2218322"><ele>299.0</ele><time>2026-05-02T12:39:03.974Z</time></trkpt><trkpt lat="43.6368062" lon="11.2217408"><ele>299.0</ele><time>2026-05-02T12:39:07.974Z</time></trkpt><trkpt lat="43.6368085" lon="11.2216307"><ele>299.0</ele><time>2026-05-02T12:40:16.974Z</time></trkpt><trkpt lat="43.6368963" lon="11.2215879"><ele>299.0</ele><time>2026-05-02T12:42:52.974Z</time></trkpt><trkpt lat="43.6369623" lon="11.2216131"><ele>299.0</ele><time>2026-05-02T12:42:54.974Z</time></trkpt><trkpt lat="43.6369907" lon="11.2216973"><ele>299.0</ele><time>2026-05-02T12:42:58.974Z</time></trkpt><trkpt lat="43.6369445" lon="11.2217658"><ele>299.0</ele><time>2026-05-02T12:43:01.974Z</time></trkpt><trkpt lat="43.6368938" lon="11.2218578"><ele>299.0</ele><time>2026-05-02T12:43:03.974Z</time></trkpt><trkpt lat="43.6368499" lon="11.2219257"><ele>299.0</ele><time>2026-05-02T12:43:04.974Z</time></trkpt><trkpt lat="43.6368027" lon="11.2220009"><ele>299.0</ele><time>2026-05-02T12:43:05.975Z</time></trkpt><trkpt lat="43.6367481" lon="11.2220764"><ele>299.0</ele><time>2026-05-02T12:43:06.974Z</time></trkpt><trkpt lat="43.6366838" lon="11.2221624"><ele>299.0</ele><time>2026-05-02T12:43:07.974Z</time></trkpt><trkpt lat="43.6366184" lon="11.2222571"><ele>298.6666666666667</ele><time>2026-05-02T12:43:08.974Z</time></trkpt><trkpt lat="43.6365508" lon="11.2223536"><ele>298.33333333333337</ele><time>2026-05-02T12:43:09.974Z</time></trkpt><trkpt lat="43.6364988" lon="11.2224352"><ele>298.0</ele><time>2026-05-02T12:43:10.975Z</time></trkpt><trkpt lat="43.636455" lon="11.2225045"><ele>297.6666666666667</ele><time>2026-05-02T12:43:11.974Z</time></trkpt><trkpt lat="43.6363501" lon="11.222578"><ele>297.3333333333333</ele><time>2026-05-02T12:43:13.974Z</time></trkpt><trkpt lat="43.6362846" lon="11.2225595"><ele>297.0</ele><time>2026-05-02T12:43:14.975Z</time></trkpt><trkpt lat="43.6362312" lon="11.2225062"><ele>297.0</ele><time>2026-05-02T12:43:15.974Z</time></trkpt><trkpt lat="43.6361828" lon="11.2224359"><ele>297.0</ele><time>2026-05-02T12:43:16.974Z</time></trkpt><trkpt lat="43.6361324" lon="11.2223574"><ele>297.0</ele><time>2026-05-02T12:43:17.974Z</time></trkpt><trkpt lat="43.6360812" lon="11.2222826"><ele>297.0</ele><time>2026-05-02T12:43:18.974Z</time></trkpt><trkpt lat="43.6360337" lon="11.2222085"><ele>297.0</ele><time>2026-05-02T12:43:19.974Z</time></trkpt><trkpt lat="43.6359807" lon="11.2221352"><ele>297.0</ele><time>2026-05-02T12:43:20.974Z</time></trkpt><trkpt lat="43.6359207" lon="11.2220624"><ele>297.0</ele><time>2026-05-02T12:43:21.974Z</time></trkpt><trkpt lat="43.6358414" lon="11.221998"><ele>297.4</ele><time>2026-05-02T12:43:22.975Z</time></trkpt><trkpt lat="43.6357544" lon="11.2219463"><ele>297.79999999999995</ele><time>2026-05-02T12:43:23.974Z</time></trkpt><trkpt lat="43.6356648" lon="11.2219253"><ele>298.2</ele><time>2026-05-02T12:43:24.974Z</time></trkpt><trkpt lat="43.6355618" lon="11.221946"><ele>298.59999999999997</ele><time>2026-05-02T12:43:25.973Z</time></trkpt><trkpt lat="43.6354674" lon="11.2219984"><ele>299.0</ele><time>2026-05-02T12:43:26.973Z</time></trkpt><trkpt lat="43.6353664" lon="11.2220644"><ele>298.5</ele><time>2026-05-02T12:43:27.973Z</time></trkpt><trkpt lat="43.6352592" lon="11.222143"><ele>298.0</ele><time>2026-05-02T12:43:28.973Z</time></trkpt><trkpt lat="43.6351486" lon="11.2222183"><ele>297.5</ele><time>2026-05-02T12:43:29.973Z</time></trkpt><trkpt lat="43.6350319" lon="11.2222972"><ele>297.0</ele><time>2026-05-02T12:43:30.974Z</time></trkpt><trkpt lat="43.6349161" lon="11.2223652"><ele>295.75</ele><time>2026-05-02T12:43:31.973Z</time></trkpt><trkpt lat="43.6347983" lon="11.2224036"><ele>294.5</ele><time>2026-05-02T12:43:32.973Z</time></trkpt><trkpt lat="43.6346734" lon="11.2224013"><ele>293.25</ele><time>2026-05-02T12:43:33.974Z</time></trkpt><trkpt lat="43.6345461" lon="11.2223698"><ele>292.0</ele><time>2026-05-02T12:43:34.973Z</time></trkpt><trkpt lat="43.6344112" lon="11.222304"><ele>292.0</ele><time>2026-05-02T12:43:35.973Z</time></trkpt><trkpt lat="43.6342715" lon="11.2222304"><ele>292.0</ele><time>2026-05-02T12:43:36.973Z</time></trkpt><trkpt lat="43.634129" lon="11.2221578"><ele>292.0</ele><time>2026-05-02T12:43:37.973Z</time></trkpt><trkpt lat="43.6339871" lon="11.2220935"><ele>292.0</ele><time>2026-05-02T12:43:38.973Z</time></trkpt><trkpt lat="43.633846" lon="11.2220303"><ele>292.0</ele><time>2026-05-02T12:43:39.974Z</time></trkpt><trkpt lat="43.6337032" lon="11.2219681"><ele>292.0</ele><time>2026-05-02T12:43:40.973Z</time></trkpt><trkpt lat="43.6335814" lon="11.2219236"><ele>292.0</ele><time>2026-05-02T12:43:41.973Z</time></trkpt><trkpt lat="43.6334356" lon="11.2218619"><ele>287.66666666666663</ele><time>2026-05-02T12:43:42.973Z</time></trkpt><trkpt lat="43.6332905" lon="11.2218033"><ele>283.3333333333333</ele><time>2026-05-02T12:43:43.974Z</time></trkpt><trkpt lat="43.6331403" lon="11.2217436"><ele>279.0</ele><time>2026-05-02T12:43:44.973Z</time></trkpt><trkpt lat="43.6329864" lon="11.2216972"><ele>279.0</ele><time>2026-05-02T12:43:45.973Z</time></trkpt><trkpt lat="43.6328361" lon="11.2216483"><ele>279.0</ele><time>2026-05-02T12:43:46.973Z</time></trkpt><trkpt lat="43.6326849" lon="11.2216021"><ele>279.0</ele><time>2026-05-02T12:43:47.973Z</time></trkpt><trkpt lat="43.6325301" lon="11.2215507"><ele>278.6666666666667</ele><time>2026-05-02T12:43:48.973Z</time></trkpt><trkpt lat="43.6323781" lon="11.2215075"><ele>278.33333333333337</ele><time>2026-05-02T12:43:49.973Z</time></trkpt><trkpt lat="43.6322181" lon="11.2214648"><ele>278.0</ele><time>2026-05-02T12:43:50.973Z</time></trkpt><trkpt lat="43.6320542" lon="11.2214253"><ele>274.6666666666667</ele><time>2026-05-02T12:43:51.973Z</time></trkpt><trkpt lat="43.6318937" lon="11.2213875"><ele>271.3333333333333</ele><time>2026-05-02T12:43:52.973Z</time></trkpt><trkpt lat="43.6317271" lon="11.2213522"><ele>268.0</ele><time>2026-05-02T12:43:53.973Z</time></trkpt><trkpt lat="43.6315655" lon="11.2213139"><ele>268.0</ele><time>2026-05-02T12:43:54.973Z</time></trkpt><trkpt lat="43.6314029" lon="11.2212809"><ele>268.0</ele><time>2026-05-02T12:43:55.973Z</time></trkpt><trkpt lat="43.6312457" lon="11.2212448"><ele>268.0</ele><time>2026-05-02T12:43:56.973Z</time></trkpt><trkpt lat="43.6310817" lon="11.2212268"><ele>265.0</ele><time>2026-05-02T12:43:57.973Z</time></trkpt><trkpt lat="43.6309206" lon="11.221207"><ele>262.0</ele><time>2026-05-02T12:43:58.973Z</time></trkpt><trkpt lat="43.6307839" lon="11.2211865"><ele>259.0</ele><time>2026-05-02T12:43:59.973Z</time></trkpt><trkpt lat="43.6306416" lon="11.2211596"><ele>256.0</ele><time>2026-05-02T12:44:00.973Z</time></trkpt><trkpt lat="43.6304985" lon="11.2211502"><ele>256.0</ele><time>2026-05-02T12:44:01.973Z</time></trkpt><trkpt lat="43.6303534" lon="11.221116"><ele>256.0</ele><time>2026-05-02T12:44:02.973Z</time></trkpt><trkpt lat="43.6302003" lon="11.2211026"><ele>256.0</ele><time>2026-05-02T12:44:03.973Z</time></trkpt><trkpt lat="43.6300507" lon="11.2210906"><ele>250.66666666666666</ele><time>2026-05-02T12:44:04.973Z</time></trkpt><trkpt lat="43.6298986" lon="11.2210746"><ele>245.33333333333331</ele><time>2026-05-02T12:44:05.973Z</time></trkpt><trkpt lat="43.629745" lon="11.22107"><ele>240.0</ele><time>2026-05-02T12:44:06.973Z</time></trkpt><trkpt lat="43.6295897" lon="11.2210735"><ele>234.33333333333331</ele><time>2026-05-02T12:44:07.973Z</time></trkpt><trkpt lat="43.6294363" lon="11.221095"><ele>228.66666666666666</ele><time>2026-05-02T12:44:08.973Z</time></trkpt><trkpt lat="43.6292854" lon="11.2211356"><ele>223.0</ele><time>2026-05-02T12:44:09.973Z</time></trkpt><trkpt lat="43.6291396" lon="11.221175"><ele>223.0</ele><time>2026-05-02T12:44:10.973Z</time></trkpt><trkpt lat="43.6290014" lon="11.2212168"><ele>223.0</ele><time>2026-05-02T12:44:11.973Z</time></trkpt><trkpt lat="43.6288698" lon="11.2212566"><ele>223.0</ele><time>2026-05-02T12:44:12.973Z</time></trkpt><trkpt lat="43.6287285" lon="11.2212743"><ele>223.0</ele><time>2026-05-02T12:44:13.973Z</time></trkpt><trkpt lat="43.6285956" lon="11.2212813"><ele>218.25</ele><time>2026-05-02T12:44:14.973Z</time></trkpt><trkpt lat="43.6284711" lon="11.2212651"><ele>213.5</ele><time>2026-05-02T12:44:15.974Z</time></trkpt><trkpt lat="43.6283527" lon="11.2212206"><ele>208.75</ele><time>2026-05-02T12:44:16.973Z</time></trkpt><trkpt lat="43.6282466" lon="11.2211435"><ele>204.0</ele><time>2026-05-02T12:44:17.973Z</time></trkpt><trkpt lat="43.6281541" lon="11.221034"><ele>204.0</ele><time>2026-05-02T12:44:18.973Z</time></trkpt><trkpt lat="43.6280788" lon="11.2208974"><ele>204.0</ele><time>2026-05-02T12:44:19.973Z</time></trkpt><trkpt lat="43.6280186" lon="11.2207478"><ele>204.0</ele><time>2026-05-02T12:44:20.973Z</time></trkpt><trkpt lat="43.6279817" lon="11.2205774"><ele>204.0</ele><time>2026-05-02T12:44:21.973Z</time></trkpt><trkpt lat="43.6279509" lon="11.2204099"><ele>203.83333333333334</ele><time>2026-05-02T12:44:22.973Z</time></trkpt><trkpt lat="43.6279133" lon="11.2202622"><ele>203.66666666666669</ele><time>2026-05-02T12:44:23.973Z</time></trkpt><trkpt lat="43.6278822" lon="11.2201287"><ele>203.5</ele><time>2026-05-02T12:44:24.973Z</time></trkpt><trkpt lat="43.6278503" lon="11.2200145"><ele>203.33333333333334</ele><time>2026-05-02T12:44:25.973Z</time></trkpt><trkpt lat="43.6278172" lon="11.2199194"><ele>203.16666666666669</ele><time>2026-05-02T12:44:26.973Z</time></trkpt><trkpt lat="43.6277879" lon="11.2198392"><ele>203.0</ele><time>2026-05-02T12:44:27.973Z</time></trkpt><trkpt lat="43.6277416" lon="11.2196734"><ele>201.83333333333334</ele><time>2026-05-02T12:44:29.973Z</time></trkpt><trkpt lat="43.6277214" lon="11.2195713"><ele>200.66666666666669</ele><time>2026-05-02T12:44:30.973Z</time></trkpt><trkpt lat="43.627705" lon="11.2194697"><ele>199.5</ele><time>2026-05-02T12:44:31.973Z</time></trkpt><trkpt lat="43.6276966" lon="11.2193822"><ele>198.33333333333331</ele><time>2026-05-02T12:44:32.973Z</time></trkpt><trkpt lat="43.6276885" lon="11.2192373"><ele>197.16666666666666</ele><time>2026-05-02T12:44:34.973Z</time></trkpt><trkpt lat="43.6276697" lon="11.2191075"><ele>196.0</ele><time>2026-05-02T12:44:36.973Z</time></trkpt><trkpt lat="43.627647" lon="11.2189957"><ele>195.83333333333331</ele><time>2026-05-02T12:44:38.973Z</time></trkpt><trkpt lat="43.6276285" lon="11.2188912"><ele>195.66666666666666</ele><time>2026-05-02T12:44:46.974Z</time></trkpt><trkpt lat="43.6276126" lon="11.2187692"><ele>195.5</ele><time>2026-05-02T12:44:49.973Z</time></trkpt><trkpt lat="43.6276335" lon="11.2186078"><ele>195.33333333333331</ele><time>2026-05-02T12:44:51.973Z</time></trkpt><trkpt lat="43.6276556" lon="11.2185243"><ele>195.16666666666666</ele><time>2026-05-02T12:44:52.973Z</time></trkpt><trkpt lat="43.6276914" lon="11.2184421"><ele>195.0</ele><time>2026-05-02T12:44:53.974Z</time></trkpt><trkpt lat="43.6277456" lon="11.2183514"><ele>194.8</ele><time>2026-05-02T12:44:54.973Z</time></trkpt><trkpt lat="43.6278103" lon="11.2182525"><ele>194.6</ele><time>2026-05-02T12:44:55.974Z</time></trkpt><trkpt lat="43.6278683" lon="11.2181397"><ele>194.39999999999998</ele><time>2026-05-02T12:44:56.973Z</time></trkpt><trkpt lat="43.6279197" lon="11.2180409"><ele>194.2</ele><time>2026-05-02T12:44:57.973Z</time></trkpt><trkpt lat="43.6279978" lon="11.2178694"><ele>194.0</ele><time>2026-05-02T12:44:59.973Z</time></trkpt><trkpt lat="43.6280467" lon="11.2177777"><ele>193.6</ele><time>2026-05-02T12:45:00.973Z</time></trkpt><trkpt lat="43.6281194" lon="11.2176728"><ele>193.2</ele><time>2026-05-02T12:45:01.973Z</time></trkpt><trkpt lat="43.6281736" lon="11.2175765"><ele>192.79999999999998</ele><time>2026-05-02T12:45:02.974Z</time></trkpt><trkpt lat="43.6282366" lon="11.2174843"><ele>192.39999999999998</ele><time>2026-05-02T12:45:03.973Z</time></trkpt><trkpt lat="43.628298" lon="11.2173884"><ele>192.0</ele><time>2026-05-02T12:45:04.973Z</time></trkpt><trkpt lat="43.6283596" lon="11.2172861"><ele>191.39999999999998</ele><time>2026-05-02T12:45:05.974Z</time></trkpt><trkpt lat="43.628421" lon="11.2171807"><ele>190.79999999999998</ele><time>2026-05-02T12:45:06.973Z</time></trkpt><trkpt lat="43.6284826" lon="11.2170794"><ele>190.2</ele><time>2026-05-02T12:45:07.973Z</time></trkpt><trkpt lat="43.628548" lon="11.2169705"><ele>189.6</ele><time>2026-05-02T12:45:08.973Z</time></trkpt><trkpt lat="43.6286109" lon="11.2168753"><ele>189.0</ele><time>2026-05-02T12:45:09.973Z</time></trkpt><trkpt lat="43.6286696" lon="11.2167791"><ele>189.0</ele><time>2026-05-02T12:45:10.973Z</time></trkpt><trkpt lat="43.6287214" lon="11.2166953"><ele>189.0</ele><time>2026-05-02T12:45:11.973Z</time></trkpt><trkpt lat="43.6287723" lon="11.2166083"><ele>189.0</ele><time>2026-05-02T12:45:12.973Z</time></trkpt><trkpt lat="43.6288272" lon="11.2165224"><ele>189.0</ele><time>2026-05-02T12:45:13.973Z</time></trkpt><trkpt lat="43.6288791" lon="11.2164365"><ele>189.0</ele><time>2026-05-02T12:45:14.973Z</time></trkpt><trkpt lat="43.6289338" lon="11.2163527"><ele>189.0</ele><time>2026-05-02T12:45:15.973Z</time></trkpt><trkpt lat="43.6289912" lon="11.2162717"><ele>189.39999999999998</ele><time>2026-05-02T12:45:16.973Z</time></trkpt><trkpt lat="43.6290615" lon="11.2161913"><ele>189.8</ele><time>2026-05-02T12:45:17.973Z</time></trkpt><trkpt lat="43.6291401" lon="11.2161121"><ele>190.2</ele><time>2026-05-02T12:45:18.973Z</time></trkpt><trkpt lat="43.629227" lon="11.2160389"><ele>190.60000000000002</ele><time>2026-05-02T12:45:19.973Z</time></trkpt><trkpt lat="43.629308" lon="11.2159765"><ele>191.0</ele><time>2026-05-02T12:45:20.973Z</time></trkpt><trkpt lat="43.6293807" lon="11.215927"><ele>191.0</ele><time>2026-05-02T12:45:21.973Z</time></trkpt><trkpt lat="43.6294483" lon="11.215878"><ele>191.0</ele><time>2026-05-02T12:45:22.974Z</time></trkpt><trkpt lat="43.6295028" lon="11.21583"><ele>191.0</ele><time>2026-05-02T12:45:23.973Z</time></trkpt><trkpt lat="43.6295638" lon="11.2157491"><ele>191.0</ele><time>2026-05-02T12:45:24.974Z</time></trkpt><trkpt lat="43.6296261" lon="11.2156627"><ele>191.0</ele><time>2026-05-02T12:45:25.973Z</time></trkpt><trkpt lat="43.6296815" lon="11.2155637"><ele>191.0</ele><time>2026-05-02T12:45:26.973Z</time></trkpt><trkpt lat="43.6297349" lon="11.21546"><ele>190.4</ele><time>2026-05-02T12:45:27.973Z</time></trkpt><trkpt lat="43.629792" lon="11.2153632"><ele>189.8</ele><time>2026-05-02T12:45:28.973Z</time></trkpt><trkpt lat="43.6298597" lon="11.215259"><ele>189.20000000000002</ele><time>2026-05-02T12:45:29.973Z</time></trkpt><trkpt lat="43.629928" lon="11.2151484"><ele>188.60000000000002</ele><time>2026-05-02T12:45:30.973Z</time></trkpt><trkpt lat="43.6299901" lon="11.2150401"><ele>188.0</ele><time>2026-05-02T12:45:31.974Z</time></trkpt><trkpt lat="43.6300487" lon="11.2149406"><ele>188.0</ele><time>2026-05-02T12:45:32.973Z</time></trkpt><trkpt lat="43.6301047" lon="11.2148514"><ele>188.0</ele><time>2026-05-02T12:45:33.973Z</time></trkpt><trkpt lat="43.6301589" lon="11.2147628"><ele>188.0</ele><time>2026-05-02T12:45:34.973Z</time></trkpt><trkpt lat="43.6302132" lon="11.2146648"><ele>188.0</ele><time>2026-05-02T12:45:35.973Z</time></trkpt><trkpt lat="43.6302632" lon="11.2145686"><ele>188.0</ele><time>2026-05-02T12:45:36.973Z</time></trkpt><trkpt lat="43.6303071" lon="11.2144771"><ele>188.0</ele><time>2026-05-02T12:45:37.973Z</time></trkpt><trkpt lat="43.6303436" lon="11.2143889"><ele>188.0</ele><time>2026-05-02T12:45:38.973Z</time></trkpt><trkpt lat="43.6303797" lon="11.2142876"><ele>188.0</ele><time>2026-05-02T12:45:39.973Z</time></trkpt><trkpt lat="43.6304093" lon="11.2141918"><ele>188.0</ele><time>2026-05-02T12:45:40.973Z</time></trkpt><trkpt lat="43.6304374" lon="11.2141001"><ele>188.0</ele><time>2026-05-02T12:45:41.973Z</time></trkpt><trkpt lat="43.6304629" lon="11.2139991"><ele>188.0</ele><time>2026-05-02T12:45:42.973Z</time></trkpt><trkpt lat="43.6304781" lon="11.2138817"><ele>188.0</ele><time>2026-05-02T12:45:43.973Z</time></trkpt><trkpt lat="43.6304933" lon="11.2137671"><ele>188.0</ele><time>2026-05-02T12:45:44.973Z</time></trkpt><trkpt lat="43.6305078" lon="11.2136593"><ele>188.0</ele><time>2026-05-02T12:45:45.973Z</time></trkpt><trkpt lat="43.6305264" lon="11.2135612"><ele>188.0</ele><time>2026-05-02T12:45:46.973Z</time></trkpt><trkpt lat="43.6305482" lon="11.2134752"><ele>188.0</ele><time>2026-05-02T12:45:47.973Z</time></trkpt><trkpt lat="43.6305728" lon="11.213392"><ele>188.0</ele><time>2026-05-02T12:45:48.973Z</time></trkpt><trkpt lat="43.630612" lon="11.2133115"><ele>188.0</ele><time>2026-05-02T12:45:49.973Z</time></trkpt><trkpt lat="43.63066" lon="11.2132421"><ele>188.0</ele><time>2026-05-02T12:45:50.974Z</time></trkpt><trkpt lat="43.6307108" lon="11.2131787"><ele>188.2</ele><time>2026-05-02T12:45:51.973Z</time></trkpt><trkpt lat="43.6307695" lon="11.2131035"><ele>188.4</ele><time>2026-05-02T12:45:52.973Z</time></trkpt><trkpt lat="43.6308509" lon="11.2130513"><ele>188.6</ele><time>2026-05-02T12:45:53.973Z</time></trkpt><trkpt lat="43.6309402" lon="11.2129926"><ele>188.79999999999998</ele><time>2026-05-02T12:45:54.973Z</time></trkpt><trkpt lat="43.6310359" lon="11.2129275"><ele>189.0</ele><time>2026-05-02T12:45:55.973Z</time></trkpt><trkpt lat="43.6311171" lon="11.2128654"><ele>188.79999999999998</ele><time>2026-05-02T12:45:56.973Z</time></trkpt><trkpt lat="43.631194" lon="11.2128193"><ele>188.6</ele><time>2026-05-02T12:45:57.973Z</time></trkpt><trkpt lat="43.6312608" lon="11.2127865"><ele>188.4</ele><time>2026-05-02T12:45:58.973Z</time></trkpt><trkpt lat="43.6313638" lon="11.2126984"><ele>188.2</ele><time>2026-05-02T12:46:00.973Z</time></trkpt><trkpt lat="43.631425" lon="11.212577"><ele>188.0</ele><time>2026-05-02T12:46:02.973Z</time></trkpt><trkpt lat="43.6314303" lon="11.2124368"><ele>187.2</ele><time>2026-05-02T12:46:04.973Z</time></trkpt><trkpt lat="43.6313388" lon="11.2123202"><ele>186.4</ele><time>2026-05-02T12:46:06.973Z</time></trkpt><trkpt lat="43.6312803" lon="11.2122651"><ele>185.6</ele><time>2026-05-02T12:46:07.973Z</time></trkpt><trkpt lat="43.6312244" lon="11.2122085"><ele>184.79999999999998</ele><time>2026-05-02T12:46:08.973Z</time></trkpt><trkpt lat="43.6311641" lon="11.212084"><ele>184.0</ele><time>2026-05-02T12:46:10.973Z</time></trkpt><trkpt lat="43.6311516" lon="11.2119698"><ele>184.0</ele><time>2026-05-02T12:46:12.973Z</time></trkpt><trkpt lat="43.6311732" lon="11.2118219"><ele>184.0</ele><time>2026-05-02T12:46:14.973Z</time></trkpt><trkpt lat="43.6312031" lon="11.2117266"><ele>184.0</ele><time>2026-05-02T12:46:15.973Z</time></trkpt><trkpt lat="43.6312468" lon="11.2116152"><ele>184.0</ele><time>2026-05-02T12:46:16.973Z</time></trkpt><trkpt lat="43.6313047" lon="11.211485"><ele>184.0</ele><time>2026-05-02T12:46:17.973Z</time></trkpt><trkpt lat="43.6313669" lon="11.2113494"><ele>183.75</ele><time>2026-05-02T12:46:18.973Z</time></trkpt><trkpt lat="43.6314381" lon="11.211208"><ele>183.5</ele><time>2026-05-02T12:46:19.973Z</time></trkpt><trkpt lat="43.6315112" lon="11.2110717"><ele>183.25</ele><time>2026-05-02T12:46:20.973Z</time></trkpt><trkpt lat="43.6315925" lon="11.2109517"><ele>183.0</ele><time>2026-05-02T12:46:21.973Z</time></trkpt><trkpt lat="43.6316774" lon="11.2108446"><ele>183.0</ele><time>2026-05-02T12:46:22.973Z</time></trkpt><trkpt lat="43.6317364" lon="11.2107514"><ele>183.0</ele><time>2026-05-02T12:46:23.973Z</time></trkpt><trkpt lat="43.6318085" lon="11.2106549"><ele>183.0</ele><time>2026-05-02T12:46:24.974Z</time></trkpt><trkpt lat="43.6318759" lon="11.2105569"><ele>183.0</ele><time>2026-05-02T12:46:25.973Z</time></trkpt><trkpt lat="43.6319309" lon="11.2104652"><ele>183.0</ele><time>2026-05-02T12:46:26.973Z</time></trkpt><trkpt lat="43.6319851" lon="11.2103886"><ele>182.2</ele><time>2026-05-02T12:46:27.973Z</time></trkpt><trkpt lat="43.6320373" lon="11.2103176"><ele>181.4</ele><time>2026-05-02T12:46:28.973Z</time></trkpt><trkpt lat="43.6320847" lon="11.2102565"><ele>180.6</ele><time>2026-05-02T12:46:29.973Z</time></trkpt><trkpt lat="43.632162" lon="11.2101492"><ele>179.79999999999998</ele><time>2026-05-02T12:46:31.973Z</time></trkpt><trkpt lat="43.6322387" lon="11.210045"><ele>179.0</ele><time>2026-05-02T12:46:33.973Z</time></trkpt><trkpt lat="43.6322828" lon="11.2099198"><ele>178.33333333333331</ele><time>2026-05-02T12:46:35.974Z</time></trkpt><trkpt lat="43.6322383" lon="11.2097693"><ele>177.66666666666666</ele><time>2026-05-02T12:46:37.973Z</time></trkpt><trkpt lat="43.6321778" lon="11.2096878"><ele>177.0</ele><time>2026-05-02T12:46:38.973Z</time></trkpt><trkpt lat="43.6321124" lon="11.2096167"><ele>176.33333333333334</ele><time>2026-05-02T12:46:39.974Z</time></trkpt><trkpt lat="43.6320476" lon="11.2095616"><ele>175.66666666666669</ele><time>2026-05-02T12:46:40.973Z</time></trkpt><trkpt lat="43.6319909" lon="11.2095126"><ele>175.0</ele><time>2026-05-02T12:46:41.973Z</time></trkpt><trkpt lat="43.6319313" lon="11.2094558"><ele>175.5</ele><time>2026-05-02T12:46:42.973Z</time></trkpt><trkpt lat="43.6318792" lon="11.2094011"><ele>176.0</ele><time>2026-05-02T12:46:43.973Z</time></trkpt><trkpt lat="43.6318213" lon="11.2092801"><ele>176.5</ele><time>2026-05-02T12:46:45.973Z</time></trkpt><trkpt lat="43.6318506" lon="11.2091415"><ele>177.0</ele><time>2026-05-02T12:46:47.973Z</time></trkpt><trkpt lat="43.6318922" lon="11.2090601"><ele>177.5</ele><time>2026-05-02T12:46:48.974Z</time></trkpt><trkpt lat="43.6319538" lon="11.2089614"><ele>178.0</ele><time>2026-05-02T12:46:49.973Z</time></trkpt><trkpt lat="43.632033" lon="11.2088791"><ele>178.0</ele><time>2026-05-02T12:46:50.973Z</time></trkpt><trkpt lat="43.6321013" lon="11.2087884"><ele>178.0</ele><time>2026-05-02T12:46:51.973Z</time></trkpt><trkpt lat="43.6321642" lon="11.2087169"><ele>178.0</ele><time>2026-05-02T12:46:52.973Z</time></trkpt><trkpt lat="43.6322361" lon="11.2086584"><ele>178.0</ele><time>2026-05-02T12:46:53.973Z</time></trkpt><trkpt lat="43.6323247" lon="11.208605"><ele>178.0</ele><time>2026-05-02T12:46:54.973Z</time></trkpt><trkpt lat="43.6324128" lon="11.2085345"><ele>178.0</ele><time>2026-05-02T12:46:55.973Z</time></trkpt><trkpt lat="43.6325049" lon="11.2084436"><ele>178.0</ele><time>2026-05-02T12:46:56.973Z</time></trkpt><trkpt lat="43.6325955" lon="11.2083574"><ele>178.0</ele><time>2026-05-02T12:46:57.973Z</time></trkpt><trkpt lat="43.632679" lon="11.2082677"><ele>178.0</ele><time>2026-05-02T12:46:58.974Z</time></trkpt><trkpt lat="43.6327497" lon="11.2081937"><ele>178.0</ele><time>2026-05-02T12:46:59.973Z</time></trkpt><trkpt lat="43.6328106" lon="11.2081392"><ele>177.7142857142857</ele><time>2026-05-02T12:47:00.973Z</time></trkpt><trkpt lat="43.6328608" lon="11.208075"><ele>177.42857142857142</ele><time>2026-05-02T12:47:01.973Z</time></trkpt><trkpt lat="43.6329185" lon="11.2079948"><ele>177.14285714285714</ele><time>2026-05-02T12:47:02.973Z</time></trkpt><trkpt lat="43.6329507" lon="11.2079178"><ele>176.85714285714283</ele><time>2026-05-02T12:47:03.973Z</time></trkpt><trkpt lat="43.6329477" lon="11.207827"><ele>176.57142857142856</ele><time>2026-05-02T12:47:04.974Z</time></trkpt><trkpt lat="43.6329178" lon="11.2077294"><ele>176.28571428571428</ele><time>2026-05-02T12:47:05.973Z</time></trkpt><trkpt lat="43.6328899" lon="11.2076334"><ele>176.0</ele><time>2026-05-02T12:47:06.974Z</time></trkpt><trkpt lat="43.6328694" lon="11.2075462"><ele>176.0</ele><time>2026-05-02T12:47:07.973Z</time></trkpt><trkpt lat="43.6328396" lon="11.2074639"><ele>176.0</ele><time>2026-05-02T12:47:08.973Z</time></trkpt><trkpt lat="43.6328109" lon="11.2073848"><ele>176.0</ele><time>2026-05-02T12:47:09.973Z</time></trkpt><trkpt lat="43.6327841" lon="11.2072172"><ele>176.0</ele><time>2026-05-02T12:47:11.973Z</time></trkpt><trkpt lat="43.6327861" lon="11.2070521"><ele>176.0</ele><time>2026-05-02T12:47:13.973Z</time></trkpt><trkpt lat="43.6328014" lon="11.2069474"><ele>175.60000000000002</ele><time>2026-05-02T12:47:14.973Z</time></trkpt><trkpt lat="43.6328293" lon="11.2068274"><ele>175.2</ele><time>2026-05-02T12:47:15.973Z</time></trkpt><trkpt lat="43.6328738" lon="11.2067148"><ele>174.8</ele><time>2026-05-02T12:47:16.974Z</time></trkpt><trkpt lat="43.6329245" lon="11.2066082"><ele>174.39999999999998</ele><time>2026-05-02T12:47:17.973Z</time></trkpt><trkpt lat="43.6329813" lon="11.2064975"><ele>174.0</ele><time>2026-05-02T12:47:18.973Z</time></trkpt><trkpt lat="43.6330413" lon="11.2063715"><ele>173.25</ele><time>2026-05-02T12:47:19.973Z</time></trkpt><trkpt lat="43.633085" lon="11.2062258"><ele>172.5</ele><time>2026-05-02T12:47:20.973Z</time></trkpt><trkpt lat="43.6331224" lon="11.2060596"><ele>171.75</ele><time>2026-05-02T12:47:21.973Z</time></trkpt><trkpt lat="43.6331556" lon="11.2058959"><ele>171.0</ele><time>2026-05-02T12:47:22.973Z</time></trkpt><trkpt lat="43.6331978" lon="11.2057479"><ele>171.60000000000002</ele><time>2026-05-02T12:47:23.973Z</time></trkpt><trkpt lat="43.6332408" lon="11.2056096"><ele>172.2</ele><time>2026-05-02T12:47:24.973Z</time></trkpt><trkpt lat="43.6332804" lon="11.2054776"><ele>172.8</ele><time>2026-05-02T12:47:25.973Z</time></trkpt><trkpt lat="43.6333216" lon="11.2053562"><ele>173.39999999999998</ele><time>2026-05-02T12:47:26.973Z</time></trkpt><trkpt lat="43.6333637" lon="11.205251"><ele>174.0</ele><time>2026-05-02T12:47:27.973Z</time></trkpt><trkpt lat="43.6334153" lon="11.2051539"><ele>174.0</ele><time>2026-05-02T12:47:28.973Z</time></trkpt><trkpt lat="43.6334612" lon="11.2050743"><ele>174.0</ele><time>2026-05-02T12:47:29.974Z</time></trkpt><trkpt lat="43.6335034" lon="11.2049949"><ele>174.0</ele><time>2026-05-02T12:47:30.973Z</time></trkpt><trkpt lat="43.6335682" lon="11.2048582"><ele>174.0</ele><time>2026-05-02T12:47:32.974Z</time></trkpt><trkpt lat="43.6335964" lon="11.2047741"><ele>174.0</ele><time>2026-05-02T12:47:33.974Z</time></trkpt><trkpt lat="43.6336284" lon="11.2046729"><ele>174.0</ele><time>2026-05-02T12:47:34.973Z</time></trkpt><trkpt lat="43.633671" lon="11.2045504"><ele>172.79999999999998</ele><time>2026-05-02T12:47:35.973Z</time></trkpt><trkpt lat="43.6337164" lon="11.2044199"><ele>171.6</ele><time>2026-05-02T12:47:36.973Z</time></trkpt><trkpt lat="43.6337509" lon="11.2042854"><ele>170.4</ele><time>2026-05-02T12:47:37.973Z</time></trkpt><trkpt lat="43.6337889" lon="11.2041505"><ele>169.2</ele><time>2026-05-02T12:47:38.974Z</time></trkpt><trkpt lat="43.6338245" lon="11.2040249"><ele>168.0</ele><time>2026-05-02T12:47:39.973Z</time></trkpt><trkpt lat="43.6338533" lon="11.2039036"><ele>168.0</ele><time>2026-05-02T12:47:40.973Z</time></trkpt><trkpt lat="43.6338881" lon="11.2037885"><ele>168.0</ele><time>2026-05-02T12:47:41.973Z</time></trkpt><trkpt lat="43.6339225" lon="11.2036752"><ele>168.0</ele><time>2026-05-02T12:47:42.974Z</time></trkpt><trkpt lat="43.6339592" lon="11.2035727"><ele>168.0</ele><time>2026-05-02T12:47:43.973Z</time></trkpt><trkpt lat="43.6339922" lon="11.2034819"><ele>168.0</ele><time>2026-05-02T12:47:44.974Z</time></trkpt><trkpt lat="43.6340666" lon="11.2033553"><ele>168.0</ele><time>2026-05-02T12:47:46.973Z</time></trkpt><trkpt lat="43.6341364" lon="11.2032703"><ele>168.0</ele><time>2026-05-02T12:47:48.973Z</time></trkpt><trkpt lat="43.6342035" lon="11.2031816"><ele>168.0</ele><time>2026-05-02T12:47:50.973Z</time></trkpt><trkpt lat="43.6342644" lon="11.2030512"><ele>168.0</ele><time>2026-05-02T12:47:52.973Z</time></trkpt><trkpt lat="43.6342794" lon="11.2029659"><ele>168.0</ele><time>2026-05-02T12:47:53.973Z</time></trkpt><trkpt lat="43.6342772" lon="11.2028703"><ele>168.0</ele><time>2026-05-02T12:47:54.973Z</time></trkpt><trkpt lat="43.6342418" lon="11.2027661"><ele>168.0</ele><time>2026-05-02T12:47:55.973Z</time></trkpt><trkpt lat="43.6341868" lon="11.2026734"><ele>168.0</ele><time>2026-05-02T12:47:56.974Z</time></trkpt><trkpt lat="43.6341288" lon="11.2025909"><ele>168.0</ele><time>2026-05-02T12:47:57.974Z</time></trkpt><trkpt lat="43.6340812" lon="11.2025217"><ele>168.0</ele><time>2026-05-02T12:47:58.973Z</time></trkpt><trkpt lat="43.6340491" lon="11.2024412"><ele>168.0</ele><time>2026-05-02T12:47:59.973Z</time></trkpt><trkpt lat="43.6340453" lon="11.2022636"><ele>168.0</ele><time>2026-05-02T12:48:01.973Z</time></trkpt><trkpt lat="43.6340717" lon="11.2021771"><ele>167.66666666666666</ele><time>2026-05-02T12:48:02.974Z</time></trkpt><trkpt lat="43.6341084" lon="11.2020792"><ele>167.33333333333334</ele><time>2026-05-02T12:48:03.973Z</time></trkpt><trkpt lat="43.6341497" lon="11.2019775"><ele>167.0</ele><time>2026-05-02T12:48:04.973Z</time></trkpt><trkpt lat="43.6341892" lon="11.2018832"><ele>166.66666666666669</ele><time>2026-05-02T12:48:05.973Z</time></trkpt><trkpt lat="43.634227" lon="11.2017956"><ele>166.33333333333334</ele><time>2026-05-02T12:48:06.973Z</time></trkpt><trkpt lat="43.6342611" lon="11.2017171"><ele>166.0</ele><time>2026-05-02T12:48:07.974Z</time></trkpt><trkpt lat="43.634295" lon="11.2016378"><ele>166.0</ele><time>2026-05-02T12:48:08.973Z</time></trkpt><trkpt lat="43.6343316" lon="11.2015536"><ele>166.0</ele><time>2026-05-02T12:48:09.973Z</time></trkpt><trkpt lat="43.63437" lon="11.2014736"><ele>166.0</ele><time>2026-05-02T12:48:10.973Z</time></trkpt><trkpt lat="43.6344076" lon="11.2013977"><ele>166.0</ele><time>2026-05-02T12:48:11.973Z</time></trkpt><trkpt lat="43.6344467" lon="11.2013226"><ele>166.0</ele><time>2026-05-02T12:48:12.973Z</time></trkpt><trkpt lat="43.6344917" lon="11.2012423"><ele>166.0</ele><time>2026-05-02T12:48:13.972Z</time></trkpt><trkpt lat="43.6345314" lon="11.20116"><ele>166.0</ele><time>2026-05-02T12:48:14.972Z</time></trkpt><trkpt lat="43.6345742" lon="11.2010792"><ele>165.42857142857142</ele><time>2026-05-02T12:48:15.972Z</time></trkpt><trkpt lat="43.6345987" lon="11.2009905"><ele>164.85714285714286</ele><time>2026-05-02T12:48:16.972Z</time></trkpt><trkpt lat="43.6346322" lon="11.2009087"><ele>164.28571428571428</ele><time>2026-05-02T12:48:17.973Z</time></trkpt><trkpt lat="43.6346629" lon="11.2008126"><ele>163.71428571428572</ele><time>2026-05-02T12:48:18.972Z</time></trkpt><trkpt lat="43.6346845" lon="11.2007165"><ele>163.14285714285714</ele><time>2026-05-02T12:48:19.972Z</time></trkpt><trkpt lat="43.6347021" lon="11.2006151"><ele>162.57142857142858</ele><time>2026-05-02T12:48:20.972Z</time></trkpt><trkpt lat="43.6347108" lon="11.2005056"><ele>162.0</ele><time>2026-05-02T12:48:21.973Z</time></trkpt><trkpt lat="43.6347101" lon="11.2003899"><ele>162.0</ele><time>2026-05-02T12:48:22.972Z</time></trkpt><trkpt lat="43.6346975" lon="11.2002806"><ele>162.0</ele><time>2026-05-02T12:48:23.972Z</time></trkpt><trkpt lat="43.6346722" lon="11.2001788"><ele>162.0</ele><time>2026-05-02T12:48:24.973Z</time></trkpt><trkpt lat="43.6346373" lon="11.2000875"><ele>162.0</ele><time>2026-05-02T12:48:25.972Z</time></trkpt><trkpt lat="43.6345943" lon="11.200017"><ele>162.0</ele><time>2026-05-02T12:48:26.972Z</time></trkpt><trkpt lat="43.6345262" lon="11.1998952"><ele>162.0</ele><time>2026-05-02T12:48:28.972Z</time></trkpt><trkpt lat="43.6344997" lon="11.1997787"><ele>161.66666666666666</ele><time>2026-05-02T12:48:30.972Z</time></trkpt><trkpt lat="43.6344826" lon="11.1996945"><ele>161.33333333333334</ele><time>2026-05-02T12:48:32.972Z</time></trkpt><trkpt lat="43.6345064" lon="11.1995885"><ele>161.0</ele><time>2026-05-02T12:48:47.972Z</time></trkpt><trkpt lat="43.6345096" lon="11.1994267"><ele>160.66666666666669</ele><time>2026-05-02T12:48:49.972Z</time></trkpt><trkpt lat="43.6344905" lon="11.1993437"><ele>160.33333333333334</ele><time>2026-05-02T12:48:50.973Z</time></trkpt><trkpt lat="43.6344881" lon="11.1992508"><ele>160.0</ele><time>2026-05-02T12:48:51.972Z</time></trkpt><trkpt lat="43.6344768" lon="11.1990856"><ele>159.6</ele><time>2026-05-02T12:48:53.972Z</time></trkpt><trkpt lat="43.6344713" lon="11.1989472"><ele>159.2</ele><time>2026-05-02T12:48:55.972Z</time></trkpt><trkpt lat="43.6344778" lon="11.198809"><ele>158.8</ele><time>2026-05-02T12:48:57.972Z</time></trkpt><trkpt lat="43.6344945" lon="11.1987126"><ele>158.4</ele><time>2026-05-02T12:48:58.973Z</time></trkpt><trkpt lat="43.6345139" lon="11.1985783"><ele>158.0</ele><time>2026-05-02T12:48:59.973Z</time></trkpt><trkpt lat="43.6345416" lon="11.1984416"><ele>158.0</ele><time>2026-05-02T12:49:00.972Z</time></trkpt><trkpt lat="43.6345687" lon="11.1983117"><ele>158.0</ele><time>2026-05-02T12:49:01.972Z</time></trkpt><trkpt lat="43.6345959" lon="11.1981801"><ele>158.0</ele><time>2026-05-02T12:49:02.972Z</time></trkpt><trkpt lat="43.6346281" lon="11.1980361"><ele>158.0</ele><time>2026-05-02T12:49:03.972Z</time></trkpt><trkpt lat="43.6346654" lon="11.1979165"><ele>158.0</ele><time>2026-05-02T12:49:04.972Z</time></trkpt><trkpt lat="43.6346975" lon="11.1977936"><ele>158.0</ele><time>2026-05-02T12:49:05.972Z</time></trkpt><trkpt lat="43.6347361" lon="11.1976627"><ele>158.0</ele><time>2026-05-02T12:49:06.972Z</time></trkpt><trkpt lat="43.6347712" lon="11.1975302"><ele>158.0</ele><time>2026-05-02T12:49:07.972Z</time></trkpt><trkpt lat="43.6348093" lon="11.1973915"><ele>158.0</ele><time>2026-05-02T12:49:08.972Z</time></trkpt><trkpt lat="43.6348453" lon="11.1972492"><ele>158.0</ele><time>2026-05-02T12:49:09.973Z</time></trkpt><trkpt lat="43.6348786" lon="11.1971065"><ele>158.0</ele><time>2026-05-02T12:49:10.972Z</time></trkpt><trkpt lat="43.634909" lon="11.1969664"><ele>158.0</ele><time>2026-05-02T12:49:11.972Z</time></trkpt><trkpt lat="43.6349378" lon="11.1968191"><ele>158.0</ele><time>2026-05-02T12:49:12.973Z</time></trkpt><trkpt lat="43.6349682" lon="11.1966658"><ele>158.0</ele><time>2026-05-02T12:49:13.972Z</time></trkpt><trkpt lat="43.6350114" lon="11.1965042"><ele>158.8</ele><time>2026-05-02T12:49:14.973Z</time></trkpt><trkpt lat="43.635043" lon="11.19636"><ele>159.60000000000002</ele><time>2026-05-02T12:49:15.972Z</time></trkpt><trkpt lat="43.6350792" lon="11.1962064"><ele>160.39999999999998</ele><time>2026-05-02T12:49:16.972Z</time></trkpt><trkpt lat="43.6351059" lon="11.1960505"><ele>161.2</ele><time>2026-05-02T12:49:17.972Z</time></trkpt><trkpt lat="43.6351325" lon="11.1959069"><ele>162.0</ele><time>2026-05-02T12:49:18.972Z</time></trkpt><trkpt lat="43.6351582" lon="11.1957755"><ele>163.39999999999998</ele><time>2026-05-02T12:49:19.972Z</time></trkpt><trkpt lat="43.6351864" lon="11.195637"><ele>164.79999999999998</ele><time>2026-05-02T12:49:20.972Z</time></trkpt><trkpt lat="43.6352076" lon="11.1955056"><ele>166.2</ele><time>2026-05-02T12:49:21.972Z</time></trkpt><trkpt lat="43.6352303" lon="11.1953804"><ele>167.6</ele><time>2026-05-02T12:49:22.973Z</time></trkpt><trkpt lat="43.6352548" lon="11.195253"><ele>169.0</ele><time>2026-05-02T12:49:23.972Z</time></trkpt><trkpt lat="43.6352711" lon="11.1951244"><ele>169.0</ele><time>2026-05-02T12:49:24.972Z</time></trkpt><trkpt lat="43.6352827" lon="11.1950018"><ele>169.0</ele><time>2026-05-02T12:49:25.972Z</time></trkpt><trkpt lat="43.6353012" lon="11.1948714"><ele>169.0</ele><time>2026-05-02T12:49:26.973Z</time></trkpt><trkpt lat="43.6353268" lon="11.1947254"><ele>169.0</ele><time>2026-05-02T12:49:27.973Z</time></trkpt><trkpt lat="43.6353527" lon="11.1945408"><ele>169.0</ele><time>2026-05-02T12:49:28.972Z</time></trkpt><trkpt lat="43.6353809" lon="11.1943551"><ele>165.6</ele><time>2026-05-02T12:49:29.972Z</time></trkpt><trkpt lat="43.635417" lon="11.194185"><ele>162.2</ele><time>2026-05-02T12:49:30.973Z</time></trkpt><trkpt lat="43.6354592" lon="11.1940267"><ele>158.79999999999998</ele><time>2026-05-02T12:49:31.972Z</time></trkpt><trkpt lat="43.6354924" lon="11.1938876"><ele>155.39999999999998</ele><time>2026-05-02T12:49:32.972Z</time></trkpt><trkpt lat="43.6355212" lon="11.193767"><ele>152.0</ele><time>2026-05-02T12:49:33.972Z</time></trkpt><trkpt lat="43.63554" lon="11.1936547"><ele>152.0</ele><time>2026-05-02T12:49:34.972Z</time></trkpt><trkpt lat="43.635552" lon="11.1935543"><ele>152.0</ele><time>2026-05-02T12:49:35.972Z</time></trkpt><trkpt lat="43.6355609" lon="11.1934518"><ele>152.0</ele><time>2026-05-02T12:49:36.973Z</time></trkpt><trkpt lat="43.6355705" lon="11.1933557"><ele>152.0</ele><time>2026-05-02T12:49:37.972Z</time></trkpt><trkpt lat="43.6355929" lon="11.1932688"><ele>152.0</ele><time>2026-05-02T12:49:38.972Z</time></trkpt><trkpt lat="43.6356112" lon="11.1931625"><ele>152.0</ele><time>2026-05-02T12:49:39.972Z</time></trkpt><trkpt lat="43.6356262" lon="11.1930487"><ele>152.0</ele><time>2026-05-02T12:49:40.972Z</time></trkpt><trkpt lat="43.6356352" lon="11.1929282"><ele>152.0</ele><time>2026-05-02T12:49:41.972Z</time></trkpt><trkpt lat="43.6356446" lon="11.1928123"><ele>152.0</ele><time>2026-05-02T12:49:42.972Z</time></trkpt><trkpt lat="43.6356568" lon="11.1926916"><ele>152.0</ele><time>2026-05-02T12:49:43.972Z</time></trkpt><trkpt lat="43.6356724" lon="11.1925784"><ele>152.0</ele><time>2026-05-02T12:49:44.972Z</time></trkpt><trkpt lat="43.6356914" lon="11.1924674"><ele>152.0</ele><time>2026-05-02T12:49:45.972Z</time></trkpt><trkpt lat="43.6357135" lon="11.1923541"><ele>152.0</ele><time>2026-05-02T12:49:46.972Z</time></trkpt><trkpt lat="43.6357398" lon="11.1922456"><ele>151.83333333333331</ele><time>2026-05-02T12:49:47.972Z</time></trkpt><trkpt lat="43.6357645" lon="11.1921378"><ele>151.66666666666666</ele><time>2026-05-02T12:49:48.972Z</time></trkpt><trkpt lat="43.635793" lon="11.1920408"><ele>151.5</ele><time>2026-05-02T12:49:49.972Z</time></trkpt><trkpt lat="43.6358134" lon="11.1919412"><ele>151.33333333333334</ele><time>2026-05-02T12:49:50.972Z</time></trkpt><trkpt lat="43.6358294" lon="11.1918416"><ele>151.16666666666669</ele><time>2026-05-02T12:49:51.972Z</time></trkpt><trkpt lat="43.6358492" lon="11.1917485"><ele>151.0</ele><time>2026-05-02T12:49:52.972Z</time></trkpt><trkpt lat="43.6358665" lon="11.1916501"><ele>151.0</ele><time>2026-05-02T12:49:53.972Z</time></trkpt><trkpt lat="43.6358821" lon="11.1915386"><ele>151.0</ele><time>2026-05-02T12:49:54.972Z</time></trkpt><trkpt lat="43.6359034" lon="11.1914315"><ele>151.0</ele><time>2026-05-02T12:49:55.972Z</time></trkpt><trkpt lat="43.6359157" lon="11.1913297"><ele>151.0</ele><time>2026-05-02T12:49:56.972Z</time></trkpt><trkpt lat="43.6359312" lon="11.1912239"><ele>151.0</ele><time>2026-05-02T12:49:57.972Z</time></trkpt><trkpt lat="43.6359409" lon="11.1911191"><ele>151.0</ele><time>2026-05-02T12:49:58.972Z</time></trkpt><trkpt lat="43.6359541" lon="11.1910037"><ele>150.66666666666669</ele><time>2026-05-02T12:49:59.972Z</time></trkpt><trkpt lat="43.6359588" lon="11.190887"><ele>150.33333333333334</ele><time>2026-05-02T12:50:00.972Z</time></trkpt><trkpt lat="43.6359519" lon="11.190771"><ele>150.0</ele><time>2026-05-02T12:50:01.972Z</time></trkpt><trkpt lat="43.6359471" lon="11.190659"><ele>149.66666666666666</ele><time>2026-05-02T12:50:02.973Z</time></trkpt><trkpt lat="43.6359407" lon="11.1905454"><ele>149.33333333333331</ele><time>2026-05-02T12:50:03.972Z</time></trkpt><trkpt lat="43.6359374" lon="11.1904396"><ele>149.0</ele><time>2026-05-02T12:50:04.972Z</time></trkpt><trkpt lat="43.6359404" lon="11.1903449"><ele>148.66666666666666</ele><time>2026-05-02T12:50:05.972Z</time></trkpt><trkpt lat="43.6359438" lon="11.1901805"><ele>148.33333333333331</ele><time>2026-05-02T12:50:07.972Z</time></trkpt><trkpt lat="43.6359306" lon="11.190095"><ele>148.0</ele><time>2026-05-02T12:50:08.972Z</time></trkpt><trkpt lat="43.6359142" lon="11.1900016"><ele>147.66666666666666</ele><time>2026-05-02T12:50:09.972Z</time></trkpt><trkpt lat="43.6358983" lon="11.1898921"><ele>147.33333333333334</ele><time>2026-05-02T12:50:10.972Z</time></trkpt><trkpt lat="43.6358646" lon="11.1897688"><ele>147.0</ele><time>2026-05-02T12:50:11.973Z</time></trkpt><trkpt lat="43.6358368" lon="11.1896479"><ele>146.66666666666666</ele><time>2026-05-02T12:50:12.972Z</time></trkpt><trkpt lat="43.6358028" lon="11.1895394"><ele>146.33333333333334</ele><time>2026-05-02T12:50:13.972Z</time></trkpt><trkpt lat="43.6357849" lon="11.1894399"><ele>146.0</ele><time>2026-05-02T12:50:14.973Z</time></trkpt><trkpt lat="43.6357684" lon="11.1893412"><ele>145.66666666666669</ele><time>2026-05-02T12:50:15.972Z</time></trkpt><trkpt lat="43.6357485" lon="11.1892374"><ele>145.33333333333334</ele><time>2026-05-02T12:50:16.972Z</time></trkpt><trkpt lat="43.6357264" lon="11.1891413"><ele>145.0</ele><time>2026-05-02T12:50:17.972Z</time></trkpt><trkpt lat="43.6357135" lon="11.1890502"><ele>145.0</ele><time>2026-05-02T12:50:18.972Z</time></trkpt><trkpt lat="43.6356866" lon="11.1889088"><ele>145.0</ele><time>2026-05-02T12:50:20.972Z</time></trkpt><trkpt lat="43.6356685" lon="11.1887812"><ele>145.0</ele><time>2026-05-02T12:50:22.972Z</time></trkpt><trkpt lat="43.6356703" lon="11.188642"><ele>145.0</ele><time>2026-05-02T12:50:24.973Z</time></trkpt><trkpt lat="43.6356591" lon="11.1885415"><ele>145.0</ele><time>2026-05-02T12:50:25.972Z</time></trkpt><trkpt lat="43.6356446" lon="11.1884278"><ele>145.0</ele><time>2026-05-02T12:50:26.972Z</time></trkpt><trkpt lat="43.6356159" lon="11.188308"><ele>145.0</ele><time>2026-05-02T12:50:27.973Z</time></trkpt><trkpt lat="43.635588" lon="11.1881814"><ele>145.0</ele><time>2026-05-02T12:50:28.972Z</time></trkpt><trkpt lat="43.635557" lon="11.1880722"><ele>145.0</ele><time>2026-05-02T12:50:29.972Z</time></trkpt><trkpt lat="43.6355155" lon="11.1879585"><ele>145.0</ele><time>2026-05-02T12:50:30.972Z</time></trkpt><trkpt lat="43.6354729" lon="11.1878457"><ele>144.66666666666669</ele><time>2026-05-02T12:50:31.972Z</time></trkpt><trkpt lat="43.6354315" lon="11.1877435"><ele>144.33333333333334</ele><time>2026-05-02T12:50:32.972Z</time></trkpt><trkpt lat="43.6353891" lon="11.1876463"><ele>144.0</ele><time>2026-05-02T12:50:33.972Z</time></trkpt><trkpt lat="43.6353579" lon="11.1875538"><ele>143.66666666666666</ele><time>2026-05-02T12:50:34.972Z</time></trkpt><trkpt lat="43.635338" lon="11.1874675"><ele>143.33333333333331</ele><time>2026-05-02T12:50:35.972Z</time></trkpt><trkpt lat="43.6353233" lon="11.1873643"><ele>143.0</ele><time>2026-05-02T12:50:36.972Z</time></trkpt><trkpt lat="43.6353153" lon="11.1872582"><ele>142.83333333333331</ele><time>2026-05-02T12:50:37.972Z</time></trkpt><trkpt lat="43.6353159" lon="11.1871592"><ele>142.66666666666666</ele><time>2026-05-02T12:50:38.972Z</time></trkpt><trkpt lat="43.6353262" lon="11.1870688"><ele>142.5</ele><time>2026-05-02T12:50:39.972Z</time></trkpt><trkpt lat="43.6353478" lon="11.1869817"><ele>142.33333333333334</ele><time>2026-05-02T12:50:40.972Z</time></trkpt><trkpt lat="43.6354068" lon="11.1868341"><ele>142.16666666666669</ele><time>2026-05-02T12:50:42.972Z</time></trkpt><trkpt lat="43.6354639" lon="11.1867134"><ele>142.0</ele><time>2026-05-02T12:50:44.972Z</time></trkpt><trkpt lat="43.6354993" lon="11.1866316"><ele>142.0</ele><time>2026-05-02T12:50:46.972Z</time></trkpt><trkpt lat="43.63552" lon="11.1865266"><ele>142.0</ele><time>2026-05-02T12:50:50.972Z</time></trkpt><trkpt lat="43.6355056" lon="11.1864394"><ele>142.0</ele><time>2026-05-02T12:50:53.972Z</time></trkpt><trkpt lat="43.6354509" lon="11.1863528"><ele>142.0</ele><time>2026-05-02T12:50:56.972Z</time></trkpt><trkpt lat="43.6354071" lon="11.1862747"><ele>142.0</ele><time>2026-05-02T12:50:58.972Z</time></trkpt><trkpt lat="43.6353814" lon="11.1861791"><ele>142.0</ele><time>2026-05-02T12:51:00.972Z</time></trkpt><trkpt lat="43.6354128" lon="11.1860562"><ele>141.83333333333334</ele><time>2026-05-02T12:51:02.972Z</time></trkpt><trkpt lat="43.635442" lon="11.1858862"><ele>141.66666666666669</ele><time>2026-05-02T12:51:04.972Z</time></trkpt><trkpt lat="43.6354515" lon="11.1857867"><ele>141.5</ele><time>2026-05-02T12:51:05.972Z</time></trkpt><trkpt lat="43.6354507" lon="11.1856832"><ele>141.33333333333334</ele><time>2026-05-02T12:51:06.972Z</time></trkpt><trkpt lat="43.6354568" lon="11.1855731"><ele>141.16666666666666</ele><time>2026-05-02T12:51:07.972Z</time></trkpt><trkpt lat="43.6354672" lon="11.1854575"><ele>141.0</ele><time>2026-05-02T12:51:08.972Z</time></trkpt><trkpt lat="43.6354781" lon="11.1853503"><ele>140.66666666666666</ele><time>2026-05-02T12:51:09.972Z</time></trkpt><trkpt lat="43.6354901" lon="11.185258"><ele>140.33333333333334</ele><time>2026-05-02T12:51:10.973Z</time></trkpt><trkpt lat="43.6354993" lon="11.1851481"><ele>140.0</ele><time>2026-05-02T12:51:11.972Z</time></trkpt><trkpt lat="43.6355122" lon="11.1850356"><ele>139.66666666666669</ele><time>2026-05-02T12:51:12.973Z</time></trkpt><trkpt lat="43.6355349" lon="11.1849491"><ele>139.33333333333334</ele><time>2026-05-02T12:51:13.973Z</time></trkpt><trkpt lat="43.6355875" lon="11.1847922"><ele>139.0</ele><time>2026-05-02T12:51:15.972Z</time></trkpt><trkpt lat="43.6356316" lon="11.1846437"><ele>138.8</ele><time>2026-05-02T12:51:17.972Z</time></trkpt><trkpt lat="43.6356253" lon="11.1845168"><ele>138.60000000000002</ele><time>2026-05-02T12:51:19.972Z</time></trkpt><trkpt lat="43.63557" lon="11.1843779"><ele>138.4</ele><time>2026-05-02T12:51:21.972Z</time></trkpt><trkpt lat="43.6355146" lon="11.1842637"><ele>138.20000000000002</ele><time>2026-05-02T12:51:22.972Z</time></trkpt><trkpt lat="43.6354678" lon="11.1841731"><ele>138.0</ele><time>2026-05-02T12:51:23.972Z</time></trkpt><trkpt lat="43.6354202" lon="11.1840888"><ele>138.16666666666666</ele><time>2026-05-02T12:51:24.972Z</time></trkpt><trkpt lat="43.635374" lon="11.1840011"><ele>138.33333333333334</ele><time>2026-05-02T12:51:25.973Z</time></trkpt><trkpt lat="43.6353308" lon="11.1839139"><ele>138.5</ele><time>2026-05-02T12:51:26.973Z</time></trkpt><trkpt lat="43.6352913" lon="11.1838323"><ele>138.66666666666669</ele><time>2026-05-02T12:51:27.972Z</time></trkpt><trkpt lat="43.6352349" lon="11.1837533"><ele>138.83333333333334</ele><time>2026-05-02T12:51:28.972Z</time></trkpt><trkpt lat="43.6351895" lon="11.1836722"><ele>139.0</ele><time>2026-05-02T12:51:29.972Z</time></trkpt><trkpt lat="43.6351377" lon="11.1836003"><ele>138.33333333333334</ele><time>2026-05-02T12:51:30.972Z</time></trkpt><trkpt lat="43.6350911" lon="11.1835416"><ele>137.66666666666669</ele><time>2026-05-02T12:51:31.972Z</time></trkpt><trkpt lat="43.63504" lon="11.1834872"><ele>137.0</ele><time>2026-05-02T12:51:32.972Z</time></trkpt><trkpt lat="43.6349432" lon="11.1833932"><ele>136.33333333333334</ele><time>2026-05-02T12:51:34.972Z</time></trkpt><trkpt lat="43.6348678" lon="11.1833057"><ele>135.66666666666666</ele><time>2026-05-02T12:51:36.972Z</time></trkpt><trkpt lat="43.6348396" lon="11.1831821"><ele>135.0</ele><time>2026-05-02T12:51:38.972Z</time></trkpt><trkpt lat="43.6347836" lon="11.1830471"><ele>135.0</ele><time>2026-05-02T12:51:40.972Z</time></trkpt><trkpt lat="43.6347412" lon="11.1829805"><ele>135.0</ele><time>2026-05-02T12:51:41.972Z</time></trkpt><trkpt lat="43.634691" lon="11.1829144"><ele>135.0</ele><time>2026-05-02T12:51:42.972Z</time></trkpt><trkpt lat="43.6345915" lon="11.1827975"><ele>135.0</ele><time>2026-05-02T12:51:44.972Z</time></trkpt><trkpt lat="43.6344984" lon="11.1826968"><ele>135.0</ele><time>2026-05-02T12:51:46.972Z</time></trkpt><trkpt lat="43.6344119" lon="11.1825783"><ele>135.16666666666666</ele><time>2026-05-02T12:51:48.972Z</time></trkpt><trkpt lat="43.6343061" lon="11.1824858"><ele>135.33333333333334</ele><time>2026-05-02T12:51:50.972Z</time></trkpt><trkpt lat="43.6342421" lon="11.1824496"><ele>135.5</ele><time>2026-05-02T12:51:51.972Z</time></trkpt><trkpt lat="43.6341713" lon="11.1824159"><ele>135.66666666666669</ele><time>2026-05-02T12:51:52.973Z</time></trkpt><trkpt lat="43.6341042" lon="11.1823828"><ele>135.83333333333334</ele><time>2026-05-02T12:51:53.973Z</time></trkpt><trkpt lat="43.6340426" lon="11.1823505"><ele>136.0</ele><time>2026-05-02T12:51:54.972Z</time></trkpt><trkpt lat="43.6339616" lon="11.1822756"><ele>136.0</ele><time>2026-05-02T12:51:56.973Z</time></trkpt><trkpt lat="43.6339221" lon="11.1821803"><ele>136.0</ele><time>2026-05-02T12:51:58.972Z</time></trkpt><trkpt lat="43.6339104" lon="11.181999"><ele>136.0</ele><time>2026-05-02T12:52:00.973Z</time></trkpt><trkpt lat="43.6338828" lon="11.1819089"><ele>136.0</ele><time>2026-05-02T12:52:01.972Z</time></trkpt><trkpt lat="43.6338496" lon="11.1818214"><ele>136.0</ele><time>2026-05-02T12:52:02.972Z</time></trkpt><trkpt lat="43.6337958" lon="11.1816846"><ele>136.0</ele><time>2026-05-02T12:52:04.973Z</time></trkpt><trkpt lat="43.6336976" lon="11.181606"><ele>136.0</ele><time>2026-05-02T12:52:06.972Z</time></trkpt><trkpt lat="43.6335851" lon="11.1816312"><ele>136.0</ele><time>2026-05-02T12:52:08.972Z</time></trkpt><trkpt lat="43.6334944" lon="11.1817161"><ele>136.0</ele><time>2026-05-02T12:52:10.972Z</time></trkpt><trkpt lat="43.6334202" lon="11.1817027"><ele>136.0</ele><time>2026-05-02T12:52:12.972Z</time></trkpt><trkpt lat="43.6333956" lon="11.1815839"><ele>135.4</ele><time>2026-05-02T12:52:14.972Z</time></trkpt><trkpt lat="43.6334114" lon="11.1814419"><ele>134.8</ele><time>2026-05-02T12:52:16.972Z</time></trkpt><trkpt lat="43.6334114" lon="11.1812888"><ele>134.20000000000002</ele><time>2026-05-02T12:52:18.972Z</time></trkpt><trkpt lat="43.6333936" lon="11.1811405"><ele>133.6</ele><time>2026-05-02T12:52:20.972Z</time></trkpt><trkpt lat="43.6333555" lon="11.1810064"><ele>133.0</ele><time>2026-05-02T12:52:22.972Z</time></trkpt><trkpt lat="43.633329" lon="11.180867"><ele>133.0</ele><time>2026-05-02T12:52:24.972Z</time></trkpt><trkpt lat="43.6332855" lon="11.1807099"><ele>133.0</ele><time>2026-05-02T12:52:26.972Z</time></trkpt><trkpt lat="43.6332542" lon="11.1806104"><ele>133.0</ele><time>2026-05-02T12:52:27.972Z</time></trkpt><trkpt lat="43.6332156" lon="11.1805098"><ele>133.0</ele><time>2026-05-02T12:52:28.972Z</time></trkpt><trkpt lat="43.6331768" lon="11.18041"><ele>133.0</ele><time>2026-05-02T12:52:29.972Z</time></trkpt><trkpt lat="43.6331447" lon="11.1803311"><ele>133.0</ele><time>2026-05-02T12:52:30.972Z</time></trkpt><trkpt lat="43.6331099" lon="11.1802544"><ele>132.4</ele><time>2026-05-02T12:52:31.972Z</time></trkpt><trkpt lat="43.6330599" lon="11.1801404"><ele>131.8</ele><time>2026-05-02T12:52:33.972Z</time></trkpt><trkpt lat="43.6329856" lon="11.1800833"><ele>131.2</ele><time>2026-05-02T12:52:46.972Z</time></trkpt><trkpt lat="43.6329177" lon="11.1801062"><ele>130.6</ele><time>2026-05-02T12:52:47.972Z</time></trkpt><trkpt lat="43.6328036" lon="11.1801477"><ele>130.0</ele><time>2026-05-02T12:52:48.972Z</time></trkpt><trkpt lat="43.6326771" lon="11.1802143"><ele>129.66666666666669</ele><time>2026-05-02T12:52:49.972Z</time></trkpt><trkpt lat="43.6325293" lon="11.1802938"><ele>129.33333333333334</ele><time>2026-05-02T12:52:50.972Z</time></trkpt><trkpt lat="43.6323495" lon="11.1803859"><ele>129.0</ele><time>2026-05-02T12:52:51.972Z</time></trkpt><trkpt lat="43.6321541" lon="11.1804829"><ele>128.66666666666666</ele><time>2026-05-02T12:52:52.972Z</time></trkpt><trkpt lat="43.6319524" lon="11.1806051"><ele>128.33333333333331</ele><time>2026-05-02T12:52:53.972Z</time></trkpt><trkpt lat="43.6317588" lon="11.1807331"><ele>128.0</ele><time>2026-05-02T12:52:54.972Z</time></trkpt><trkpt lat="43.6315783" lon="11.180848"><ele>128.0</ele><time>2026-05-02T12:52:55.972Z</time></trkpt><trkpt lat="43.6314069" lon="11.1809409"><ele>128.0</ele><time>2026-05-02T12:52:56.972Z</time></trkpt><trkpt lat="43.6312425" lon="11.1810114"><ele>128.0</ele><time>2026-05-02T12:52:57.972Z</time></trkpt><trkpt lat="43.6310913" lon="11.1810705"><ele>128.0</ele><time>2026-05-02T12:52:58.972Z</time></trkpt><trkpt lat="43.6309546" lon="11.1811212"><ele>128.0</ele><time>2026-05-02T12:52:59.972Z</time></trkpt><trkpt lat="43.6308311" lon="11.181165"><ele>128.0</ele><time>2026-05-02T12:53:00.972Z</time></trkpt><trkpt lat="43.6307251" lon="11.1812023"><ele>128.0</ele><time>2026-05-02T12:53:01.972Z</time></trkpt><trkpt lat="43.6306411" lon="11.1812327"><ele>128.0</ele><time>2026-05-02T12:53:02.972Z</time></trkpt><trkpt lat="43.6305738" lon="11.1812472"><ele>128.0</ele><time>2026-05-02T12:53:03.972Z</time></trkpt><trkpt lat="43.6304745" lon="11.1812165"><ele>128.0</ele><time>2026-05-02T12:53:05.973Z</time></trkpt><trkpt lat="43.6304124" lon="11.1811119"><ele>128.0</ele><time>2026-05-02T12:53:07.972Z</time></trkpt><trkpt lat="43.6303837" lon="11.1809296"><ele>128.0</ele><time>2026-05-02T12:53:09.971Z</time></trkpt><trkpt lat="43.6303729" lon="11.1808273"><ele>127.99999999999999</ele><time>2026-05-02T12:53:10.971Z</time></trkpt><trkpt lat="43.6303588" lon="11.1807065"><ele>128.0</ele><time>2026-05-02T12:53:11.972Z</time></trkpt><trkpt lat="43.6303456" lon="11.1805902"><ele>128.0</ele><time>2026-05-02T12:53:12.971Z</time></trkpt><trkpt lat="43.630329" lon="11.1804548"><ele>128.0</ele><time>2026-05-02T12:53:13.972Z</time></trkpt><trkpt lat="43.6303125" lon="11.1803295"><ele>127.99999999999999</ele><time>2026-05-02T12:53:14.971Z</time></trkpt><trkpt lat="43.6303016" lon="11.1802262"><ele>128.0</ele><time>2026-05-02T12:53:15.971Z</time></trkpt><trkpt lat="43.6302892" lon="11.1801237"><ele>127.80000000000001</ele><time>2026-05-02T12:53:16.971Z</time></trkpt><trkpt lat="43.6302748" lon="11.180009"><ele>127.60000000000001</ele><time>2026-05-02T12:53:17.971Z</time></trkpt><trkpt lat="43.6302586" lon="11.1798877"><ele>127.39999999999999</ele><time>2026-05-02T12:53:18.971Z</time></trkpt><trkpt lat="43.6302405" lon="11.1797574"><ele>127.19999999999999</ele><time>2026-05-02T12:53:19.971Z</time></trkpt><trkpt lat="43.6302159" lon="11.1796188"><ele>127.0</ele><time>2026-05-02T12:53:20.972Z</time></trkpt><trkpt lat="43.6301928" lon="11.1794765"><ele>127.0</ele><time>2026-05-02T12:53:21.972Z</time></trkpt><trkpt lat="43.6301724" lon="11.1793292"><ele>126.99999999999999</ele><time>2026-05-02T12:53:22.971Z</time></trkpt><trkpt lat="43.6301557" lon="11.1791883"><ele>126.99999999999999</ele><time>2026-05-02T12:53:23.971Z</time></trkpt><trkpt lat="43.6301385" lon="11.1790458"><ele>127.0</ele><time>2026-05-02T12:53:24.971Z</time></trkpt><trkpt lat="43.6301272" lon="11.1789381"><ele>127.0</ele><time>2026-05-02T12:53:25.972Z</time></trkpt><trkpt lat="43.6301164" lon="11.1788506"><ele>127.0</ele><time>2026-05-02T12:53:26.971Z</time></trkpt><trkpt lat="43.6300974" lon="11.1787601"><ele>127.0</ele><time>2026-05-02T12:53:27.971Z</time></trkpt><trkpt lat="43.6300777" lon="11.1786687"><ele>127.0</ele><time>2026-05-02T12:53:28.971Z</time></trkpt><trkpt lat="43.6300405" lon="11.1785853"><ele>127.0</ele><time>2026-05-02T12:53:29.971Z</time></trkpt><trkpt lat="43.6299864" lon="11.1785263"><ele>127.0</ele><time>2026-05-02T12:53:30.971Z</time></trkpt><trkpt lat="43.6298922" lon="11.1785232"><ele>127.0</ele><time>2026-05-02T12:53:32.971Z</time></trkpt><trkpt lat="43.6298227" lon="11.1785521"><ele>127.0</ele><time>2026-05-02T12:53:33.971Z</time></trkpt><trkpt lat="43.6297485" lon="11.1786322"><ele>127.0</ele><time>2026-05-02T12:53:34.971Z</time></trkpt><trkpt lat="43.6296445" lon="11.1786544"><ele>126.99999999999999</ele><time>2026-05-02T12:53:35.971Z</time></trkpt><trkpt lat="43.629547" lon="11.1786903"><ele>126.99999999999999</ele><time>2026-05-02T12:53:36.972Z</time></trkpt><trkpt lat="43.6294564" lon="11.178721"><ele>127.0</ele><time>2026-05-02T12:53:37.971Z</time></trkpt><trkpt lat="43.6293704" lon="11.1787589"><ele>127.0</ele><time>2026-05-02T12:53:38.971Z</time></trkpt><trkpt lat="43.6292874" lon="11.1788088"><ele>126.83333333333334</ele><time>2026-05-02T12:53:39.971Z</time></trkpt><trkpt lat="43.6292111" lon="11.1788568"><ele>126.66666666666667</ele><time>2026-05-02T12:53:40.971Z</time></trkpt><trkpt lat="43.629143" lon="11.1789019"><ele>126.5</ele><time>2026-05-02T12:53:41.971Z</time></trkpt><trkpt lat="43.6290811" lon="11.1789403"><ele>126.33333333333334</ele><time>2026-05-02T12:53:42.971Z</time></trkpt><trkpt lat="43.6290217" lon="11.178978"><ele>126.16666666666667</ele><time>2026-05-02T12:53:43.971Z</time></trkpt><trkpt lat="43.6289628" lon="11.1790148"><ele>126.0</ele><time>2026-05-02T12:53:44.971Z</time></trkpt><trkpt lat="43.6288726" lon="11.1790456"><ele>126.0</ele><time>2026-05-02T12:53:46.971Z</time></trkpt><trkpt lat="43.6288147" lon="11.1791374"><ele>126.0</ele><time>2026-05-02T12:53:49.971Z</time></trkpt><trkpt lat="43.6287987" lon="11.1792399"><ele>126.0</ele><time>2026-05-02T12:53:51.971Z</time></trkpt><trkpt lat="43.6287814" lon="11.1793409"><ele>126.0</ele><time>2026-05-02T12:53:55.971Z</time></trkpt><trkpt lat="43.6287312" lon="11.1794728"><ele>126.0</ele><time>2026-05-02T12:53:58.971Z</time></trkpt><trkpt lat="43.6286627" lon="11.1795685"><ele>126.0</ele><time>2026-05-02T12:54:00.971Z</time></trkpt><trkpt lat="43.6285848" lon="11.1796747"><ele>126.19999999999999</ele><time>2026-05-02T12:54:02.971Z</time></trkpt><trkpt lat="43.6285131" lon="11.1797934"><ele>126.39999999999999</ele><time>2026-05-02T12:54:04.971Z</time></trkpt><trkpt lat="43.6284287" lon="11.1798962"><ele>126.6</ele><time>2026-05-02T12:54:06.972Z</time></trkpt><trkpt lat="43.6283582" lon="11.1799933"><ele>126.8</ele><time>2026-05-02T12:54:08.971Z</time></trkpt><trkpt lat="43.6283093" lon="11.1800769"><ele>127.0</ele><time>2026-05-02T12:54:10.971Z</time></trkpt><trkpt lat="43.6282489" lon="11.1801516"><ele>127.0</ele><time>2026-05-02T12:54:12.971Z</time></trkpt><trkpt lat="43.6281904" lon="11.1802288"><ele>126.99999999999999</ele><time>2026-05-02T12:54:14.972Z</time></trkpt><trkpt lat="43.6280988" lon="11.1802791"><ele>126.99999999999999</ele><time>2026-05-02T12:54:16.971Z</time></trkpt><trkpt lat="43.6280054" lon="11.1803021"><ele>127.0</ele><time>2026-05-02T12:54:18.971Z</time></trkpt><trkpt lat="43.6278867" lon="11.1803114"><ele>127.0</ele><time>2026-05-02T12:54:20.971Z</time></trkpt><trkpt lat="43.6277639" lon="11.1803166"><ele>127.39999999999999</ele><time>2026-05-02T12:54:22.971Z</time></trkpt><trkpt lat="43.6276981" lon="11.1803206"><ele>127.79999999999998</ele><time>2026-05-02T12:54:23.972Z</time></trkpt><trkpt lat="43.6275797" lon="11.180324"><ele>128.2</ele><time>2026-05-02T12:54:25.971Z</time></trkpt><trkpt lat="43.6274895" lon="11.1803398"><ele>128.6</ele><time>2026-05-02T12:54:27.971Z</time></trkpt><trkpt lat="43.6273945" lon="11.1803412"><ele>129.0</ele><time>2026-05-02T12:54:29.971Z</time></trkpt><trkpt lat="43.6272694" lon="11.1803101"><ele>129.0</ele><time>2026-05-02T12:54:31.971Z</time></trkpt><trkpt lat="43.627153" lon="11.1802911"><ele>129.0</ele><time>2026-05-02T12:54:33.971Z</time></trkpt><trkpt lat="43.62704" lon="11.1802819"><ele>129.0</ele><time>2026-05-02T12:54:35.971Z</time></trkpt><trkpt lat="43.6269404" lon="11.1803012"><ele>129.0</ele><time>2026-05-02T12:54:37.971Z</time></trkpt><trkpt lat="43.6268426" lon="11.1803173"><ele>129.0</ele><time>2026-05-02T12:54:39.971Z</time></trkpt><trkpt lat="43.6267378" lon="11.1803328"><ele>129.0</ele><time>2026-05-02T12:54:41.971Z</time></trkpt><trkpt lat="43.6266247" lon="11.1803433"><ele>129.0</ele><time>2026-05-02T12:54:43.971Z</time></trkpt><trkpt lat="43.6265267" lon="11.1803622"><ele>129.0</ele><time>2026-05-02T12:54:45.971Z</time></trkpt><trkpt lat="43.6264248" lon="11.1803999"><ele>129.0</ele><time>2026-05-02T12:54:47.971Z</time></trkpt><trkpt lat="43.6263118" lon="11.1804331"><ele>129.0</ele><time>2026-05-02T12:54:49.971Z</time></trkpt><trkpt lat="43.6262467" lon="11.1804492"><ele>129.0</ele><time>2026-05-02T12:54:50.971Z</time></trkpt><trkpt lat="43.6261841" lon="11.1804636"><ele>129.0</ele><time>2026-05-02T12:54:51.971Z</time></trkpt><trkpt lat="43.6260756" lon="11.1804948"><ele>129.0</ele><time>2026-05-02T12:54:53.971Z</time></trkpt><trkpt lat="43.6259652" lon="11.1805209"><ele>129.0</ele><time>2026-05-02T12:54:55.971Z</time></trkpt><trkpt lat="43.6258493" lon="11.1805591"><ele>129.0</ele><time>2026-05-02T12:54:57.971Z</time></trkpt><trkpt lat="43.6257393" lon="11.1805958"><ele>129.25</ele><time>2026-05-02T12:54:59.971Z</time></trkpt><trkpt lat="43.6256335" lon="11.1806398"><ele>129.5</ele><time>2026-05-02T12:55:01.971Z</time></trkpt><trkpt lat="43.6255351" lon="11.180691"><ele>129.75</ele><time>2026-05-02T12:55:03.971Z</time></trkpt><trkpt lat="43.6254228" lon="11.1807298"><ele>130.0</ele><time>2026-05-02T12:55:05.971Z</time></trkpt><trkpt lat="43.6253055" lon="11.180761"><ele>130.5</ele><time>2026-05-02T12:55:07.971Z</time></trkpt><trkpt lat="43.625194" lon="11.1808096"><ele>131.0</ele><time>2026-05-02T12:55:09.971Z</time></trkpt><trkpt lat="43.6251332" lon="11.180846"><ele>131.5</ele><time>2026-05-02T12:55:10.971Z</time></trkpt><trkpt lat="43.6250686" lon="11.1808765"><ele>132.0</ele><time>2026-05-02T12:55:11.971Z</time></trkpt><trkpt lat="43.6249538" lon="11.1809218"><ele>132.5</ele><time>2026-05-02T12:55:13.971Z</time></trkpt><trkpt lat="43.6248903" lon="11.1809514"><ele>133.0</ele><time>2026-05-02T12:55:14.971Z</time></trkpt><trkpt lat="43.6248213" lon="11.1809873"><ele>133.0</ele><time>2026-05-02T12:55:15.972Z</time></trkpt><trkpt lat="43.6247534" lon="11.1810184"><ele>133.0</ele><time>2026-05-02T12:55:16.971Z</time></trkpt><trkpt lat="43.6246843" lon="11.1810549"><ele>133.0</ele><time>2026-05-02T12:55:17.971Z</time></trkpt><trkpt lat="43.6246151" lon="11.1810957"><ele>133.0</ele><time>2026-05-02T12:55:18.971Z</time></trkpt><trkpt lat="43.6245545" lon="11.1811412"><ele>133.0</ele><time>2026-05-02T12:55:19.971Z</time></trkpt><trkpt lat="43.6245004" lon="11.181194"><ele>133.0</ele><time>2026-05-02T12:55:20.972Z</time></trkpt><trkpt lat="43.6243994" lon="11.181292"><ele>133.16666666666669</ele><time>2026-05-02T12:55:22.971Z</time></trkpt><trkpt lat="43.6243463" lon="11.1813397"><ele>133.33333333333334</ele><time>2026-05-02T12:55:23.971Z</time></trkpt><trkpt lat="43.6242493" lon="11.1814584"><ele>133.5</ele><time>2026-05-02T12:55:25.971Z</time></trkpt><trkpt lat="43.6242122" lon="11.181532"><ele>133.66666666666666</ele><time>2026-05-02T12:55:26.971Z</time></trkpt><trkpt lat="43.6241808" lon="11.1816142"><ele>133.83333333333331</ele><time>2026-05-02T12:55:27.971Z</time></trkpt><trkpt lat="43.6241543" lon="11.1817043"><ele>134.0</ele><time>2026-05-02T12:55:28.972Z</time></trkpt><trkpt lat="43.6241341" lon="11.1817869"><ele>134.0</ele><time>2026-05-02T12:55:29.971Z</time></trkpt><trkpt lat="43.6240945" lon="11.1819257"><ele>134.0</ele><time>2026-05-02T12:55:31.971Z</time></trkpt><trkpt lat="43.6240723" lon="11.1820096"><ele>134.0</ele><time>2026-05-02T12:55:32.971Z</time></trkpt><trkpt lat="43.6240417" lon="11.1821569"><ele>134.0</ele><time>2026-05-02T12:55:34.971Z</time></trkpt><trkpt lat="43.6240412" lon="11.1822957"><ele>134.0</ele><time>2026-05-02T12:55:36.971Z</time></trkpt><trkpt lat="43.6240546" lon="11.1824541"><ele>134.0</ele><time>2026-05-02T12:55:38.971Z</time></trkpt><trkpt lat="43.6240861" lon="11.1826018"><ele>134.0</ele><time>2026-05-02T12:55:40.971Z</time></trkpt><trkpt lat="43.6241097" lon="11.1826883"><ele>134.0</ele><time>2026-05-02T12:55:41.971Z</time></trkpt><trkpt lat="43.6241404" lon="11.182787"><ele>134.0</ele><time>2026-05-02T12:55:42.972Z</time></trkpt><trkpt lat="43.6241758" lon="11.1828921"><ele>134.0</ele><time>2026-05-02T12:55:43.972Z</time></trkpt><trkpt lat="43.6242107" lon="11.1829857"><ele>134.0</ele><time>2026-05-02T12:55:44.971Z</time></trkpt><trkpt lat="43.6242434" lon="11.1830716"><ele>134.0</ele><time>2026-05-02T12:55:45.971Z</time></trkpt><trkpt lat="43.6242706" lon="11.1831504"><ele>134.0</ele><time>2026-05-02T12:55:46.971Z</time></trkpt><trkpt lat="43.6242965" lon="11.1832337"><ele>134.0</ele><time>2026-05-02T12:55:47.972Z</time></trkpt><trkpt lat="43.6243193" lon="11.1833157"><ele>134.0</ele><time>2026-05-02T12:55:48.971Z</time></trkpt><trkpt lat="43.6243514" lon="11.1834404"><ele>134.0</ele><time>2026-05-02T12:55:50.971Z</time></trkpt><trkpt lat="43.6243819" lon="11.1835322"><ele>134.0</ele><time>2026-05-02T12:55:53.971Z</time></trkpt><trkpt lat="43.6243234" lon="11.1836162"><ele>134.0</ele><time>2026-05-02T12:56:01.971Z</time></trkpt><trkpt lat="43.6242092" lon="11.1836691"><ele>134.4</ele><time>2026-05-02T12:56:03.971Z</time></trkpt><trkpt lat="43.624098" lon="11.1837247"><ele>134.8</ele><time>2026-05-02T12:56:05.971Z</time></trkpt><trkpt lat="43.6239779" lon="11.1837973"><ele>135.2</ele><time>2026-05-02T12:56:07.971Z</time></trkpt><trkpt lat="43.6239155" lon="11.1838438"><ele>135.6</ele><time>2026-05-02T12:56:08.971Z</time></trkpt><trkpt lat="43.6238581" lon="11.1838846"><ele>136.0</ele><time>2026-05-02T12:56:09.971Z</time></trkpt><trkpt lat="43.6237632" lon="11.1839425"><ele>136.0</ele><time>2026-05-02T12:56:11.971Z</time></trkpt><trkpt lat="43.6236872" lon="11.1839846"><ele>136.0</ele><time>2026-05-02T12:56:13.971Z</time></trkpt><trkpt lat="43.6236255" lon="11.1840291"><ele>136.0</ele><time>2026-05-02T12:56:15.972Z</time></trkpt><trkpt lat="43.6235427" lon="11.184064"><ele>136.0</ele><time>2026-05-02T12:56:18.972Z</time></trkpt><trkpt lat="43.6234695" lon="11.1840918"><ele>136.0</ele><time>2026-05-02T12:56:21.971Z</time></trkpt><trkpt lat="43.6235653" lon="11.1840378"><ele>136.0</ele><time>2026-05-02T12:56:41.971Z</time></trkpt><trkpt lat="43.6236839" lon="11.1839734"><ele>136.0</ele><time>2026-05-02T12:56:43.971Z</time></trkpt><trkpt lat="43.6237615" lon="11.1839237"><ele>136.0</ele><time>2026-05-02T12:56:44.971Z</time></trkpt><trkpt lat="43.6238318" lon="11.1838807"><ele>136.0</ele><time>2026-05-02T12:56:45.971Z</time></trkpt><trkpt lat="43.6238959" lon="11.1838369"><ele>136.0</ele><time>2026-05-02T12:56:46.971Z</time></trkpt><trkpt lat="43.623996" lon="11.1837727"><ele>136.0</ele><time>2026-05-02T12:56:48.971Z</time></trkpt><trkpt lat="43.6240724" lon="11.1837276"><ele>136.0</ele><time>2026-05-02T12:56:50.971Z</time></trkpt><trkpt lat="43.6241645" lon="11.1836779"><ele>136.0</ele><time>2026-05-02T12:56:52.972Z</time></trkpt><trkpt lat="43.6242548" lon="11.1836194"><ele>136.0</ele><time>2026-05-02T12:56:54.971Z</time></trkpt><trkpt lat="43.6243347" lon="11.1835785"><ele>136.0</ele><time>2026-05-02T12:56:56.971Z</time></trkpt><trkpt lat="43.6243916" lon="11.1835315"><ele>136.0</ele><time>2026-05-02T12:56:58.971Z</time></trkpt><trkpt lat="43.6244536" lon="11.1834738"><ele>136.0</ele><time>2026-05-02T12:57:00.971Z</time></trkpt><trkpt lat="43.6245495" lon="11.1834193"><ele>136.0</ele><time>2026-05-02T12:57:02.971Z</time></trkpt><trkpt lat="43.6246128" lon="11.1833953"><ele>136.4</ele><time>2026-05-02T12:57:03.972Z</time></trkpt><trkpt lat="43.6247204" lon="11.1833488"><ele>136.8</ele><time>2026-05-02T12:57:05.971Z</time></trkpt><trkpt lat="43.6248301" lon="11.1832964"><ele>137.20000000000002</ele><time>2026-05-02T12:57:07.971Z</time></trkpt><trkpt lat="43.6248925" lon="11.1832726"><ele>137.6</ele><time>2026-05-02T12:57:08.971Z</time></trkpt><trkpt lat="43.6249668" lon="11.1832253"><ele>138.0</ele><time>2026-05-02T12:57:09.972Z</time></trkpt><trkpt lat="43.6250364" lon="11.1831862"><ele>137.85714285714286</ele><time>2026-05-02T12:57:10.971Z</time></trkpt><trkpt lat="43.6251068" lon="11.1831503"><ele>137.71428571428572</ele><time>2026-05-02T12:57:11.971Z</time></trkpt><trkpt lat="43.625176" lon="11.1831117"><ele>137.57142857142858</ele><time>2026-05-02T12:57:12.971Z</time></trkpt><trkpt lat="43.6252485" lon="11.183081"><ele>137.42857142857144</ele><time>2026-05-02T12:57:13.971Z</time></trkpt><trkpt lat="43.6253123" lon="11.1830505"><ele>137.28571428571428</ele><time>2026-05-02T12:57:14.971Z</time></trkpt><trkpt lat="43.6253784" lon="11.1830109"><ele>137.14285714285717</ele><time>2026-05-02T12:57:15.971Z</time></trkpt><trkpt lat="43.6254395" lon="11.1829729"><ele>137.0</ele><time>2026-05-02T12:57:16.971Z</time></trkpt><trkpt lat="43.6255474" lon="11.182887"><ele>137.0</ele><time>2026-05-02T12:57:18.971Z</time></trkpt><trkpt lat="43.6256082" lon="11.1828433"><ele>137.0</ele><time>2026-05-02T12:57:19.971Z</time></trkpt><trkpt lat="43.625669" lon="11.1827985"><ele>137.0</ele><time>2026-05-02T12:57:20.972Z</time></trkpt><trkpt lat="43.6257258" lon="11.1827535"><ele>137.0</ele><time>2026-05-02T12:57:21.971Z</time></trkpt><trkpt lat="43.6258361" lon="11.1826548"><ele>137.0</ele><time>2026-05-02T12:57:23.971Z</time></trkpt><trkpt lat="43.6258943" lon="11.182582"><ele>137.0</ele><time>2026-05-02T12:57:24.971Z</time></trkpt><trkpt lat="43.6259465" lon="11.1824976"><ele>137.00000000000003</ele><time>2026-05-02T12:57:25.971Z</time></trkpt><trkpt lat="43.6260013" lon="11.1824142"><ele>137.0</ele><time>2026-05-02T12:57:26.972Z</time></trkpt><trkpt lat="43.6260515" lon="11.1823352"><ele>137.0</ele><time>2026-05-02T12:57:27.971Z</time></trkpt><trkpt lat="43.6260944" lon="11.1822657"><ele>137.0</ele><time>2026-05-02T12:57:28.972Z</time></trkpt><trkpt lat="43.6261406" lon="11.1822018"><ele>137.0</ele><time>2026-05-02T12:57:29.971Z</time></trkpt><trkpt lat="43.6261926" lon="11.1821518"><ele>137.00000000000003</ele><time>2026-05-02T12:57:30.971Z</time></trkpt><trkpt lat="43.6262471" lon="11.1821043"><ele>137.0</ele><time>2026-05-02T12:57:31.971Z</time></trkpt><trkpt lat="43.6263072" lon="11.1820578"><ele>135.83333333333331</ele><time>2026-05-02T12:57:32.971Z</time></trkpt><trkpt lat="43.6263756" lon="11.1820167"><ele>134.66666666666666</ele><time>2026-05-02T12:57:33.971Z</time></trkpt><trkpt lat="43.6264478" lon="11.1819824"><ele>133.5</ele><time>2026-05-02T12:57:34.971Z</time></trkpt><trkpt lat="43.6265224" lon="11.1819614"><ele>132.33333333333334</ele><time>2026-05-02T12:57:35.972Z</time></trkpt><trkpt lat="43.6266027" lon="11.1819401"><ele>131.16666666666669</ele><time>2026-05-02T12:57:36.971Z</time></trkpt><trkpt lat="43.6266796" lon="11.1819126"><ele>130.0</ele><time>2026-05-02T12:57:37.971Z</time></trkpt><trkpt lat="43.6267577" lon="11.1818801"><ele>130.0</ele><time>2026-05-02T12:57:38.971Z</time></trkpt><trkpt lat="43.6268334" lon="11.1818429"><ele>130.0</ele><time>2026-05-02T12:57:39.971Z</time></trkpt><trkpt lat="43.626909" lon="11.1817911"><ele>130.0</ele><time>2026-05-02T12:57:40.971Z</time></trkpt><trkpt lat="43.6269764" lon="11.1817497"><ele>130.0</ele><time>2026-05-02T12:57:41.971Z</time></trkpt><trkpt lat="43.6270423" lon="11.1817106"><ele>130.0</ele><time>2026-05-02T12:57:42.972Z</time></trkpt><trkpt lat="43.627103" lon="11.1816752"><ele>130.0</ele><time>2026-05-02T12:57:43.971Z</time></trkpt><trkpt lat="43.6272049" lon="11.1816112"><ele>130.0</ele><time>2026-05-02T12:57:45.971Z</time></trkpt><trkpt lat="43.6272875" lon="11.1815388"><ele>130.0</ele><time>2026-05-02T12:57:47.971Z</time></trkpt><trkpt lat="43.6273591" lon="11.1814682"><ele>130.0</ele><time>2026-05-02T12:57:49.971Z</time></trkpt><trkpt lat="43.627465" lon="11.1813597"><ele>130.0</ele><time>2026-05-02T12:57:51.971Z</time></trkpt><trkpt lat="43.6275267" lon="11.1812902"><ele>130.0</ele><time>2026-05-02T12:57:52.972Z</time></trkpt><trkpt lat="43.6275907" lon="11.1812114"><ele>130.0</ele><time>2026-05-02T12:57:53.972Z</time></trkpt><trkpt lat="43.6276516" lon="11.1811376"><ele>130.0</ele><time>2026-05-02T12:57:54.971Z</time></trkpt><trkpt lat="43.6277092" lon="11.1810639"><ele>130.0</ele><time>2026-05-02T12:57:55.971Z</time></trkpt><trkpt lat="43.6277643" lon="11.1809832"><ele>130.0</ele><time>2026-05-02T12:57:56.97Z</time></trkpt><trkpt lat="43.6278182" lon="11.1809113"><ele>130.0</ele><time>2026-05-02T12:57:57.97Z</time></trkpt><trkpt lat="43.6278707" lon="11.1808413"><ele>130.0</ele><time>2026-05-02T12:57:58.97Z</time></trkpt><trkpt lat="43.627925" lon="11.1807636"><ele>129.83333333333334</ele><time>2026-05-02T12:57:59.97Z</time></trkpt><trkpt lat="43.6279713" lon="11.1806923"><ele>129.66666666666669</ele><time>2026-05-02T12:58:00.97Z</time></trkpt><trkpt lat="43.6280175" lon="11.1806173"><ele>129.5</ele><time>2026-05-02T12:58:01.97Z</time></trkpt><trkpt lat="43.6280653" lon="11.1805408"><ele>129.33333333333334</ele><time>2026-05-02T12:58:02.97Z</time></trkpt><trkpt lat="43.6281438" lon="11.1804118"><ele>129.16666666666666</ele><time>2026-05-02T12:58:04.97Z</time></trkpt><trkpt lat="43.6282135" lon="11.1802942"><ele>129.0</ele><time>2026-05-02T12:58:06.97Z</time></trkpt><trkpt lat="43.6282847" lon="11.180186"><ele>128.83333333333334</ele><time>2026-05-02T12:58:08.971Z</time></trkpt><trkpt lat="43.6283484" lon="11.1801006"><ele>128.66666666666666</ele><time>2026-05-02T12:58:10.97Z</time></trkpt><trkpt lat="43.6284022" lon="11.1800488"><ele>128.5</ele><time>2026-05-02T12:58:12.97Z</time></trkpt><trkpt lat="43.6284589" lon="11.1799757"><ele>128.33333333333331</ele><time>2026-05-02T12:58:14.97Z</time></trkpt><trkpt lat="43.6285297" lon="11.1798789"><ele>128.16666666666666</ele><time>2026-05-02T12:58:16.97Z</time></trkpt><trkpt lat="43.6286132" lon="11.1797874"><ele>128.0</ele><time>2026-05-02T12:58:18.97Z</time></trkpt><trkpt lat="43.628709" lon="11.1796757"><ele>127.66666666666666</ele><time>2026-05-02T12:58:20.97Z</time></trkpt><trkpt lat="43.6287864" lon="11.1795701"><ele>127.33333333333333</ele><time>2026-05-02T12:58:22.97Z</time></trkpt><trkpt lat="43.6288424" lon="11.1794722"><ele>127.0</ele><time>2026-05-02T12:58:24.971Z</time></trkpt><trkpt lat="43.6288845" lon="11.1793965"><ele>126.66666666666666</ele><time>2026-05-02T12:58:26.97Z</time></trkpt><trkpt lat="43.6289345" lon="11.1793412"><ele>126.33333333333333</ele><time>2026-05-02T12:58:28.97Z</time></trkpt><trkpt lat="43.6289992" lon="11.1792797"><ele>126.0</ele><time>2026-05-02T12:58:30.97Z</time></trkpt><trkpt lat="43.6290704" lon="11.1791894"><ele>126.0</ele><time>2026-05-02T12:58:32.97Z</time></trkpt><trkpt lat="43.6291605" lon="11.179098"><ele>126.0</ele><time>2026-05-02T12:58:34.97Z</time></trkpt><trkpt lat="43.6292673" lon="11.1789919"><ele>126.0</ele><time>2026-05-02T12:58:36.971Z</time></trkpt><trkpt lat="43.6293287" lon="11.1789449"><ele>126.0</ele><time>2026-05-02T12:58:37.97Z</time></trkpt><trkpt lat="43.6293964" lon="11.1788964"><ele>126.0</ele><time>2026-05-02T12:58:38.97Z</time></trkpt><trkpt lat="43.6294695" lon="11.1788622"><ele>126.16666666666667</ele><time>2026-05-02T12:58:39.97Z</time></trkpt><trkpt lat="43.6295483" lon="11.1788376"><ele>126.33333333333334</ele><time>2026-05-02T12:58:40.97Z</time></trkpt><trkpt lat="43.6296349" lon="11.1788155"><ele>126.5</ele><time>2026-05-02T12:58:41.97Z</time></trkpt><trkpt lat="43.6297254" lon="11.1787976"><ele>126.66666666666667</ele><time>2026-05-02T12:58:42.97Z</time></trkpt><trkpt lat="43.6298061" lon="11.1787837"><ele>126.83333333333334</ele><time>2026-05-02T12:58:43.97Z</time></trkpt><trkpt lat="43.629884" lon="11.1787634"><ele>127.0</ele><time>2026-05-02T12:58:44.97Z</time></trkpt><trkpt lat="43.6299509" lon="11.1787484"><ele>127.0</ele><time>2026-05-02T12:58:45.97Z</time></trkpt><trkpt lat="43.6300659" lon="11.1787506"><ele>126.99999999999999</ele><time>2026-05-02T12:58:47.97Z</time></trkpt><trkpt lat="43.6301486" lon="11.1788625"><ele>126.99999999999999</ele><time>2026-05-02T12:58:49.97Z</time></trkpt><trkpt lat="43.6301709" lon="11.1789594"><ele>127.0</ele><time>2026-05-02T12:58:50.97Z</time></trkpt><trkpt lat="43.6301853" lon="11.1790722"><ele>127.0</ele><time>2026-05-02T12:58:51.97Z</time></trkpt><trkpt lat="43.6301988" lon="11.1792077"><ele>127.0</ele><time>2026-05-02T12:58:52.971Z</time></trkpt><trkpt lat="43.6302148" lon="11.1793562"><ele>127.0</ele><time>2026-05-02T12:58:53.97Z</time></trkpt><trkpt lat="43.6302339" lon="11.1795142"><ele>127.0</ele><time>2026-05-02T12:58:54.97Z</time></trkpt><trkpt lat="43.630257" lon="11.1796721"><ele>127.0</ele><time>2026-05-02T12:58:55.971Z</time></trkpt><trkpt lat="43.6302777" lon="11.1798311"><ele>127.0</ele><time>2026-05-02T12:58:56.97Z</time></trkpt><trkpt lat="43.6302964" lon="11.1799838"><ele>126.99999999999999</ele><time>2026-05-02T12:58:57.97Z</time></trkpt><trkpt lat="43.6303114" lon="11.1801314"><ele>126.99999999999999</ele><time>2026-05-02T12:58:58.97Z</time></trkpt><trkpt lat="43.6303234" lon="11.1802679"><ele>127.0</ele><time>2026-05-02T12:58:59.97Z</time></trkpt><trkpt lat="43.6303406" lon="11.1803966"><ele>127.0</ele><time>2026-05-02T12:59:00.97Z</time></trkpt><trkpt lat="43.6303565" lon="11.1805221"><ele>127.00000000000001</ele><time>2026-05-02T12:59:01.97Z</time></trkpt><trkpt lat="43.6303734" lon="11.1806344"><ele>127.0</ele><time>2026-05-02T12:59:02.97Z</time></trkpt><trkpt lat="43.6303905" lon="11.1807474"><ele>127.0</ele><time>2026-05-02T12:59:03.97Z</time></trkpt><trkpt lat="43.6304033" lon="11.1808507"><ele>127.0</ele><time>2026-05-02T12:59:04.97Z</time></trkpt><trkpt lat="43.6304154" lon="11.1809475"><ele>127.00000000000001</ele><time>2026-05-02T12:59:05.97Z</time></trkpt><trkpt lat="43.6304287" lon="11.1810328"><ele>127.0</ele><time>2026-05-02T12:59:06.97Z</time></trkpt><trkpt lat="43.6304673" lon="11.1811599"><ele>127.19999999999999</ele><time>2026-05-02T12:59:08.97Z</time></trkpt><trkpt lat="43.630486" lon="11.1812694"><ele>127.39999999999999</ele><time>2026-05-02T12:59:11.971Z</time></trkpt><trkpt lat="43.6305204" lon="11.1813946"><ele>127.60000000000001</ele><time>2026-05-02T12:59:31.97Z</time></trkpt><trkpt lat="43.6304116" lon="11.1813987"><ele>127.80000000000001</ele><time>2026-05-02T12:59:34.97Z</time></trkpt><trkpt lat="43.6303299" lon="11.1814271"><ele>128.0</ele><time>2026-05-02T12:59:35.97Z</time></trkpt><trkpt lat="43.6302421" lon="11.1814696"><ele>129.0</ele><time>2026-05-02T12:59:36.97Z</time></trkpt><trkpt lat="43.6301467" lon="11.1815391"><ele>130.0</ele><time>2026-05-02T12:59:37.97Z</time></trkpt><trkpt lat="43.6300496" lon="11.1816193"><ele>131.0</ele><time>2026-05-02T12:59:38.97Z</time></trkpt><trkpt lat="43.6299456" lon="11.1817037"><ele>132.0</ele><time>2026-05-02T12:59:39.971Z</time></trkpt><trkpt lat="43.6298338" lon="11.1817751"><ele>132.0</ele><time>2026-05-02T12:59:40.97Z</time></trkpt><trkpt lat="43.6297232" lon="11.18185"><ele>132.0</ele><time>2026-05-02T12:59:41.97Z</time></trkpt><trkpt lat="43.6296134" lon="11.1818918"><ele>132.0</ele><time>2026-05-02T12:59:42.971Z</time></trkpt><trkpt lat="43.629488" lon="11.1819426"><ele>132.0</ele><time>2026-05-02T12:59:43.97Z</time></trkpt><trkpt lat="43.6293517" lon="11.1819795"><ele>131.5</ele><time>2026-05-02T12:59:44.97Z</time></trkpt><trkpt lat="43.6292062" lon="11.1820022"><ele>131.0</ele><time>2026-05-02T12:59:45.97Z</time></trkpt><trkpt lat="43.629062" lon="11.1820278"><ele>130.5</ele><time>2026-05-02T12:59:46.97Z</time></trkpt><trkpt lat="43.6289219" lon="11.1820641"><ele>130.0</ele><time>2026-05-02T12:59:47.971Z</time></trkpt><trkpt lat="43.6287828" lon="11.1821116"><ele>130.0</ele><time>2026-05-02T12:59:48.97Z</time></trkpt><trkpt lat="43.6286525" lon="11.1821734"><ele>130.0</ele><time>2026-05-02T12:59:49.97Z</time></trkpt><trkpt lat="43.6285265" lon="11.1822664"><ele>130.0</ele><time>2026-05-02T12:59:50.97Z</time></trkpt><trkpt lat="43.6284093" lon="11.1824002"><ele>130.0</ele><time>2026-05-02T12:59:51.97Z</time></trkpt><trkpt lat="43.6282878" lon="11.1825647"><ele>131.0</ele><time>2026-05-02T12:59:52.97Z</time></trkpt><trkpt lat="43.6281763" lon="11.1827277"><ele>132.0</ele><time>2026-05-02T12:59:53.97Z</time></trkpt><trkpt lat="43.6280571" lon="11.1828992"><ele>133.0</ele><time>2026-05-02T12:59:54.97Z</time></trkpt><trkpt lat="43.6279385" lon="11.1830666"><ele>134.66666666666669</ele><time>2026-05-02T12:59:55.971Z</time></trkpt><trkpt lat="43.6278213" lon="11.1832319"><ele>136.33333333333334</ele><time>2026-05-02T12:59:56.97Z</time></trkpt><trkpt lat="43.6276882" lon="11.1833826"><ele>138.0</ele><time>2026-05-02T12:59:57.97Z</time></trkpt><trkpt lat="43.6275513" lon="11.1835216"><ele>138.0</ele><time>2026-05-02T12:59:58.97Z</time></trkpt><trkpt lat="43.6274023" lon="11.1836509"><ele>138.0</ele><time>2026-05-02T12:59:59.97Z</time></trkpt><trkpt lat="43.6272436" lon="11.1837556"><ele>138.0</ele><time>2026-05-02T13:00:00.97Z</time></trkpt><trkpt lat="43.6270927" lon="11.1838559"><ele>138.0</ele><time>2026-05-02T13:00:01.97Z</time></trkpt><trkpt lat="43.6269302" lon="11.1839212"><ele>138.0</ele><time>2026-05-02T13:00:02.97Z</time></trkpt><trkpt lat="43.626769" lon="11.1839776"><ele>138.0</ele><time>2026-05-02T13:00:03.97Z</time></trkpt><trkpt lat="43.6265819" lon="11.1840255"><ele>139.0</ele><time>2026-05-02T13:00:04.97Z</time></trkpt><trkpt lat="43.6264032" lon="11.1840863"><ele>140.0</ele><time>2026-05-02T13:00:05.97Z</time></trkpt><trkpt lat="43.6262211" lon="11.184141"><ele>141.0</ele><time>2026-05-02T13:00:06.97Z</time></trkpt><trkpt lat="43.6260331" lon="11.1841983"><ele>141.0</ele><time>2026-05-02T13:00:07.97Z</time></trkpt><trkpt lat="43.6258476" lon="11.1842663"><ele>141.0</ele><time>2026-05-02T13:00:08.97Z</time></trkpt><trkpt lat="43.6256634" lon="11.1843642"><ele>141.0</ele><time>2026-05-02T13:00:09.97Z</time></trkpt><trkpt lat="43.6254831" lon="11.1844931"><ele>141.66666666666666</ele><time>2026-05-02T13:00:10.97Z</time></trkpt><trkpt lat="43.6253121" lon="11.1846441"><ele>142.33333333333331</ele><time>2026-05-02T13:00:11.97Z</time></trkpt><trkpt lat="43.6251536" lon="11.1847934"><ele>143.0</ele><time>2026-05-02T13:00:12.97Z</time></trkpt><trkpt lat="43.6250024" lon="11.1849335"><ele>145.0</ele><time>2026-05-02T13:00:13.97Z</time></trkpt><trkpt lat="43.6248563" lon="11.1850634"><ele>147.0</ele><time>2026-05-02T13:00:14.97Z</time></trkpt><trkpt lat="43.6247156" lon="11.1851802"><ele>149.0</ele><time>2026-05-02T13:00:15.97Z</time></trkpt><trkpt lat="43.6245686" lon="11.1852907"><ele>147.66666666666666</ele><time>2026-05-02T13:00:16.97Z</time></trkpt><trkpt lat="43.6243988" lon="11.1853701"><ele>146.33333333333334</ele><time>2026-05-02T13:00:17.97Z</time></trkpt><trkpt lat="43.624214" lon="11.1854391"><ele>145.0</ele><time>2026-05-02T13:00:18.97Z</time></trkpt><trkpt lat="43.624027" lon="11.185521"><ele>145.0</ele><time>2026-05-02T13:00:19.97Z</time></trkpt><trkpt lat="43.6238364" lon="11.1856357"><ele>145.0</ele><time>2026-05-02T13:00:20.97Z</time></trkpt><trkpt lat="43.6236479" lon="11.185785"><ele>145.0</ele><time>2026-05-02T13:00:21.971Z</time></trkpt><trkpt lat="43.6234599" lon="11.1859583"><ele>144.0</ele><time>2026-05-02T13:00:22.97Z</time></trkpt><trkpt lat="43.6232685" lon="11.1861233"><ele>143.0</ele><time>2026-05-02T13:00:23.97Z</time></trkpt><trkpt lat="43.6230677" lon="11.1862742"><ele>143.0</ele><time>2026-05-02T13:00:24.971Z</time></trkpt><trkpt lat="43.6228505" lon="11.1864251"><ele>143.0</ele><time>2026-05-02T13:00:25.97Z</time></trkpt><trkpt lat="43.6226237" lon="11.1865623"><ele>144.5</ele><time>2026-05-02T13:00:26.97Z</time></trkpt><trkpt lat="43.6223925" lon="11.186677"><ele>146.0</ele><time>2026-05-02T13:00:27.97Z</time></trkpt><trkpt lat="43.6221557" lon="11.1867706"><ele>142.0</ele><time>2026-05-02T13:00:28.971Z</time></trkpt><trkpt lat="43.6219356" lon="11.1868583"><ele>138.0</ele><time>2026-05-02T13:00:29.97Z</time></trkpt><trkpt lat="43.6217146" lon="11.1869417"><ele>138.0</ele><time>2026-05-02T13:00:30.97Z</time></trkpt><trkpt lat="43.6214973" lon="11.1870157"><ele>138.0</ele><time>2026-05-02T13:00:31.97Z</time></trkpt><trkpt lat="43.621281" lon="11.1870802"><ele>138.0</ele><time>2026-05-02T13:00:32.97Z</time></trkpt><trkpt lat="43.6210636" lon="11.1871391"><ele>138.0</ele><time>2026-05-02T13:00:33.97Z</time></trkpt><trkpt lat="43.6208512" lon="11.1871989"><ele>138.0</ele><time>2026-05-02T13:00:34.97Z</time></trkpt><trkpt lat="43.6206493" lon="11.1872571"><ele>138.0</ele><time>2026-05-02T13:00:35.971Z</time></trkpt><trkpt lat="43.620448" lon="11.1873179"><ele>139.33333333333334</ele><time>2026-05-02T13:00:36.97Z</time></trkpt><trkpt lat="43.6202454" lon="11.1873807"><ele>140.66666666666669</ele><time>2026-05-02T13:00:37.97Z</time></trkpt><trkpt lat="43.6200472" lon="11.1874603"><ele>142.0</ele><time>2026-05-02T13:00:38.97Z</time></trkpt><trkpt lat="43.6198506" lon="11.18758"><ele>142.0</ele><time>2026-05-02T13:00:39.971Z</time></trkpt><trkpt lat="43.6196679" lon="11.1877194"><ele>142.0</ele><time>2026-05-02T13:00:40.97Z</time></trkpt><trkpt lat="43.6195021" lon="11.1879165"><ele>142.0</ele><time>2026-05-02T13:00:41.97Z</time></trkpt><trkpt lat="43.6193451" lon="11.18811"><ele>142.0</ele><time>2026-05-02T13:00:42.97Z</time></trkpt><trkpt lat="43.6191967" lon="11.1883036"><ele>142.0</ele><time>2026-05-02T13:00:43.97Z</time></trkpt><trkpt lat="43.6190255" lon="11.1884656"><ele>142.0</ele><time>2026-05-02T13:00:44.97Z</time></trkpt><trkpt lat="43.6188345" lon="11.1886039"><ele>141.66666666666669</ele><time>2026-05-02T13:00:45.971Z</time></trkpt><trkpt lat="43.6186265" lon="11.1887242"><ele>141.33333333333334</ele><time>2026-05-02T13:00:46.97Z</time></trkpt><trkpt lat="43.6184196" lon="11.1888145"><ele>141.0</ele><time>2026-05-02T13:00:47.97Z</time></trkpt><trkpt lat="43.6182217" lon="11.1888878"><ele>141.0</ele><time>2026-05-02T13:00:48.97Z</time></trkpt><trkpt lat="43.6180282" lon="11.1889566"><ele>141.0</ele><time>2026-05-02T13:00:49.97Z</time></trkpt><trkpt lat="43.6178569" lon="11.1890269"><ele>141.0</ele><time>2026-05-02T13:00:50.97Z</time></trkpt><trkpt lat="43.6176964" lon="11.1890891"><ele>143.33333333333334</ele><time>2026-05-02T13:00:51.97Z</time></trkpt><trkpt lat="43.6175418" lon="11.1891556"><ele>145.66666666666669</ele><time>2026-05-02T13:00:52.971Z</time></trkpt><trkpt lat="43.6173944" lon="11.189227"><ele>148.0</ele><time>2026-05-02T13:00:53.97Z</time></trkpt><trkpt lat="43.6172516" lon="11.1892997"><ele>148.0</ele><time>2026-05-02T13:00:54.97Z</time></trkpt><trkpt lat="43.6171127" lon="11.1893851"><ele>148.0</ele><time>2026-05-02T13:00:55.97Z</time></trkpt><trkpt lat="43.6169827" lon="11.1894978"><ele>148.0</ele><time>2026-05-02T13:00:56.97Z</time></trkpt><trkpt lat="43.6168541" lon="11.1896068"><ele>148.5</ele><time>2026-05-02T13:00:57.97Z</time></trkpt><trkpt lat="43.616731" lon="11.1897156"><ele>149.0</ele><time>2026-05-02T13:00:58.97Z</time></trkpt><trkpt lat="43.6166123" lon="11.1898246"><ele>149.5</ele><time>2026-05-02T13:00:59.97Z</time></trkpt><trkpt lat="43.6164974" lon="11.1899206"><ele>150.0</ele><time>2026-05-02T13:01:00.97Z</time></trkpt><trkpt lat="43.6163847" lon="11.1900108"><ele>150.0</ele><time>2026-05-02T13:01:01.97Z</time></trkpt><trkpt lat="43.6162705" lon="11.1900945"><ele>150.0</ele><time>2026-05-02T13:01:02.97Z</time></trkpt><trkpt lat="43.6161525" lon="11.1901667"><ele>150.0</ele><time>2026-05-02T13:01:03.97Z</time></trkpt><trkpt lat="43.6160289" lon="11.1902329"><ele>150.0</ele><time>2026-05-02T13:01:04.97Z</time></trkpt><trkpt lat="43.6158996" lon="11.1902971"><ele>150.0</ele><time>2026-05-02T13:01:05.97Z</time></trkpt><trkpt lat="43.6157662" lon="11.1903543"><ele>150.0</ele><time>2026-05-02T13:01:06.97Z</time></trkpt><trkpt lat="43.6156304" lon="11.1904027"><ele>150.0</ele><time>2026-05-02T13:01:07.97Z</time></trkpt><trkpt lat="43.6154783" lon="11.1904445"><ele>150.0</ele><time>2026-05-02T13:01:08.97Z</time></trkpt><trkpt lat="43.6153163" lon="11.1904883"><ele>148.33333333333334</ele><time>2026-05-02T13:01:09.97Z</time></trkpt><trkpt lat="43.6151552" lon="11.1905304"><ele>146.66666666666669</ele><time>2026-05-02T13:01:10.971Z</time></trkpt><trkpt lat="43.614998" lon="11.1905683"><ele>145.0</ele><time>2026-05-02T13:01:11.97Z</time></trkpt><trkpt lat="43.6148524" lon="11.1906072"><ele>145.0</ele><time>2026-05-02T13:01:12.97Z</time></trkpt><trkpt lat="43.6147125" lon="11.190651"><ele>145.0</ele><time>2026-05-02T13:01:13.971Z</time></trkpt><trkpt lat="43.6145882" lon="11.1906931"><ele>145.0</ele><time>2026-05-02T13:01:14.97Z</time></trkpt><trkpt lat="43.6144835" lon="11.1907364"><ele>145.0</ele><time>2026-05-02T13:01:15.97Z</time></trkpt><trkpt lat="43.6143965" lon="11.1907669"><ele>144.83333333333334</ele><time>2026-05-02T13:01:16.97Z</time></trkpt><trkpt lat="43.6143216" lon="11.1907708"><ele>144.66666666666669</ele><time>2026-05-02T13:01:17.97Z</time></trkpt><trkpt lat="43.6142166" lon="11.1906873"><ele>144.5</ele><time>2026-05-02T13:01:19.97Z</time></trkpt><trkpt lat="43.6141934" lon="11.1906013"><ele>144.33333333333334</ele><time>2026-05-02T13:01:20.97Z</time></trkpt><trkpt lat="43.6141904" lon="11.1904962"><ele>144.16666666666666</ele><time>2026-05-02T13:01:21.97Z</time></trkpt><trkpt lat="43.6141986" lon="11.1903727"><ele>144.0</ele><time>2026-05-02T13:01:22.97Z</time></trkpt><trkpt lat="43.6142092" lon="11.1902335"><ele>144.0</ele><time>2026-05-02T13:01:23.97Z</time></trkpt><trkpt lat="43.6142176" lon="11.1901021"><ele>144.0</ele><time>2026-05-02T13:01:24.97Z</time></trkpt><trkpt lat="43.6142362" lon="11.1899694"><ele>144.0</ele><time>2026-05-02T13:01:25.97Z</time></trkpt><trkpt lat="43.6142174" lon="11.1898577"><ele>144.0</ele><time>2026-05-02T13:01:26.971Z</time></trkpt><trkpt lat="43.6141948" lon="11.1897583"><ele>144.0</ele><time>2026-05-02T13:01:27.97Z</time></trkpt><trkpt lat="43.6141794" lon="11.1896656"><ele>144.0</ele><time>2026-05-02T13:01:28.97Z</time></trkpt><trkpt lat="43.6141877" lon="11.18957"><ele>143.4</ele><time>2026-05-02T13:01:29.97Z</time></trkpt><trkpt lat="43.6142547" lon="11.1894515"><ele>142.8</ele><time>2026-05-02T13:01:31.97Z</time></trkpt><trkpt lat="43.6143616" lon="11.1893975"><ele>142.2</ele><time>2026-05-02T13:01:33.97Z</time></trkpt><trkpt lat="43.6144273" lon="11.1893804"><ele>141.6</ele><time>2026-05-02T13:01:34.97Z</time></trkpt><trkpt lat="43.6144862" lon="11.1893494"><ele>141.0</ele><time>2026-05-02T13:01:35.97Z</time></trkpt><trkpt lat="43.6145953" lon="11.189289"><ele>141.0</ele><time>2026-05-02T13:01:37.971Z</time></trkpt><trkpt lat="43.6147153" lon="11.1892232"><ele>141.0</ele><time>2026-05-02T13:01:39.97Z</time></trkpt><trkpt lat="43.6148102" lon="11.1891702"><ele>141.0</ele><time>2026-05-02T13:01:40.97Z</time></trkpt><trkpt lat="43.6149304" lon="11.1891081"><ele>141.0</ele><time>2026-05-02T13:01:41.97Z</time></trkpt><trkpt lat="43.6150813" lon="11.1890284"><ele>140.75</ele><time>2026-05-02T13:01:42.97Z</time></trkpt><trkpt lat="43.615239" lon="11.1888982"><ele>140.5</ele><time>2026-05-02T13:01:43.97Z</time></trkpt><trkpt lat="43.6153666" lon="11.1888374"><ele>140.25</ele><time>2026-05-02T13:01:44.97Z</time></trkpt><trkpt lat="43.6154762" lon="11.1887797"><ele>140.0</ele><time>2026-05-02T13:01:45.97Z</time></trkpt><trkpt lat="43.6155652" lon="11.1887329"><ele>140.16666666666666</ele><time>2026-05-02T13:01:46.97Z</time></trkpt><trkpt lat="43.6156387" lon="11.1886838"><ele>140.33333333333331</ele><time>2026-05-02T13:01:47.971Z</time></trkpt><trkpt lat="43.6156804" lon="11.1886124"><ele>140.5</ele><time>2026-05-02T13:01:48.971Z</time></trkpt><trkpt lat="43.6156998" lon="11.1885163"><ele>140.66666666666666</ele><time>2026-05-02T13:01:49.971Z</time></trkpt><trkpt lat="43.6156875" lon="11.1884034"><ele>140.83333333333334</ele><time>2026-05-02T13:01:50.971Z</time></trkpt><trkpt lat="43.6156379" lon="11.1882861"><ele>141.0</ele><time>2026-05-02T13:01:51.97Z</time></trkpt><trkpt lat="43.6155808" lon="11.1881443"><ele>141.0</ele><time>2026-05-02T13:01:52.97Z</time></trkpt><trkpt lat="43.6155371" lon="11.1879806"><ele>141.0</ele><time>2026-05-02T13:01:53.97Z</time></trkpt><trkpt lat="43.615516" lon="11.1878012"><ele>141.0</ele><time>2026-05-02T13:01:54.97Z</time></trkpt><trkpt lat="43.6155098" lon="11.1876304"><ele>141.0</ele><time>2026-05-02T13:01:55.97Z</time></trkpt><trkpt lat="43.6155059" lon="11.1874672"><ele>140.25</ele><time>2026-05-02T13:01:56.97Z</time></trkpt><trkpt lat="43.6154949" lon="11.187307"><ele>139.5</ele><time>2026-05-02T13:01:57.971Z</time></trkpt><trkpt lat="43.6154695" lon="11.187155"><ele>138.75</ele><time>2026-05-02T13:01:58.97Z</time></trkpt><trkpt lat="43.6154372" lon="11.1870002"><ele>138.0</ele><time>2026-05-02T13:01:59.97Z</time></trkpt><trkpt lat="43.6153871" lon="11.1868424"><ele>138.0</ele><time>2026-05-02T13:02:00.97Z</time></trkpt><trkpt lat="43.6153245" lon="11.1866937"><ele>138.0</ele><time>2026-05-02T13:02:01.97Z</time></trkpt><trkpt lat="43.6152511" lon="11.1865565"><ele>138.0</ele><time>2026-05-02T13:02:02.97Z</time></trkpt><trkpt lat="43.615168" lon="11.1864418"><ele>138.0</ele><time>2026-05-02T13:02:03.97Z</time></trkpt><trkpt lat="43.6150663" lon="11.1863462"><ele>137.75</ele><time>2026-05-02T13:02:04.97Z</time></trkpt><trkpt lat="43.6149659" lon="11.1862611"><ele>137.5</ele><time>2026-05-02T13:02:05.971Z</time></trkpt><trkpt lat="43.6148552" lon="11.1861849"><ele>137.25</ele><time>2026-05-02T13:02:06.97Z</time></trkpt><trkpt lat="43.6147411" lon="11.1861098"><ele>137.0</ele><time>2026-05-02T13:02:07.971Z</time></trkpt><trkpt lat="43.6146305" lon="11.1860535"><ele>137.0</ele><time>2026-05-02T13:02:08.97Z</time></trkpt><trkpt lat="43.6145324" lon="11.1860053"><ele>137.0</ele><time>2026-05-02T13:02:09.97Z</time></trkpt><trkpt lat="43.6144368" lon="11.1859545"><ele>137.0</ele><time>2026-05-02T13:02:10.97Z</time></trkpt><trkpt lat="43.6143467" lon="11.1859048"><ele>137.0</ele><time>2026-05-02T13:02:11.97Z</time></trkpt><trkpt lat="43.6142598" lon="11.1858626"><ele>137.0</ele><time>2026-05-02T13:02:12.971Z</time></trkpt><trkpt lat="43.6141862" lon="11.1858332"><ele>138.0</ele><time>2026-05-02T13:02:13.97Z</time></trkpt><trkpt lat="43.6141127" lon="11.1858193"><ele>139.0</ele><time>2026-05-02T13:02:14.97Z</time></trkpt><trkpt lat="43.6140421" lon="11.1858211"><ele>140.0</ele><time>2026-05-02T13:02:15.97Z</time></trkpt><trkpt lat="43.6139659" lon="11.1858473"><ele>141.0</ele><time>2026-05-02T13:02:16.97Z</time></trkpt><trkpt lat="43.6138882" lon="11.1858921"><ele>142.0</ele><time>2026-05-02T13:02:17.97Z</time></trkpt><trkpt lat="43.6138223" lon="11.1859446"><ele>143.0</ele><time>2026-05-02T13:02:18.97Z</time></trkpt><trkpt lat="43.6137705" lon="11.186012"><ele>143.0</ele><time>2026-05-02T13:02:19.97Z</time></trkpt><trkpt lat="43.6137214" lon="11.1860835"><ele>143.0</ele><time>2026-05-02T13:02:20.971Z</time></trkpt><trkpt lat="43.6136254" lon="11.186183"><ele>143.0</ele><time>2026-05-02T13:02:22.97Z</time></trkpt><trkpt lat="43.613552" lon="11.1863098"><ele>143.0</ele><time>2026-05-02T13:02:24.97Z</time></trkpt><trkpt lat="43.6135005" lon="11.1864537"><ele>143.0</ele><time>2026-05-02T13:02:26.97Z</time></trkpt><trkpt lat="43.6134404" lon="11.18661"><ele>143.8</ele><time>2026-05-02T13:02:28.971Z</time></trkpt><trkpt lat="43.6133796" lon="11.1867212"><ele>144.60000000000002</ele><time>2026-05-02T13:02:30.97Z</time></trkpt><trkpt lat="43.613343" lon="11.1867998"><ele>145.39999999999998</ele><time>2026-05-02T13:02:31.97Z</time></trkpt><trkpt lat="43.613272" lon="11.186946"><ele>146.2</ele><time>2026-05-02T13:02:33.97Z</time></trkpt><trkpt lat="43.6132066" lon="11.1870857"><ele>147.0</ele><time>2026-05-02T13:02:35.971Z</time></trkpt><trkpt lat="43.6131433" lon="11.1872202"><ele>146.4</ele><time>2026-05-02T13:02:37.971Z</time></trkpt><trkpt lat="43.6130769" lon="11.1873487"><ele>145.79999999999998</ele><time>2026-05-02T13:02:39.97Z</time></trkpt><trkpt lat="43.6130008" lon="11.1874594"><ele>145.2</ele><time>2026-05-02T13:02:41.97Z</time></trkpt><trkpt lat="43.6129363" lon="11.1875469"><ele>144.6</ele><time>2026-05-02T13:02:43.97Z</time></trkpt><trkpt lat="43.6128818" lon="11.1876122"><ele>144.0</ele><time>2026-05-02T13:02:45.969Z</time></trkpt><trkpt lat="43.6128477" lon="11.1876976"><ele>143.6</ele><time>2026-05-02T13:02:47.969Z</time></trkpt><trkpt lat="43.6127949" lon="11.187836"><ele>143.2</ele><time>2026-05-02T13:02:49.969Z</time></trkpt><trkpt lat="43.6127241" lon="11.1879562"><ele>142.79999999999998</ele><time>2026-05-02T13:02:51.969Z</time></trkpt><trkpt lat="43.6126847" lon="11.1880292"><ele>142.4</ele><time>2026-05-02T13:02:52.969Z</time></trkpt><trkpt lat="43.612595" lon="11.1881505"><ele>142.0</ele><time>2026-05-02T13:02:54.97Z</time></trkpt><trkpt lat="43.6124771" lon="11.1882328"><ele>142.0</ele><time>2026-05-02T13:02:56.969Z</time></trkpt><trkpt lat="43.6124117" lon="11.1882657"><ele>142.0</ele><time>2026-05-02T13:02:57.969Z</time></trkpt><trkpt lat="43.6122928" lon="11.1883122"><ele>142.0</ele><time>2026-05-02T13:02:59.969Z</time></trkpt><trkpt lat="43.612229" lon="11.1883283"><ele>142.0</ele><time>2026-05-02T13:03:00.97Z</time></trkpt><trkpt lat="43.6121061" lon="11.1883533"><ele>142.0</ele><time>2026-05-02T13:03:02.969Z</time></trkpt><trkpt lat="43.6120414" lon="11.1883688"><ele>142.0</ele><time>2026-05-02T13:03:03.97Z</time></trkpt><trkpt lat="43.6119746" lon="11.1883835"><ele>142.0</ele><time>2026-05-02T13:03:04.969Z</time></trkpt><trkpt lat="43.6119044" lon="11.1883982"><ele>142.0</ele><time>2026-05-02T13:03:05.97Z</time></trkpt><trkpt lat="43.6118413" lon="11.1884046"><ele>142.0</ele><time>2026-05-02T13:03:06.969Z</time></trkpt><trkpt lat="43.6117711" lon="11.188418"><ele>142.0</ele><time>2026-05-02T13:03:07.969Z</time></trkpt><trkpt lat="43.6117061" lon="11.1884298"><ele>142.0</ele><time>2026-05-02T13:03:08.969Z</time></trkpt><trkpt lat="43.6115851" lon="11.188442"><ele>142.0</ele><time>2026-05-02T13:03:10.97Z</time></trkpt><trkpt lat="43.6114608" lon="11.1884744"><ele>142.0</ele><time>2026-05-02T13:03:12.969Z</time></trkpt><trkpt lat="43.6113467" lon="11.1885068"><ele>142.0</ele><time>2026-05-02T13:03:14.97Z</time></trkpt><trkpt lat="43.6112516" lon="11.1885486"><ele>142.0</ele><time>2026-05-02T13:03:16.969Z</time></trkpt><trkpt lat="43.611166" lon="11.1885977"><ele>142.0</ele><time>2026-05-02T13:03:18.969Z</time></trkpt><trkpt lat="43.6111049" lon="11.1886846"><ele>142.0</ele><time>2026-05-02T13:03:20.969Z</time></trkpt><trkpt lat="43.6110347" lon="11.188819"><ele>142.4</ele><time>2026-05-02T13:03:22.969Z</time></trkpt><trkpt lat="43.610952" lon="11.1889353"><ele>142.79999999999998</ele><time>2026-05-02T13:03:24.969Z</time></trkpt><trkpt lat="43.6108707" lon="11.1890243"><ele>143.2</ele><time>2026-05-02T13:03:26.969Z</time></trkpt><trkpt lat="43.6107841" lon="11.1890767"><ele>143.6</ele><time>2026-05-02T13:03:28.969Z</time></trkpt><trkpt lat="43.6107174" lon="11.1891205"><ele>144.0</ele><time>2026-05-02T13:03:30.969Z</time></trkpt><trkpt lat="43.6106534" lon="11.1892388"><ele>144.0</ele><time>2026-05-02T13:03:33.969Z</time></trkpt><trkpt lat="43.6105839" lon="11.1893532"><ele>144.0</ele><time>2026-05-02T13:03:35.969Z</time></trkpt><trkpt lat="43.6105312" lon="11.1894074"><ele>144.0</ele><time>2026-05-02T13:03:36.97Z</time></trkpt><trkpt lat="43.6104475" lon="11.1895182"><ele>144.0</ele><time>2026-05-02T13:03:38.969Z</time></trkpt><trkpt lat="43.6103821" lon="11.189652"><ele>144.0</ele><time>2026-05-02T13:03:40.969Z</time></trkpt><trkpt lat="43.6103413" lon="11.1897312"><ele>144.16666666666666</ele><time>2026-05-02T13:03:41.969Z</time></trkpt><trkpt lat="43.6102876" lon="11.1897879"><ele>144.33333333333334</ele><time>2026-05-02T13:03:42.969Z</time></trkpt><trkpt lat="43.6102378" lon="11.1898562"><ele>144.5</ele><time>2026-05-02T13:03:43.969Z</time></trkpt><trkpt lat="43.6101878" lon="11.1899169"><ele>144.66666666666669</ele><time>2026-05-02T13:03:44.969Z</time></trkpt><trkpt lat="43.6101057" lon="11.1900308"><ele>144.83333333333334</ele><time>2026-05-02T13:03:46.969Z</time></trkpt><trkpt lat="43.6100147" lon="11.1901343"><ele>145.0</ele><time>2026-05-02T13:03:48.97Z</time></trkpt><trkpt lat="43.6099252" lon="11.1902147"><ele>145.2</ele><time>2026-05-02T13:03:50.969Z</time></trkpt><trkpt lat="43.6098428" lon="11.190305"><ele>145.4</ele><time>2026-05-02T13:03:52.969Z</time></trkpt><trkpt lat="43.6097645" lon="11.190396"><ele>145.6</ele><time>2026-05-02T13:03:54.969Z</time></trkpt><trkpt lat="43.609708" lon="11.1904363"><ele>145.8</ele><time>2026-05-02T13:03:55.969Z</time></trkpt><trkpt lat="43.6096198" lon="11.1904947"><ele>146.0</ele><time>2026-05-02T13:03:57.969Z</time></trkpt><trkpt lat="43.609539" lon="11.1905151"><ele>145.66666666666666</ele><time>2026-05-02T13:03:59.969Z</time></trkpt><trkpt lat="43.6094679" lon="11.1905395"><ele>145.33333333333331</ele><time>2026-05-02T13:04:01.969Z</time></trkpt><trkpt lat="43.6093487" lon="11.1905584"><ele>145.0</ele><time>2026-05-02T13:04:03.97Z</time></trkpt><trkpt lat="43.6092859" lon="11.1905748"><ele>144.66666666666666</ele><time>2026-05-02T13:04:04.969Z</time></trkpt><trkpt lat="43.6092211" lon="11.1905745"><ele>144.33333333333334</ele><time>2026-05-02T13:04:05.969Z</time></trkpt><trkpt lat="43.6091499" lon="11.1905586"><ele>144.0</ele><time>2026-05-02T13:04:06.969Z</time></trkpt><trkpt lat="43.6090777" lon="11.1905762"><ele>144.00000000000003</ele><time>2026-05-02T13:04:07.969Z</time></trkpt><trkpt lat="43.6090126" lon="11.1906004"><ele>144.0</ele><time>2026-05-02T13:04:08.969Z</time></trkpt><trkpt lat="43.6089516" lon="11.1906434"><ele>144.0</ele><time>2026-05-02T13:04:09.969Z</time></trkpt><trkpt lat="43.6088904" lon="11.1906925"><ele>144.0</ele><time>2026-05-02T13:04:10.97Z</time></trkpt><trkpt lat="43.6088325" lon="11.1907313"><ele>144.0</ele><time>2026-05-02T13:04:11.969Z</time></trkpt><trkpt lat="43.6087684" lon="11.1907492"><ele>144.00000000000003</ele><time>2026-05-02T13:04:12.969Z</time></trkpt><trkpt lat="43.6086844" lon="11.1907664"><ele>144.0</ele><time>2026-05-02T13:04:14.969Z</time></trkpt><trkpt lat="43.6086104" lon="11.1907456"><ele>144.5</ele><time>2026-05-02T13:04:16.969Z</time></trkpt><trkpt lat="43.6085519" lon="11.1907038"><ele>145.0</ele><time>2026-05-02T13:04:18.969Z</time></trkpt><trkpt lat="43.6084679" lon="11.1907651"><ele>145.5</ele><time>2026-05-02T13:04:34.969Z</time></trkpt><trkpt lat="43.6083952" lon="11.1908039"><ele>146.0</ele><time>2026-05-02T13:04:37.969Z</time></trkpt><trkpt lat="43.6082962" lon="11.1908161"><ele>146.5</ele><time>2026-05-02T13:04:40.97Z</time></trkpt><trkpt lat="43.6082066" lon="11.1908261"><ele>147.0</ele><time>2026-05-02T13:04:42.97Z</time></trkpt><trkpt lat="43.6081064" lon="11.1908235"><ele>147.0</ele><time>2026-05-02T13:04:44.969Z</time></trkpt><trkpt lat="43.6080192" lon="11.1908477"><ele>147.0</ele><time>2026-05-02T13:04:46.969Z</time></trkpt><trkpt lat="43.6079484" lon="11.1908811"><ele>147.0</ele><time>2026-05-02T13:04:48.969Z</time></trkpt><trkpt lat="43.6078615" lon="11.1908997"><ele>147.0</ele><time>2026-05-02T13:04:50.969Z</time></trkpt><trkpt lat="43.6077694" lon="11.1909133"><ele>147.0</ele><time>2026-05-02T13:04:52.969Z</time></trkpt><trkpt lat="43.6076889" lon="11.1909263"><ele>147.0</ele><time>2026-05-02T13:04:54.97Z</time></trkpt><trkpt lat="43.6076001" lon="11.1908944"><ele>147.0</ele><time>2026-05-02T13:04:57.969Z</time></trkpt><trkpt lat="43.6075945" lon="11.1907948"><ele>147.0</ele><time>2026-05-02T13:05:00.969Z</time></trkpt><trkpt lat="43.6076852" lon="11.1907502"><ele>147.0</ele><time>2026-05-02T13:05:04.969Z</time></trkpt><trkpt lat="43.6077682" lon="11.1907415"><ele>147.0</ele><time>2026-05-02T13:05:07.969Z</time></trkpt><trkpt lat="43.6078616" lon="11.1907309"><ele>147.0</ele><time>2026-05-02T13:05:10.97Z</time></trkpt><trkpt lat="43.6079263" lon="11.1907197"><ele>147.0</ele><time>2026-05-02T13:05:12.969Z</time></trkpt><trkpt lat="43.6079911" lon="11.1906955"><ele>146.5</ele><time>2026-05-02T13:05:14.969Z</time></trkpt><trkpt lat="43.6080612" lon="11.1906288"><ele>146.0</ele><time>2026-05-02T13:05:17.969Z</time></trkpt><trkpt lat="43.6081339" lon="11.1905792"><ele>145.5</ele><time>2026-05-02T13:05:20.969Z</time></trkpt><trkpt lat="43.6082192" lon="11.1905837"><ele>145.0</ele><time>2026-05-02T13:05:23.969Z</time></trkpt><trkpt lat="43.6082968" lon="11.1906059"><ele>144.5</ele><time>2026-05-02T13:05:26.97Z</time></trkpt><trkpt lat="43.6083798" lon="11.1905902"><ele>144.0</ele><time>2026-05-02T13:05:30.969Z</time></trkpt><trkpt lat="43.6084212" lon="11.1905101"><ele>144.0</ele><time>2026-05-02T13:05:33.969Z</time></trkpt><trkpt lat="43.6085069" lon="11.1905778"><ele>144.0</ele><time>2026-05-02T13:05:36.969Z</time></trkpt><trkpt lat="43.6085591" lon="11.1906456"><ele>144.0</ele><time>2026-05-02T13:05:38.969Z</time></trkpt><trkpt lat="43.6085138" lon="11.1907655"><ele>144.0</ele><time>2026-05-02T13:05:41.969Z</time></trkpt><trkpt lat="43.6084661" lon="11.1908247"><ele>144.0</ele><time>2026-05-02T13:05:43.969Z</time></trkpt><trkpt lat="43.6084539" lon="11.1909285"><ele>144.0</ele><time>2026-05-02T13:05:49.969Z</time></trkpt><trkpt lat="43.6084368" lon="11.1910133"><ele>144.5</ele><time>2026-05-02T13:05:52.969Z</time></trkpt><trkpt lat="43.6084382" lon="11.1911264"><ele>145.0</ele><time>2026-05-02T13:05:56.969Z</time></trkpt><trkpt lat="43.6084682" lon="11.1912734"><ele>145.5</ele><time>2026-05-02T13:06:18.969Z</time></trkpt><trkpt lat="43.6084524" lon="11.1913733"><ele>146.0</ele><time>2026-05-02T13:06:55.969Z</time></trkpt><trkpt lat="43.6083841" lon="11.191405"><ele>146.5</ele><time>2026-05-02T13:07:06.969Z</time></trkpt><trkpt lat="43.6084458" lon="11.191385"><ele>147.0</ele><time>2026-05-02T13:08:22.968Z</time></trkpt><trkpt lat="43.6084798" lon="11.1912982"><ele>147.0</ele><time>2026-05-02T13:08:26.968Z</time></trkpt><trkpt lat="43.6084669" lon="11.1912098"><ele>147.0</ele><time>2026-05-02T13:08:29.968Z</time></trkpt><trkpt lat="43.6084517" lon="11.1910974"><ele>147.0</ele><time>2026-05-02T13:08:32.969Z</time></trkpt><trkpt lat="43.6084478" lon="11.1909866"><ele>147.0</ele><time>2026-05-02T13:08:35.969Z</time></trkpt><trkpt lat="43.6084505" lon="11.1908687"><ele>147.0</ele><time>2026-05-02T13:09:22.968Z</time></trkpt><trkpt lat="43.6084802" lon="11.1907726"><ele>147.0</ele><time>2026-05-02T13:09:27.968Z</time></trkpt><trkpt lat="43.6085631" lon="11.1907021"><ele>147.0</ele><time>2026-05-02T13:09:30.968Z</time></trkpt><trkpt lat="43.6086311" lon="11.1907333"><ele>147.0</ele><time>2026-05-02T13:09:32.968Z</time></trkpt><trkpt lat="43.6087094" lon="11.1907718"><ele>147.0</ele><time>2026-05-02T13:09:34.969Z</time></trkpt><trkpt lat="43.608798" lon="11.1907473"><ele>147.0</ele><time>2026-05-02T13:09:36.968Z</time></trkpt><trkpt lat="43.6088826" lon="11.1906988"><ele>147.0</ele><time>2026-05-02T13:09:38.968Z</time></trkpt><trkpt lat="43.6089729" lon="11.1906414"><ele>147.0</ele><time>2026-05-02T13:09:40.969Z</time></trkpt><trkpt lat="43.6090721" lon="11.1905859"><ele>146.79999999999998</ele><time>2026-05-02T13:09:42.968Z</time></trkpt><trkpt lat="43.609168" lon="11.1905606"><ele>146.6</ele><time>2026-05-02T13:09:44.968Z</time></trkpt><trkpt lat="43.6092684" lon="11.1905581"><ele>146.39999999999998</ele><time>2026-05-02T13:09:46.969Z</time></trkpt><trkpt lat="43.6093795" lon="11.1905464"><ele>146.2</ele><time>2026-05-02T13:09:48.968Z</time></trkpt><trkpt lat="43.6095036" lon="11.1905229"><ele>146.0</ele><time>2026-05-02T13:09:50.969Z</time></trkpt><trkpt lat="43.6095954" lon="11.1905026"><ele>146.0</ele><time>2026-05-02T13:09:52.968Z</time></trkpt><trkpt lat="43.6096599" lon="11.1904822"><ele>146.0</ele><time>2026-05-02T13:09:54.969Z</time></trkpt><trkpt lat="43.6097278" lon="11.1904437"><ele>146.0</ele><time>2026-05-02T13:09:56.968Z</time></trkpt><trkpt lat="43.6098162" lon="11.1903809"><ele>146.0</ele><time>2026-05-02T13:09:58.968Z</time></trkpt><trkpt lat="43.6098974" lon="11.1903157"><ele>146.0</ele><time>2026-05-02T13:10:00.969Z</time></trkpt><trkpt lat="43.6099666" lon="11.1902136"><ele>146.0</ele><time>2026-05-02T13:10:02.968Z</time></trkpt><trkpt lat="43.6100456" lon="11.1901239"><ele>146.0</ele><time>2026-05-02T13:10:04.968Z</time></trkpt><trkpt lat="43.6101202" lon="11.1900439"><ele>146.0</ele><time>2026-05-02T13:10:06.969Z</time></trkpt><trkpt lat="43.6102014" lon="11.1899511"><ele>146.0</ele><time>2026-05-02T13:10:08.968Z</time></trkpt><trkpt lat="43.6102857" lon="11.189841"><ele>146.0</ele><time>2026-05-02T13:10:10.968Z</time></trkpt><trkpt lat="43.6103278" lon="11.189775"><ele>146.0</ele><time>2026-05-02T13:10:11.968Z</time></trkpt><trkpt lat="43.6103721" lon="11.1897132"><ele>146.0</ele><time>2026-05-02T13:10:12.968Z</time></trkpt><trkpt lat="43.6104495" lon="11.1896075"><ele>145.6</ele><time>2026-05-02T13:10:14.969Z</time></trkpt><trkpt lat="43.6105133" lon="11.1894894"><ele>145.2</ele><time>2026-05-02T13:10:16.968Z</time></trkpt><trkpt lat="43.610601" lon="11.1893749"><ele>144.8</ele><time>2026-05-02T13:10:18.968Z</time></trkpt><trkpt lat="43.6106787" lon="11.1892595"><ele>144.4</ele><time>2026-05-02T13:10:20.968Z</time></trkpt><trkpt lat="43.6107315" lon="11.18916"><ele>144.0</ele><time>2026-05-02T13:10:22.968Z</time></trkpt><trkpt lat="43.6107599" lon="11.189067"><ele>144.0</ele><time>2026-05-02T13:10:25.968Z</time></trkpt><trkpt lat="43.6108643" lon="11.1890218"><ele>144.0</ele><time>2026-05-02T13:10:28.968Z</time></trkpt><trkpt lat="43.610936" lon="11.1889212"><ele>144.0</ele><time>2026-05-02T13:10:30.969Z</time></trkpt><trkpt lat="43.6110108" lon="11.1888403"><ele>144.0</ele><time>2026-05-02T13:10:32.968Z</time></trkpt><trkpt lat="43.6110807" lon="11.1887306"><ele>144.0</ele><time>2026-05-02T13:10:34.969Z</time></trkpt><trkpt lat="43.61113" lon="11.1886345"><ele>143.6</ele><time>2026-05-02T13:10:36.968Z</time></trkpt><trkpt lat="43.6112065" lon="11.1885661"><ele>143.2</ele><time>2026-05-02T13:10:39.968Z</time></trkpt><trkpt lat="43.6113128" lon="11.1885516"><ele>142.79999999999998</ele><time>2026-05-02T13:10:41.969Z</time></trkpt><trkpt lat="43.6114051" lon="11.1885248"><ele>142.4</ele><time>2026-05-02T13:10:43.968Z</time></trkpt><trkpt lat="43.6114909" lon="11.1884949"><ele>142.0</ele><time>2026-05-02T13:10:45.968Z</time></trkpt><trkpt lat="43.6115797" lon="11.1884629"><ele>142.0</ele><time>2026-05-02T13:10:47.968Z</time></trkpt><trkpt lat="43.6116802" lon="11.1884341"><ele>142.0</ele><time>2026-05-02T13:10:49.968Z</time></trkpt><trkpt lat="43.6117802" lon="11.1884169"><ele>142.0</ele><time>2026-05-02T13:10:51.968Z</time></trkpt><trkpt lat="43.6118881" lon="11.1884015"><ele>142.0</ele><time>2026-05-02T13:10:53.968Z</time></trkpt><trkpt lat="43.6119898" lon="11.188387"><ele>142.0</ele><time>2026-05-02T13:10:55.969Z</time></trkpt><trkpt lat="43.6121013" lon="11.1883658"><ele>142.0</ele><time>2026-05-02T13:10:57.968Z</time></trkpt><trkpt lat="43.6122041" lon="11.1883404"><ele>142.0</ele><time>2026-05-02T13:10:59.968Z</time></trkpt><trkpt lat="43.6122936" lon="11.1883147"><ele>142.0</ele><time>2026-05-02T13:11:01.968Z</time></trkpt><trkpt lat="43.6124134" lon="11.1882879"><ele>142.0</ele><time>2026-05-02T13:11:03.968Z</time></trkpt><trkpt lat="43.6125296" lon="11.1882405"><ele>142.0</ele><time>2026-05-02T13:11:05.968Z</time></trkpt><trkpt lat="43.6126335" lon="11.1881519"><ele>142.0</ele><time>2026-05-02T13:11:07.969Z</time></trkpt><trkpt lat="43.6126817" lon="11.1880875"><ele>142.0</ele><time>2026-05-02T13:11:08.968Z</time></trkpt><trkpt lat="43.6127337" lon="11.1880151"><ele>142.0</ele><time>2026-05-02T13:11:09.969Z</time></trkpt><trkpt lat="43.6127792" lon="11.1879357"><ele>142.0</ele><time>2026-05-02T13:11:10.969Z</time></trkpt><trkpt lat="43.6128215" lon="11.1878588"><ele>142.0</ele><time>2026-05-02T13:11:11.968Z</time></trkpt><trkpt lat="43.6128569" lon="11.1877764"><ele>142.0</ele><time>2026-05-02T13:11:12.969Z</time></trkpt><trkpt lat="43.6128996" lon="11.187693"><ele>142.0</ele><time>2026-05-02T13:11:13.968Z</time></trkpt><trkpt lat="43.6129437" lon="11.1876046"><ele>142.28571428571428</ele><time>2026-05-02T13:11:14.968Z</time></trkpt><trkpt lat="43.6129865" lon="11.1875266"><ele>142.57142857142856</ele><time>2026-05-02T13:11:15.968Z</time></trkpt><trkpt lat="43.6130306" lon="11.1874407"><ele>142.85714285714286</ele><time>2026-05-02T13:11:16.968Z</time></trkpt><trkpt lat="43.6130717" lon="11.1873517"><ele>143.14285714285714</ele><time>2026-05-02T13:11:17.968Z</time></trkpt><trkpt lat="43.6131271" lon="11.1872755"><ele>143.42857142857144</ele><time>2026-05-02T13:11:18.968Z</time></trkpt><trkpt lat="43.613174" lon="11.1871995"><ele>143.71428571428572</ele><time>2026-05-02T13:11:19.968Z</time></trkpt><trkpt lat="43.613207" lon="11.1871087"><ele>144.0</ele><time>2026-05-02T13:11:20.969Z</time></trkpt><trkpt lat="43.6132253" lon="11.1870191"><ele>144.5</ele><time>2026-05-02T13:11:21.968Z</time></trkpt><trkpt lat="43.6132735" lon="11.1869177"><ele>145.0</ele><time>2026-05-02T13:11:22.968Z</time></trkpt><trkpt lat="43.6133182" lon="11.1868178"><ele>145.5</ele><time>2026-05-02T13:11:23.968Z</time></trkpt><trkpt lat="43.6133563" lon="11.1867227"><ele>146.0</ele><time>2026-05-02T13:11:24.968Z</time></trkpt><trkpt lat="43.6133979" lon="11.1866322"><ele>146.5</ele><time>2026-05-02T13:11:25.968Z</time></trkpt><trkpt lat="43.6134326" lon="11.186554"><ele>147.0</ele><time>2026-05-02T13:11:26.968Z</time></trkpt><trkpt lat="43.613496" lon="11.1864117"><ele>147.6</ele><time>2026-05-02T13:11:28.968Z</time></trkpt><trkpt lat="43.6135782" lon="11.1862839"><ele>148.2</ele><time>2026-05-02T13:11:30.968Z</time></trkpt><trkpt lat="43.6136609" lon="11.1861525"><ele>148.8</ele><time>2026-05-02T13:11:32.968Z</time></trkpt><trkpt lat="43.613741" lon="11.186047"><ele>149.4</ele><time>2026-05-02T13:11:34.968Z</time></trkpt><trkpt lat="43.6137884" lon="11.1859888"><ele>150.0</ele><time>2026-05-02T13:11:36.968Z</time></trkpt><trkpt lat="43.6138514" lon="11.1859268"><ele>148.25</ele><time>2026-05-02T13:11:46.968Z</time></trkpt><trkpt lat="43.613965" lon="11.1858795"><ele>146.5</ele><time>2026-05-02T13:11:48.968Z</time></trkpt><trkpt lat="43.6140687" lon="11.1858384"><ele>144.75</ele><time>2026-05-02T13:11:50.968Z</time></trkpt><trkpt lat="43.6141685" lon="11.1858581"><ele>143.0</ele><time>2026-05-02T13:11:52.968Z</time></trkpt><trkpt lat="43.6142923" lon="11.1859201"><ele>143.0</ele><time>2026-05-02T13:11:54.968Z</time></trkpt><trkpt lat="43.6143623" lon="11.185962"><ele>143.0</ele><time>2026-05-02T13:11:55.968Z</time></trkpt><trkpt lat="43.6144414" lon="11.1860054"><ele>143.0</ele><time>2026-05-02T13:11:56.968Z</time></trkpt><trkpt lat="43.6145303" lon="11.1860505"><ele>143.0</ele><time>2026-05-02T13:11:57.968Z</time></trkpt><trkpt lat="43.614615" lon="11.1861016"><ele>143.0</ele><time>2026-05-02T13:11:58.969Z</time></trkpt><trkpt lat="43.6146969" lon="11.1861462"><ele>143.0</ele><time>2026-05-02T13:11:59.968Z</time></trkpt><trkpt lat="43.6147649" lon="11.1861819"><ele>142.0</ele><time>2026-05-02T13:12:00.969Z</time></trkpt><trkpt lat="43.6148642" lon="11.1861953"><ele>141.0</ele><time>2026-05-02T13:12:02.968Z</time></trkpt><trkpt lat="43.6148934" lon="11.1861114"><ele>140.0</ele><time>2026-05-02T13:12:05.968Z</time></trkpt><trkpt lat="43.614841" lon="11.1860174"><ele>139.0</ele><time>2026-05-02T13:12:07.967Z</time></trkpt><trkpt lat="43.6147594" lon="11.1859612"><ele>138.0</ele><time>2026-05-02T13:12:09.968Z</time></trkpt><trkpt lat="43.6146824" lon="11.185962"><ele>137.0</ele><time>2026-05-02T13:12:12.967Z</time></trkpt><trkpt lat="43.6146371" lon="11.1860267"><ele>137.0</ele><time>2026-05-02T13:12:15.967Z</time></trkpt><trkpt lat="43.6145799" lon="11.1861532"><ele>137.0</ele><time>2026-05-02T13:12:17.967Z</time></trkpt><trkpt lat="43.6145073" lon="11.1862793"><ele>137.0</ele><time>2026-05-02T13:12:19.967Z</time></trkpt><trkpt lat="43.6144642" lon="11.1863547"><ele>137.0</ele><time>2026-05-02T13:12:20.967Z</time></trkpt><trkpt lat="43.6144101" lon="11.1864415"><ele>137.0</ele><time>2026-05-02T13:12:21.967Z</time></trkpt><trkpt lat="43.614357" lon="11.1865256"><ele>137.66666666666666</ele><time>2026-05-02T13:12:22.967Z</time></trkpt><trkpt lat="43.6143047" lon="11.1866155"><ele>138.33333333333331</ele><time>2026-05-02T13:12:23.967Z</time></trkpt><trkpt lat="43.6142516" lon="11.1866932"><ele>139.0</ele><time>2026-05-02T13:12:24.967Z</time></trkpt><trkpt lat="43.6142025" lon="11.1867668"><ele>139.66666666666666</ele><time>2026-05-02T13:12:25.967Z</time></trkpt><trkpt lat="43.6141539" lon="11.1868423"><ele>140.33333333333334</ele><time>2026-05-02T13:12:26.968Z</time></trkpt><trkpt lat="43.614106" lon="11.1869324"><ele>141.0</ele><time>2026-05-02T13:12:27.967Z</time></trkpt><trkpt lat="43.6140579" lon="11.1870118"><ele>141.0</ele><time>2026-05-02T13:12:28.967Z</time></trkpt><trkpt lat="43.6140103" lon="11.1871199"><ele>141.0</ele><time>2026-05-02T13:12:29.967Z</time></trkpt><trkpt lat="43.6139609" lon="11.1872263"><ele>141.0</ele><time>2026-05-02T13:12:30.967Z</time></trkpt><trkpt lat="43.6139142" lon="11.1873361"><ele>141.0</ele><time>2026-05-02T13:12:31.968Z</time></trkpt><trkpt lat="43.6138679" lon="11.1874417"><ele>141.0</ele><time>2026-05-02T13:12:32.967Z</time></trkpt><trkpt lat="43.6138183" lon="11.1875687"><ele>140.6</ele><time>2026-05-02T13:12:33.967Z</time></trkpt><trkpt lat="43.61377" lon="11.1876961"><ele>140.2</ele><time>2026-05-02T13:12:34.967Z</time></trkpt><trkpt lat="43.613746" lon="11.187829"><ele>139.8</ele><time>2026-05-02T13:12:35.967Z</time></trkpt><trkpt lat="43.6137024" lon="11.1879516"><ele>139.4</ele><time>2026-05-02T13:12:36.967Z</time></trkpt><trkpt lat="43.6136622" lon="11.1880574"><ele>139.0</ele><time>2026-05-02T13:12:37.968Z</time></trkpt><trkpt lat="43.6136154" lon="11.1881315"><ele>139.2</ele><time>2026-05-02T13:12:38.967Z</time></trkpt><trkpt lat="43.613542" lon="11.188268"><ele>139.4</ele><time>2026-05-02T13:12:40.967Z</time></trkpt><trkpt lat="43.6135021" lon="11.1883449"><ele>139.6</ele><time>2026-05-02T13:12:41.967Z</time></trkpt><trkpt lat="43.613466" lon="11.1884186"><ele>139.8</ele><time>2026-05-02T13:12:42.968Z</time></trkpt><trkpt lat="43.61339" lon="11.1885493"><ele>140.0</ele><time>2026-05-02T13:12:44.967Z</time></trkpt><trkpt lat="43.6133438" lon="11.188627"><ele>140.0</ele><time>2026-05-02T13:12:45.967Z</time></trkpt><trkpt lat="43.6132966" lon="11.1887083"><ele>140.0</ele><time>2026-05-02T13:12:46.967Z</time></trkpt><trkpt lat="43.613251" lon="11.1887727"><ele>140.0</ele><time>2026-05-02T13:12:47.967Z</time></trkpt><trkpt lat="43.6131806" lon="11.1888566"><ele>140.0</ele><time>2026-05-02T13:12:49.967Z</time></trkpt><trkpt lat="43.6131074" lon="11.1889321"><ele>140.0</ele><time>2026-05-02T13:12:51.967Z</time></trkpt><trkpt lat="43.6130256" lon="11.1890071"><ele>140.0</ele><time>2026-05-02T13:12:53.968Z</time></trkpt><trkpt lat="43.6129555" lon="11.1890678"><ele>140.0</ele><time>2026-05-02T13:12:55.967Z</time></trkpt><trkpt lat="43.6128799" lon="11.1891131"><ele>140.0</ele><time>2026-05-02T13:12:57.967Z</time></trkpt><trkpt lat="43.612803" lon="11.1891426"><ele>140.0</ele><time>2026-05-02T13:12:59.968Z</time></trkpt><trkpt lat="43.6126915" lon="11.1891803"><ele>140.0</ele><time>2026-05-02T13:13:01.967Z</time></trkpt><trkpt lat="43.612623" lon="11.1892028"><ele>140.0</ele><time>2026-05-02T13:13:02.967Z</time></trkpt><trkpt lat="43.6125489" lon="11.1892299"><ele>140.0</ele><time>2026-05-02T13:13:03.967Z</time></trkpt><trkpt lat="43.6124779" lon="11.1892621"><ele>140.2</ele><time>2026-05-02T13:13:04.968Z</time></trkpt><trkpt lat="43.6124032" lon="11.189298"><ele>140.4</ele><time>2026-05-02T13:13:05.967Z</time></trkpt><trkpt lat="43.6123122" lon="11.1893357"><ele>140.6</ele><time>2026-05-02T13:13:06.967Z</time></trkpt><trkpt lat="43.6122265" lon="11.189381"><ele>140.8</ele><time>2026-05-02T13:13:07.968Z</time></trkpt><trkpt lat="43.6121228" lon="11.1894512"><ele>141.0</ele><time>2026-05-02T13:13:08.967Z</time></trkpt><trkpt lat="43.6120237" lon="11.1895174"><ele>141.2</ele><time>2026-05-02T13:13:09.967Z</time></trkpt><trkpt lat="43.6119299" lon="11.1895804"><ele>141.39999999999998</ele><time>2026-05-02T13:13:10.967Z</time></trkpt><trkpt lat="43.6118513" lon="11.1896614"><ele>141.6</ele><time>2026-05-02T13:13:11.967Z</time></trkpt><trkpt lat="43.6117754" lon="11.1897177"><ele>141.79999999999998</ele><time>2026-05-02T13:13:12.967Z</time></trkpt><trkpt lat="43.6116982" lon="11.1897785"><ele>142.0</ele><time>2026-05-02T13:13:13.968Z</time></trkpt><trkpt lat="43.6116149" lon="11.1898178"><ele>142.0</ele><time>2026-05-02T13:13:14.967Z</time></trkpt><trkpt lat="43.6115305" lon="11.189854"><ele>142.0</ele><time>2026-05-02T13:13:15.967Z</time></trkpt><trkpt lat="43.6114433" lon="11.1898926"><ele>142.0</ele><time>2026-05-02T13:13:16.967Z</time></trkpt><trkpt lat="43.6113623" lon="11.1899111"><ele>142.0</ele><time>2026-05-02T13:13:17.967Z</time></trkpt><trkpt lat="43.6112938" lon="11.1899269"><ele>142.0</ele><time>2026-05-02T13:13:18.967Z</time></trkpt><trkpt lat="43.6112204" lon="11.1899439"><ele>142.0</ele><time>2026-05-02T13:13:19.967Z</time></trkpt><trkpt lat="43.6111483" lon="11.1899737"><ele>142.0</ele><time>2026-05-02T13:13:20.967Z</time></trkpt><trkpt lat="43.611084" lon="11.1900127"><ele>142.0</ele><time>2026-05-02T13:13:21.967Z</time></trkpt><trkpt lat="43.6110288" lon="11.190062"><ele>142.0</ele><time>2026-05-02T13:13:22.967Z</time></trkpt><trkpt lat="43.6109777" lon="11.1901334"><ele>142.0</ele><time>2026-05-02T13:13:23.967Z</time></trkpt><trkpt lat="43.6109339" lon="11.1902224"><ele>142.0</ele><time>2026-05-02T13:13:24.967Z</time></trkpt><trkpt lat="43.610886" lon="11.1903421"><ele>142.0</ele><time>2026-05-02T13:13:25.967Z</time></trkpt><trkpt lat="43.6108499" lon="11.1904389"><ele>142.0</ele><time>2026-05-02T13:13:26.967Z</time></trkpt><trkpt lat="43.6108024" lon="11.1905246"><ele>142.0</ele><time>2026-05-02T13:13:27.968Z</time></trkpt><trkpt lat="43.6107617" lon="11.1905954"><ele>142.0</ele><time>2026-05-02T13:13:28.967Z</time></trkpt><trkpt lat="43.6106825" lon="11.1907037"><ele>142.0</ele><time>2026-05-02T13:13:30.967Z</time></trkpt><trkpt lat="43.6106113" lon="11.1907981"><ele>142.0</ele><time>2026-05-02T13:13:32.967Z</time></trkpt><trkpt lat="43.6105705" lon="11.1909072"><ele>142.0</ele><time>2026-05-02T13:13:34.967Z</time></trkpt><trkpt lat="43.6105566" lon="11.1910657"><ele>142.0</ele><time>2026-05-02T13:13:36.967Z</time></trkpt><trkpt lat="43.6105014" lon="11.1912444"><ele>142.0</ele><time>2026-05-02T13:13:38.968Z</time></trkpt><trkpt lat="43.6104557" lon="11.1913398"><ele>142.0</ele><time>2026-05-02T13:13:39.967Z</time></trkpt><trkpt lat="43.6103988" lon="11.1914472"><ele>142.0</ele><time>2026-05-02T13:13:40.967Z</time></trkpt><trkpt lat="43.6103331" lon="11.1915648"><ele>142.0</ele><time>2026-05-02T13:13:41.967Z</time></trkpt><trkpt lat="43.6102618" lon="11.1916796"><ele>141.79999999999998</ele><time>2026-05-02T13:13:42.967Z</time></trkpt><trkpt lat="43.6101932" lon="11.1917834"><ele>141.6</ele><time>2026-05-02T13:13:43.967Z</time></trkpt><trkpt lat="43.6101154" lon="11.1918713"><ele>141.39999999999998</ele><time>2026-05-02T13:13:44.967Z</time></trkpt><trkpt lat="43.6100463" lon="11.1919561"><ele>141.2</ele><time>2026-05-02T13:13:45.967Z</time></trkpt><trkpt lat="43.609994" lon="11.1920421"><ele>141.0</ele><time>2026-05-02T13:13:46.967Z</time></trkpt><trkpt lat="43.6099186" lon="11.1921226"><ele>141.0</ele><time>2026-05-02T13:13:47.967Z</time></trkpt><trkpt lat="43.6098265" lon="11.1922064"><ele>141.0</ele><time>2026-05-02T13:13:48.968Z</time></trkpt><trkpt lat="43.6097241" lon="11.1922973"><ele>141.0</ele><time>2026-05-02T13:13:49.967Z</time></trkpt><trkpt lat="43.6096293" lon="11.1923888"><ele>141.0</ele><time>2026-05-02T13:13:50.967Z</time></trkpt><trkpt lat="43.6095369" lon="11.1924708"><ele>141.25</ele><time>2026-05-02T13:13:51.967Z</time></trkpt><trkpt lat="43.6094454" lon="11.1925545"><ele>141.5</ele><time>2026-05-02T13:13:52.967Z</time></trkpt><trkpt lat="43.6093491" lon="11.1926298"><ele>141.75</ele><time>2026-05-02T13:13:53.968Z</time></trkpt><trkpt lat="43.6092326" lon="11.1926975"><ele>142.0</ele><time>2026-05-02T13:13:54.967Z</time></trkpt><trkpt lat="43.6091166" lon="11.1927653"><ele>142.0</ele><time>2026-05-02T13:13:55.967Z</time></trkpt><trkpt lat="43.6089995" lon="11.1928295"><ele>142.0</ele><time>2026-05-02T13:13:56.967Z</time></trkpt><trkpt lat="43.6088834" lon="11.1928922"><ele>142.0</ele><time>2026-05-02T13:13:57.967Z</time></trkpt><trkpt lat="43.6087781" lon="11.1929475"><ele>142.0</ele><time>2026-05-02T13:13:58.968Z</time></trkpt><trkpt lat="43.6086653" lon="11.1929962"><ele>142.25</ele><time>2026-05-02T13:13:59.967Z</time></trkpt><trkpt lat="43.6085462" lon="11.1930439"><ele>142.5</ele><time>2026-05-02T13:14:00.967Z</time></trkpt><trkpt lat="43.6084215" lon="11.1930707"><ele>142.75</ele><time>2026-05-02T13:14:01.967Z</time></trkpt><trkpt lat="43.6083079" lon="11.1930879"><ele>143.0</ele><time>2026-05-02T13:14:02.967Z</time></trkpt><trkpt lat="43.6082187" lon="11.1931049"><ele>143.0</ele><time>2026-05-02T13:14:03.967Z</time></trkpt><trkpt lat="43.6081411" lon="11.1931095"><ele>143.0</ele><time>2026-05-02T13:14:04.967Z</time></trkpt><trkpt lat="43.6080747" lon="11.1931151"><ele>143.0</ele><time>2026-05-02T13:14:05.967Z</time></trkpt><trkpt lat="43.6079477" lon="11.1931258"><ele>143.0</ele><time>2026-05-02T13:14:07.967Z</time></trkpt><trkpt lat="43.6078719" lon="11.1931273"><ele>143.0</ele><time>2026-05-02T13:14:08.968Z</time></trkpt><trkpt lat="43.6077754" lon="11.1931343"><ele>143.0</ele><time>2026-05-02T13:14:09.967Z</time></trkpt><trkpt lat="43.6076804" lon="11.1931351"><ele>143.4</ele><time>2026-05-02T13:14:10.967Z</time></trkpt><trkpt lat="43.6075916" lon="11.1931435"><ele>143.8</ele><time>2026-05-02T13:14:11.967Z</time></trkpt><trkpt lat="43.607484" lon="11.1931519"><ele>144.2</ele><time>2026-05-02T13:14:12.967Z</time></trkpt><trkpt lat="43.607388" lon="11.1931523"><ele>144.6</ele><time>2026-05-02T13:14:13.967Z</time></trkpt><trkpt lat="43.6073039" lon="11.1931455"><ele>145.0</ele><time>2026-05-02T13:14:14.967Z</time></trkpt><trkpt lat="43.6072226" lon="11.1931463"><ele>145.0</ele><time>2026-05-02T13:14:15.967Z</time></trkpt><trkpt lat="43.6071499" lon="11.1931513"><ele>145.0</ele><time>2026-05-02T13:14:16.967Z</time></trkpt><trkpt lat="43.6070727" lon="11.1931507"><ele>145.0</ele><time>2026-05-02T13:14:17.967Z</time></trkpt><trkpt lat="43.6069889" lon="11.1931563"><ele>145.0</ele><time>2026-05-02T13:14:18.967Z</time></trkpt><trkpt lat="43.6069087" lon="11.1931554"><ele>145.0</ele><time>2026-05-02T13:14:19.967Z</time></trkpt><trkpt lat="43.6068367" lon="11.1931387"><ele>145.0</ele><time>2026-05-02T13:14:20.968Z</time></trkpt><trkpt lat="43.6067478" lon="11.1931483"><ele>145.16666666666669</ele><time>2026-05-02T13:14:21.967Z</time></trkpt><trkpt lat="43.6066611" lon="11.1931629"><ele>145.33333333333334</ele><time>2026-05-02T13:14:22.967Z</time></trkpt><trkpt lat="43.6065726" lon="11.1931748"><ele>145.5</ele><time>2026-05-02T13:14:23.967Z</time></trkpt><trkpt lat="43.6064798" lon="11.1931828"><ele>145.66666666666666</ele><time>2026-05-02T13:14:24.967Z</time></trkpt><trkpt lat="43.6063902" lon="11.1931936"><ele>145.83333333333331</ele><time>2026-05-02T13:14:25.967Z</time></trkpt><trkpt lat="43.6063008" lon="11.1932028"><ele>146.0</ele><time>2026-05-02T13:14:26.967Z</time></trkpt><trkpt lat="43.6062132" lon="11.1932108"><ele>145.83333333333331</ele><time>2026-05-02T13:14:27.967Z</time></trkpt><trkpt lat="43.606122" lon="11.1932157"><ele>145.66666666666666</ele><time>2026-05-02T13:14:28.967Z</time></trkpt><trkpt lat="43.6060354" lon="11.193227"><ele>145.5</ele><time>2026-05-02T13:14:29.967Z</time></trkpt><trkpt lat="43.6059589" lon="11.1932442"><ele>145.33333333333334</ele><time>2026-05-02T13:14:30.967Z</time></trkpt><trkpt lat="43.6058854" lon="11.1932611"><ele>145.16666666666669</ele><time>2026-05-02T13:14:31.967Z</time></trkpt><trkpt lat="43.6058062" lon="11.1932729"><ele>145.0</ele><time>2026-05-02T13:14:32.967Z</time></trkpt><trkpt lat="43.6057312" lon="11.193285"><ele>145.0</ele><time>2026-05-02T13:14:33.967Z</time></trkpt><trkpt lat="43.6056532" lon="11.1933002"><ele>145.0</ele><time>2026-05-02T13:14:34.967Z</time></trkpt><trkpt lat="43.6055697" lon="11.1933264"><ele>145.0</ele><time>2026-05-02T13:14:35.968Z</time></trkpt><trkpt lat="43.6054809" lon="11.1933569"><ele>145.0</ele><time>2026-05-02T13:14:36.967Z</time></trkpt><trkpt lat="43.6053897" lon="11.1933826"><ele>145.0</ele><time>2026-05-02T13:14:37.967Z</time></trkpt><trkpt lat="43.6053027" lon="11.1934074"><ele>145.0</ele><time>2026-05-02T13:14:38.967Z</time></trkpt><trkpt lat="43.6052252" lon="11.1934322"><ele>145.2</ele><time>2026-05-02T13:14:39.968Z</time></trkpt><trkpt lat="43.6051451" lon="11.1934447"><ele>145.4</ele><time>2026-05-02T13:14:40.967Z</time></trkpt><trkpt lat="43.6050568" lon="11.19345"><ele>145.6</ele><time>2026-05-02T13:14:41.968Z</time></trkpt><trkpt lat="43.6049566" lon="11.1934442"><ele>145.8</ele><time>2026-05-02T13:14:42.967Z</time></trkpt><trkpt lat="43.6048478" lon="11.1934289"><ele>146.0</ele><time>2026-05-02T13:14:43.967Z</time></trkpt><trkpt lat="43.6047382" lon="11.1934151"><ele>146.0</ele><time>2026-05-02T13:14:44.967Z</time></trkpt><trkpt lat="43.6046331" lon="11.1933988"><ele>146.0</ele><time>2026-05-02T13:14:45.967Z</time></trkpt><trkpt lat="43.6045379" lon="11.1933792"><ele>146.0</ele><time>2026-05-02T13:14:46.968Z</time></trkpt><trkpt lat="43.6044457" lon="11.1933714"><ele>146.0</ele><time>2026-05-02T13:14:47.968Z</time></trkpt><trkpt lat="43.6043555" lon="11.1933673"><ele>146.0</ele><time>2026-05-02T13:14:48.967Z</time></trkpt><trkpt lat="43.6042596" lon="11.1933659"><ele>146.16666666666666</ele><time>2026-05-02T13:14:49.967Z</time></trkpt><trkpt lat="43.6041657" lon="11.193364"><ele>146.33333333333331</ele><time>2026-05-02T13:14:50.967Z</time></trkpt><trkpt lat="43.6040765" lon="11.1933724"><ele>146.5</ele><time>2026-05-02T13:14:51.967Z</time></trkpt><trkpt lat="43.6040003" lon="11.1933838"><ele>146.66666666666666</ele><time>2026-05-02T13:14:52.967Z</time></trkpt><trkpt lat="43.6039298" lon="11.1934025"><ele>146.83333333333334</ele><time>2026-05-02T13:14:53.967Z</time></trkpt><trkpt lat="43.6038648" lon="11.1934251"><ele>147.0</ele><time>2026-05-02T13:14:54.967Z</time></trkpt><trkpt lat="43.6037745" lon="11.193495"><ele>147.0</ele><time>2026-05-02T13:14:56.967Z</time></trkpt><trkpt lat="43.6036901" lon="11.1935381"><ele>147.0</ele><time>2026-05-02T13:15:19.968Z</time></trkpt><trkpt lat="43.6035746" lon="11.1934998"><ele>147.0</ele><time>2026-05-02T13:15:22.968Z</time></trkpt><trkpt lat="43.603509" lon="11.193471"><ele>147.0</ele><time>2026-05-02T13:15:23.967Z</time></trkpt><trkpt lat="43.6033959" lon="11.1934557"><ele>147.0</ele><time>2026-05-02T13:15:25.967Z</time></trkpt><trkpt lat="43.6032898" lon="11.1934434"><ele>147.0</ele><time>2026-05-02T13:15:27.967Z</time></trkpt><trkpt lat="43.6031976" lon="11.1934766"><ele>147.0</ele><time>2026-05-02T13:15:29.967Z</time></trkpt><trkpt lat="43.6031164" lon="11.1935379"><ele>147.0</ele><time>2026-05-02T13:15:33.967Z</time></trkpt><trkpt lat="43.6030303" lon="11.1936092"><ele>147.0</ele><time>2026-05-02T13:15:35.967Z</time></trkpt><trkpt lat="43.6029394" lon="11.1936826"><ele>147.0</ele><time>2026-05-02T13:15:37.967Z</time></trkpt><trkpt lat="43.6028301" lon="11.193756"><ele>147.0</ele><time>2026-05-02T13:15:39.968Z</time></trkpt><trkpt lat="43.60272" lon="11.1938221"><ele>147.0</ele><time>2026-05-02T13:15:41.967Z</time></trkpt><trkpt lat="43.6026378" lon="11.1938506"><ele>147.0</ele><time>2026-05-02T13:15:43.967Z</time></trkpt><trkpt lat="43.6025287" lon="11.193896"><ele>147.0</ele><time>2026-05-02T13:15:45.967Z</time></trkpt><trkpt lat="43.6024689" lon="11.1939381"><ele>147.0</ele><time>2026-05-02T13:15:46.967Z</time></trkpt><trkpt lat="43.6024132" lon="11.1939821"><ele>146.79999999999998</ele><time>2026-05-02T13:15:47.967Z</time></trkpt><trkpt lat="43.6023188" lon="11.1940515"><ele>146.6</ele><time>2026-05-02T13:15:49.967Z</time></trkpt><trkpt lat="43.6022341" lon="11.1941376"><ele>146.39999999999998</ele><time>2026-05-02T13:15:51.967Z</time></trkpt><trkpt lat="43.6021564" lon="11.1942477"><ele>146.2</ele><time>2026-05-02T13:15:53.967Z</time></trkpt><trkpt lat="43.6020955" lon="11.1942919"><ele>146.0</ele><time>2026-05-02T13:15:54.967Z</time></trkpt><trkpt lat="43.6020282" lon="11.1943291"><ele>146.33333333333331</ele><time>2026-05-02T13:15:55.968Z</time></trkpt><trkpt lat="43.6019576" lon="11.1943649"><ele>146.66666666666666</ele><time>2026-05-02T13:15:56.967Z</time></trkpt><trkpt lat="43.6018806" lon="11.1944026"><ele>147.0</ele><time>2026-05-02T13:15:57.967Z</time></trkpt><trkpt lat="43.6017996" lon="11.1944407"><ele>147.33333333333334</ele><time>2026-05-02T13:15:58.968Z</time></trkpt><trkpt lat="43.6017201" lon="11.1944799"><ele>147.66666666666669</ele><time>2026-05-02T13:15:59.967Z</time></trkpt><trkpt lat="43.6016396" lon="11.1945117"><ele>148.0</ele><time>2026-05-02T13:16:00.967Z</time></trkpt><trkpt lat="43.6015637" lon="11.1945297"><ele>148.0</ele><time>2026-05-02T13:16:01.967Z</time></trkpt><trkpt lat="43.6014894" lon="11.1945491"><ele>148.0</ele><time>2026-05-02T13:16:02.967Z</time></trkpt><trkpt lat="43.6014134" lon="11.1945695"><ele>148.0</ele><time>2026-05-02T13:16:03.967Z</time></trkpt><trkpt lat="43.6013373" lon="11.1945868"><ele>148.0</ele><time>2026-05-02T13:16:04.967Z</time></trkpt><trkpt lat="43.6012601" lon="11.1946089"><ele>148.0</ele><time>2026-05-02T13:16:05.968Z</time></trkpt><trkpt lat="43.6011849" lon="11.194628"><ele>148.0</ele><time>2026-05-02T13:16:06.967Z</time></trkpt><trkpt lat="43.6011161" lon="11.1946411"><ele>148.8</ele><time>2026-05-02T13:16:07.967Z</time></trkpt><trkpt lat="43.6010136" lon="11.1946605"><ele>149.60000000000002</ele><time>2026-05-02T13:16:09.967Z</time></trkpt><trkpt lat="43.6009406" lon="11.1946674"><ele>150.39999999999998</ele><time>2026-05-02T13:16:11.968Z</time></trkpt><trkpt lat="43.6008241" lon="11.1946707"><ele>151.2</ele><time>2026-05-02T13:16:17.968Z</time></trkpt><trkpt lat="43.6007194" lon="11.1946697"><ele>152.0</ele><time>2026-05-02T13:16:19.967Z</time></trkpt><trkpt lat="43.6006206" lon="11.1946565"><ele>152.0</ele><time>2026-05-02T13:16:21.967Z</time></trkpt><trkpt lat="43.6005333" lon="11.1946476"><ele>152.0</ele><time>2026-05-02T13:16:23.967Z</time></trkpt><trkpt lat="43.6004271" lon="11.1946484"><ele>152.0</ele><time>2026-05-02T13:16:25.967Z</time></trkpt><trkpt lat="43.6003153" lon="11.1946297"><ele>152.0</ele><time>2026-05-02T13:16:27.967Z</time></trkpt><trkpt lat="43.6001923" lon="11.1946025"><ele>152.0</ele><time>2026-05-02T13:16:29.967Z</time></trkpt><trkpt lat="43.6000712" lon="11.1945844"><ele>151.6</ele><time>2026-05-02T13:16:31.967Z</time></trkpt><trkpt lat="43.5999583" lon="11.1946058"><ele>151.2</ele><time>2026-05-02T13:16:33.967Z</time></trkpt><trkpt lat="43.5998568" lon="11.1946171"><ele>150.8</ele><time>2026-05-02T13:16:35.967Z</time></trkpt><trkpt lat="43.5997555" lon="11.194655"><ele>150.4</ele><time>2026-05-02T13:16:37.968Z</time></trkpt><trkpt lat="43.5996489" lon="11.1946841"><ele>150.0</ele><time>2026-05-02T13:16:39.967Z</time></trkpt><trkpt lat="43.5995414" lon="11.1947096"><ele>150.2</ele><time>2026-05-02T13:16:41.967Z</time></trkpt><trkpt lat="43.599446" lon="11.1947177"><ele>150.4</ele><time>2026-05-02T13:16:43.967Z</time></trkpt><trkpt lat="43.5993619" lon="11.1947191"><ele>150.6</ele><time>2026-05-02T13:16:45.967Z</time></trkpt><trkpt lat="43.5992689" lon="11.1947198"><ele>150.8</ele><time>2026-05-02T13:16:47.966Z</time></trkpt><trkpt lat="43.599137" lon="11.1947345"><ele>151.0</ele><time>2026-05-02T13:16:49.967Z</time></trkpt><trkpt lat="43.5990552" lon="11.1947317"><ele>151.0</ele><time>2026-05-02T13:16:50.966Z</time></trkpt><trkpt lat="43.5989846" lon="11.1947455"><ele>151.0</ele><time>2026-05-02T13:16:51.966Z</time></trkpt><trkpt lat="43.598916" lon="11.1947544"><ele>151.0</ele><time>2026-05-02T13:16:52.966Z</time></trkpt><trkpt lat="43.598845" lon="11.1947672"><ele>151.0</ele><time>2026-05-02T13:16:53.966Z</time></trkpt><trkpt lat="43.5987519" lon="11.1947647"><ele>151.0</ele><time>2026-05-02T13:16:54.966Z</time></trkpt><trkpt lat="43.5986553" lon="11.1947825"><ele>151.0</ele><time>2026-05-02T13:16:55.967Z</time></trkpt><trkpt lat="43.5985785" lon="11.1948069"><ele>151.0</ele><time>2026-05-02T13:16:56.966Z</time></trkpt><trkpt lat="43.598506" lon="11.1948564"><ele>151.0</ele><time>2026-05-02T13:16:57.966Z</time></trkpt><trkpt lat="43.5984202" lon="11.1949228"><ele>151.0</ele><time>2026-05-02T13:16:58.966Z</time></trkpt><trkpt lat="43.5983305" lon="11.1950138"><ele>151.0</ele><time>2026-05-02T13:16:59.966Z</time></trkpt><trkpt lat="43.5982403" lon="11.1951151"><ele>151.0</ele><time>2026-05-02T13:17:00.966Z</time></trkpt><trkpt lat="43.598165" lon="11.1952057"><ele>151.0</ele><time>2026-05-02T13:17:01.967Z</time></trkpt><trkpt lat="43.5980994" lon="11.1953089"><ele>151.0</ele><time>2026-05-02T13:17:02.966Z</time></trkpt><trkpt lat="43.5980347" lon="11.1954169"><ele>151.0</ele><time>2026-05-02T13:17:03.966Z</time></trkpt><trkpt lat="43.5979743" lon="11.1955205"><ele>151.0</ele><time>2026-05-02T13:17:04.967Z</time></trkpt><trkpt lat="43.5979219" lon="11.1956311"><ele>151.0</ele><time>2026-05-02T13:17:05.967Z</time></trkpt><trkpt lat="43.5978763" lon="11.1957538"><ele>151.0</ele><time>2026-05-02T13:17:06.966Z</time></trkpt><trkpt lat="43.5978407" lon="11.1958957"><ele>151.0</ele><time>2026-05-02T13:17:07.966Z</time></trkpt><trkpt lat="43.5978086" lon="11.1960527"><ele>151.0</ele><time>2026-05-02T13:17:08.967Z</time></trkpt><trkpt lat="43.5977834" lon="11.196199"><ele>151.0</ele><time>2026-05-02T13:17:09.966Z</time></trkpt><trkpt lat="43.5977578" lon="11.1963549"><ele>151.00000000000003</ele><time>2026-05-02T13:17:10.966Z</time></trkpt><trkpt lat="43.5977303" lon="11.1964652"><ele>151.0</ele><time>2026-05-02T13:17:11.966Z</time></trkpt><trkpt lat="43.5977043" lon="11.1965577"><ele>151.0</ele><time>2026-05-02T13:17:12.967Z</time></trkpt><trkpt lat="43.5976773" lon="11.1966457"><ele>151.0</ele><time>2026-05-02T13:17:13.966Z</time></trkpt><trkpt lat="43.5976486" lon="11.1967257"><ele>151.0</ele><time>2026-05-02T13:17:14.966Z</time></trkpt><trkpt lat="43.5976159" lon="11.1968057"><ele>151.00000000000003</ele><time>2026-05-02T13:17:15.966Z</time></trkpt><trkpt lat="43.5975905" lon="11.1968878"><ele>151.0</ele><time>2026-05-02T13:17:16.966Z</time></trkpt><trkpt lat="43.5975657" lon="11.196978"><ele>151.0</ele><time>2026-05-02T13:17:17.966Z</time></trkpt><trkpt lat="43.5975442" lon="11.1970732"><ele>151.0</ele><time>2026-05-02T13:17:18.966Z</time></trkpt><trkpt lat="43.5975242" lon="11.1971715"><ele>151.0</ele><time>2026-05-02T13:17:19.966Z</time></trkpt><trkpt lat="43.597504" lon="11.1972649"><ele>151.0</ele><time>2026-05-02T13:17:20.966Z</time></trkpt><trkpt lat="43.5974887" lon="11.1973639"><ele>151.0</ele><time>2026-05-02T13:17:21.966Z</time></trkpt><trkpt lat="43.597471" lon="11.197457"><ele>151.0</ele><time>2026-05-02T13:17:22.966Z</time></trkpt><trkpt lat="43.5974371" lon="11.1976185"><ele>151.2</ele><time>2026-05-02T13:17:24.966Z</time></trkpt><trkpt lat="43.5974089" lon="11.1977844"><ele>151.39999999999998</ele><time>2026-05-02T13:17:26.966Z</time></trkpt><trkpt lat="43.597381" lon="11.1979498"><ele>151.6</ele><time>2026-05-02T13:17:28.966Z</time></trkpt><trkpt lat="43.5973621" lon="11.1980428"><ele>151.79999999999998</ele><time>2026-05-02T13:17:29.966Z</time></trkpt><trkpt lat="43.5973383" lon="11.198142"><ele>152.0</ele><time>2026-05-02T13:17:30.966Z</time></trkpt><trkpt lat="43.5973092" lon="11.1982423"><ele>152.2</ele><time>2026-05-02T13:17:31.966Z</time></trkpt><trkpt lat="43.5972838" lon="11.1983341"><ele>152.39999999999998</ele><time>2026-05-02T13:17:32.966Z</time></trkpt><trkpt lat="43.5972645" lon="11.1984179"><ele>152.60000000000002</ele><time>2026-05-02T13:17:33.966Z</time></trkpt><trkpt lat="43.5972341" lon="11.1985652"><ele>152.8</ele><time>2026-05-02T13:17:35.966Z</time></trkpt><trkpt lat="43.5972025" lon="11.1987048"><ele>153.0</ele><time>2026-05-02T13:17:37.966Z</time></trkpt><trkpt lat="43.597152" lon="11.1988402"><ele>153.0</ele><time>2026-05-02T13:17:39.966Z</time></trkpt><trkpt lat="43.5971204" lon="11.1989172"><ele>153.0</ele><time>2026-05-02T13:17:40.967Z</time></trkpt><trkpt lat="43.5970831" lon="11.1989975"><ele>153.0</ele><time>2026-05-02T13:17:41.966Z</time></trkpt><trkpt lat="43.5970439" lon="11.1990732"><ele>153.0</ele><time>2026-05-02T13:17:42.967Z</time></trkpt><trkpt lat="43.5969984" lon="11.1991441"><ele>153.0</ele><time>2026-05-02T13:17:43.966Z</time></trkpt><trkpt lat="43.5969433" lon="11.1992073"><ele>153.0</ele><time>2026-05-02T13:17:44.966Z</time></trkpt><trkpt lat="43.5968827" lon="11.1992601"><ele>153.0</ele><time>2026-05-02T13:17:45.966Z</time></trkpt><trkpt lat="43.5968107" lon="11.1993095"><ele>153.33333333333334</ele><time>2026-05-02T13:17:46.966Z</time></trkpt><trkpt lat="43.5967524" lon="11.199372"><ele>153.66666666666666</ele><time>2026-05-02T13:17:47.966Z</time></trkpt><trkpt lat="43.5966927" lon="11.1994311"><ele>154.0</ele><time>2026-05-02T13:17:48.966Z</time></trkpt><trkpt lat="43.5966374" lon="11.1994944"><ele>154.33333333333331</ele><time>2026-05-02T13:17:49.966Z</time></trkpt><trkpt lat="43.5965906" lon="11.1995549"><ele>154.66666666666666</ele><time>2026-05-02T13:17:50.966Z</time></trkpt><trkpt lat="43.5964901" lon="11.199634"><ele>155.0</ele><time>2026-05-02T13:17:52.966Z</time></trkpt><trkpt lat="43.5963771" lon="11.1996704"><ele>155.0</ele><time>2026-05-02T13:17:54.966Z</time></trkpt><trkpt lat="43.5962751" lon="11.199698"><ele>155.0</ele><time>2026-05-02T13:17:56.966Z</time></trkpt><trkpt lat="43.5961884" lon="11.1997375"><ele>155.0</ele><time>2026-05-02T13:17:58.966Z</time></trkpt><trkpt lat="43.5961263" lon="11.199778"><ele>155.0</ele><time>2026-05-02T13:18:00.966Z</time></trkpt><trkpt lat="43.5960272" lon="11.1998775"><ele>155.0</ele><time>2026-05-02T13:18:18.966Z</time></trkpt><trkpt lat="43.5959737" lon="11.1999417"><ele>155.0</ele><time>2026-05-02T13:18:33.967Z</time></trkpt><trkpt lat="43.5958926" lon="11.1999981"><ele>155.0</ele><time>2026-05-02T13:18:36.966Z</time></trkpt><trkpt lat="43.5959062" lon="11.2000864"><ele>155.0</ele><time>2026-05-02T13:18:48.966Z</time></trkpt><trkpt lat="43.5959671" lon="11.2001675"><ele>155.0</ele><time>2026-05-02T13:18:50.967Z</time></trkpt><trkpt lat="43.5960353" lon="11.2002456"><ele>155.0</ele><time>2026-05-02T13:18:52.966Z</time></trkpt><trkpt lat="43.5961126" lon="11.2003566"><ele>155.0</ele><time>2026-05-02T13:18:54.966Z</time></trkpt><trkpt lat="43.5961865" lon="11.2004697"><ele>155.0</ele><time>2026-05-02T13:18:56.966Z</time></trkpt><trkpt lat="43.5962557" lon="11.2005702"><ele>155.0</ele><time>2026-05-02T13:18:58.966Z</time></trkpt><trkpt lat="43.5963273" lon="11.2006888"><ele>155.0</ele><time>2026-05-02T13:19:00.967Z</time></trkpt><trkpt lat="43.5963977" lon="11.2008023"><ele>155.0</ele><time>2026-05-02T13:19:02.966Z</time></trkpt><trkpt lat="43.5964633" lon="11.2009095"><ele>155.0</ele><time>2026-05-02T13:19:04.966Z</time></trkpt><trkpt lat="43.5965251" lon="11.2010318"><ele>155.4</ele><time>2026-05-02T13:19:06.966Z</time></trkpt><trkpt lat="43.5965988" lon="11.2011488"><ele>155.8</ele><time>2026-05-02T13:19:08.966Z</time></trkpt><trkpt lat="43.5966714" lon="11.2012558"><ele>156.2</ele><time>2026-05-02T13:19:10.966Z</time></trkpt><trkpt lat="43.5967454" lon="11.201357"><ele>156.6</ele><time>2026-05-02T13:19:12.966Z</time></trkpt><trkpt lat="43.5967773" lon="11.2014539"><ele>157.0</ele><time>2026-05-02T13:19:14.966Z</time></trkpt><trkpt lat="43.5968443" lon="11.2015024"><ele>157.0</ele><time>2026-05-02T13:19:17.966Z</time></trkpt><trkpt lat="43.5968948" lon="11.201439"><ele>157.0</ele><time>2026-05-02T13:19:19.966Z</time></trkpt><trkpt lat="43.5969575" lon="11.201365"><ele>157.0</ele><time>2026-05-02T13:19:21.966Z</time></trkpt><trkpt lat="43.5970366" lon="11.2013358"><ele>157.0</ele><time>2026-05-02T13:19:24.966Z</time></trkpt><trkpt lat="43.5970491" lon="11.2014237"><ele>157.0</ele><time>2026-05-02T13:19:29.966Z</time></trkpt><trkpt lat="43.5969939" lon="11.2015608"><ele>157.0</ele><time>2026-05-02T13:19:32.967Z</time></trkpt><trkpt lat="43.5969412" lon="11.2016499"><ele>158.25</ele><time>2026-05-02T13:19:33.966Z</time></trkpt><trkpt lat="43.5968598" lon="11.2017666"><ele>159.5</ele><time>2026-05-02T13:19:34.966Z</time></trkpt><trkpt lat="43.5967762" lon="11.2018984"><ele>160.75</ele><time>2026-05-02T13:19:35.966Z</time></trkpt><trkpt lat="43.5966832" lon="11.2020445"><ele>162.0</ele><time>2026-05-02T13:19:36.966Z</time></trkpt><trkpt lat="43.5965999" lon="11.2021987"><ele>162.0</ele><time>2026-05-02T13:19:37.966Z</time></trkpt><trkpt lat="43.596508" lon="11.2023263"><ele>162.0</ele><time>2026-05-02T13:19:38.966Z</time></trkpt><trkpt lat="43.596407" lon="11.2024164"><ele>162.0</ele><time>2026-05-02T13:19:39.966Z</time></trkpt><trkpt lat="43.596287" lon="11.2024785"><ele>162.0</ele><time>2026-05-02T13:19:40.966Z</time></trkpt><trkpt lat="43.5961222" lon="11.2024754"><ele>163.0</ele><time>2026-05-02T13:19:41.966Z</time></trkpt><trkpt lat="43.5960089" lon="11.2025565"><ele>164.0</ele><time>2026-05-02T13:19:42.967Z</time></trkpt><trkpt lat="43.5958592" lon="11.2025803"><ele>165.0</ele><time>2026-05-02T13:19:43.966Z</time></trkpt><trkpt lat="43.5957147" lon="11.2025806"><ele>166.0</ele><time>2026-05-02T13:19:44.967Z</time></trkpt><trkpt lat="43.5955701" lon="11.2025522"><ele>166.0</ele><time>2026-05-02T13:19:45.966Z</time></trkpt><trkpt lat="43.5954286" lon="11.2024939"><ele>166.0</ele><time>2026-05-02T13:19:46.967Z</time></trkpt><trkpt lat="43.5952848" lon="11.2024201"><ele>166.0</ele><time>2026-05-02T13:19:47.966Z</time></trkpt><trkpt lat="43.5951445" lon="11.202349"><ele>164.0</ele><time>2026-05-02T13:19:48.966Z</time></trkpt><trkpt lat="43.5950103" lon="11.202285"><ele>162.0</ele><time>2026-05-02T13:19:49.966Z</time></trkpt><trkpt lat="43.5948826" lon="11.2022208"><ele>160.0</ele><time>2026-05-02T13:19:50.966Z</time></trkpt><trkpt lat="43.5947601" lon="11.2021606"><ele>158.0</ele><time>2026-05-02T13:19:51.967Z</time></trkpt><trkpt lat="43.5946472" lon="11.2021051"><ele>158.0</ele><time>2026-05-02T13:19:52.967Z</time></trkpt><trkpt lat="43.5945371" lon="11.2020501"><ele>158.0</ele><time>2026-05-02T13:19:53.967Z</time></trkpt><trkpt lat="43.5944314" lon="11.2019974"><ele>158.0</ele><time>2026-05-02T13:19:54.966Z</time></trkpt><trkpt lat="43.5943418" lon="11.2019393"><ele>158.0</ele><time>2026-05-02T13:19:55.966Z</time></trkpt><trkpt lat="43.5942582" lon="11.2018906"><ele>158.0</ele><time>2026-05-02T13:19:56.966Z</time></trkpt><trkpt lat="43.5941797" lon="11.2018634"><ele>158.66666666666666</ele><time>2026-05-02T13:19:57.966Z</time></trkpt><trkpt lat="43.5941127" lon="11.2018683"><ele>159.33333333333331</ele><time>2026-05-02T13:19:58.966Z</time></trkpt><trkpt lat="43.5940086" lon="11.2019648"><ele>160.0</ele><time>2026-05-02T13:20:00.966Z</time></trkpt><trkpt lat="43.5939678" lon="11.2020434"><ele>160.66666666666666</ele><time>2026-05-02T13:20:01.966Z</time></trkpt><trkpt lat="43.5939232" lon="11.2021281"><ele>161.33333333333334</ele><time>2026-05-02T13:20:02.966Z</time></trkpt><trkpt lat="43.593881" lon="11.2021978"><ele>162.0</ele><time>2026-05-02T13:20:03.966Z</time></trkpt><trkpt lat="43.5938071" lon="11.2023215"><ele>162.0</ele><time>2026-05-02T13:20:05.966Z</time></trkpt><trkpt lat="43.5937347" lon="11.2024243"><ele>162.0</ele><time>2026-05-02T13:20:07.966Z</time></trkpt><trkpt lat="43.5936882" lon="11.2024851"><ele>162.0</ele><time>2026-05-02T13:20:08.966Z</time></trkpt><trkpt lat="43.5936246" lon="11.20255"><ele>162.0</ele><time>2026-05-02T13:20:09.966Z</time></trkpt><trkpt lat="43.5935743" lon="11.2026044"><ele>162.0</ele><time>2026-05-02T13:20:10.966Z</time></trkpt><trkpt lat="43.5934892" lon="11.2027019"><ele>162.0</ele><time>2026-05-02T13:20:12.966Z</time></trkpt><trkpt lat="43.5934138" lon="11.2027676"><ele>162.0</ele><time>2026-05-02T13:20:14.967Z</time></trkpt><trkpt lat="43.5933343" lon="11.2028475"><ele>162.0</ele><time>2026-05-02T13:20:16.966Z</time></trkpt><trkpt lat="43.5932772" lon="11.2029057"><ele>162.0</ele><time>2026-05-02T13:20:17.966Z</time></trkpt><trkpt lat="43.5932114" lon="11.2029717"><ele>162.0</ele><time>2026-05-02T13:20:18.966Z</time></trkpt><trkpt lat="43.5931306" lon="11.2030552"><ele>162.0</ele><time>2026-05-02T13:20:19.967Z</time></trkpt><trkpt lat="43.5930269" lon="11.2031628"><ele>161.75</ele><time>2026-05-02T13:20:20.966Z</time></trkpt><trkpt lat="43.5929212" lon="11.2032742"><ele>161.5</ele><time>2026-05-02T13:20:21.966Z</time></trkpt><trkpt lat="43.5927967" lon="11.2034088"><ele>161.25</ele><time>2026-05-02T13:20:22.966Z</time></trkpt><trkpt lat="43.5926781" lon="11.2035459"><ele>161.0</ele><time>2026-05-02T13:20:23.966Z</time></trkpt><trkpt lat="43.5925569" lon="11.2036933"><ele>161.0</ele><time>2026-05-02T13:20:24.967Z</time></trkpt><trkpt lat="43.5924324" lon="11.2038453"><ele>161.0</ele><time>2026-05-02T13:20:25.967Z</time></trkpt><trkpt lat="43.5923087" lon="11.2039972"><ele>161.0</ele><time>2026-05-02T13:20:26.966Z</time></trkpt><trkpt lat="43.5921846" lon="11.2041403"><ele>161.0</ele><time>2026-05-02T13:20:27.966Z</time></trkpt><trkpt lat="43.5920603" lon="11.2042938"><ele>161.0</ele><time>2026-05-02T13:20:28.966Z</time></trkpt><trkpt lat="43.5919445" lon="11.2044461"><ele>161.0</ele><time>2026-05-02T13:20:29.966Z</time></trkpt><trkpt lat="43.5918467" lon="11.2045843"><ele>161.4</ele><time>2026-05-02T13:20:30.967Z</time></trkpt><trkpt lat="43.5917578" lon="11.2046945"><ele>161.8</ele><time>2026-05-02T13:20:31.966Z</time></trkpt><trkpt lat="43.5916789" lon="11.2047888"><ele>162.20000000000002</ele><time>2026-05-02T13:20:32.966Z</time></trkpt><trkpt lat="43.5916119" lon="11.204865"><ele>162.60000000000002</ele><time>2026-05-02T13:20:33.967Z</time></trkpt><trkpt lat="43.5915545" lon="11.2049243"><ele>163.0</ele><time>2026-05-02T13:20:34.966Z</time></trkpt><trkpt lat="43.5914647" lon="11.2049976"><ele>163.0</ele><time>2026-05-02T13:20:36.966Z</time></trkpt><trkpt lat="43.591397" lon="11.2050364"><ele>163.0</ele><time>2026-05-02T13:20:39.966Z</time></trkpt><trkpt lat="43.5913646" lon="11.2049534"><ele>163.0</ele><time>2026-05-02T13:22:26.965Z</time></trkpt><trkpt lat="43.5913709" lon="11.2048252"><ele>163.0</ele><time>2026-05-02T13:22:28.965Z</time></trkpt><trkpt lat="43.5913802" lon="11.2046446"><ele>163.0</ele><time>2026-05-02T13:22:30.965Z</time></trkpt><trkpt lat="43.5913831" lon="11.2045486"><ele>163.0</ele><time>2026-05-02T13:22:31.966Z</time></trkpt><trkpt lat="43.5913956" lon="11.2044627"><ele>163.0</ele><time>2026-05-02T13:22:32.965Z</time></trkpt><trkpt lat="43.5914082" lon="11.2043767"><ele>163.0</ele><time>2026-05-02T13:22:33.965Z</time></trkpt><trkpt lat="43.5914216" lon="11.2042876"><ele>163.0</ele><time>2026-05-02T13:22:34.965Z</time></trkpt><trkpt lat="43.5914334" lon="11.2041896"><ele>163.0</ele><time>2026-05-02T13:22:35.965Z</time></trkpt><trkpt lat="43.591447" lon="11.2040992"><ele>163.0</ele><time>2026-05-02T13:22:36.965Z</time></trkpt><trkpt lat="43.5914598" lon="11.2040027"><ele>163.0</ele><time>2026-05-02T13:22:37.965Z</time></trkpt><trkpt lat="43.5914744" lon="11.203901"><ele>163.0</ele><time>2026-05-02T13:22:38.965Z</time></trkpt><trkpt lat="43.5914916" lon="11.2037907"><ele>162.83333333333334</ele><time>2026-05-02T13:22:39.965Z</time></trkpt><trkpt lat="43.5915046" lon="11.2036808"><ele>162.66666666666669</ele><time>2026-05-02T13:22:40.965Z</time></trkpt><trkpt lat="43.5915183" lon="11.2035638"><ele>162.5</ele><time>2026-05-02T13:22:41.966Z</time></trkpt><trkpt lat="43.5915294" lon="11.2034416"><ele>162.33333333333334</ele><time>2026-05-02T13:22:42.965Z</time></trkpt><trkpt lat="43.5915335" lon="11.2033198"><ele>162.16666666666666</ele><time>2026-05-02T13:22:43.965Z</time></trkpt><trkpt lat="43.5915399" lon="11.20321"><ele>162.0</ele><time>2026-05-02T13:22:44.965Z</time></trkpt><trkpt lat="43.5915559" lon="11.2031017"><ele>161.66666666666666</ele><time>2026-05-02T13:22:45.965Z</time></trkpt><trkpt lat="43.5915576" lon="11.2029976"><ele>161.33333333333334</ele><time>2026-05-02T13:22:46.965Z</time></trkpt><trkpt lat="43.5915663" lon="11.2028785"><ele>161.0</ele><time>2026-05-02T13:22:47.965Z</time></trkpt><trkpt lat="43.5915767" lon="11.2027616"><ele>160.66666666666669</ele><time>2026-05-02T13:22:48.965Z</time></trkpt><trkpt lat="43.5915902" lon="11.2026433"><ele>160.33333333333334</ele><time>2026-05-02T13:22:49.965Z</time></trkpt><trkpt lat="43.591603" lon="11.2025302"><ele>160.0</ele><time>2026-05-02T13:22:50.965Z</time></trkpt><trkpt lat="43.591616" lon="11.2024169"><ele>159.83333333333334</ele><time>2026-05-02T13:22:51.965Z</time></trkpt><trkpt lat="43.5916205" lon="11.2022978"><ele>159.66666666666669</ele><time>2026-05-02T13:22:52.965Z</time></trkpt><trkpt lat="43.5916289" lon="11.2021681"><ele>159.5</ele><time>2026-05-02T13:22:53.965Z</time></trkpt><trkpt lat="43.5916434" lon="11.2020553"><ele>159.33333333333334</ele><time>2026-05-02T13:22:54.965Z</time></trkpt><trkpt lat="43.5916541" lon="11.2019503"><ele>159.16666666666666</ele><time>2026-05-02T13:22:55.965Z</time></trkpt><trkpt lat="43.5916607" lon="11.2018528"><ele>159.0</ele><time>2026-05-02T13:22:56.965Z</time></trkpt><trkpt lat="43.5916732" lon="11.2017543"><ele>159.0</ele><time>2026-05-02T13:22:57.965Z</time></trkpt><trkpt lat="43.5916865" lon="11.2016591"><ele>159.0</ele><time>2026-05-02T13:22:58.966Z</time></trkpt><trkpt lat="43.5916978" lon="11.2015718"><ele>159.0</ele><time>2026-05-02T13:22:59.965Z</time></trkpt><trkpt lat="43.5917259" lon="11.2014302"><ele>159.0</ele><time>2026-05-02T13:23:01.965Z</time></trkpt><trkpt lat="43.5917502" lon="11.2013272"><ele>159.0</ele><time>2026-05-02T13:23:03.966Z</time></trkpt><trkpt lat="43.5917005" lon="11.2012711"><ele>159.0</ele><time>2026-05-02T13:23:06.965Z</time></trkpt><trkpt lat="43.5916429" lon="11.2013222"><ele>159.0</ele><time>2026-05-02T13:23:09.965Z</time></trkpt><trkpt lat="43.591589" lon="11.2013699"><ele>159.0</ele><time>2026-05-02T13:23:11.965Z</time></trkpt><trkpt lat="43.5915175" lon="11.2014293"><ele>159.0</ele><time>2026-05-02T13:23:13.966Z</time></trkpt><trkpt lat="43.5914305" lon="11.2015028"><ele>159.0</ele><time>2026-05-02T13:23:15.965Z</time></trkpt><trkpt lat="43.5913474" lon="11.2015898"><ele>159.0</ele><time>2026-05-02T13:23:17.966Z</time></trkpt><trkpt lat="43.5912762" lon="11.2016759"><ele>159.0</ele><time>2026-05-02T13:23:19.965Z</time></trkpt><trkpt lat="43.5912268" lon="11.2017553"><ele>159.0</ele><time>2026-05-02T13:23:21.965Z</time></trkpt><trkpt lat="43.5912009" lon="11.2018548"><ele>159.0</ele><time>2026-05-02T13:23:23.965Z</time></trkpt><trkpt lat="43.5912189" lon="11.2019559"><ele>159.0</ele><time>2026-05-02T13:23:25.965Z</time></trkpt><trkpt lat="43.5912388" lon="11.2020427"><ele>159.0</ele><time>2026-05-02T13:23:27.965Z</time></trkpt><trkpt lat="43.5912572" lon="11.2021319"><ele>159.0</ele><time>2026-05-02T13:23:29.965Z</time></trkpt><trkpt lat="43.5912856" lon="11.2022557"><ele>159.0</ele><time>2026-05-02T13:23:32.965Z</time></trkpt><trkpt lat="43.5913033" lon="11.2024029"><ele>159.2</ele><time>2026-05-02T13:23:35.966Z</time></trkpt><trkpt lat="43.591336" lon="11.2025393"><ele>159.4</ele><time>2026-05-02T13:23:37.965Z</time></trkpt><trkpt lat="43.5913673" lon="11.2026944"><ele>159.6</ele><time>2026-05-02T13:23:39.965Z</time></trkpt><trkpt lat="43.5913774" lon="11.20281"><ele>159.8</ele><time>2026-05-02T13:23:41.965Z</time></trkpt><trkpt lat="43.591375" lon="11.2029568"><ele>160.0</ele><time>2026-05-02T13:23:43.965Z</time></trkpt><trkpt lat="43.5913665" lon="11.2031035"><ele>160.4</ele><time>2026-05-02T13:23:45.965Z</time></trkpt><trkpt lat="43.591356" lon="11.2032319"><ele>160.8</ele><time>2026-05-02T13:23:47.965Z</time></trkpt><trkpt lat="43.5913464" lon="11.2033832"><ele>161.2</ele><time>2026-05-02T13:23:49.965Z</time></trkpt><trkpt lat="43.5913382" lon="11.2035481"><ele>161.6</ele><time>2026-05-02T13:23:51.965Z</time></trkpt><trkpt lat="43.5913257" lon="11.2037088"><ele>162.0</ele><time>2026-05-02T13:23:53.965Z</time></trkpt><trkpt lat="43.5913117" lon="11.2038611"><ele>162.2</ele><time>2026-05-02T13:23:55.965Z</time></trkpt><trkpt lat="43.5913034" lon="11.2040232"><ele>162.39999999999998</ele><time>2026-05-02T13:23:57.965Z</time></trkpt><trkpt lat="43.5912919" lon="11.2041789"><ele>162.60000000000002</ele><time>2026-05-02T13:23:59.965Z</time></trkpt><trkpt lat="43.5912816" lon="11.2043185"><ele>162.8</ele><time>2026-05-02T13:24:01.965Z</time></trkpt><trkpt lat="43.5912777" lon="11.2044669"><ele>163.0</ele><time>2026-05-02T13:24:03.965Z</time></trkpt><trkpt lat="43.5912583" lon="11.2046071"><ele>163.0</ele><time>2026-05-02T13:24:05.965Z</time></trkpt><trkpt lat="43.5912348" lon="11.2047347"><ele>163.0</ele><time>2026-05-02T13:24:07.966Z</time></trkpt><trkpt lat="43.5912123" lon="11.2048499"><ele>163.0</ele><time>2026-05-02T13:24:09.965Z</time></trkpt><trkpt lat="43.5911956" lon="11.2049376"><ele>163.0</ele><time>2026-05-02T13:24:11.965Z</time></trkpt><trkpt lat="43.5911194" lon="11.2050256"><ele>163.0</ele><time>2026-05-02T13:24:27.965Z</time></trkpt><trkpt lat="43.5911881" lon="11.2049907"><ele>163.0</ele><time>2026-05-02T13:24:32.965Z</time></trkpt><trkpt lat="43.591209" lon="11.204866"><ele>163.0</ele><time>2026-05-02T13:24:34.965Z</time></trkpt><trkpt lat="43.5912365" lon="11.2047514"><ele>163.0</ele><time>2026-05-02T13:24:36.965Z</time></trkpt><trkpt lat="43.591262" lon="11.2046264"><ele>163.0</ele><time>2026-05-02T13:24:38.966Z</time></trkpt><trkpt lat="43.5912872" lon="11.2045052"><ele>163.0</ele><time>2026-05-02T13:24:40.966Z</time></trkpt><trkpt lat="43.5912981" lon="11.2043828"><ele>163.0</ele><time>2026-05-02T13:24:42.965Z</time></trkpt><trkpt lat="43.5913007" lon="11.2042398"><ele>163.0</ele><time>2026-05-02T13:24:44.965Z</time></trkpt><trkpt lat="43.5913072" lon="11.2040864"><ele>163.0</ele><time>2026-05-02T13:24:46.965Z</time></trkpt><trkpt lat="43.5913228" lon="11.2039233"><ele>163.0</ele><time>2026-05-02T13:24:48.965Z</time></trkpt><trkpt lat="43.5913374" lon="11.2037721"><ele>163.0</ele><time>2026-05-02T13:24:50.965Z</time></trkpt><trkpt lat="43.5913483" lon="11.2036415"><ele>163.0</ele><time>2026-05-02T13:24:52.965Z</time></trkpt><trkpt lat="43.5913626" lon="11.2034799"><ele>162.8</ele><time>2026-05-02T13:24:54.965Z</time></trkpt><trkpt lat="43.5913679" lon="11.2033931"><ele>162.60000000000002</ele><time>2026-05-02T13:24:55.965Z</time></trkpt><trkpt lat="43.5913831" lon="11.2032379"><ele>162.39999999999998</ele><time>2026-05-02T13:24:57.965Z</time></trkpt><trkpt lat="43.591392" lon="11.2031097"><ele>162.2</ele><time>2026-05-02T13:24:59.965Z</time></trkpt><trkpt lat="43.5914046" lon="11.2029635"><ele>162.0</ele><time>2026-05-02T13:25:01.966Z</time></trkpt><trkpt lat="43.5914088" lon="11.20282"><ele>161.6</ele><time>2026-05-02T13:25:03.965Z</time></trkpt><trkpt lat="43.5914049" lon="11.2026808"><ele>161.2</ele><time>2026-05-02T13:25:05.966Z</time></trkpt><trkpt lat="43.591372" lon="11.202542"><ele>160.8</ele><time>2026-05-02T13:25:07.965Z</time></trkpt><trkpt lat="43.5913484" lon="11.2024607"><ele>160.4</ele><time>2026-05-02T13:25:08.965Z</time></trkpt><trkpt lat="43.5913117" lon="11.2023114"><ele>160.0</ele><time>2026-05-02T13:25:10.965Z</time></trkpt><trkpt lat="43.5912813" lon="11.202164"><ele>159.83333333333334</ele><time>2026-05-02T13:25:12.965Z</time></trkpt><trkpt lat="43.5912462" lon="11.2020255"><ele>159.66666666666669</ele><time>2026-05-02T13:25:14.965Z</time></trkpt><trkpt lat="43.5912163" lon="11.2019163"><ele>159.5</ele><time>2026-05-02T13:25:16.965Z</time></trkpt><trkpt lat="43.591207" lon="11.2018076"><ele>159.33333333333334</ele><time>2026-05-02T13:25:18.965Z</time></trkpt><trkpt lat="43.591234" lon="11.2017129"><ele>159.16666666666666</ele><time>2026-05-02T13:25:20.965Z</time></trkpt><trkpt lat="43.5913043" lon="11.2016239"><ele>159.0</ele><time>2026-05-02T13:25:22.965Z</time></trkpt><trkpt lat="43.5913781" lon="11.2015428"><ele>158.66666666666666</ele><time>2026-05-02T13:25:24.966Z</time></trkpt><trkpt lat="43.5914452" lon="11.2014756"><ele>158.33333333333334</ele><time>2026-05-02T13:25:26.965Z</time></trkpt><trkpt lat="43.5914974" lon="11.2014198"><ele>158.0</ele><time>2026-05-02T13:25:28.965Z</time></trkpt><trkpt lat="43.5915607" lon="11.2013632"><ele>157.66666666666669</ele><time>2026-05-02T13:25:53.965Z</time></trkpt><trkpt lat="43.5916422" lon="11.2012919"><ele>157.33333333333334</ele><time>2026-05-02T13:25:56.964Z</time></trkpt><trkpt lat="43.5917204" lon="11.2012754"><ele>157.0</ele><time>2026-05-02T13:25:59.964Z</time></trkpt><trkpt lat="43.591729" lon="11.2014017"><ele>157.33333333333334</ele><time>2026-05-02T13:26:02.964Z</time></trkpt><trkpt lat="43.5916995" lon="11.2015509"><ele>157.66666666666669</ele><time>2026-05-02T13:26:04.964Z</time></trkpt><trkpt lat="43.5916864" lon="11.2016431"><ele>158.0</ele><time>2026-05-02T13:26:05.964Z</time></trkpt><trkpt lat="43.5916753" lon="11.2017444"><ele>158.33333333333334</ele><time>2026-05-02T13:26:06.964Z</time></trkpt><trkpt lat="43.591669" lon="11.2018556"><ele>158.66666666666666</ele><time>2026-05-02T13:26:07.965Z</time></trkpt><trkpt lat="43.5916554" lon="11.2019671"><ele>159.0</ele><time>2026-05-02T13:26:08.965Z</time></trkpt><trkpt lat="43.5916443" lon="11.2020836"><ele>159.0</ele><time>2026-05-02T13:26:09.964Z</time></trkpt><trkpt lat="43.5916316" lon="11.2022014"><ele>159.0</ele><time>2026-05-02T13:26:10.965Z</time></trkpt><trkpt lat="43.5916184" lon="11.2023208"><ele>159.0</ele><time>2026-05-02T13:26:11.964Z</time></trkpt><trkpt lat="43.5916096" lon="11.2024335"><ele>159.0</ele><time>2026-05-02T13:26:12.964Z</time></trkpt><trkpt lat="43.5915984" lon="11.2025422"><ele>159.0</ele><time>2026-05-02T13:26:13.964Z</time></trkpt><trkpt lat="43.5915889" lon="11.2026527"><ele>159.0</ele><time>2026-05-02T13:26:14.964Z</time></trkpt><trkpt lat="43.5915802" lon="11.2027611"><ele>159.16666666666666</ele><time>2026-05-02T13:26:15.964Z</time></trkpt><trkpt lat="43.5915698" lon="11.2028613"><ele>159.33333333333334</ele><time>2026-05-02T13:26:16.965Z</time></trkpt><trkpt lat="43.5915607" lon="11.2029671"><ele>159.5</ele><time>2026-05-02T13:26:17.964Z</time></trkpt><trkpt lat="43.5915498" lon="11.2030773"><ele>159.66666666666669</ele><time>2026-05-02T13:26:18.964Z</time></trkpt><trkpt lat="43.5915391" lon="11.2031926"><ele>159.83333333333334</ele><time>2026-05-02T13:26:19.964Z</time></trkpt><trkpt lat="43.5915245" lon="11.2033105"><ele>160.0</ele><time>2026-05-02T13:26:20.964Z</time></trkpt><trkpt lat="43.5915119" lon="11.2034321"><ele>160.33333333333334</ele><time>2026-05-02T13:26:21.964Z</time></trkpt><trkpt lat="43.5915013" lon="11.2035559"><ele>160.66666666666669</ele><time>2026-05-02T13:26:22.964Z</time></trkpt><trkpt lat="43.5914895" lon="11.2036761"><ele>161.0</ele><time>2026-05-02T13:26:23.964Z</time></trkpt><trkpt lat="43.5914765" lon="11.2037901"><ele>161.33333333333334</ele><time>2026-05-02T13:26:24.964Z</time></trkpt><trkpt lat="43.5914623" lon="11.2039029"><ele>161.66666666666666</ele><time>2026-05-02T13:26:25.964Z</time></trkpt><trkpt lat="43.591446" lon="11.204013"><ele>162.0</ele><time>2026-05-02T13:26:26.964Z</time></trkpt><trkpt lat="43.5914327" lon="11.2041191"><ele>162.16666666666666</ele><time>2026-05-02T13:26:27.964Z</time></trkpt><trkpt lat="43.5914145" lon="11.2042272"><ele>162.33333333333334</ele><time>2026-05-02T13:26:28.964Z</time></trkpt><trkpt lat="43.5914001" lon="11.2043372"><ele>162.5</ele><time>2026-05-02T13:26:29.964Z</time></trkpt><trkpt lat="43.5913861" lon="11.2044428"><ele>162.66666666666669</ele><time>2026-05-02T13:26:30.964Z</time></trkpt><trkpt lat="43.5913736" lon="11.2045503"><ele>162.83333333333334</ele><time>2026-05-02T13:26:31.964Z</time></trkpt><trkpt lat="43.5913629" lon="11.2046507"><ele>163.0</ele><time>2026-05-02T13:26:32.964Z</time></trkpt><trkpt lat="43.5913563" lon="11.2047474"><ele>163.66666666666669</ele><time>2026-05-02T13:26:33.964Z</time></trkpt><trkpt lat="43.5913559" lon="11.2048407"><ele>164.33333333333334</ele><time>2026-05-02T13:26:34.964Z</time></trkpt><trkpt lat="43.5913742" lon="11.2049878"><ele>165.0</ele><time>2026-05-02T13:26:36.964Z</time></trkpt><trkpt lat="43.5914055" lon="11.2050734"><ele>165.66666666666666</ele><time>2026-05-02T13:26:39.964Z</time></trkpt><trkpt lat="43.5913337" lon="11.2052029"><ele>166.33333333333331</ele><time>2026-05-02T13:26:42.964Z</time></trkpt><trkpt lat="43.5912716" lon="11.2052717"><ele>167.0</ele><time>2026-05-02T13:26:43.964Z</time></trkpt><trkpt lat="43.5911876" lon="11.2053314"><ele>167.25</ele><time>2026-05-02T13:26:44.964Z</time></trkpt><trkpt lat="43.5910833" lon="11.2053885"><ele>167.5</ele><time>2026-05-02T13:26:45.964Z</time></trkpt><trkpt lat="43.5909808" lon="11.2054446"><ele>167.75</ele><time>2026-05-02T13:26:46.964Z</time></trkpt><trkpt lat="43.5908808" lon="11.2055381"><ele>168.0</ele><time>2026-05-02T13:26:47.964Z</time></trkpt><trkpt lat="43.5907895" lon="11.2056583"><ele>169.25</ele><time>2026-05-02T13:26:48.964Z</time></trkpt><trkpt lat="43.5907013" lon="11.2058218"><ele>170.5</ele><time>2026-05-02T13:26:49.964Z</time></trkpt><trkpt lat="43.5906111" lon="11.2059857"><ele>171.75</ele><time>2026-05-02T13:26:50.964Z</time></trkpt><trkpt lat="43.5905158" lon="11.2061445"><ele>173.0</ele><time>2026-05-02T13:26:51.964Z</time></trkpt><trkpt lat="43.590409" lon="11.2063114"><ele>173.66666666666666</ele><time>2026-05-02T13:26:52.965Z</time></trkpt><trkpt lat="43.5902994" lon="11.2064897"><ele>174.33333333333334</ele><time>2026-05-02T13:26:53.964Z</time></trkpt><trkpt lat="43.5901882" lon="11.2066712"><ele>175.0</ele><time>2026-05-02T13:26:54.965Z</time></trkpt><trkpt lat="43.5900783" lon="11.2068509"><ele>175.0</ele><time>2026-05-02T13:26:55.964Z</time></trkpt><trkpt lat="43.5899649" lon="11.207025"><ele>175.0</ele><time>2026-05-02T13:26:56.965Z</time></trkpt><trkpt lat="43.5898509" lon="11.2071934"><ele>175.0</ele><time>2026-05-02T13:26:57.964Z</time></trkpt><trkpt lat="43.5897287" lon="11.207349"><ele>177.0</ele><time>2026-05-02T13:26:58.964Z</time></trkpt><trkpt lat="43.5896038" lon="11.2074803"><ele>179.0</ele><time>2026-05-02T13:26:59.964Z</time></trkpt><trkpt lat="43.5894738" lon="11.2075775"><ele>181.0</ele><time>2026-05-02T13:27:00.964Z</time></trkpt><trkpt lat="43.5893363" lon="11.2076476"><ele>181.0</ele><time>2026-05-02T13:27:01.964Z</time></trkpt><trkpt lat="43.5891832" lon="11.207708"><ele>181.0</ele><time>2026-05-02T13:27:02.965Z</time></trkpt><trkpt lat="43.5890312" lon="11.2077746"><ele>181.0</ele><time>2026-05-02T13:27:03.964Z</time></trkpt><trkpt lat="43.5888803" lon="11.207838"><ele>181.0</ele><time>2026-05-02T13:27:04.965Z</time></trkpt><trkpt lat="43.5887256" lon="11.2079029"><ele>181.0</ele><time>2026-05-02T13:27:05.964Z</time></trkpt><trkpt lat="43.5885746" lon="11.2079649"><ele>181.0</ele><time>2026-05-02T13:27:06.964Z</time></trkpt><trkpt lat="43.5884177" lon="11.2080243"><ele>182.33333333333334</ele><time>2026-05-02T13:27:07.965Z</time></trkpt><trkpt lat="43.5882643" lon="11.2080891"><ele>183.66666666666666</ele><time>2026-05-02T13:27:08.964Z</time></trkpt><trkpt lat="43.5881128" lon="11.2081569"><ele>185.0</ele><time>2026-05-02T13:27:09.965Z</time></trkpt><trkpt lat="43.5879638" lon="11.208227"><ele>183.25</ele><time>2026-05-02T13:27:10.964Z</time></trkpt><trkpt lat="43.5878275" lon="11.2083074"><ele>181.5</ele><time>2026-05-02T13:27:11.964Z</time></trkpt><trkpt lat="43.5876964" lon="11.2083984"><ele>179.75</ele><time>2026-05-02T13:27:12.964Z</time></trkpt><trkpt lat="43.5875712" lon="11.2084906"><ele>178.0</ele><time>2026-05-02T13:27:13.964Z</time></trkpt><trkpt lat="43.5874439" lon="11.2085807"><ele>178.0</ele><time>2026-05-02T13:27:14.964Z</time></trkpt><trkpt lat="43.5873154" lon="11.2086715"><ele>178.0</ele><time>2026-05-02T13:27:15.964Z</time></trkpt><trkpt lat="43.5871827" lon="11.2087617"><ele>178.0</ele><time>2026-05-02T13:27:16.964Z</time></trkpt><trkpt lat="43.5870455" lon="11.2088482"><ele>178.0</ele><time>2026-05-02T13:27:17.965Z</time></trkpt><trkpt lat="43.5869085" lon="11.2089329"><ele>178.75</ele><time>2026-05-02T13:27:18.964Z</time></trkpt><trkpt lat="43.5867673" lon="11.209013"><ele>179.5</ele><time>2026-05-02T13:27:19.964Z</time></trkpt><trkpt lat="43.5866306" lon="11.2090928"><ele>180.25</ele><time>2026-05-02T13:27:20.964Z</time></trkpt><trkpt lat="43.586496" lon="11.2091748"><ele>181.0</ele><time>2026-05-02T13:27:21.964Z</time></trkpt><trkpt lat="43.5863633" lon="11.2092587"><ele>181.0</ele><time>2026-05-02T13:27:22.964Z</time></trkpt><trkpt lat="43.5862332" lon="11.209346"><ele>181.0</ele><time>2026-05-02T13:27:23.965Z</time></trkpt><trkpt lat="43.5861015" lon="11.2094307"><ele>181.0</ele><time>2026-05-02T13:27:24.964Z</time></trkpt><trkpt lat="43.585971" lon="11.2095163"><ele>181.0</ele><time>2026-05-02T13:27:25.964Z</time></trkpt><trkpt lat="43.5858324" lon="11.2096041"><ele>181.33333333333334</ele><time>2026-05-02T13:27:26.964Z</time></trkpt><trkpt lat="43.5856902" lon="11.2096923"><ele>181.66666666666666</ele><time>2026-05-02T13:27:27.965Z</time></trkpt><trkpt lat="43.5855517" lon="11.2097834"><ele>182.0</ele><time>2026-05-02T13:27:28.965Z</time></trkpt><trkpt lat="43.5854134" lon="11.2098697"><ele>179.75</ele><time>2026-05-02T13:27:29.965Z</time></trkpt><trkpt lat="43.5852803" lon="11.2099518"><ele>177.5</ele><time>2026-05-02T13:27:30.964Z</time></trkpt><trkpt lat="43.5851477" lon="11.210045"><ele>175.25</ele><time>2026-05-02T13:27:31.964Z</time></trkpt><trkpt lat="43.585015" lon="11.2101268"><ele>173.0</ele><time>2026-05-02T13:27:32.964Z</time></trkpt><trkpt lat="43.5848881" lon="11.2102105"><ele>173.0</ele><time>2026-05-02T13:27:33.964Z</time></trkpt><trkpt lat="43.584766" lon="11.2102896"><ele>173.0</ele><time>2026-05-02T13:27:34.964Z</time></trkpt><trkpt lat="43.5846465" lon="11.2103613"><ele>173.0</ele><time>2026-05-02T13:27:35.965Z</time></trkpt><trkpt lat="43.584536" lon="11.210429"><ele>173.0</ele><time>2026-05-02T13:27:36.964Z</time></trkpt><trkpt lat="43.5844343" lon="11.2104947"><ele>173.0</ele><time>2026-05-02T13:27:37.964Z</time></trkpt><trkpt lat="43.5843444" lon="11.2105548"><ele>173.0</ele><time>2026-05-02T13:27:38.965Z</time></trkpt><trkpt lat="43.5842647" lon="11.2106031"><ele>173.0</ele><time>2026-05-02T13:27:39.965Z</time></trkpt><trkpt lat="43.5841932" lon="11.210647"><ele>173.0</ele><time>2026-05-02T13:27:40.964Z</time></trkpt><trkpt lat="43.5840902" lon="11.2106941"><ele>173.0</ele><time>2026-05-02T13:27:42.964Z</time></trkpt><trkpt lat="43.5840293" lon="11.2106595"><ele>173.0</ele><time>2026-05-02T13:27:44.964Z</time></trkpt><trkpt lat="43.5840389" lon="11.210548"><ele>173.0</ele><time>2026-05-02T13:27:47.964Z</time></trkpt><trkpt lat="43.5840519" lon="11.2104577"><ele>173.0</ele><time>2026-05-02T13:27:49.964Z</time></trkpt><trkpt lat="43.5840099" lon="11.210388"><ele>173.0</ele><time>2026-05-02T13:27:52.964Z</time></trkpt><trkpt lat="43.5839718" lon="11.2102997"><ele>173.0</ele><time>2026-05-02T13:27:56.964Z</time></trkpt><trkpt lat="43.5839669" lon="11.2101627"><ele>173.0</ele><time>2026-05-02T13:27:58.964Z</time></trkpt><trkpt lat="43.5839616" lon="11.2100709"><ele>173.0</ele><time>2026-05-02T13:27:59.965Z</time></trkpt><trkpt lat="43.5839578" lon="11.2099637"><ele>173.0</ele><time>2026-05-02T13:28:00.964Z</time></trkpt><trkpt lat="43.5839505" lon="11.2098472"><ele>173.0</ele><time>2026-05-02T13:28:01.964Z</time></trkpt><trkpt lat="43.583944" lon="11.2097284"><ele>173.0</ele><time>2026-05-02T13:28:02.964Z</time></trkpt><trkpt lat="43.5839371" lon="11.2096012"><ele>173.0</ele><time>2026-05-02T13:28:03.964Z</time></trkpt><trkpt lat="43.5839312" lon="11.209482"><ele>173.0</ele><time>2026-05-02T13:28:04.964Z</time></trkpt><trkpt lat="43.5839307" lon="11.2093592"><ele>173.0</ele><time>2026-05-02T13:28:05.964Z</time></trkpt><trkpt lat="43.5839258" lon="11.2092454"><ele>172.5</ele><time>2026-05-02T13:28:06.964Z</time></trkpt><trkpt lat="43.5839183" lon="11.2091382"><ele>172.0</ele><time>2026-05-02T13:28:07.964Z</time></trkpt><trkpt lat="43.5839099" lon="11.2090267"><ele>171.5</ele><time>2026-05-02T13:28:08.965Z</time></trkpt><trkpt lat="43.5838976" lon="11.2089183"><ele>171.0</ele><time>2026-05-02T13:28:09.964Z</time></trkpt><trkpt lat="43.5838872" lon="11.208819"><ele>170.5</ele><time>2026-05-02T13:28:10.964Z</time></trkpt><trkpt lat="43.5838732" lon="11.2087228"><ele>170.0</ele><time>2026-05-02T13:28:11.964Z</time></trkpt><trkpt lat="43.5838529" lon="11.2086252"><ele>169.66666666666666</ele><time>2026-05-02T13:28:12.964Z</time></trkpt><trkpt lat="43.5838254" lon="11.2085126"><ele>169.33333333333331</ele><time>2026-05-02T13:28:13.964Z</time></trkpt><trkpt lat="43.5838018" lon="11.2083838"><ele>169.0</ele><time>2026-05-02T13:28:14.964Z</time></trkpt><trkpt lat="43.5837856" lon="11.208259"><ele>168.66666666666666</ele><time>2026-05-02T13:28:15.964Z</time></trkpt><trkpt lat="43.5837725" lon="11.2081438"><ele>168.33333333333334</ele><time>2026-05-02T13:28:16.964Z</time></trkpt><trkpt lat="43.5837551" lon="11.2080438"><ele>168.0</ele><time>2026-05-02T13:28:17.964Z</time></trkpt><trkpt lat="43.5837325" lon="11.207943"><ele>168.0</ele><time>2026-05-02T13:28:18.964Z</time></trkpt><trkpt lat="43.5837036" lon="11.2078538"><ele>168.0</ele><time>2026-05-02T13:28:19.965Z</time></trkpt><trkpt lat="43.5836742" lon="11.2077742"><ele>168.0</ele><time>2026-05-02T13:28:20.964Z</time></trkpt><trkpt lat="43.5836148" lon="11.2076482"><ele>168.0</ele><time>2026-05-02T13:28:22.964Z</time></trkpt><trkpt lat="43.5835405" lon="11.2075752"><ele>168.0</ele><time>2026-05-02T13:28:24.964Z</time></trkpt><trkpt lat="43.5834276" lon="11.2075635"><ele>168.0</ele><time>2026-05-02T13:28:26.964Z</time></trkpt><trkpt lat="43.5833581" lon="11.2075924"><ele>168.0</ele><time>2026-05-02T13:28:27.965Z</time></trkpt><trkpt lat="43.5832851" lon="11.2076455"><ele>168.0</ele><time>2026-05-02T13:28:28.964Z</time></trkpt><trkpt lat="43.583213" lon="11.2077068"><ele>168.0</ele><time>2026-05-02T13:28:29.964Z</time></trkpt><trkpt lat="43.5831483" lon="11.207761"><ele>168.0</ele><time>2026-05-02T13:28:30.964Z</time></trkpt><trkpt lat="43.5830863" lon="11.2078069"><ele>168.0</ele><time>2026-05-02T13:28:31.964Z</time></trkpt><trkpt lat="43.5830176" lon="11.2078528"><ele>168.0</ele><time>2026-05-02T13:28:32.964Z</time></trkpt><trkpt lat="43.5829293" lon="11.2079057"><ele>167.75</ele><time>2026-05-02T13:28:33.964Z</time></trkpt><trkpt lat="43.5828298" lon="11.2079584"><ele>167.5</ele><time>2026-05-02T13:28:34.965Z</time></trkpt><trkpt lat="43.5827208" lon="11.2080166"><ele>167.25</ele><time>2026-05-02T13:28:35.964Z</time></trkpt><trkpt lat="43.5826148" lon="11.2080932"><ele>167.0</ele><time>2026-05-02T13:28:36.965Z</time></trkpt><trkpt lat="43.5825065" lon="11.2081635"><ele>167.6</ele><time>2026-05-02T13:28:37.964Z</time></trkpt><trkpt lat="43.5824028" lon="11.2082257"><ele>168.2</ele><time>2026-05-02T13:28:38.964Z</time></trkpt><trkpt lat="43.582307" lon="11.2082777"><ele>168.8</ele><time>2026-05-02T13:28:39.964Z</time></trkpt><trkpt lat="43.5822181" lon="11.2083201"><ele>169.4</ele><time>2026-05-02T13:28:40.964Z</time></trkpt><trkpt lat="43.5821268" lon="11.2083572"><ele>170.0</ele><time>2026-05-02T13:28:41.964Z</time></trkpt><trkpt lat="43.5820412" lon="11.2083933"><ele>169.4</ele><time>2026-05-02T13:28:42.964Z</time></trkpt><trkpt lat="43.5819565" lon="11.2084325"><ele>168.8</ele><time>2026-05-02T13:28:43.965Z</time></trkpt><trkpt lat="43.5818733" lon="11.2084698"><ele>168.2</ele><time>2026-05-02T13:28:44.965Z</time></trkpt><trkpt lat="43.5817897" lon="11.2085115"><ele>167.6</ele><time>2026-05-02T13:28:45.964Z</time></trkpt><trkpt lat="43.5817031" lon="11.2085558"><ele>167.0</ele><time>2026-05-02T13:28:46.964Z</time></trkpt><trkpt lat="43.5816172" lon="11.2086048"><ele>167.0</ele><time>2026-05-02T13:28:47.964Z</time></trkpt><trkpt lat="43.5815307" lon="11.2086574"><ele>167.0</ele><time>2026-05-02T13:28:48.964Z</time></trkpt><trkpt lat="43.58144" lon="11.2087096"><ele>167.0</ele><time>2026-05-02T13:28:49.964Z</time></trkpt><trkpt lat="43.5813477" lon="11.2087675"><ele>167.0</ele><time>2026-05-02T13:28:50.965Z</time></trkpt><trkpt lat="43.5812582" lon="11.20882"><ele>167.0</ele><time>2026-05-02T13:28:51.964Z</time></trkpt><trkpt lat="43.5811649" lon="11.2088734"><ele>166.8</ele><time>2026-05-02T13:28:52.964Z</time></trkpt><trkpt lat="43.5810771" lon="11.2089235"><ele>166.6</ele><time>2026-05-02T13:28:53.964Z</time></trkpt><trkpt lat="43.580995" lon="11.2089712"><ele>166.4</ele><time>2026-05-02T13:28:54.964Z</time></trkpt><trkpt lat="43.580913" lon="11.2090184"><ele>166.20000000000002</ele><time>2026-05-02T13:28:55.964Z</time></trkpt><trkpt lat="43.5808288" lon="11.2090692"><ele>166.0</ele><time>2026-05-02T13:28:56.965Z</time></trkpt><trkpt lat="43.5807421" lon="11.2091235"><ele>166.0</ele><time>2026-05-02T13:28:57.965Z</time></trkpt><trkpt lat="43.5806611" lon="11.2091783"><ele>166.0</ele><time>2026-05-02T13:28:58.964Z</time></trkpt><trkpt lat="43.5805876" lon="11.2092271"><ele>166.0</ele><time>2026-05-02T13:28:59.964Z</time></trkpt><trkpt lat="43.5805109" lon="11.2092742"><ele>166.0</ele><time>2026-05-02T13:29:00.964Z</time></trkpt><trkpt lat="43.5804343" lon="11.2093255"><ele>166.0</ele><time>2026-05-02T13:29:01.964Z</time></trkpt><trkpt lat="43.5803664" lon="11.2093719"><ele>166.0</ele><time>2026-05-02T13:29:02.964Z</time></trkpt><trkpt lat="43.5802924" lon="11.2094214"><ele>166.4</ele><time>2026-05-02T13:29:03.964Z</time></trkpt><trkpt lat="43.5802111" lon="11.209475"><ele>166.8</ele><time>2026-05-02T13:29:04.964Z</time></trkpt><trkpt lat="43.5801246" lon="11.2095317"><ele>167.20000000000002</ele><time>2026-05-02T13:29:05.965Z</time></trkpt><trkpt lat="43.5800398" lon="11.2095842"><ele>167.60000000000002</ele><time>2026-05-02T13:29:06.965Z</time></trkpt><trkpt lat="43.5799588" lon="11.2096369"><ele>168.0</ele><time>2026-05-02T13:29:07.964Z</time></trkpt><trkpt lat="43.5798796" lon="11.2096874"><ele>168.0</ele><time>2026-05-02T13:29:08.964Z</time></trkpt><trkpt lat="43.5798033" lon="11.2097401"><ele>168.0</ele><time>2026-05-02T13:29:09.964Z</time></trkpt><trkpt lat="43.5797324" lon="11.2097883"><ele>168.0</ele><time>2026-05-02T13:29:10.964Z</time></trkpt><trkpt lat="43.5796654" lon="11.2098273"><ele>168.0</ele><time>2026-05-02T13:29:11.964Z</time></trkpt><trkpt lat="43.5796005" lon="11.2098633"><ele>168.0</ele><time>2026-05-02T13:29:12.964Z</time></trkpt><trkpt lat="43.5795394" lon="11.2099027"><ele>168.0</ele><time>2026-05-02T13:29:13.964Z</time></trkpt><trkpt lat="43.5794309" lon="11.2099741"><ele>168.0</ele><time>2026-05-02T13:29:15.964Z</time></trkpt><trkpt lat="43.579368" lon="11.210014"><ele>168.0</ele><time>2026-05-02T13:29:16.964Z</time></trkpt><trkpt lat="43.5793078" lon="11.2100659"><ele>168.0</ele><time>2026-05-02T13:29:17.964Z</time></trkpt><trkpt lat="43.5792566" lon="11.2101233"><ele>168.0</ele><time>2026-05-02T13:29:18.965Z</time></trkpt><trkpt lat="43.5792065" lon="11.2101944"><ele>168.0</ele><time>2026-05-02T13:29:19.964Z</time></trkpt><trkpt lat="43.5791565" lon="11.2102782"><ele>168.0</ele><time>2026-05-02T13:29:20.964Z</time></trkpt><trkpt lat="43.5791083" lon="11.2103666"><ele>168.0</ele><time>2026-05-02T13:29:21.964Z</time></trkpt><trkpt lat="43.5790652" lon="11.2104484"><ele>168.0</ele><time>2026-05-02T13:29:22.964Z</time></trkpt><trkpt lat="43.5790203" lon="11.2105302"><ele>168.0</ele><time>2026-05-02T13:29:23.964Z</time></trkpt><trkpt lat="43.5789735" lon="11.2106218"><ele>168.0</ele><time>2026-05-02T13:29:24.964Z</time></trkpt><trkpt lat="43.5789163" lon="11.2107273"><ele>168.0</ele><time>2026-05-02T13:29:25.964Z</time></trkpt><trkpt lat="43.5788591" lon="11.2108236"><ele>168.0</ele><time>2026-05-02T13:29:26.964Z</time></trkpt><trkpt lat="43.5788116" lon="11.210916"><ele>168.0</ele><time>2026-05-02T13:29:27.964Z</time></trkpt><trkpt lat="43.5787667" lon="11.2109975"><ele>168.0</ele><time>2026-05-02T13:29:28.964Z</time></trkpt><trkpt lat="43.5787287" lon="11.2110705"><ele>168.0</ele><time>2026-05-02T13:29:29.964Z</time></trkpt><trkpt lat="43.5786815" lon="11.2111956"><ele>168.0</ele><time>2026-05-02T13:29:31.965Z</time></trkpt><trkpt lat="43.5786755" lon="11.2113667"><ele>168.0</ele><time>2026-05-02T13:29:33.965Z</time></trkpt><trkpt lat="43.5786914" lon="11.2114718"><ele>168.0</ele><time>2026-05-02T13:29:34.965Z</time></trkpt><trkpt lat="43.578714" lon="11.2115902"><ele>168.66666666666666</ele><time>2026-05-02T13:29:35.964Z</time></trkpt><trkpt lat="43.5787486" lon="11.2117126"><ele>169.33333333333334</ele><time>2026-05-02T13:29:36.964Z</time></trkpt><trkpt lat="43.5787817" lon="11.2118296"><ele>170.0</ele><time>2026-05-02T13:29:37.964Z</time></trkpt><trkpt lat="43.5788142" lon="11.2119371"><ele>170.66666666666669</ele><time>2026-05-02T13:29:38.964Z</time></trkpt><trkpt lat="43.5788432" lon="11.2120379"><ele>171.33333333333334</ele><time>2026-05-02T13:29:39.964Z</time></trkpt><trkpt lat="43.5788723" lon="11.2121285"><ele>172.0</ele><time>2026-05-02T13:29:40.964Z</time></trkpt><trkpt lat="43.5789188" lon="11.2122686"><ele>172.6</ele><time>2026-05-02T13:29:42.965Z</time></trkpt><trkpt lat="43.5789561" lon="11.2123537"><ele>173.2</ele><time>2026-05-02T13:29:44.964Z</time></trkpt><trkpt lat="43.5789996" lon="11.2124327"><ele>173.8</ele><time>2026-05-02T13:29:50.964Z</time></trkpt><trkpt lat="43.5789846" lon="11.2125264"><ele>174.4</ele><time>2026-05-02T13:29:53.965Z</time></trkpt><trkpt lat="43.5788957" lon="11.2125953"><ele>175.0</ele><time>2026-05-02T13:29:56.964Z</time></trkpt><trkpt lat="43.5787742" lon="11.2126943"><ele>175.0</ele><time>2026-05-02T13:29:58.964Z</time></trkpt><trkpt lat="43.5786854" lon="11.2127652"><ele>175.0</ele><time>2026-05-02T13:29:59.964Z</time></trkpt><trkpt lat="43.578588" lon="11.2128387"><ele>175.0</ele><time>2026-05-02T13:30:00.964Z</time></trkpt><trkpt lat="43.5784777" lon="11.2129477"><ele>175.0</ele><time>2026-05-02T13:30:01.964Z</time></trkpt><trkpt lat="43.5783542" lon="11.213081"><ele>175.33333333333334</ele><time>2026-05-02T13:30:02.964Z</time></trkpt><trkpt lat="43.5782307" lon="11.2132313"><ele>175.66666666666666</ele><time>2026-05-02T13:30:03.964Z</time></trkpt><trkpt lat="43.5781118" lon="11.2133987"><ele>176.0</ele><time>2026-05-02T13:30:04.965Z</time></trkpt><trkpt lat="43.5779807" lon="11.2135826"><ele>175.66666666666666</ele><time>2026-05-02T13:30:05.964Z</time></trkpt><trkpt lat="43.5778468" lon="11.2137735"><ele>175.33333333333334</ele><time>2026-05-02T13:30:06.964Z</time></trkpt><trkpt lat="43.5777163" lon="11.2139608"><ele>175.0</ele><time>2026-05-02T13:30:07.964Z</time></trkpt><trkpt lat="43.5775871" lon="11.214134"><ele>175.0</ele><time>2026-05-02T13:30:08.964Z</time></trkpt><trkpt lat="43.5774588" lon="11.2142874"><ele>175.0</ele><time>2026-05-02T13:30:09.964Z</time></trkpt><trkpt lat="43.5773222" lon="11.2144038"><ele>175.0</ele><time>2026-05-02T13:30:10.964Z</time></trkpt><trkpt lat="43.5771724" lon="11.2144895"><ele>175.0</ele><time>2026-05-02T13:30:11.964Z</time></trkpt><trkpt lat="43.5770206" lon="11.2145545"><ele>175.0</ele><time>2026-05-02T13:30:12.964Z</time></trkpt><trkpt lat="43.5768704" lon="11.2146139"><ele>175.0</ele><time>2026-05-02T13:30:13.965Z</time></trkpt><trkpt lat="43.5767236" lon="11.2146884"><ele>174.33333333333334</ele><time>2026-05-02T13:30:14.964Z</time></trkpt><trkpt lat="43.5765748" lon="11.214758"><ele>173.66666666666666</ele><time>2026-05-02T13:30:15.964Z</time></trkpt><trkpt lat="43.5764169" lon="11.2148249"><ele>173.0</ele><time>2026-05-02T13:30:16.965Z</time></trkpt><trkpt lat="43.576254" lon="11.2148952"><ele>174.33333333333331</ele><time>2026-05-02T13:30:17.964Z</time></trkpt><trkpt lat="43.5760955" lon="11.2149681"><ele>175.66666666666666</ele><time>2026-05-02T13:30:18.964Z</time></trkpt><trkpt lat="43.575938" lon="11.2150361"><ele>177.0</ele><time>2026-05-02T13:30:19.964Z</time></trkpt><trkpt lat="43.5757799" lon="11.2151072"><ele>177.0</ele><time>2026-05-02T13:30:20.964Z</time></trkpt><trkpt lat="43.575622" lon="11.2151734"><ele>177.0</ele><time>2026-05-02T13:30:21.964Z</time></trkpt><trkpt lat="43.575469" lon="11.215248"><ele>177.0</ele><time>2026-05-02T13:30:22.964Z</time></trkpt><trkpt lat="43.5753151" lon="11.2153188"><ele>176.66666666666666</ele><time>2026-05-02T13:30:23.964Z</time></trkpt><trkpt lat="43.5751583" lon="11.2153777"><ele>176.33333333333331</ele><time>2026-05-02T13:30:24.965Z</time></trkpt><trkpt lat="43.5750028" lon="11.2154387"><ele>176.0</ele><time>2026-05-02T13:30:25.964Z</time></trkpt><trkpt lat="43.5748428" lon="11.2154997"><ele>176.0</ele><time>2026-05-02T13:30:26.964Z</time></trkpt><trkpt lat="43.5746863" lon="11.2155621"><ele>176.0</ele><time>2026-05-02T13:30:27.964Z</time></trkpt><trkpt lat="43.5745305" lon="11.2156266"><ele>176.0</ele><time>2026-05-02T13:30:28.964Z</time></trkpt><trkpt lat="43.5743721" lon="11.2156918"><ele>176.33333333333331</ele><time>2026-05-02T13:30:29.965Z</time></trkpt><trkpt lat="43.5742169" lon="11.2157536"><ele>176.66666666666666</ele><time>2026-05-02T13:30:30.965Z</time></trkpt><trkpt lat="43.5740623" lon="11.2158197"><ele>177.0</ele><time>2026-05-02T13:30:31.964Z</time></trkpt><trkpt lat="43.5739097" lon="11.21589"><ele>177.0</ele><time>2026-05-02T13:30:32.964Z</time></trkpt><trkpt lat="43.5737609" lon="11.2159623"><ele>177.0</ele><time>2026-05-02T13:30:33.965Z</time></trkpt><trkpt lat="43.5736167" lon="11.2160504"><ele>177.0</ele><time>2026-05-02T13:30:34.964Z</time></trkpt><trkpt lat="43.5734734" lon="11.2161474"><ele>177.5</ele><time>2026-05-02T13:30:35.964Z</time></trkpt><trkpt lat="43.5733382" lon="11.2162474"><ele>178.0</ele><time>2026-05-02T13:30:36.964Z</time></trkpt><trkpt lat="43.573208" lon="11.2163409"><ele>178.5</ele><time>2026-05-02T13:30:37.965Z</time></trkpt><trkpt lat="43.573076" lon="11.2164278"><ele>179.0</ele><time>2026-05-02T13:30:38.964Z</time></trkpt><trkpt lat="43.5729397" lon="11.2164969"><ele>180.5</ele><time>2026-05-02T13:30:39.964Z</time></trkpt><trkpt lat="43.5727967" lon="11.2165411"><ele>182.0</ele><time>2026-05-02T13:30:40.964Z</time></trkpt><trkpt lat="43.5726515" lon="11.2165628"><ele>183.5</ele><time>2026-05-02T13:30:41.964Z</time></trkpt><trkpt lat="43.5725057" lon="11.2165694"><ele>185.0</ele><time>2026-05-02T13:30:42.964Z</time></trkpt><trkpt lat="43.5723578" lon="11.2165469"><ele>185.0</ele><time>2026-05-02T13:30:43.964Z</time></trkpt><trkpt lat="43.572225" lon="11.2164906"><ele>185.0</ele><time>2026-05-02T13:30:44.964Z</time></trkpt><trkpt lat="43.5720917" lon="11.2164203"><ele>185.0</ele><time>2026-05-02T13:30:45.964Z</time></trkpt><trkpt lat="43.5719644" lon="11.2163346"><ele>185.0</ele><time>2026-05-02T13:30:46.964Z</time></trkpt><trkpt lat="43.5718408" lon="11.2162282"><ele>183.75</ele><time>2026-05-02T13:30:47.964Z</time></trkpt><trkpt lat="43.571733" lon="11.2160986"><ele>182.5</ele><time>2026-05-02T13:30:48.965Z</time></trkpt><trkpt lat="43.5716286" lon="11.2159598"><ele>181.25</ele><time>2026-05-02T13:30:49.964Z</time></trkpt><trkpt lat="43.5715342" lon="11.2158265"><ele>180.0</ele><time>2026-05-02T13:30:50.964Z</time></trkpt><trkpt lat="43.571452" lon="11.2157046"><ele>179.8</ele><time>2026-05-02T13:30:51.964Z</time></trkpt><trkpt lat="43.5713787" lon="11.2156055"><ele>179.6</ele><time>2026-05-02T13:30:52.964Z</time></trkpt><trkpt lat="43.5713154" lon="11.2155143"><ele>179.39999999999998</ele><time>2026-05-02T13:30:53.965Z</time></trkpt><trkpt lat="43.571259" lon="11.2154428"><ele>179.2</ele><time>2026-05-02T13:30:54.964Z</time></trkpt><trkpt lat="43.5712078" lon="11.215377"><ele>179.0</ele><time>2026-05-02T13:30:55.963Z</time></trkpt><trkpt lat="43.5710943" lon="11.2153086"><ele>179.6</ele><time>2026-05-02T13:30:57.963Z</time></trkpt><trkpt lat="43.5710202" lon="11.2153215"><ele>180.2</ele><time>2026-05-02T13:30:58.963Z</time></trkpt><trkpt lat="43.5709487" lon="11.215361"><ele>180.79999999999998</ele><time>2026-05-02T13:30:59.963Z</time></trkpt><trkpt lat="43.5708645" lon="11.2154193"><ele>181.39999999999998</ele><time>2026-05-02T13:31:00.963Z</time></trkpt><trkpt lat="43.5707759" lon="11.2154786"><ele>182.0</ele><time>2026-05-02T13:31:01.963Z</time></trkpt><trkpt lat="43.5706674" lon="11.2155246"><ele>182.0</ele><time>2026-05-02T13:31:02.963Z</time></trkpt><trkpt lat="43.5705504" lon="11.2155802"><ele>182.0</ele><time>2026-05-02T13:31:03.963Z</time></trkpt><trkpt lat="43.5704406" lon="11.2156329"><ele>182.0</ele><time>2026-05-02T13:31:04.963Z</time></trkpt><trkpt lat="43.5703409" lon="11.2156777"><ele>182.0</ele><time>2026-05-02T13:31:05.963Z</time></trkpt><trkpt lat="43.5702429" lon="11.2157186"><ele>182.0</ele><time>2026-05-02T13:31:06.963Z</time></trkpt><trkpt lat="43.5701503" lon="11.2157623"><ele>182.0</ele><time>2026-05-02T13:31:07.964Z</time></trkpt><trkpt lat="43.5700507" lon="11.2158069"><ele>182.0</ele><time>2026-05-02T13:31:08.963Z</time></trkpt><trkpt lat="43.5699534" lon="11.2158546"><ele>182.0</ele><time>2026-05-02T13:31:09.963Z</time></trkpt><trkpt lat="43.5698698" lon="11.2159009"><ele>182.0</ele><time>2026-05-02T13:31:10.963Z</time></trkpt><trkpt lat="43.5697998" lon="11.2159426"><ele>182.0</ele><time>2026-05-02T13:31:11.963Z</time></trkpt><trkpt lat="43.5697401" lon="11.2159712"><ele>182.0</ele><time>2026-05-02T13:31:12.963Z</time></trkpt><trkpt lat="43.5696304" lon="11.2160216"><ele>182.0</ele><time>2026-05-02T13:31:14.964Z</time></trkpt><trkpt lat="43.5695672" lon="11.2160478"><ele>182.0</ele><time>2026-05-02T13:31:15.963Z</time></trkpt><trkpt lat="43.5694983" lon="11.2160763"><ele>182.0</ele><time>2026-05-02T13:31:16.964Z</time></trkpt><trkpt lat="43.569417" lon="11.2161079"><ele>182.0</ele><time>2026-05-02T13:31:17.963Z</time></trkpt><trkpt lat="43.5693248" lon="11.2161405"><ele>182.0</ele><time>2026-05-02T13:31:18.963Z</time></trkpt><trkpt lat="43.5692264" lon="11.2161665"><ele>182.0</ele><time>2026-05-02T13:31:19.963Z</time></trkpt><trkpt lat="43.5691307" lon="11.2161927"><ele>182.16666666666666</ele><time>2026-05-02T13:31:20.963Z</time></trkpt><trkpt lat="43.5690381" lon="11.2162167"><ele>182.33333333333331</ele><time>2026-05-02T13:31:21.963Z</time></trkpt><trkpt lat="43.5689498" lon="11.2162498"><ele>182.5</ele><time>2026-05-02T13:31:22.964Z</time></trkpt><trkpt lat="43.5688657" lon="11.2162841"><ele>182.66666666666666</ele><time>2026-05-02T13:31:23.963Z</time></trkpt><trkpt lat="43.5687874" lon="11.2163073"><ele>182.83333333333334</ele><time>2026-05-02T13:31:24.964Z</time></trkpt><trkpt lat="43.5687136" lon="11.2163249"><ele>183.0</ele><time>2026-05-02T13:31:25.963Z</time></trkpt><trkpt lat="43.5686475" lon="11.2163428"><ele>184.2</ele><time>2026-05-02T13:31:26.963Z</time></trkpt><trkpt lat="43.5685338" lon="11.2163779"><ele>185.4</ele><time>2026-05-02T13:31:28.963Z</time></trkpt><trkpt lat="43.5684061" lon="11.2164048"><ele>186.6</ele><time>2026-05-02T13:31:30.963Z</time></trkpt><trkpt lat="43.5683337" lon="11.2164268"><ele>187.79999999999998</ele><time>2026-05-02T13:31:31.963Z</time></trkpt><trkpt lat="43.568264" lon="11.2164477"><ele>189.0</ele><time>2026-05-02T13:31:32.963Z</time></trkpt><trkpt lat="43.5681901" lon="11.2164695"><ele>188.57142857142858</ele><time>2026-05-02T13:31:33.963Z</time></trkpt><trkpt lat="43.5681093" lon="11.2164915"><ele>188.14285714285714</ele><time>2026-05-02T13:31:34.963Z</time></trkpt><trkpt lat="43.5680287" lon="11.2165223"><ele>187.71428571428572</ele><time>2026-05-02T13:31:35.964Z</time></trkpt><trkpt lat="43.5679589" lon="11.2165524"><ele>187.28571428571428</ele><time>2026-05-02T13:31:36.963Z</time></trkpt><trkpt lat="43.5678992" lon="11.2165877"><ele>186.85714285714286</ele><time>2026-05-02T13:31:37.963Z</time></trkpt><trkpt lat="43.567842" lon="11.2166275"><ele>186.42857142857144</ele><time>2026-05-02T13:31:38.963Z</time></trkpt><trkpt lat="43.5677839" lon="11.2166736"><ele>186.0</ele><time>2026-05-02T13:31:39.964Z</time></trkpt><trkpt lat="43.5677254" lon="11.2167171"><ele>186.0</ele><time>2026-05-02T13:31:40.963Z</time></trkpt><trkpt lat="43.5676723" lon="11.2167663"><ele>186.0</ele><time>2026-05-02T13:31:41.963Z</time></trkpt><trkpt lat="43.5676163" lon="11.2168085"><ele>186.0</ele><time>2026-05-02T13:31:42.963Z</time></trkpt><trkpt lat="43.567529" lon="11.2168963"><ele>186.0</ele><time>2026-05-02T13:31:44.963Z</time></trkpt><trkpt lat="43.5674498" lon="11.2169714"><ele>186.0</ele><time>2026-05-02T13:31:46.963Z</time></trkpt><trkpt lat="43.5673703" lon="11.2170605"><ele>186.0</ele><time>2026-05-02T13:31:48.964Z</time></trkpt><trkpt lat="43.567298" lon="11.2171905"><ele>185.4</ele><time>2026-05-02T13:31:50.963Z</time></trkpt><trkpt lat="43.5672486" lon="11.2173289"><ele>184.8</ele><time>2026-05-02T13:31:52.963Z</time></trkpt><trkpt lat="43.5672606" lon="11.2174572"><ele>184.20000000000002</ele><time>2026-05-02T13:31:54.963Z</time></trkpt><trkpt lat="43.5673442" lon="11.2175914"><ele>183.60000000000002</ele><time>2026-05-02T13:31:56.963Z</time></trkpt><trkpt lat="43.5673914" lon="11.2176677"><ele>183.0</ele><time>2026-05-02T13:31:57.963Z</time></trkpt><trkpt lat="43.5674364" lon="11.2177376"><ele>183.0</ele><time>2026-05-02T13:31:58.963Z</time></trkpt><trkpt lat="43.5674771" lon="11.2178044"><ele>183.0</ele><time>2026-05-02T13:31:59.963Z</time></trkpt><trkpt lat="43.5675592" lon="11.2179292"><ele>183.0</ele><time>2026-05-02T13:32:01.963Z</time></trkpt><trkpt lat="43.5676511" lon="11.2180442"><ele>183.0</ele><time>2026-05-02T13:32:03.964Z</time></trkpt><trkpt lat="43.5677332" lon="11.2181217"><ele>183.0</ele><time>2026-05-02T13:32:05.963Z</time></trkpt><trkpt lat="43.5677528" lon="11.2182318"><ele>183.2</ele><time>2026-05-02T13:32:07.963Z</time></trkpt><trkpt lat="43.5676894" lon="11.218369"><ele>183.4</ele><time>2026-05-02T13:32:09.963Z</time></trkpt><trkpt lat="43.5676484" lon="11.2184566"><ele>183.6</ele><time>2026-05-02T13:32:10.963Z</time></trkpt><trkpt lat="43.5675931" lon="11.2185721"><ele>183.79999999999998</ele><time>2026-05-02T13:32:11.963Z</time></trkpt><trkpt lat="43.5675027" lon="11.2187188"><ele>184.0</ele><time>2026-05-02T13:32:12.963Z</time></trkpt><trkpt lat="43.5674093" lon="11.2188759"><ele>186.0</ele><time>2026-05-02T13:32:13.963Z</time></trkpt><trkpt lat="43.5673048" lon="11.2190238"><ele>188.0</ele><time>2026-05-02T13:32:14.963Z</time></trkpt><trkpt lat="43.5671931" lon="11.2191517"><ele>190.0</ele><time>2026-05-02T13:32:15.963Z</time></trkpt><trkpt lat="43.567052" lon="11.21926"><ele>188.0</ele><time>2026-05-02T13:32:16.963Z</time></trkpt><trkpt lat="43.5669073" lon="11.2193605"><ele>186.0</ele><time>2026-05-02T13:32:17.963Z</time></trkpt><trkpt lat="43.5667686" lon="11.2194506"><ele>184.0</ele><time>2026-05-02T13:32:18.964Z</time></trkpt><trkpt lat="43.5666401" lon="11.2195435"><ele>184.0</ele><time>2026-05-02T13:32:19.963Z</time></trkpt><trkpt lat="43.5665262" lon="11.2196367"><ele>184.0</ele><time>2026-05-02T13:32:20.963Z</time></trkpt><trkpt lat="43.5664159" lon="11.2197308"><ele>184.0</ele><time>2026-05-02T13:32:21.963Z</time></trkpt><trkpt lat="43.5663071" lon="11.2198327"><ele>184.0</ele><time>2026-05-02T13:32:22.963Z</time></trkpt><trkpt lat="43.5661977" lon="11.2199372"><ele>184.0</ele><time>2026-05-02T13:32:23.963Z</time></trkpt><trkpt lat="43.5660826" lon="11.2200459"><ele>184.0</ele><time>2026-05-02T13:32:24.963Z</time></trkpt><trkpt lat="43.5659642" lon="11.2201583"><ele>184.0</ele><time>2026-05-02T13:32:25.963Z</time></trkpt><trkpt lat="43.5658464" lon="11.2202717"><ele>184.0</ele><time>2026-05-02T13:32:26.964Z</time></trkpt><trkpt lat="43.5657233" lon="11.2203815"><ele>184.0</ele><time>2026-05-02T13:32:27.963Z</time></trkpt><trkpt lat="43.565596" lon="11.2204904"><ele>184.0</ele><time>2026-05-02T13:32:28.963Z</time></trkpt><trkpt lat="43.5654694" lon="11.2206044"><ele>184.0</ele><time>2026-05-02T13:32:29.963Z</time></trkpt><trkpt lat="43.5653495" lon="11.2207337"><ele>185.66666666666669</ele><time>2026-05-02T13:32:30.963Z</time></trkpt><trkpt lat="43.565232" lon="11.2208821"><ele>187.33333333333334</ele><time>2026-05-02T13:32:31.963Z</time></trkpt><trkpt lat="43.565123" lon="11.2210458"><ele>189.0</ele><time>2026-05-02T13:32:32.963Z</time></trkpt><trkpt lat="43.5650297" lon="11.2212001"><ele>189.0</ele><time>2026-05-02T13:32:33.963Z</time></trkpt><trkpt lat="43.5649418" lon="11.221339"><ele>189.0</ele><time>2026-05-02T13:32:34.964Z</time></trkpt><trkpt lat="43.56486" lon="11.2214718"><ele>189.0</ele><time>2026-05-02T13:32:35.963Z</time></trkpt><trkpt lat="43.5647958" lon="11.2216014"><ele>189.0</ele><time>2026-05-02T13:32:36.963Z</time></trkpt><trkpt lat="43.5647412" lon="11.2217369"><ele>188.25</ele><time>2026-05-02T13:32:37.963Z</time></trkpt><trkpt lat="43.5647104" lon="11.221892"><ele>187.5</ele><time>2026-05-02T13:32:38.963Z</time></trkpt><trkpt lat="43.5647126" lon="11.2220692"><ele>186.75</ele><time>2026-05-02T13:32:39.963Z</time></trkpt><trkpt lat="43.5647231" lon="11.2222708"><ele>186.0</ele><time>2026-05-02T13:32:40.963Z</time></trkpt><trkpt lat="43.5647369" lon="11.2224857"><ele>186.0</ele><time>2026-05-02T13:32:41.963Z</time></trkpt><trkpt lat="43.5647445" lon="11.2226996"><ele>186.0</ele><time>2026-05-02T13:32:42.963Z</time></trkpt><trkpt lat="43.564751" lon="11.22291"><ele>186.0</ele><time>2026-05-02T13:32:43.963Z</time></trkpt><trkpt lat="43.5647534" lon="11.2231176"><ele>185.5</ele><time>2026-05-02T13:32:44.963Z</time></trkpt><trkpt lat="43.5647536" lon="11.2233165"><ele>185.0</ele><time>2026-05-02T13:32:45.964Z</time></trkpt><trkpt lat="43.5647583" lon="11.2235051"><ele>184.5</ele><time>2026-05-02T13:32:46.963Z</time></trkpt><trkpt lat="43.5647658" lon="11.223691"><ele>184.0</ele><time>2026-05-02T13:32:47.963Z</time></trkpt><trkpt lat="43.5647701" lon="11.2238682"><ele>185.0</ele><time>2026-05-02T13:32:48.963Z</time></trkpt><trkpt lat="43.5647714" lon="11.2240389"><ele>186.0</ele><time>2026-05-02T13:32:49.963Z</time></trkpt><trkpt lat="43.5647734" lon="11.2242028"><ele>187.0</ele><time>2026-05-02T13:32:50.963Z</time></trkpt><trkpt lat="43.5647694" lon="11.224365"><ele>188.0</ele><time>2026-05-02T13:32:51.963Z</time></trkpt><trkpt lat="43.5647572" lon="11.2245169"><ele>188.0</ele><time>2026-05-02T13:32:52.963Z</time></trkpt><trkpt lat="43.5647479" lon="11.2246716"><ele>188.0</ele><time>2026-05-02T13:32:53.963Z</time></trkpt><trkpt lat="43.5647357" lon="11.2248172"><ele>188.0</ele><time>2026-05-02T13:32:54.963Z</time></trkpt><trkpt lat="43.5647292" lon="11.2249584"><ele>188.0</ele><time>2026-05-02T13:32:55.963Z</time></trkpt><trkpt lat="43.5647228" lon="11.2250956"><ele>188.0</ele><time>2026-05-02T13:32:56.964Z</time></trkpt><trkpt lat="43.5647176" lon="11.2252292"><ele>189.0</ele><time>2026-05-02T13:32:57.963Z</time></trkpt><trkpt lat="43.5647122" lon="11.2253622"><ele>190.0</ele><time>2026-05-02T13:32:58.963Z</time></trkpt><trkpt lat="43.5647033" lon="11.225496"><ele>191.0</ele><time>2026-05-02T13:32:59.963Z</time></trkpt><trkpt lat="43.5646926" lon="11.2256265"><ele>192.0</ele><time>2026-05-02T13:33:00.963Z</time></trkpt><trkpt lat="43.5646749" lon="11.2257536"><ele>193.0</ele><time>2026-05-02T13:33:01.963Z</time></trkpt><trkpt lat="43.5646451" lon="11.225881"><ele>193.0</ele><time>2026-05-02T13:33:02.963Z</time></trkpt><trkpt lat="43.5646079" lon="11.2260112"><ele>193.0</ele><time>2026-05-02T13:33:03.963Z</time></trkpt><trkpt lat="43.5645762" lon="11.2261408"><ele>193.0</ele><time>2026-05-02T13:33:04.963Z</time></trkpt><trkpt lat="43.5645513" lon="11.226266"><ele>193.0</ele><time>2026-05-02T13:33:05.963Z</time></trkpt><trkpt lat="43.564523" lon="11.2263795"><ele>193.0</ele><time>2026-05-02T13:33:06.963Z</time></trkpt><trkpt lat="43.5644821" lon="11.2264881"><ele>193.0</ele><time>2026-05-02T13:33:07.963Z</time></trkpt><trkpt lat="43.5644212" lon="11.2265873"><ele>193.0</ele><time>2026-05-02T13:33:08.964Z</time></trkpt><trkpt lat="43.5643549" lon="11.2266927"><ele>193.0</ele><time>2026-05-02T13:33:09.963Z</time></trkpt><trkpt lat="43.5642872" lon="11.226805"><ele>193.0</ele><time>2026-05-02T13:33:10.963Z</time></trkpt><trkpt lat="43.5642271" lon="11.2269185"><ele>193.0</ele><time>2026-05-02T13:33:11.963Z</time></trkpt><trkpt lat="43.5641734" lon="11.2270249"><ele>193.0</ele><time>2026-05-02T13:33:12.964Z</time></trkpt><trkpt lat="43.5641225" lon="11.2271187"><ele>193.0</ele><time>2026-05-02T13:33:13.963Z</time></trkpt><trkpt lat="43.5640491" lon="11.227205"><ele>193.0</ele><time>2026-05-02T13:33:14.963Z</time></trkpt><trkpt lat="43.5639678" lon="11.2272751"><ele>193.0</ele><time>2026-05-02T13:33:15.963Z</time></trkpt><trkpt lat="43.5638805" lon="11.2273331"><ele>193.0</ele><time>2026-05-02T13:33:16.963Z</time></trkpt><trkpt lat="43.5637867" lon="11.2273861"><ele>193.4</ele><time>2026-05-02T13:33:17.963Z</time></trkpt><trkpt lat="43.5636921" lon="11.2274403"><ele>193.8</ele><time>2026-05-02T13:33:18.964Z</time></trkpt><trkpt lat="43.5635953" lon="11.2274962"><ele>194.2</ele><time>2026-05-02T13:33:19.963Z</time></trkpt><trkpt lat="43.5635017" lon="11.2275568"><ele>194.6</ele><time>2026-05-02T13:33:20.963Z</time></trkpt><trkpt lat="43.5634116" lon="11.2276134"><ele>195.0</ele><time>2026-05-02T13:33:21.963Z</time></trkpt><trkpt lat="43.5633292" lon="11.2276718"><ele>195.0</ele><time>2026-05-02T13:33:22.964Z</time></trkpt><trkpt lat="43.5632482" lon="11.2277275"><ele>195.0</ele><time>2026-05-02T13:33:23.964Z</time></trkpt><trkpt lat="43.5631654" lon="11.2277885"><ele>195.0</ele><time>2026-05-02T13:33:24.963Z</time></trkpt><trkpt lat="43.5630769" lon="11.2278526"><ele>195.0</ele><time>2026-05-02T13:33:25.963Z</time></trkpt><trkpt lat="43.5629858" lon="11.2279208"><ele>195.0</ele><time>2026-05-02T13:33:26.963Z</time></trkpt><trkpt lat="43.5628937" lon="11.227978"><ele>194.4</ele><time>2026-05-02T13:33:27.963Z</time></trkpt><trkpt lat="43.5628015" lon="11.2280222"><ele>193.8</ele><time>2026-05-02T13:33:28.963Z</time></trkpt><trkpt lat="43.562708" lon="11.2280531"><ele>193.2</ele><time>2026-05-02T13:33:29.963Z</time></trkpt><trkpt lat="43.5626083" lon="11.228063"><ele>192.6</ele><time>2026-05-02T13:33:30.963Z</time></trkpt><trkpt lat="43.5625062" lon="11.2280746"><ele>192.0</ele><time>2026-05-02T13:33:31.963Z</time></trkpt><trkpt lat="43.5624042" lon="11.2280925"><ele>192.0</ele><time>2026-05-02T13:33:32.964Z</time></trkpt><trkpt lat="43.5623034" lon="11.22812"><ele>192.0</ele><time>2026-05-02T13:33:33.963Z</time></trkpt><trkpt lat="43.562206" lon="11.2281571"><ele>192.0</ele><time>2026-05-02T13:33:34.963Z</time></trkpt><trkpt lat="43.5621079" lon="11.2282023"><ele>192.0</ele><time>2026-05-02T13:33:35.963Z</time></trkpt><trkpt lat="43.5620232" lon="11.2282635"><ele>192.0</ele><time>2026-05-02T13:33:36.963Z</time></trkpt><trkpt lat="43.56194" lon="11.2283388"><ele>193.0</ele><time>2026-05-02T13:33:37.963Z</time></trkpt><trkpt lat="43.5618509" lon="11.2284385"><ele>194.0</ele><time>2026-05-02T13:33:38.963Z</time></trkpt><trkpt lat="43.561754" lon="11.2285503"><ele>195.0</ele><time>2026-05-02T13:33:39.963Z</time></trkpt><trkpt lat="43.5616562" lon="11.2286584"><ele>196.0</ele><time>2026-05-02T13:33:40.964Z</time></trkpt><trkpt lat="43.5615632" lon="11.2287673"><ele>196.0</ele><time>2026-05-02T13:33:41.963Z</time></trkpt><trkpt lat="43.561483" lon="11.2288674"><ele>196.0</ele><time>2026-05-02T13:33:42.963Z</time></trkpt><trkpt lat="43.561409" lon="11.2289521"><ele>196.0</ele><time>2026-05-02T13:33:43.964Z</time></trkpt><trkpt lat="43.5613359" lon="11.2290326"><ele>196.0</ele><time>2026-05-02T13:33:44.963Z</time></trkpt><trkpt lat="43.5612611" lon="11.2291157"><ele>196.0</ele><time>2026-05-02T13:33:45.963Z</time></trkpt><trkpt lat="43.5611871" lon="11.2292022"><ele>196.60000000000002</ele><time>2026-05-02T13:33:46.963Z</time></trkpt><trkpt lat="43.5611097" lon="11.2292857"><ele>197.2</ele><time>2026-05-02T13:33:47.963Z</time></trkpt><trkpt lat="43.5610343" lon="11.2293723"><ele>197.8</ele><time>2026-05-02T13:33:48.963Z</time></trkpt><trkpt lat="43.5609538" lon="11.2294542"><ele>198.39999999999998</ele><time>2026-05-02T13:33:49.963Z</time></trkpt><trkpt lat="43.5608766" lon="11.2295313"><ele>199.0</ele><time>2026-05-02T13:33:50.963Z</time></trkpt><trkpt lat="43.5607918" lon="11.2295943"><ele>198.99999999999997</ele><time>2026-05-02T13:33:51.963Z</time></trkpt><trkpt lat="43.5607089" lon="11.2296457"><ele>199.0</ele><time>2026-05-02T13:33:52.963Z</time></trkpt><trkpt lat="43.5606319" lon="11.2296859"><ele>199.0</ele><time>2026-05-02T13:33:53.963Z</time></trkpt><trkpt lat="43.5605567" lon="11.2297306"><ele>199.0</ele><time>2026-05-02T13:33:54.963Z</time></trkpt><trkpt lat="43.5604888" lon="11.2297767"><ele>198.99999999999997</ele><time>2026-05-02T13:33:55.963Z</time></trkpt><trkpt lat="43.5604293" lon="11.229829"><ele>199.0</ele><time>2026-05-02T13:33:56.963Z</time></trkpt><trkpt lat="43.5603707" lon="11.2298953"><ele>199.66666666666666</ele><time>2026-05-02T13:33:57.963Z</time></trkpt><trkpt lat="43.5603093" lon="11.2299593"><ele>200.33333333333331</ele><time>2026-05-02T13:33:58.963Z</time></trkpt><trkpt lat="43.5602424" lon="11.2300219"><ele>201.0</ele><time>2026-05-02T13:33:59.963Z</time></trkpt><trkpt lat="43.5601692" lon="11.2300828"><ele>201.66666666666669</ele><time>2026-05-02T13:34:00.963Z</time></trkpt><trkpt lat="43.5600874" lon="11.2301077"><ele>202.33333333333334</ele><time>2026-05-02T13:34:01.963Z</time></trkpt><trkpt lat="43.560004" lon="11.2300979"><ele>203.0</ele><time>2026-05-02T13:34:02.964Z</time></trkpt><trkpt lat="43.5599146" lon="11.2300617"><ele>203.00000000000003</ele><time>2026-05-02T13:34:03.963Z</time></trkpt><trkpt lat="43.5598264" lon="11.2300077"><ele>203.0</ele><time>2026-05-02T13:34:04.963Z</time></trkpt><trkpt lat="43.5597375" lon="11.2299542"><ele>203.0</ele><time>2026-05-02T13:34:05.963Z</time></trkpt><trkpt lat="43.5596651" lon="11.2299212"><ele>203.0</ele><time>2026-05-02T13:34:06.963Z</time></trkpt><trkpt lat="43.559591" lon="11.229906"><ele>203.00000000000003</ele><time>2026-05-02T13:34:07.963Z</time></trkpt><trkpt lat="43.5595211" lon="11.2299167"><ele>203.0</ele><time>2026-05-02T13:34:08.963Z</time></trkpt><trkpt lat="43.5594068" lon="11.2299995"><ele>201.83333333333334</ele><time>2026-05-02T13:34:10.963Z</time></trkpt><trkpt lat="43.5593551" lon="11.2300745"><ele>200.66666666666669</ele><time>2026-05-02T13:34:11.964Z</time></trkpt><trkpt lat="43.5593138" lon="11.2301726"><ele>199.5</ele><time>2026-05-02T13:34:12.963Z</time></trkpt><trkpt lat="43.559273" lon="11.2302919"><ele>198.33333333333331</ele><time>2026-05-02T13:34:13.963Z</time></trkpt><trkpt lat="43.55924" lon="11.230405"><ele>197.16666666666666</ele><time>2026-05-02T13:34:14.963Z</time></trkpt><trkpt lat="43.5592026" lon="11.2305112"><ele>196.0</ele><time>2026-05-02T13:34:15.963Z</time></trkpt><trkpt lat="43.5591504" lon="11.2305923"><ele>199.0</ele><time>2026-05-02T13:34:16.963Z</time></trkpt><trkpt lat="43.5590854" lon="11.2306595"><ele>202.0</ele><time>2026-05-02T13:34:17.963Z</time></trkpt><trkpt lat="43.5590107" lon="11.230713"><ele>205.0</ele><time>2026-05-02T13:34:18.964Z</time></trkpt><trkpt lat="43.5589283" lon="11.2307571"><ele>208.0</ele><time>2026-05-02T13:34:19.963Z</time></trkpt><trkpt lat="43.5588333" lon="11.2307836"><ele>211.0</ele><time>2026-05-02T13:34:20.964Z</time></trkpt><trkpt lat="43.5587344" lon="11.23081"><ele>209.16666666666666</ele><time>2026-05-02T13:34:21.964Z</time></trkpt><trkpt lat="43.5586401" lon="11.2308313"><ele>207.33333333333331</ele><time>2026-05-02T13:34:22.963Z</time></trkpt><trkpt lat="43.5585634" lon="11.2308619"><ele>205.5</ele><time>2026-05-02T13:34:23.963Z</time></trkpt><trkpt lat="43.5584959" lon="11.230902"><ele>203.66666666666669</ele><time>2026-05-02T13:34:24.964Z</time></trkpt><trkpt lat="43.5584493" lon="11.230965"><ele>201.83333333333334</ele><time>2026-05-02T13:34:25.963Z</time></trkpt><trkpt lat="43.5584008" lon="11.2310602"><ele>200.0</ele><time>2026-05-02T13:34:26.963Z</time></trkpt><trkpt lat="43.5583659" lon="11.2311608"><ele>200.00000000000003</ele><time>2026-05-02T13:34:27.963Z</time></trkpt><trkpt lat="43.5583313" lon="11.2312698"><ele>200.0</ele><time>2026-05-02T13:34:28.963Z</time></trkpt><trkpt lat="43.5582921" lon="11.2313865"><ele>200.0</ele><time>2026-05-02T13:34:29.963Z</time></trkpt><trkpt lat="43.5582487" lon="11.2314985"><ele>200.0</ele><time>2026-05-02T13:34:30.963Z</time></trkpt><trkpt lat="43.5582065" lon="11.23161"><ele>200.00000000000003</ele><time>2026-05-02T13:34:31.963Z</time></trkpt><trkpt lat="43.5581707" lon="11.2317136"><ele>200.0</ele><time>2026-05-02T13:34:32.964Z</time></trkpt><trkpt lat="43.5581507" lon="11.2318177"><ele>201.83333333333334</ele><time>2026-05-02T13:34:33.963Z</time></trkpt><trkpt lat="43.5581329" lon="11.2319176"><ele>203.66666666666669</ele><time>2026-05-02T13:34:34.963Z</time></trkpt><trkpt lat="43.5581197" lon="11.2320369"><ele>205.5</ele><time>2026-05-02T13:34:35.964Z</time></trkpt><trkpt lat="43.5581047" lon="11.2321617"><ele>207.33333333333331</ele><time>2026-05-02T13:34:36.963Z</time></trkpt><trkpt lat="43.5580819" lon="11.2322683"><ele>209.16666666666666</ele><time>2026-05-02T13:34:37.963Z</time></trkpt><trkpt lat="43.5580625" lon="11.23236"><ele>211.0</ele><time>2026-05-02T13:34:38.963Z</time></trkpt><trkpt lat="43.5580342" lon="11.2325121"><ele>212.20000000000002</ele><time>2026-05-02T13:34:40.963Z</time></trkpt><trkpt lat="43.5580187" lon="11.2326667"><ele>213.4</ele><time>2026-05-02T13:34:42.964Z</time></trkpt><trkpt lat="43.558012" lon="11.2328209"><ele>214.6</ele><time>2026-05-02T13:34:44.964Z</time></trkpt><trkpt lat="43.5580086" lon="11.2329146"><ele>215.8</ele><time>2026-05-02T13:34:45.963Z</time></trkpt><trkpt lat="43.5580037" lon="11.2330353"><ele>217.0</ele><time>2026-05-02T13:34:46.964Z</time></trkpt><trkpt lat="43.5579987" lon="11.2331621"><ele>216.99999999999997</ele><time>2026-05-02T13:34:47.963Z</time></trkpt><trkpt lat="43.5579938" lon="11.2332882"><ele>217.0</ele><time>2026-05-02T13:34:48.963Z</time></trkpt><trkpt lat="43.5579831" lon="11.2334089"><ele>217.0</ele><time>2026-05-02T13:34:49.964Z</time></trkpt><trkpt lat="43.5579724" lon="11.2335239"><ele>217.0</ele><time>2026-05-02T13:34:50.963Z</time></trkpt><trkpt lat="43.5579579" lon="11.2336363"><ele>216.99999999999997</ele><time>2026-05-02T13:34:51.964Z</time></trkpt><trkpt lat="43.5579449" lon="11.2337504"><ele>217.0</ele><time>2026-05-02T13:34:52.963Z</time></trkpt><trkpt lat="43.5579348" lon="11.2338507"><ele>216.99999999999997</ele><time>2026-05-02T13:34:53.963Z</time></trkpt><trkpt lat="43.5579374" lon="11.233947"><ele>217.0</ele><time>2026-05-02T13:34:54.963Z</time></trkpt><trkpt lat="43.5579585" lon="11.234098"><ele>217.0</ele><time>2026-05-02T13:34:56.963Z</time></trkpt><trkpt lat="43.5579932" lon="11.2341971"><ele>217.0</ele><time>2026-05-02T13:34:58.963Z</time></trkpt><trkpt lat="43.5580085" lon="11.2342821"><ele>216.99999999999997</ele><time>2026-05-02T13:35:00.963Z</time></trkpt><trkpt lat="43.5579924" lon="11.2343722"><ele>217.0</ele><time>2026-05-02T13:35:05.963Z</time></trkpt><trkpt lat="43.5579957" lon="11.2345387"><ele>217.33333333333331</ele><time>2026-05-02T13:35:08.963Z</time></trkpt><trkpt lat="43.5579959" lon="11.2346309"><ele>217.66666666666666</ele><time>2026-05-02T13:35:09.963Z</time></trkpt><trkpt lat="43.5579917" lon="11.2347516"><ele>218.0</ele><time>2026-05-02T13:35:10.963Z</time></trkpt><trkpt lat="43.5579883" lon="11.2348775"><ele>218.33333333333331</ele><time>2026-05-02T13:35:11.963Z</time></trkpt><trkpt lat="43.5579873" lon="11.2350026"><ele>218.66666666666666</ele><time>2026-05-02T13:35:12.964Z</time></trkpt><trkpt lat="43.5579887" lon="11.2351172"><ele>219.0</ele><time>2026-05-02T13:35:13.963Z</time></trkpt><trkpt lat="43.5579907" lon="11.2352117"><ele>219.39999999999998</ele><time>2026-05-02T13:35:14.964Z</time></trkpt><trkpt lat="43.557994" lon="11.235301"><ele>219.79999999999998</ele><time>2026-05-02T13:35:15.963Z</time></trkpt><trkpt lat="43.5580116" lon="11.2354582"><ele>220.20000000000002</ele><time>2026-05-02T13:35:17.963Z</time></trkpt><trkpt lat="43.5580317" lon="11.2356053"><ele>220.60000000000002</ele><time>2026-05-02T13:35:19.963Z</time></trkpt><trkpt lat="43.5580537" lon="11.2357371"><ele>221.0</ele><time>2026-05-02T13:35:21.963Z</time></trkpt><trkpt lat="43.5580265" lon="11.2358808"><ele>221.00000000000003</ele><time>2026-05-02T13:35:23.964Z</time></trkpt><trkpt lat="43.5580038" lon="11.2359767"><ele>221.0</ele><time>2026-05-02T13:35:24.963Z</time></trkpt><trkpt lat="43.55798" lon="11.2360882"><ele>221.0</ele><time>2026-05-02T13:35:25.963Z</time></trkpt><trkpt lat="43.5579604" lon="11.2362122"><ele>221.0</ele><time>2026-05-02T13:35:26.963Z</time></trkpt><trkpt lat="43.5579462" lon="11.2363432"><ele>221.00000000000003</ele><time>2026-05-02T13:35:27.963Z</time></trkpt><trkpt lat="43.5579421" lon="11.2364798"><ele>221.0</ele><time>2026-05-02T13:35:28.964Z</time></trkpt><trkpt lat="43.5579364" lon="11.236622"><ele>220.8</ele><time>2026-05-02T13:35:29.964Z</time></trkpt><trkpt lat="43.5579201" lon="11.2367699"><ele>220.60000000000002</ele><time>2026-05-02T13:35:30.963Z</time></trkpt><trkpt lat="43.557902" lon="11.2368967"><ele>220.4</ele><time>2026-05-02T13:35:31.963Z</time></trkpt><trkpt lat="43.5578781" lon="11.2370213"><ele>220.2</ele><time>2026-05-02T13:35:32.963Z</time></trkpt><trkpt lat="43.557859" lon="11.2371477"><ele>220.0</ele><time>2026-05-02T13:35:33.963Z</time></trkpt><trkpt lat="43.5578469" lon="11.2372743"><ele>216.99999999999997</ele><time>2026-05-02T13:35:34.963Z</time></trkpt><trkpt lat="43.5578352" lon="11.2373934"><ele>214.0</ele><time>2026-05-02T13:35:35.963Z</time></trkpt><trkpt lat="43.5578276" lon="11.237513"><ele>211.0</ele><time>2026-05-02T13:35:36.964Z</time></trkpt><trkpt lat="43.5578215" lon="11.2376409"><ele>208.0</ele><time>2026-05-02T13:35:37.962Z</time></trkpt><trkpt lat="43.557817" lon="11.2377572"><ele>204.99999999999997</ele><time>2026-05-02T13:35:38.962Z</time></trkpt><trkpt lat="43.5578143" lon="11.2378697"><ele>202.0</ele><time>2026-05-02T13:35:39.962Z</time></trkpt><trkpt lat="43.5578001" lon="11.2379702"><ele>201.99999999999997</ele><time>2026-05-02T13:35:40.962Z</time></trkpt><trkpt lat="43.5577822" lon="11.2380657"><ele>202.0</ele><time>2026-05-02T13:35:41.962Z</time></trkpt><trkpt lat="43.5577546" lon="11.2381694"><ele>202.0</ele><time>2026-05-02T13:35:42.962Z</time></trkpt><trkpt lat="43.5577281" lon="11.2382734"><ele>202.0</ele><time>2026-05-02T13:35:43.962Z</time></trkpt><trkpt lat="43.5576908" lon="11.238386"><ele>201.99999999999997</ele><time>2026-05-02T13:35:44.962Z</time></trkpt><trkpt lat="43.5576401" lon="11.238508"><ele>202.0</ele><time>2026-05-02T13:35:45.963Z</time></trkpt><trkpt lat="43.557576" lon="11.2386265"><ele>202.39999999999998</ele><time>2026-05-02T13:35:46.962Z</time></trkpt><trkpt lat="43.5574981" lon="11.2387434"><ele>202.79999999999998</ele><time>2026-05-02T13:35:47.963Z</time></trkpt><trkpt lat="43.5574234" lon="11.2388595"><ele>203.2</ele><time>2026-05-02T13:35:48.962Z</time></trkpt><trkpt lat="43.5573547" lon="11.2389687"><ele>203.6</ele><time>2026-05-02T13:35:49.962Z</time></trkpt><trkpt lat="43.5572864" lon="11.2390776"><ele>204.0</ele><time>2026-05-02T13:35:50.962Z</time></trkpt><trkpt lat="43.5572181" lon="11.2391917"><ele>204.0</ele><time>2026-05-02T13:35:51.962Z</time></trkpt><trkpt lat="43.5571524" lon="11.2393058"><ele>204.0</ele><time>2026-05-02T13:35:52.963Z</time></trkpt><trkpt lat="43.5570884" lon="11.239423"><ele>204.0</ele><time>2026-05-02T13:35:53.962Z</time></trkpt><trkpt lat="43.5570389" lon="11.2395362"><ele>204.0</ele><time>2026-05-02T13:35:54.962Z</time></trkpt><trkpt lat="43.5569987" lon="11.239648"><ele>204.0</ele><time>2026-05-02T13:35:55.962Z</time></trkpt><trkpt lat="43.5569652" lon="11.239761"><ele>204.16666666666666</ele><time>2026-05-02T13:35:56.962Z</time></trkpt><trkpt lat="43.5569418" lon="11.2398764"><ele>204.33333333333331</ele><time>2026-05-02T13:35:57.962Z</time></trkpt><trkpt lat="43.55693" lon="11.239993"><ele>204.5</ele><time>2026-05-02T13:35:58.962Z</time></trkpt><trkpt lat="43.5569323" lon="11.2401146"><ele>204.66666666666666</ele><time>2026-05-02T13:35:59.962Z</time></trkpt><trkpt lat="43.556946" lon="11.2402316"><ele>204.83333333333331</ele><time>2026-05-02T13:36:00.962Z</time></trkpt><trkpt lat="43.5569677" lon="11.240345"><ele>205.0</ele><time>2026-05-02T13:36:01.962Z</time></trkpt><trkpt lat="43.5569911" lon="11.240458"><ele>205.0</ele><time>2026-05-02T13:36:02.963Z</time></trkpt><trkpt lat="43.557018" lon="11.2405663"><ele>205.0</ele><time>2026-05-02T13:36:03.962Z</time></trkpt><trkpt lat="43.5570406" lon="11.2406613"><ele>205.0</ele><time>2026-05-02T13:36:04.963Z</time></trkpt><trkpt lat="43.5570666" lon="11.2407634"><ele>205.0</ele><time>2026-05-02T13:36:05.962Z</time></trkpt><trkpt lat="43.5570976" lon="11.2408569"><ele>205.0</ele><time>2026-05-02T13:36:06.962Z</time></trkpt><trkpt lat="43.5571285" lon="11.2409486"><ele>205.0</ele><time>2026-05-02T13:36:07.962Z</time></trkpt><trkpt lat="43.5571557" lon="11.2410284"><ele>205.0</ele><time>2026-05-02T13:36:08.962Z</time></trkpt><trkpt lat="43.5572129" lon="11.2411758"><ele>207.0</ele><time>2026-05-02T13:36:10.962Z</time></trkpt><trkpt lat="43.5572701" lon="11.2413096"><ele>209.0</ele><time>2026-05-02T13:36:12.962Z</time></trkpt><trkpt lat="43.5573007" lon="11.2413882"><ele>211.0</ele><time>2026-05-02T13:36:13.962Z</time></trkpt><trkpt lat="43.557332" lon="11.2414746"><ele>213.0</ele><time>2026-05-02T13:36:14.963Z</time></trkpt><trkpt lat="43.5573587" lon="11.241557"><ele>215.0</ele><time>2026-05-02T13:36:15.962Z</time></trkpt><trkpt lat="43.5573829" lon="11.2416378"><ele>217.0</ele><time>2026-05-02T13:36:16.962Z</time></trkpt><trkpt lat="43.5574073" lon="11.2417306"><ele>219.0</ele><time>2026-05-02T13:36:17.962Z</time></trkpt><trkpt lat="43.5574308" lon="11.2418183"><ele>219.0</ele><time>2026-05-02T13:36:18.963Z</time></trkpt><trkpt lat="43.5574623" lon="11.2418946"><ele>219.0</ele><time>2026-05-02T13:36:19.962Z</time></trkpt><trkpt lat="43.5574959" lon="11.2419789"><ele>219.0</ele><time>2026-05-02T13:36:20.962Z</time></trkpt><trkpt lat="43.5575225" lon="11.2420768"><ele>219.0</ele><time>2026-05-02T13:36:21.962Z</time></trkpt><trkpt lat="43.5575441" lon="11.2421871"><ele>219.0</ele><time>2026-05-02T13:36:22.962Z</time></trkpt><trkpt lat="43.557559" lon="11.242306"><ele>219.0</ele><time>2026-05-02T13:36:23.962Z</time></trkpt><trkpt lat="43.557566" lon="11.2424216"><ele>219.0</ele><time>2026-05-02T13:36:24.962Z</time></trkpt><trkpt lat="43.5575702" lon="11.2425302"><ele>219.0</ele><time>2026-05-02T13:36:25.962Z</time></trkpt><trkpt lat="43.5575661" lon="11.2426428"><ele>219.0</ele><time>2026-05-02T13:36:26.962Z</time></trkpt><trkpt lat="43.557549" lon="11.242746"><ele>219.0</ele><time>2026-05-02T13:36:27.962Z</time></trkpt><trkpt lat="43.5575218" lon="11.2428498"><ele>219.0</ele><time>2026-05-02T13:36:28.962Z</time></trkpt><trkpt lat="43.5574858" lon="11.2429543"><ele>219.0</ele><time>2026-05-02T13:36:29.962Z</time></trkpt><trkpt lat="43.5574526" lon="11.243076"><ele>220.16666666666666</ele><time>2026-05-02T13:36:30.962Z</time></trkpt><trkpt lat="43.557419" lon="11.2432009"><ele>221.33333333333331</ele><time>2026-05-02T13:36:31.962Z</time></trkpt><trkpt lat="43.5573893" lon="11.2433267"><ele>222.5</ele><time>2026-05-02T13:36:32.962Z</time></trkpt><trkpt lat="43.5573621" lon="11.2434335"><ele>223.66666666666666</ele><time>2026-05-02T13:36:33.962Z</time></trkpt><trkpt lat="43.5573326" lon="11.243526"><ele>224.83333333333331</ele><time>2026-05-02T13:36:34.962Z</time></trkpt><trkpt lat="43.5572964" lon="11.2436112"><ele>226.0</ele><time>2026-05-02T13:36:35.963Z</time></trkpt><trkpt lat="43.5572499" lon="11.2436842"><ele>225.99999999999997</ele><time>2026-05-02T13:36:36.962Z</time></trkpt><trkpt lat="43.5571921" lon="11.2437487"><ele>226.0</ele><time>2026-05-02T13:36:37.962Z</time></trkpt><trkpt lat="43.5571269" lon="11.2438171"><ele>226.0</ele><time>2026-05-02T13:36:38.962Z</time></trkpt><trkpt lat="43.5570489" lon="11.2438882"><ele>226.0</ele><time>2026-05-02T13:36:39.962Z</time></trkpt><trkpt lat="43.5569705" lon="11.2439642"><ele>225.99999999999997</ele><time>2026-05-02T13:36:40.962Z</time></trkpt><trkpt lat="43.5568967" lon="11.2440325"><ele>226.0</ele><time>2026-05-02T13:36:41.962Z</time></trkpt><trkpt lat="43.5568274" lon="11.2440884"><ele>224.99999999999997</ele><time>2026-05-02T13:36:42.962Z</time></trkpt><trkpt lat="43.5567557" lon="11.2441393"><ele>224.0</ele><time>2026-05-02T13:36:43.962Z</time></trkpt><trkpt lat="43.5566805" lon="11.2441878"><ele>223.0</ele><time>2026-05-02T13:36:44.962Z</time></trkpt><trkpt lat="43.5566032" lon="11.2442359"><ele>222.0</ele><time>2026-05-02T13:36:45.962Z</time></trkpt><trkpt lat="43.5565315" lon="11.2442832"><ele>220.99999999999997</ele><time>2026-05-02T13:36:46.962Z</time></trkpt><trkpt lat="43.5564612" lon="11.2443171"><ele>220.0</ele><time>2026-05-02T13:36:47.962Z</time></trkpt><trkpt lat="43.5563861" lon="11.244334"><ele>219.99999999999997</ele><time>2026-05-02T13:36:48.963Z</time></trkpt><trkpt lat="43.5562987" lon="11.2443383"><ele>220.0</ele><time>2026-05-02T13:36:49.963Z</time></trkpt><trkpt lat="43.5562207" lon="11.2443436"><ele>220.0</ele><time>2026-05-02T13:36:50.963Z</time></trkpt><trkpt lat="43.556153" lon="11.244369"><ele>220.0</ele><time>2026-05-02T13:36:51.963Z</time></trkpt><trkpt lat="43.5560927" lon="11.2443961"><ele>219.99999999999997</ele><time>2026-05-02T13:36:52.963Z</time></trkpt><trkpt lat="43.5560323" lon="11.2444315"><ele>220.0</ele><time>2026-05-02T13:36:53.962Z</time></trkpt><trkpt lat="43.5559159" lon="11.2444708"><ele>218.33333333333331</ele><time>2026-05-02T13:36:55.963Z</time></trkpt><trkpt lat="43.5558512" lon="11.2444589"><ele>216.66666666666666</ele><time>2026-05-02T13:36:56.962Z</time></trkpt><trkpt lat="43.5557814" lon="11.2444185"><ele>215.0</ele><time>2026-05-02T13:36:57.962Z</time></trkpt><trkpt lat="43.5557131" lon="11.2443816"><ele>213.33333333333331</ele><time>2026-05-02T13:36:58.962Z</time></trkpt><trkpt lat="43.5556313" lon="11.2443627"><ele>211.66666666666666</ele><time>2026-05-02T13:36:59.963Z</time></trkpt><trkpt lat="43.5555405" lon="11.2443567"><ele>210.0</ele><time>2026-05-02T13:37:00.962Z</time></trkpt><trkpt lat="43.5554486" lon="11.244349"><ele>210.0</ele><time>2026-05-02T13:37:01.962Z</time></trkpt><trkpt lat="43.5553555" lon="11.2443349"><ele>210.0</ele><time>2026-05-02T13:37:02.963Z</time></trkpt><trkpt lat="43.5552761" lon="11.2443138"><ele>210.0</ele><time>2026-05-02T13:37:03.962Z</time></trkpt><trkpt lat="43.5552052" lon="11.2442902"><ele>210.0</ele><time>2026-05-02T13:37:04.962Z</time></trkpt><trkpt lat="43.5550852" lon="11.2442791"><ele>210.0</ele><time>2026-05-02T13:37:06.962Z</time></trkpt><trkpt lat="43.5549664" lon="11.244287"><ele>210.0</ele><time>2026-05-02T13:37:08.962Z</time></trkpt><trkpt lat="43.5548539" lon="11.2442519"><ele>210.0</ele><time>2026-05-02T13:37:10.962Z</time></trkpt><trkpt lat="43.5547621" lon="11.2441724"><ele>210.0</ele><time>2026-05-02T13:37:12.962Z</time></trkpt><trkpt lat="43.5546677" lon="11.244078"><ele>210.0</ele><time>2026-05-02T13:37:14.962Z</time></trkpt><trkpt lat="43.5546055" lon="11.2440194"><ele>210.0</ele><time>2026-05-02T13:37:15.962Z</time></trkpt><trkpt lat="43.5545313" lon="11.2439758"><ele>210.2</ele><time>2026-05-02T13:37:16.962Z</time></trkpt><trkpt lat="43.5544515" lon="11.2439436"><ele>210.4</ele><time>2026-05-02T13:37:17.963Z</time></trkpt><trkpt lat="43.5543612" lon="11.2439192"><ele>210.60000000000002</ele><time>2026-05-02T13:37:18.962Z</time></trkpt><trkpt lat="43.5542501" lon="11.2438994"><ele>210.8</ele><time>2026-05-02T13:37:19.962Z</time></trkpt><trkpt lat="43.554139" lon="11.2438857"><ele>211.0</ele><time>2026-05-02T13:37:20.962Z</time></trkpt><trkpt lat="43.5540276" lon="11.2438714"><ele>211.0</ele><time>2026-05-02T13:37:21.963Z</time></trkpt><trkpt lat="43.5539205" lon="11.2438504"><ele>211.0</ele><time>2026-05-02T13:37:22.962Z</time></trkpt><trkpt lat="43.5538169" lon="11.2438372"><ele>211.0</ele><time>2026-05-02T13:37:23.962Z</time></trkpt><trkpt lat="43.5537167" lon="11.2438254"><ele>211.0</ele><time>2026-05-02T13:37:24.962Z</time></trkpt><trkpt lat="43.553628" lon="11.2438238"><ele>211.0</ele><time>2026-05-02T13:37:25.963Z</time></trkpt><trkpt lat="43.5535414" lon="11.2438153"><ele>211.49999999999997</ele><time>2026-05-02T13:37:26.962Z</time></trkpt><trkpt lat="43.553454" lon="11.2438088"><ele>212.0</ele><time>2026-05-02T13:37:27.962Z</time></trkpt><trkpt lat="43.5533737" lon="11.2438011"><ele>212.5</ele><time>2026-05-02T13:37:28.962Z</time></trkpt><trkpt lat="43.5532903" lon="11.2437919"><ele>213.0</ele><time>2026-05-02T13:37:29.962Z</time></trkpt><trkpt lat="43.5532034" lon="11.2437925"><ele>213.49999999999997</ele><time>2026-05-02T13:37:30.962Z</time></trkpt><trkpt lat="43.5531177" lon="11.2438054"><ele>214.0</ele><time>2026-05-02T13:37:31.962Z</time></trkpt><trkpt lat="43.5530387" lon="11.2438227"><ele>214.00000000000003</ele><time>2026-05-02T13:37:32.962Z</time></trkpt><trkpt lat="43.5529663" lon="11.2438497"><ele>214.0</ele><time>2026-05-02T13:37:33.962Z</time></trkpt><trkpt lat="43.5528992" lon="11.2438954"><ele>214.0</ele><time>2026-05-02T13:37:34.962Z</time></trkpt><trkpt lat="43.5528346" lon="11.2439441"><ele>214.0</ele><time>2026-05-02T13:37:35.962Z</time></trkpt><trkpt lat="43.5527762" lon="11.2440023"><ele>214.0</ele><time>2026-05-02T13:37:36.962Z</time></trkpt><trkpt lat="43.5527283" lon="11.2440692"><ele>214.00000000000003</ele><time>2026-05-02T13:37:37.962Z</time></trkpt><trkpt lat="43.5526902" lon="11.2441403"><ele>214.0</ele><time>2026-05-02T13:37:38.962Z</time></trkpt><trkpt lat="43.5526431" lon="11.2442788"><ele>213.49999999999997</ele><time>2026-05-02T13:37:40.963Z</time></trkpt><trkpt lat="43.5525964" lon="11.2444506"><ele>213.0</ele><time>2026-05-02T13:37:42.963Z</time></trkpt><trkpt lat="43.5525723" lon="11.2445393"><ele>212.5</ele><time>2026-05-02T13:37:43.962Z</time></trkpt><trkpt lat="43.5525433" lon="11.2446271"><ele>212.0</ele><time>2026-05-02T13:37:44.962Z</time></trkpt><trkpt lat="43.5524977" lon="11.2447115"><ele>211.49999999999997</ele><time>2026-05-02T13:37:45.962Z</time></trkpt><trkpt lat="43.5524398" lon="11.2447917"><ele>211.0</ele><time>2026-05-02T13:37:46.962Z</time></trkpt><trkpt lat="43.5523714" lon="11.2448687"><ele>211.33333333333331</ele><time>2026-05-02T13:37:47.963Z</time></trkpt><trkpt lat="43.5523028" lon="11.2449452"><ele>211.66666666666666</ele><time>2026-05-02T13:37:48.963Z</time></trkpt><trkpt lat="43.5522411" lon="11.2450192"><ele>212.0</ele><time>2026-05-02T13:37:49.962Z</time></trkpt><trkpt lat="43.5521808" lon="11.2450875"><ele>212.33333333333331</ele><time>2026-05-02T13:37:50.962Z</time></trkpt><trkpt lat="43.5521143" lon="11.245158"><ele>212.66666666666666</ele><time>2026-05-02T13:37:51.962Z</time></trkpt><trkpt lat="43.5520481" lon="11.2452238"><ele>213.0</ele><time>2026-05-02T13:37:52.962Z</time></trkpt><trkpt lat="43.5519857" lon="11.2452845"><ele>213.0</ele><time>2026-05-02T13:37:53.962Z</time></trkpt><trkpt lat="43.5519218" lon="11.2453361"><ele>213.0</ele><time>2026-05-02T13:37:54.962Z</time></trkpt><trkpt lat="43.5518465" lon="11.2453765"><ele>213.0</ele><time>2026-05-02T13:37:55.962Z</time></trkpt><trkpt lat="43.5517713" lon="11.2454185"><ele>213.0</ele><time>2026-05-02T13:37:56.962Z</time></trkpt><trkpt lat="43.5516977" lon="11.2454516"><ele>213.0</ele><time>2026-05-02T13:37:57.962Z</time></trkpt><trkpt lat="43.5516296" lon="11.2454925"><ele>213.0</ele><time>2026-05-02T13:37:58.962Z</time></trkpt><trkpt lat="43.5515573" lon="11.2455275"><ele>213.0</ele><time>2026-05-02T13:37:59.962Z</time></trkpt><trkpt lat="43.5514915" lon="11.2455629"><ele>213.0</ele><time>2026-05-02T13:38:00.962Z</time></trkpt><trkpt lat="43.5514247" lon="11.2455806"><ele>213.0</ele><time>2026-05-02T13:38:01.962Z</time></trkpt><trkpt lat="43.5513027" lon="11.245578"><ele>213.0</ele><time>2026-05-02T13:38:03.962Z</time></trkpt><trkpt lat="43.5512385" lon="11.2455345"><ele>213.0</ele><time>2026-05-02T13:38:04.963Z</time></trkpt><trkpt lat="43.5511837" lon="11.2454686"><ele>213.0</ele><time>2026-05-02T13:38:05.962Z</time></trkpt><trkpt lat="43.5511415" lon="11.245396"><ele>213.0</ele><time>2026-05-02T13:38:06.962Z</time></trkpt><trkpt lat="43.5510993" lon="11.2453093"><ele>213.0</ele><time>2026-05-02T13:38:07.962Z</time></trkpt><trkpt lat="43.5510634" lon="11.2452125"><ele>213.0</ele><time>2026-05-02T13:38:08.962Z</time></trkpt><trkpt lat="43.5510285" lon="11.2451102"><ele>213.0</ele><time>2026-05-02T13:38:09.962Z</time></trkpt><trkpt lat="43.5510018" lon="11.2450172"><ele>213.0</ele><time>2026-05-02T13:38:10.962Z</time></trkpt><trkpt lat="43.5509663" lon="11.2449253"><ele>213.0</ele><time>2026-05-02T13:38:11.962Z</time></trkpt><trkpt lat="43.5509244" lon="11.2448279"><ele>213.0</ele><time>2026-05-02T13:38:12.963Z</time></trkpt><trkpt lat="43.5508801" lon="11.2447292"><ele>213.0</ele><time>2026-05-02T13:38:13.962Z</time></trkpt><trkpt lat="43.5508345" lon="11.2446481"><ele>213.0</ele><time>2026-05-02T13:38:14.962Z</time></trkpt><trkpt lat="43.5507821" lon="11.244563"><ele>213.0</ele><time>2026-05-02T13:38:15.962Z</time></trkpt><trkpt lat="43.5507298" lon="11.2444779"><ele>213.0</ele><time>2026-05-02T13:38:16.962Z</time></trkpt><trkpt lat="43.5506823" lon="11.244399"><ele>213.0</ele><time>2026-05-02T13:38:17.962Z</time></trkpt><trkpt lat="43.5506304" lon="11.2443244"><ele>213.0</ele><time>2026-05-02T13:38:18.962Z</time></trkpt><trkpt lat="43.5505755" lon="11.2442447"><ele>213.0</ele><time>2026-05-02T13:38:19.963Z</time></trkpt><trkpt lat="43.5505168" lon="11.2441695"><ele>213.0</ele><time>2026-05-02T13:38:20.963Z</time></trkpt><trkpt lat="43.5504501" lon="11.2440918"><ele>213.0</ele><time>2026-05-02T13:38:21.963Z</time></trkpt><trkpt lat="43.5503854" lon="11.2440181"><ele>213.0</ele><time>2026-05-02T13:38:22.963Z</time></trkpt><trkpt lat="43.550323" lon="11.2439558"><ele>213.0</ele><time>2026-05-02T13:38:23.963Z</time></trkpt><trkpt lat="43.550263" lon="11.2438922"><ele>214.5</ele><time>2026-05-02T13:38:24.962Z</time></trkpt><trkpt lat="43.5502048" lon="11.243829"><ele>216.0</ele><time>2026-05-02T13:38:25.962Z</time></trkpt><trkpt lat="43.5501442" lon="11.2437655"><ele>217.5</ele><time>2026-05-02T13:38:26.962Z</time></trkpt><trkpt lat="43.5500758" lon="11.2437171"><ele>219.0</ele><time>2026-05-02T13:38:27.962Z</time></trkpt><trkpt lat="43.5500029" lon="11.2436766"><ele>220.5</ele><time>2026-05-02T13:38:28.962Z</time></trkpt><trkpt lat="43.5499217" lon="11.2436444"><ele>222.0</ele><time>2026-05-02T13:38:29.963Z</time></trkpt><trkpt lat="43.5498418" lon="11.2436164"><ele>222.0</ele><time>2026-05-02T13:38:30.962Z</time></trkpt><trkpt lat="43.5497583" lon="11.2435978"><ele>222.0</ele><time>2026-05-02T13:38:31.962Z</time></trkpt><trkpt lat="43.5496675" lon="11.243595"><ele>222.0</ele><time>2026-05-02T13:38:32.962Z</time></trkpt><trkpt lat="43.549567" lon="11.2435953"><ele>222.0</ele><time>2026-05-02T13:38:33.962Z</time></trkpt><trkpt lat="43.5494687" lon="11.2435996"><ele>222.0</ele><time>2026-05-02T13:38:34.963Z</time></trkpt><trkpt lat="43.549371" lon="11.24361"><ele>221.83333333333334</ele><time>2026-05-02T13:38:35.962Z</time></trkpt><trkpt lat="43.549281" lon="11.2436254"><ele>221.66666666666669</ele><time>2026-05-02T13:38:36.962Z</time></trkpt><trkpt lat="43.5491976" lon="11.2436413"><ele>221.5</ele><time>2026-05-02T13:38:37.962Z</time></trkpt><trkpt lat="43.5491077" lon="11.2436577"><ele>221.33333333333334</ele><time>2026-05-02T13:38:38.962Z</time></trkpt><trkpt lat="43.5490202" lon="11.243673"><ele>221.16666666666669</ele><time>2026-05-02T13:38:39.963Z</time></trkpt><trkpt lat="43.5489354" lon="11.2436986"><ele>221.0</ele><time>2026-05-02T13:38:40.962Z</time></trkpt><trkpt lat="43.5488611" lon="11.2437297"><ele>221.0</ele><time>2026-05-02T13:38:41.962Z</time></trkpt><trkpt lat="43.5487895" lon="11.243763"><ele>221.0</ele><time>2026-05-02T13:38:42.962Z</time></trkpt><trkpt lat="43.5486932" lon="11.2438168"><ele>230.0</ele><time>2026-05-02T13:38:44.962Z</time></trkpt></trkseg><trkseg><trkpt lat="43.5485763" lon="11.2438937"><ele>230.00000000000003</ele><time>2026-05-02T14:01:42.975Z</time></trkpt><trkpt lat="43.5485168" lon="11.2439406"><ele>230.0</ele><time>2026-05-02T14:01:44.975Z</time></trkpt><trkpt lat="43.5484596" lon="11.2439851"><ele>230.0</ele><time>2026-05-02T14:01:46.975Z</time></trkpt><trkpt lat="43.5483877" lon="11.2440556"><ele>230.0</ele><time>2026-05-02T14:01:48.976Z</time></trkpt><trkpt lat="43.5483057" lon="11.2441297"><ele>230.00000000000003</ele><time>2026-05-02T14:01:51.976Z</time></trkpt><trkpt lat="43.5482224" lon="11.2442179"><ele>230.0</ele><time>2026-05-02T14:01:53.976Z</time></trkpt><trkpt lat="43.5481223" lon="11.2443349"><ele>228.50000000000003</ele><time>2026-05-02T14:01:55.975Z</time></trkpt><trkpt lat="43.5480651" lon="11.2444162"><ele>227.0</ele><time>2026-05-02T14:01:56.976Z</time></trkpt><trkpt lat="43.548013" lon="11.2445094"><ele>225.5</ele><time>2026-05-02T14:01:57.976Z</time></trkpt><trkpt lat="43.5479594" lon="11.244606"><ele>224.0</ele><time>2026-05-02T14:01:58.976Z</time></trkpt><trkpt lat="43.5479086" lon="11.2447005"><ele>222.50000000000003</ele><time>2026-05-02T14:01:59.976Z</time></trkpt><trkpt lat="43.5478675" lon="11.2447946"><ele>221.0</ele><time>2026-05-02T14:02:00.975Z</time></trkpt><trkpt lat="43.5478324" lon="11.2448952"><ele>220.57142857142858</ele><time>2026-05-02T14:02:01.975Z</time></trkpt><trkpt lat="43.5477991" lon="11.2449878"><ele>220.14285714285714</ele><time>2026-05-02T14:02:02.975Z</time></trkpt><trkpt lat="43.5477621" lon="11.2450911"><ele>219.71428571428572</ele><time>2026-05-02T14:02:03.975Z</time></trkpt><trkpt lat="43.5477328" lon="11.2451932"><ele>219.28571428571428</ele><time>2026-05-02T14:02:04.975Z</time></trkpt><trkpt lat="43.5477064" lon="11.2452843"><ele>218.85714285714286</ele><time>2026-05-02T14:02:05.976Z</time></trkpt><trkpt lat="43.5476832" lon="11.2453727"><ele>218.42857142857144</ele><time>2026-05-02T14:02:06.975Z</time></trkpt><trkpt lat="43.5476568" lon="11.2454627"><ele>218.0</ele><time>2026-05-02T14:02:07.975Z</time></trkpt><trkpt lat="43.547635" lon="11.2455547"><ele>217.42857142857144</ele><time>2026-05-02T14:02:08.975Z</time></trkpt><trkpt lat="43.5476131" lon="11.2456442"><ele>216.85714285714286</ele><time>2026-05-02T14:02:09.976Z</time></trkpt><trkpt lat="43.5475917" lon="11.2457355"><ele>216.28571428571428</ele><time>2026-05-02T14:02:10.975Z</time></trkpt><trkpt lat="43.5475646" lon="11.2458306"><ele>215.71428571428572</ele><time>2026-05-02T14:02:11.975Z</time></trkpt><trkpt lat="43.5475364" lon="11.2459216"><ele>215.14285714285714</ele><time>2026-05-02T14:02:12.975Z</time></trkpt><trkpt lat="43.5475074" lon="11.246012"><ele>214.57142857142858</ele><time>2026-05-02T14:02:13.975Z</time></trkpt><trkpt lat="43.5474725" lon="11.2461059"><ele>214.0</ele><time>2026-05-02T14:02:14.975Z</time></trkpt><trkpt lat="43.5474376" lon="11.2461887"><ele>214.0</ele><time>2026-05-02T14:02:15.975Z</time></trkpt><trkpt lat="43.5473871" lon="11.2463421"><ele>213.99999999999997</ele><time>2026-05-02T14:02:17.975Z</time></trkpt><trkpt lat="43.5473379" lon="11.2464934"><ele>213.99999999999997</ele><time>2026-05-02T14:02:19.975Z</time></trkpt><trkpt lat="43.5472969" lon="11.2466124"><ele>214.0</ele><time>2026-05-02T14:02:21.976Z</time></trkpt><trkpt lat="43.5472679" lon="11.2467495"><ele>214.0</ele><time>2026-05-02T14:02:23.975Z</time></trkpt><trkpt lat="43.547292" lon="11.2468425"><ele>214.49999999999997</ele><time>2026-05-02T14:02:25.975Z</time></trkpt><trkpt lat="43.5472406" lon="11.2469678"><ele>215.0</ele><time>2026-05-02T14:02:53.975Z</time></trkpt><trkpt lat="43.5471672" lon="11.2470782"><ele>215.5</ele><time>2026-05-02T14:02:55.975Z</time></trkpt><trkpt lat="43.5471233" lon="11.2471439"><ele>216.0</ele><time>2026-05-02T14:02:56.975Z</time></trkpt><trkpt lat="43.5470843" lon="11.247229"><ele>216.49999999999997</ele><time>2026-05-02T14:02:57.976Z</time></trkpt><trkpt lat="43.5470423" lon="11.2473197"><ele>217.0</ele><time>2026-05-02T14:02:58.975Z</time></trkpt><trkpt lat="43.5470081" lon="11.2474116"><ele>218.16666666666666</ele><time>2026-05-02T14:02:59.975Z</time></trkpt><trkpt lat="43.546979" lon="11.2475204"><ele>219.33333333333331</ele><time>2026-05-02T14:03:00.975Z</time></trkpt><trkpt lat="43.5469498" lon="11.2476292"><ele>220.5</ele><time>2026-05-02T14:03:01.975Z</time></trkpt><trkpt lat="43.5469124" lon="11.2477209"><ele>221.66666666666669</ele><time>2026-05-02T14:03:02.975Z</time></trkpt><trkpt lat="43.5468743" lon="11.2478057"><ele>222.83333333333334</ele><time>2026-05-02T14:03:03.975Z</time></trkpt><trkpt lat="43.5468343" lon="11.2478889"><ele>224.0</ele><time>2026-05-02T14:03:04.975Z</time></trkpt><trkpt lat="43.5468068" lon="11.2479741"><ele>224.2</ele><time>2026-05-02T14:03:05.976Z</time></trkpt><trkpt lat="43.5467792" lon="11.2481315"><ele>224.39999999999998</ele><time>2026-05-02T14:03:07.975Z</time></trkpt><trkpt lat="43.5467838" lon="11.2483036"><ele>224.6</ele><time>2026-05-02T14:03:09.975Z</time></trkpt><trkpt lat="43.5468099" lon="11.2483841"><ele>224.8</ele><time>2026-05-02T14:03:10.975Z</time></trkpt><trkpt lat="43.5468557" lon="11.2485323"><ele>225.0</ele><time>2026-05-02T14:03:12.975Z</time></trkpt><trkpt lat="43.5468826" lon="11.248658"><ele>225.00000000000003</ele><time>2026-05-02T14:03:14.975Z</time></trkpt><trkpt lat="43.5468814" lon="11.2487546"><ele>225.0</ele><time>2026-05-02T14:03:15.975Z</time></trkpt><trkpt lat="43.5468731" lon="11.2488408"><ele>225.00000000000003</ele><time>2026-05-02T14:03:16.976Z</time></trkpt><trkpt lat="43.5468821" lon="11.2489285"><ele>225.00000000000003</ele><time>2026-05-02T14:03:17.975Z</time></trkpt><trkpt lat="43.5468928" lon="11.249042"><ele>225.0</ele><time>2026-05-02T14:03:18.976Z</time></trkpt><trkpt lat="43.5469259" lon="11.2491597"><ele>225.00000000000003</ele><time>2026-05-02T14:03:19.975Z</time></trkpt><trkpt lat="43.5469452" lon="11.249263"><ele>225.00000000000003</ele><time>2026-05-02T14:03:20.975Z</time></trkpt><trkpt lat="43.5469691" lon="11.2493796"><ele>224.83333333333334</ele><time>2026-05-02T14:03:21.975Z</time></trkpt><trkpt lat="43.5470046" lon="11.2494916"><ele>224.66666666666669</ele><time>2026-05-02T14:03:22.975Z</time></trkpt><trkpt lat="43.5470398" lon="11.2495997"><ele>224.5</ele><time>2026-05-02T14:03:23.975Z</time></trkpt><trkpt lat="43.5470786" lon="11.249706"><ele>224.33333333333334</ele><time>2026-05-02T14:03:24.975Z</time></trkpt><trkpt lat="43.5471312" lon="11.2498045"><ele>224.16666666666669</ele><time>2026-05-02T14:03:25.976Z</time></trkpt><trkpt lat="43.547186" lon="11.2499081"><ele>224.0</ele><time>2026-05-02T14:03:26.975Z</time></trkpt><trkpt lat="43.5472348" lon="11.2500132"><ele>224.50000000000003</ele><time>2026-05-02T14:03:27.975Z</time></trkpt><trkpt lat="43.5472891" lon="11.2501148"><ele>225.0</ele><time>2026-05-02T14:03:28.975Z</time></trkpt><trkpt lat="43.5473216" lon="11.2502064"><ele>225.5</ele><time>2026-05-02T14:03:29.975Z</time></trkpt><trkpt lat="43.5473725" lon="11.2502995"><ele>226.0</ele><time>2026-05-02T14:03:30.975Z</time></trkpt><trkpt lat="43.5474158" lon="11.2503874"><ele>226.50000000000003</ele><time>2026-05-02T14:03:31.975Z</time></trkpt><trkpt lat="43.5474468" lon="11.2504931"><ele>227.0</ele><time>2026-05-02T14:03:32.975Z</time></trkpt><trkpt lat="43.5474685" lon="11.2506035"><ele>227.00000000000003</ele><time>2026-05-02T14:03:33.975Z</time></trkpt><trkpt lat="43.5474945" lon="11.2507224"><ele>227.0</ele><time>2026-05-02T14:03:34.975Z</time></trkpt><trkpt lat="43.5475138" lon="11.2508354"><ele>227.0</ele><time>2026-05-02T14:03:35.975Z</time></trkpt><trkpt lat="43.5475342" lon="11.2509309"><ele>227.0</ele><time>2026-05-02T14:03:36.975Z</time></trkpt><trkpt lat="43.54756" lon="11.2510347"><ele>227.00000000000003</ele><time>2026-05-02T14:03:37.975Z</time></trkpt><trkpt lat="43.5475953" lon="11.2511415"><ele>227.0</ele><time>2026-05-02T14:03:38.975Z</time></trkpt><trkpt lat="43.5476365" lon="11.2512545"><ele>227.0</ele><time>2026-05-02T14:03:39.975Z</time></trkpt><trkpt lat="43.5476795" lon="11.2513716"><ele>227.0</ele><time>2026-05-02T14:03:40.975Z</time></trkpt><trkpt lat="43.5477168" lon="11.2514959"><ele>227.0</ele><time>2026-05-02T14:03:41.975Z</time></trkpt><trkpt lat="43.5477564" lon="11.2516276"><ele>227.0</ele><time>2026-05-02T14:03:42.976Z</time></trkpt><trkpt lat="43.5477885" lon="11.2517551"><ele>227.0</ele><time>2026-05-02T14:03:43.975Z</time></trkpt><trkpt lat="43.547823" lon="11.2518728"><ele>226.66666666666669</ele><time>2026-05-02T14:03:44.975Z</time></trkpt><trkpt lat="43.5478519" lon="11.2519737"><ele>226.33333333333334</ele><time>2026-05-02T14:03:45.975Z</time></trkpt><trkpt lat="43.547881" lon="11.2520822"><ele>226.0</ele><time>2026-05-02T14:03:46.975Z</time></trkpt><trkpt lat="43.5479138" lon="11.2521821"><ele>225.66666666666669</ele><time>2026-05-02T14:03:47.975Z</time></trkpt><trkpt lat="43.5479526" lon="11.252264"><ele>225.33333333333334</ele><time>2026-05-02T14:03:48.975Z</time></trkpt><trkpt lat="43.5480018" lon="11.2523453"><ele>225.0</ele><time>2026-05-02T14:03:49.975Z</time></trkpt><trkpt lat="43.5480592" lon="11.2524155"><ele>226.33333333333334</ele><time>2026-05-02T14:03:50.975Z</time></trkpt><trkpt lat="43.5481168" lon="11.2524732"><ele>227.66666666666669</ele><time>2026-05-02T14:03:51.976Z</time></trkpt><trkpt lat="43.5481741" lon="11.2525294"><ele>229.0</ele><time>2026-05-02T14:03:52.976Z</time></trkpt><trkpt lat="43.5482359" lon="11.252586"><ele>230.33333333333334</ele><time>2026-05-02T14:03:53.975Z</time></trkpt><trkpt lat="43.5482946" lon="11.2526477"><ele>231.66666666666669</ele><time>2026-05-02T14:03:54.975Z</time></trkpt><trkpt lat="43.5483529" lon="11.2527814"><ele>233.0</ele><time>2026-05-02T14:03:56.975Z</time></trkpt><trkpt lat="43.5483629" lon="11.252869"><ele>233.00000000000003</ele><time>2026-05-02T14:03:57.975Z</time></trkpt><trkpt lat="43.5483744" lon="11.253041"><ele>233.0</ele><time>2026-05-02T14:03:59.975Z</time></trkpt><trkpt lat="43.5483933" lon="11.2531263"><ele>233.0</ele><time>2026-05-02T14:04:00.975Z</time></trkpt><trkpt lat="43.5484195" lon="11.2532083"><ele>233.0</ele><time>2026-05-02T14:04:01.975Z</time></trkpt><trkpt lat="43.5484578" lon="11.2532776"><ele>233.00000000000003</ele><time>2026-05-02T14:04:02.976Z</time></trkpt><trkpt lat="43.5485124" lon="11.2533432"><ele>233.0</ele><time>2026-05-02T14:04:03.975Z</time></trkpt><trkpt lat="43.5485609" lon="11.2534072"><ele>232.2</ele><time>2026-05-02T14:04:04.975Z</time></trkpt><trkpt lat="43.5486088" lon="11.2534668"><ele>231.4</ele><time>2026-05-02T14:04:05.975Z</time></trkpt><trkpt lat="43.5486797" lon="11.2535935"><ele>230.59999999999997</ele><time>2026-05-02T14:04:07.975Z</time></trkpt><trkpt lat="43.5486995" lon="11.2536839"><ele>229.79999999999998</ele><time>2026-05-02T14:04:09.975Z</time></trkpt><trkpt lat="43.5486623" lon="11.2538159"><ele>229.0</ele><time>2026-05-02T14:04:12.975Z</time></trkpt><trkpt lat="43.5486232" lon="11.2539405"><ele>228.6</ele><time>2026-05-02T14:04:14.975Z</time></trkpt><trkpt lat="43.5486183" lon="11.2541144"><ele>228.2</ele><time>2026-05-02T14:04:16.974Z</time></trkpt><trkpt lat="43.5486215" lon="11.2542528"><ele>227.79999999999998</ele><time>2026-05-02T14:04:18.974Z</time></trkpt><trkpt lat="43.5486054" lon="11.2543541"><ele>227.39999999999998</ele><time>2026-05-02T14:04:20.974Z</time></trkpt><trkpt lat="43.5486125" lon="11.2544696"><ele>227.0</ele><time>2026-05-02T14:04:22.974Z</time></trkpt><trkpt lat="43.5486726" lon="11.2545936"><ele>227.00000000000003</ele><time>2026-05-02T14:04:24.974Z</time></trkpt><trkpt lat="43.548708" lon="11.2547292"><ele>227.0</ele><time>2026-05-02T14:04:26.974Z</time></trkpt><trkpt lat="43.5487093" lon="11.2548227"><ele>227.0</ele><time>2026-05-02T14:04:27.975Z</time></trkpt><trkpt lat="43.5487016" lon="11.254942"><ele>227.0</ele><time>2026-05-02T14:04:28.975Z</time></trkpt><trkpt lat="43.548709" lon="11.2550443"><ele>227.00000000000003</ele><time>2026-05-02T14:04:29.974Z</time></trkpt><trkpt lat="43.5487424" lon="11.2551799"><ele>227.0</ele><time>2026-05-02T14:04:31.974Z</time></trkpt><trkpt lat="43.5487545" lon="11.2553005"><ele>226.66666666666669</ele><time>2026-05-02T14:04:33.974Z</time></trkpt><trkpt lat="43.5487434" lon="11.2553956"><ele>226.33333333333334</ele><time>2026-05-02T14:04:35.974Z</time></trkpt><trkpt lat="43.548709" lon="11.2554852"><ele>226.0</ele><time>2026-05-02T14:04:37.975Z</time></trkpt><trkpt lat="43.5486593" lon="11.2555695"><ele>225.66666666666669</ele><time>2026-05-02T14:04:39.974Z</time></trkpt><trkpt lat="43.5485789" lon="11.255657"><ele>225.33333333333334</ele><time>2026-05-02T14:04:41.974Z</time></trkpt><trkpt lat="43.5485073" lon="11.2557118"><ele>225.0</ele><time>2026-05-02T14:04:43.974Z</time></trkpt><trkpt lat="43.5484369" lon="11.2557369"><ele>225.0</ele><time>2026-05-02T14:04:45.974Z</time></trkpt><trkpt lat="43.5483772" lon="11.2557917"><ele>225.0</ele><time>2026-05-02T14:04:48.974Z</time></trkpt><trkpt lat="43.5483096" lon="11.2558755"><ele>225.0</ele><time>2026-05-02T14:04:51.974Z</time></trkpt><trkpt lat="43.5482477" lon="11.2560262"><ele>225.0</ele><time>2026-05-02T14:04:53.974Z</time></trkpt><trkpt lat="43.5482215" lon="11.2561138"><ele>225.0</ele><time>2026-05-02T14:04:54.974Z</time></trkpt><trkpt lat="43.5481987" lon="11.2562008"><ele>225.0</ele><time>2026-05-02T14:04:55.974Z</time></trkpt><trkpt lat="43.548182" lon="11.2562952"><ele>225.0</ele><time>2026-05-02T14:04:56.975Z</time></trkpt><trkpt lat="43.5481682" lon="11.2564309"><ele>225.0</ele><time>2026-05-02T14:04:58.974Z</time></trkpt><trkpt lat="43.5481533" lon="11.2565331"><ele>225.0</ele><time>2026-05-02T14:05:00.975Z</time></trkpt><trkpt lat="43.5481139" lon="11.2566259"><ele>225.0</ele><time>2026-05-02T14:05:02.975Z</time></trkpt><trkpt lat="43.5481044" lon="11.2567288"><ele>225.0</ele><time>2026-05-02T14:05:05.974Z</time></trkpt><trkpt lat="43.5481204" lon="11.2568656"><ele>225.0</ele><time>2026-05-02T14:05:08.975Z</time></trkpt><trkpt lat="43.5481301" lon="11.2569525"><ele>225.0</ele><time>2026-05-02T14:05:15.974Z</time></trkpt><trkpt lat="43.5480713" lon="11.2569892"><ele>225.0</ele><time>2026-05-02T14:05:42.974Z</time></trkpt><trkpt lat="43.5479969" lon="11.2569534"><ele>225.0</ele><time>2026-05-02T14:05:44.974Z</time></trkpt><trkpt lat="43.5478836" lon="11.2569235"><ele>225.0</ele><time>2026-05-02T14:05:46.974Z</time></trkpt><trkpt lat="43.547784" lon="11.2568914"><ele>225.0</ele><time>2026-05-02T14:05:48.975Z</time></trkpt><trkpt lat="43.5477075" lon="11.2568738"><ele>225.0</ele><time>2026-05-02T14:05:50.974Z</time></trkpt><trkpt lat="43.5476324" lon="11.2568447"><ele>224.5</ele><time>2026-05-02T14:05:53.974Z</time></trkpt><trkpt lat="43.5475445" lon="11.2569068"><ele>224.0</ele><time>2026-05-02T14:06:44.974Z</time></trkpt><trkpt lat="43.5475996" lon="11.256838"><ele>223.5</ele><time>2026-05-02T14:07:01.974Z</time></trkpt><trkpt lat="43.5476227" lon="11.2567284"><ele>223.0</ele><time>2026-05-02T14:07:04.974Z</time></trkpt><trkpt lat="43.5476676" lon="11.256647"><ele>222.5</ele><time>2026-05-02T14:07:06.974Z</time></trkpt><trkpt lat="43.547735" lon="11.2566125"><ele>222.0</ele><time>2026-05-02T14:07:08.974Z</time></trkpt><trkpt lat="43.5477961" lon="11.2565432"><ele>222.0</ele><time>2026-05-02T14:07:11.974Z</time></trkpt><trkpt lat="43.5477892" lon="11.2564385"><ele>222.0</ele><time>2026-05-02T14:07:14.975Z</time></trkpt><trkpt lat="43.5477282" lon="11.2563836"><ele>222.0</ele><time>2026-05-02T14:07:17.974Z</time></trkpt><trkpt lat="43.5476427" lon="11.2563756"><ele>222.0</ele><time>2026-05-02T14:07:32.974Z</time></trkpt><trkpt lat="43.5475746" lon="11.2563856"><ele>222.0</ele><time>2026-05-02T14:07:34.974Z</time></trkpt><trkpt lat="43.5475108" lon="11.2564052"><ele>222.0</ele><time>2026-05-02T14:07:36.974Z</time></trkpt><trkpt lat="43.5474086" lon="11.2563985"><ele>222.0</ele><time>2026-05-02T14:07:39.974Z</time></trkpt><trkpt lat="43.5473093" lon="11.2563809"><ele>222.0</ele><time>2026-05-02T14:07:41.974Z</time></trkpt><trkpt lat="43.5472128" lon="11.2563666"><ele>222.0</ele><time>2026-05-02T14:07:43.974Z</time></trkpt><trkpt lat="43.5471138" lon="11.2563615"><ele>222.0</ele><time>2026-05-02T14:07:45.974Z</time></trkpt><trkpt lat="43.5470098" lon="11.2563737"><ele>222.0</ele><time>2026-05-02T14:07:47.974Z</time></trkpt><trkpt lat="43.5469064" lon="11.2563818"><ele>222.8</ele><time>2026-05-02T14:07:49.974Z</time></trkpt><trkpt lat="43.5468085" lon="11.2563579"><ele>223.6</ele><time>2026-05-02T14:07:51.974Z</time></trkpt><trkpt lat="43.5466873" lon="11.2562605"><ele>224.40000000000003</ele><time>2026-05-02T14:07:52.974Z</time></trkpt><trkpt lat="43.5465971" lon="11.256217"><ele>225.20000000000002</ele><time>2026-05-02T14:07:54.974Z</time></trkpt><trkpt lat="43.5465056" lon="11.2561887"><ele>226.0</ele><time>2026-05-02T14:07:56.974Z</time></trkpt><trkpt lat="43.546414" lon="11.2561781"><ele>225.99999999999997</ele><time>2026-05-02T14:07:58.974Z</time></trkpt><trkpt lat="43.5463319" lon="11.256181"><ele>226.0</ele><time>2026-05-02T14:08:00.974Z</time></trkpt><trkpt lat="43.5462658" lon="11.256179"><ele>226.0</ele><time>2026-05-02T14:08:02.974Z</time></trkpt><trkpt lat="43.5461627" lon="11.256176"><ele>226.0</ele><time>2026-05-02T14:08:28.974Z</time></trkpt><trkpt lat="43.5460905" lon="11.25618"><ele>225.99999999999997</ele><time>2026-05-02T14:08:30.974Z</time></trkpt><trkpt lat="43.5460113" lon="11.2561888"><ele>226.0</ele><time>2026-05-02T14:08:32.975Z</time></trkpt><trkpt lat="43.545928" lon="11.2561518"><ele>229.49999999999997</ele><time>2026-05-02T14:08:35.974Z</time></trkpt><trkpt lat="43.545882" lon="11.256092"><ele>233.0</ele><time>2026-05-02T14:08:37.974Z</time></trkpt><trkpt lat="43.5458519" lon="11.2559699"><ele>236.5</ele><time>2026-05-02T14:08:40.974Z</time></trkpt><trkpt lat="43.5458042" lon="11.2558652"><ele>240.0</ele><time>2026-05-02T14:08:42.975Z</time></trkpt><trkpt lat="43.5457298" lon="11.2558361"><ele>243.49999999999997</ele><time>2026-05-02T14:08:44.974Z</time></trkpt><trkpt lat="43.5456724" lon="11.2559231"><ele>247.0</ele><time>2026-05-02T14:08:46.974Z</time></trkpt><trkpt lat="43.5456357" lon="11.2560247"><ele>247.0</ele><time>2026-05-02T14:08:48.975Z</time></trkpt><trkpt lat="43.5456067" lon="11.256152"><ele>247.0</ele><time>2026-05-02T14:08:50.974Z</time></trkpt><trkpt lat="43.5455962" lon="11.2562939"><ele>247.0</ele><time>2026-05-02T14:08:52.974Z</time></trkpt><trkpt lat="43.5455915" lon="11.2564517"><ele>247.0</ele><time>2026-05-02T14:08:54.974Z</time></trkpt><trkpt lat="43.5455815" lon="11.2565988"><ele>247.0</ele><time>2026-05-02T14:08:56.974Z</time></trkpt><trkpt lat="43.5455651" lon="11.2566933"><ele>247.66666666666666</ele><time>2026-05-02T14:08:58.974Z</time></trkpt><trkpt lat="43.5455101" lon="11.2567529"><ele>248.33333333333331</ele><time>2026-05-02T14:09:00.975Z</time></trkpt><trkpt lat="43.5454384" lon="11.2567546"><ele>249.0</ele><time>2026-05-02T14:09:02.974Z</time></trkpt><trkpt lat="43.5453487" lon="11.2566958"><ele>249.66666666666669</ele><time>2026-05-02T14:09:04.974Z</time></trkpt><trkpt lat="43.54528" lon="11.2566207"><ele>250.33333333333334</ele><time>2026-05-02T14:09:06.975Z</time></trkpt><trkpt lat="43.5452102" lon="11.2566083"><ele>251.0</ele><time>2026-05-02T14:09:08.974Z</time></trkpt><trkpt lat="43.5451063" lon="11.2566334"><ele>254.00000000000003</ele><time>2026-05-02T14:09:10.974Z</time></trkpt><trkpt lat="43.5450037" lon="11.2566486"><ele>257.0</ele><time>2026-05-02T14:09:12.974Z</time></trkpt><trkpt lat="43.5449298" lon="11.2566427"><ele>260.0</ele><time>2026-05-02T14:09:14.974Z</time></trkpt><trkpt lat="43.5448604" lon="11.2566336"><ele>263.0</ele><time>2026-05-02T14:09:16.974Z</time></trkpt><trkpt lat="43.5447767" lon="11.2566634"><ele>266.0</ele><time>2026-05-02T14:09:18.973Z</time></trkpt><trkpt lat="43.544703" lon="11.2567193"><ele>269.0</ele><time>2026-05-02T14:09:20.973Z</time></trkpt><trkpt lat="43.5446293" lon="11.2567546"><ele>269.0</ele><time>2026-05-02T14:09:22.973Z</time></trkpt><trkpt lat="43.5445605" lon="11.2567274"><ele>269.0</ele><time>2026-05-02T14:09:24.974Z</time></trkpt><trkpt lat="43.5444785" lon="11.2566681"><ele>269.0</ele><time>2026-05-02T14:09:26.973Z</time></trkpt><trkpt lat="43.5443809" lon="11.2566415"><ele>269.0</ele><time>2026-05-02T14:09:28.973Z</time></trkpt><trkpt lat="43.5442886" lon="11.2566311"><ele>269.0</ele><time>2026-05-02T14:09:30.973Z</time></trkpt><trkpt lat="43.5442121" lon="11.2566823"><ele>269.0</ele><time>2026-05-02T14:09:32.973Z</time></trkpt><trkpt lat="43.544145" lon="11.2567549"><ele>271.0</ele><time>2026-05-02T14:09:34.973Z</time></trkpt><trkpt lat="43.5440703" lon="11.2568379"><ele>273.0</ele><time>2026-05-02T14:09:36.973Z</time></trkpt><trkpt lat="43.5439963" lon="11.2569297"><ele>275.0</ele><time>2026-05-02T14:09:38.973Z</time></trkpt><trkpt lat="43.5439118" lon="11.2570352"><ele>277.0</ele><time>2026-05-02T14:09:40.973Z</time></trkpt><trkpt lat="43.5438579" lon="11.2570931"><ele>279.0</ele><time>2026-05-02T14:09:41.973Z</time></trkpt><trkpt lat="43.5437666" lon="11.2571894"><ele>280.0</ele><time>2026-05-02T14:09:43.973Z</time></trkpt><trkpt lat="43.5436903" lon="11.2572637"><ele>281.0</ele><time>2026-05-02T14:09:45.973Z</time></trkpt><trkpt lat="43.5436178" lon="11.2573263"><ele>282.0</ele><time>2026-05-02T14:09:47.973Z</time></trkpt><trkpt lat="43.5435448" lon="11.2574109"><ele>283.0</ele><time>2026-05-02T14:09:49.973Z</time></trkpt><trkpt lat="43.5434647" lon="11.2575015"><ele>284.0</ele><time>2026-05-02T14:09:51.973Z</time></trkpt><trkpt lat="43.5433952" lon="11.2575995"><ele>286.1666666666667</ele><time>2026-05-02T14:09:53.973Z</time></trkpt><trkpt lat="43.5433691" lon="11.2577129"><ele>288.33333333333337</ele><time>2026-05-02T14:09:55.973Z</time></trkpt><trkpt lat="43.5433186" lon="11.2578108"><ele>290.5</ele><time>2026-05-02T14:09:57.973Z</time></trkpt><trkpt lat="43.5432597" lon="11.2578879"><ele>292.6666666666667</ele><time>2026-05-02T14:09:59.973Z</time></trkpt><trkpt lat="43.543201" lon="11.2579604"><ele>294.8333333333333</ele><time>2026-05-02T14:10:02.973Z</time></trkpt><trkpt lat="43.5430954" lon="11.2579864"><ele>297.0</ele><time>2026-05-02T14:14:17.972Z</time></trkpt><trkpt lat="43.5429951" lon="11.2579475"><ele>297.0</ele><time>2026-05-02T14:14:19.972Z</time></trkpt><trkpt lat="43.5429207" lon="11.2579424"><ele>297.0</ele><time>2026-05-02T14:14:21.972Z</time></trkpt><trkpt lat="43.5428345" lon="11.2579529"><ele>297.0</ele><time>2026-05-02T14:14:23.972Z</time></trkpt><trkpt lat="43.5427277" lon="11.2579535"><ele>297.0</ele><time>2026-05-02T14:14:25.973Z</time></trkpt><trkpt lat="43.5426007" lon="11.2579588"><ele>297.0</ele><time>2026-05-02T14:14:27.973Z</time></trkpt><trkpt lat="43.5425333" lon="11.2579667"><ele>297.8</ele><time>2026-05-02T14:14:28.972Z</time></trkpt><trkpt lat="43.5424176" lon="11.2579816"><ele>298.6</ele><time>2026-05-02T14:14:30.973Z</time></trkpt><trkpt lat="43.5423183" lon="11.2579952"><ele>299.40000000000003</ele><time>2026-05-02T14:14:32.972Z</time></trkpt><trkpt lat="43.5422178" lon="11.258041"><ele>300.2</ele><time>2026-05-02T14:14:34.973Z</time></trkpt><trkpt lat="43.5421321" lon="11.2581291"><ele>301.0</ele><time>2026-05-02T14:14:36.972Z</time></trkpt><trkpt lat="43.5420492" lon="11.2581817"><ele>304.6</ele><time>2026-05-02T14:14:38.973Z</time></trkpt><trkpt lat="43.5419708" lon="11.2582087"><ele>308.20000000000005</ele><time>2026-05-02T14:14:40.972Z</time></trkpt><trkpt lat="43.5418975" lon="11.2581862"><ele>311.79999999999995</ele><time>2026-05-02T14:14:42.972Z</time></trkpt><trkpt lat="43.5417962" lon="11.2581239"><ele>315.4</ele><time>2026-05-02T14:14:44.973Z</time></trkpt><trkpt lat="43.5417021" lon="11.2580282"><ele>319.0</ele><time>2026-05-02T14:14:46.972Z</time></trkpt><trkpt lat="43.5416043" lon="11.2579214"><ele>319.0</ele><time>2026-05-02T14:14:48.972Z</time></trkpt><trkpt lat="43.5415085" lon="11.2578331"><ele>319.0</ele><time>2026-05-02T14:14:50.972Z</time></trkpt><trkpt lat="43.5414098" lon="11.2577959"><ele>319.0</ele><time>2026-05-02T14:14:52.972Z</time></trkpt><trkpt lat="43.5413007" lon="11.2578247"><ele>319.0</ele><time>2026-05-02T14:14:54.972Z</time></trkpt><trkpt lat="43.5412051" lon="11.2579029"><ele>319.0</ele><time>2026-05-02T14:14:56.972Z</time></trkpt><trkpt lat="43.5411002" lon="11.2579558"><ele>320.79999999999995</ele><time>2026-05-02T14:14:58.972Z</time></trkpt><trkpt lat="43.5410104" lon="11.2580201"><ele>322.59999999999997</ele><time>2026-05-02T14:15:00.972Z</time></trkpt><trkpt lat="43.5409531" lon="11.2581389"><ele>324.4</ele><time>2026-05-02T14:15:02.972Z</time></trkpt><trkpt lat="43.5409376" lon="11.2582651"><ele>326.2</ele><time>2026-05-02T14:15:04.973Z</time></trkpt><trkpt lat="43.5408814" lon="11.2583475"><ele>328.0</ele><time>2026-05-02T14:15:06.972Z</time></trkpt><trkpt lat="43.5407952" lon="11.2583899"><ele>329.4</ele><time>2026-05-02T14:15:08.972Z</time></trkpt><trkpt lat="43.5406961" lon="11.258425"><ele>330.79999999999995</ele><time>2026-05-02T14:15:10.972Z</time></trkpt><trkpt lat="43.5405757" lon="11.2584506"><ele>332.2</ele><time>2026-05-02T14:15:12.973Z</time></trkpt><trkpt lat="43.5404635" lon="11.2584257"><ele>333.6</ele><time>2026-05-02T14:15:14.972Z</time></trkpt><trkpt lat="43.540355" lon="11.2584305"><ele>335.0</ele><time>2026-05-02T14:15:16.972Z</time></trkpt><trkpt lat="43.5402674" lon="11.2584528"><ele>337.4</ele><time>2026-05-02T14:15:18.972Z</time></trkpt><trkpt lat="43.5401919" lon="11.2584545"><ele>339.8</ele><time>2026-05-02T14:15:20.972Z</time></trkpt><trkpt lat="43.5401072" lon="11.2584907"><ele>342.20000000000005</ele><time>2026-05-02T14:15:22.972Z</time></trkpt><trkpt lat="43.5400063" lon="11.2585309"><ele>344.6</ele><time>2026-05-02T14:15:24.972Z</time></trkpt><trkpt lat="43.5399004" lon="11.2585463"><ele>347.0</ele><time>2026-05-02T14:15:26.972Z</time></trkpt><trkpt lat="43.5397979" lon="11.2585464"><ele>347.0</ele><time>2026-05-02T14:15:28.973Z</time></trkpt><trkpt lat="43.5397097" lon="11.2585589"><ele>347.0</ele><time>2026-05-02T14:15:30.972Z</time></trkpt><trkpt lat="43.5396238" lon="11.2585916"><ele>347.0</ele><time>2026-05-02T14:15:32.972Z</time></trkpt><trkpt lat="43.5395075" lon="11.2586284"><ele>347.0</ele><time>2026-05-02T14:15:34.972Z</time></trkpt><trkpt lat="43.5394429" lon="11.2586552"><ele>347.0</ele><time>2026-05-02T14:15:35.972Z</time></trkpt><trkpt lat="43.5393837" lon="11.2586936"><ele>347.0</ele><time>2026-05-02T14:15:36.972Z</time></trkpt><trkpt lat="43.5393279" lon="11.2587403"><ele>348.33333333333337</ele><time>2026-05-02T14:15:37.973Z</time></trkpt><trkpt lat="43.5392376" lon="11.2588059"><ele>349.6666666666667</ele><time>2026-05-02T14:15:39.973Z</time></trkpt><trkpt lat="43.5391583" lon="11.2588458"><ele>351.0</ele><time>2026-05-02T14:15:41.972Z</time></trkpt><trkpt lat="43.5390711" lon="11.2588562"><ele>352.3333333333333</ele><time>2026-05-02T14:15:43.972Z</time></trkpt><trkpt lat="43.5389919" lon="11.2588137"><ele>353.66666666666663</ele><time>2026-05-02T14:15:45.972Z</time></trkpt><trkpt lat="43.5389323" lon="11.258783"><ele>355.0</ele><time>2026-05-02T14:15:47.973Z</time></trkpt><trkpt lat="43.5388831" lon="11.2587181"><ele>355.0</ele><time>2026-05-02T14:15:49.972Z</time></trkpt><trkpt lat="43.5388365" lon="11.2585838"><ele>355.0</ele><time>2026-05-02T14:15:51.973Z</time></trkpt><trkpt lat="43.5387633" lon="11.258443"><ele>355.0</ele><time>2026-05-02T14:15:53.972Z</time></trkpt><trkpt lat="43.5386943" lon="11.2583537"><ele>355.0</ele><time>2026-05-02T14:15:54.972Z</time></trkpt><trkpt lat="43.5386112" lon="11.2582615"><ele>355.0</ele><time>2026-05-02T14:15:55.972Z</time></trkpt><trkpt lat="43.5385305" lon="11.2581928"><ele>355.3333333333333</ele><time>2026-05-02T14:15:56.973Z</time></trkpt><trkpt lat="43.5384471" lon="11.2581271"><ele>355.66666666666663</ele><time>2026-05-02T14:15:57.972Z</time></trkpt><trkpt lat="43.5383657" lon="11.2580583"><ele>356.0</ele><time>2026-05-02T14:15:58.973Z</time></trkpt><trkpt lat="43.5382864" lon="11.2580062"><ele>356.3333333333333</ele><time>2026-05-02T14:15:59.972Z</time></trkpt><trkpt lat="43.5382149" lon="11.2579547"><ele>356.6666666666667</ele><time>2026-05-02T14:16:00.973Z</time></trkpt><trkpt lat="43.5381519" lon="11.2578971"><ele>357.0</ele><time>2026-05-02T14:16:01.972Z</time></trkpt><trkpt lat="43.5381002" lon="11.2578285"><ele>357.0</ele><time>2026-05-02T14:16:02.972Z</time></trkpt><trkpt lat="43.5380478" lon="11.2577572"><ele>357.0</ele><time>2026-05-02T14:16:03.972Z</time></trkpt><trkpt lat="43.5380037" lon="11.2576707"><ele>357.0</ele><time>2026-05-02T14:16:04.972Z</time></trkpt><trkpt lat="43.537963" lon="11.257587"><ele>357.0</ele><time>2026-05-02T14:16:05.972Z</time></trkpt><trkpt lat="43.5378885" lon="11.2574408"><ele>357.0</ele><time>2026-05-02T14:16:07.972Z</time></trkpt><trkpt lat="43.5378456" lon="11.2573569"><ele>357.0</ele><time>2026-05-02T14:16:08.973Z</time></trkpt><trkpt lat="43.5378132" lon="11.257276"><ele>359.14285714285717</ele><time>2026-05-02T14:16:09.972Z</time></trkpt><trkpt lat="43.5377845" lon="11.2571973"><ele>361.2857142857143</ele><time>2026-05-02T14:16:10.972Z</time></trkpt><trkpt lat="43.5377605" lon="11.2571104"><ele>363.42857142857144</ele><time>2026-05-02T14:16:11.972Z</time></trkpt><trkpt lat="43.5377384" lon="11.2570203"><ele>365.57142857142856</ele><time>2026-05-02T14:16:12.973Z</time></trkpt><trkpt lat="43.5377174" lon="11.2569379"><ele>367.7142857142857</ele><time>2026-05-02T14:16:13.972Z</time></trkpt><trkpt lat="43.5376959" lon="11.2568515"><ele>369.8571428571429</ele><time>2026-05-02T14:16:14.972Z</time></trkpt><trkpt lat="43.5376752" lon="11.2567647"><ele>372.0</ele><time>2026-05-02T14:16:15.972Z</time></trkpt><trkpt lat="43.5376617" lon="11.256677"><ele>372.0</ele><time>2026-05-02T14:16:16.972Z</time></trkpt><trkpt lat="43.5376545" lon="11.2565893"><ele>372.0</ele><time>2026-05-02T14:16:17.972Z</time></trkpt><trkpt lat="43.5376505" lon="11.2564972"><ele>372.0</ele><time>2026-05-02T14:16:18.972Z</time></trkpt><trkpt lat="43.5376371" lon="11.2563358"><ele>372.0</ele><time>2026-05-02T14:16:20.972Z</time></trkpt><trkpt lat="43.5376017" lon="11.256205"><ele>372.0</ele><time>2026-05-02T14:16:22.972Z</time></trkpt><trkpt lat="43.5375197" lon="11.2560955"><ele>370.8333333333333</ele><time>2026-05-02T14:16:24.972Z</time></trkpt><trkpt lat="43.5374514" lon="11.256045"><ele>369.6666666666667</ele><time>2026-05-02T14:16:25.972Z</time></trkpt><trkpt lat="43.5373884" lon="11.2559923"><ele>368.5</ele><time>2026-05-02T14:16:26.972Z</time></trkpt><trkpt lat="43.5373272" lon="11.2559527"><ele>367.33333333333337</ele><time>2026-05-02T14:16:27.972Z</time></trkpt><trkpt lat="43.5372046" lon="11.2559035"><ele>366.1666666666667</ele><time>2026-05-02T14:16:29.972Z</time></trkpt><trkpt lat="43.5371482" lon="11.2558628"><ele>365.0</ele><time>2026-05-02T14:16:30.972Z</time></trkpt><trkpt lat="43.5370762" lon="11.2557408"><ele>365.0</ele><time>2026-05-02T14:16:32.972Z</time></trkpt><trkpt lat="43.5370611" lon="11.2556512"><ele>365.0</ele><time>2026-05-02T14:16:33.972Z</time></trkpt><trkpt lat="43.5370626" lon="11.2555627"><ele>365.0</ele><time>2026-05-02T14:16:34.972Z</time></trkpt><trkpt lat="43.5370602" lon="11.2554611"><ele>365.0</ele><time>2026-05-02T14:16:35.973Z</time></trkpt><trkpt lat="43.5370493" lon="11.255358"><ele>365.0</ele><time>2026-05-02T14:16:36.972Z</time></trkpt><trkpt lat="43.5370374" lon="11.2552484"><ele>365.0</ele><time>2026-05-02T14:16:37.972Z</time></trkpt><trkpt lat="43.5370076" lon="11.2550917"><ele>367.4</ele><time>2026-05-02T14:16:39.973Z</time></trkpt><trkpt lat="43.5369485" lon="11.254946"><ele>369.8</ele><time>2026-05-02T14:16:41.972Z</time></trkpt><trkpt lat="43.5368995" lon="11.2548271"><ele>372.20000000000005</ele><time>2026-05-02T14:16:43.972Z</time></trkpt><trkpt lat="43.5368919" lon="11.2546696"><ele>374.6</ele><time>2026-05-02T14:16:45.972Z</time></trkpt><trkpt lat="43.5368924" lon="11.2545753"><ele>377.0</ele><time>2026-05-02T14:16:46.972Z</time></trkpt><trkpt lat="43.5368935" lon="11.2544743"><ele>377.0</ele><time>2026-05-02T14:16:47.972Z</time></trkpt><trkpt lat="43.5368986" lon="11.2543609"><ele>377.0</ele><time>2026-05-02T14:16:48.973Z</time></trkpt><trkpt lat="43.5369071" lon="11.2542634"><ele>377.0</ele><time>2026-05-02T14:16:49.972Z</time></trkpt><trkpt lat="43.5368963" lon="11.2541145"><ele>377.0</ele><time>2026-05-02T14:16:51.972Z</time></trkpt><trkpt lat="43.5368284" lon="11.2539796"><ele>377.0</ele><time>2026-05-02T14:16:53.972Z</time></trkpt><trkpt lat="43.536782" lon="11.253895"><ele>375.6</ele><time>2026-05-02T14:16:54.973Z</time></trkpt><trkpt lat="43.5367333" lon="11.2538337"><ele>374.20000000000005</ele><time>2026-05-02T14:16:55.972Z</time></trkpt><trkpt lat="43.5366876" lon="11.2537689"><ele>372.8</ele><time>2026-05-02T14:16:56.972Z</time></trkpt><trkpt lat="43.5366492" lon="11.2536988"><ele>371.4</ele><time>2026-05-02T14:16:57.972Z</time></trkpt><trkpt lat="43.5365684" lon="11.2535616"><ele>370.0</ele><time>2026-05-02T14:16:59.972Z</time></trkpt><trkpt lat="43.5364631" lon="11.2534516"><ele>369.99999999999994</ele><time>2026-05-02T14:17:01.972Z</time></trkpt><trkpt lat="43.5364009" lon="11.2534169"><ele>370.0</ele><time>2026-05-02T14:17:02.972Z</time></trkpt><trkpt lat="43.5363333" lon="11.2533989"><ele>370.0</ele><time>2026-05-02T14:17:03.972Z</time></trkpt><trkpt lat="43.5362706" lon="11.2533812"><ele>370.0</ele><time>2026-05-02T14:17:04.972Z</time></trkpt><trkpt lat="43.536205" lon="11.2533409"><ele>370.0</ele><time>2026-05-02T14:17:05.972Z</time></trkpt><trkpt lat="43.5361297" lon="11.2533005"><ele>369.99999999999994</ele><time>2026-05-02T14:17:06.972Z</time></trkpt><trkpt lat="43.5360556" lon="11.2532766"><ele>370.0</ele><time>2026-05-02T14:17:07.972Z</time></trkpt><trkpt lat="43.5359858" lon="11.2532395"><ele>370.5</ele><time>2026-05-02T14:17:08.972Z</time></trkpt><trkpt lat="43.5359092" lon="11.2531969"><ele>371.0</ele><time>2026-05-02T14:17:09.972Z</time></trkpt><trkpt lat="43.5358236" lon="11.2531776"><ele>371.5</ele><time>2026-05-02T14:17:10.972Z</time></trkpt><trkpt lat="43.5357366" lon="11.2531487"><ele>372.0</ele><time>2026-05-02T14:17:11.972Z</time></trkpt><trkpt lat="43.5356505" lon="11.2531276"><ele>372.5</ele><time>2026-05-02T14:17:12.973Z</time></trkpt><trkpt lat="43.5355731" lon="11.253104"><ele>373.0</ele><time>2026-05-02T14:17:13.972Z</time></trkpt><trkpt lat="43.5354927" lon="11.2530828"><ele>373.0</ele><time>2026-05-02T14:17:14.972Z</time></trkpt><trkpt lat="43.53542" lon="11.2530617"><ele>373.0</ele><time>2026-05-02T14:17:15.972Z</time></trkpt><trkpt lat="43.5353459" lon="11.2530398"><ele>373.0</ele><time>2026-05-02T14:17:16.973Z</time></trkpt><trkpt lat="43.5352709" lon="11.2530146"><ele>373.0</ele><time>2026-05-02T14:17:17.973Z</time></trkpt><trkpt lat="43.5352036" lon="11.2529837"><ele>373.0</ele><time>2026-05-02T14:17:18.972Z</time></trkpt><trkpt lat="43.5351452" lon="11.2529483"><ele>373.0</ele><time>2026-05-02T14:17:19.972Z</time></trkpt><trkpt lat="43.5350851" lon="11.2529102"><ele>373.0</ele><time>2026-05-02T14:17:20.972Z</time></trkpt><trkpt lat="43.5349709" lon="11.2528602"><ele>375.0</ele><time>2026-05-02T14:17:22.973Z</time></trkpt><trkpt lat="43.5349018" lon="11.2528502"><ele>377.0</ele><time>2026-05-02T14:17:23.972Z</time></trkpt><trkpt lat="43.5348299" lon="11.2528447"><ele>379.0</ele><time>2026-05-02T14:17:24.972Z</time></trkpt><trkpt lat="43.5347566" lon="11.2528261"><ele>381.0</ele><time>2026-05-02T14:17:25.972Z</time></trkpt><trkpt lat="43.5346867" lon="11.2527882"><ele>383.0</ele><time>2026-05-02T14:17:26.972Z</time></trkpt><trkpt lat="43.5346334" lon="11.2527418"><ele>385.0</ele><time>2026-05-02T14:17:27.972Z</time></trkpt><trkpt lat="43.5345832" lon="11.25267"><ele>387.0</ele><time>2026-05-02T14:17:28.972Z</time></trkpt><trkpt lat="43.5345331" lon="11.2525913"><ele>388.5</ele><time>2026-05-02T14:17:29.972Z</time></trkpt><trkpt lat="43.5344879" lon="11.2525171"><ele>390.0</ele><time>2026-05-02T14:17:30.972Z</time></trkpt><trkpt lat="43.5344451" lon="11.2524157"><ele>391.5</ele><time>2026-05-02T14:17:31.972Z</time></trkpt><trkpt lat="43.5343962" lon="11.2523308"><ele>393.0</ele><time>2026-05-02T14:17:32.972Z</time></trkpt><trkpt lat="43.5343637" lon="11.2522373"><ele>394.5</ele><time>2026-05-02T14:17:33.973Z</time></trkpt><trkpt lat="43.5343352" lon="11.2521456"><ele>396.0</ele><time>2026-05-02T14:17:34.972Z</time></trkpt><trkpt lat="43.5342955" lon="11.2519832"><ele>396.0</ele><time>2026-05-02T14:17:36.972Z</time></trkpt><trkpt lat="43.5342624" lon="11.2518506"><ele>396.0</ele><time>2026-05-02T14:17:38.972Z</time></trkpt><trkpt lat="43.5342466" lon="11.2516813"><ele>396.0</ele><time>2026-05-02T14:17:40.973Z</time></trkpt><trkpt lat="43.5342344" lon="11.251585"><ele>396.0</ele><time>2026-05-02T14:17:41.972Z</time></trkpt><trkpt lat="43.5342219" lon="11.2514875"><ele>396.0</ele><time>2026-05-02T14:17:42.973Z</time></trkpt><trkpt lat="43.5342133" lon="11.2513935"><ele>396.0</ele><time>2026-05-02T14:17:43.972Z</time></trkpt><trkpt lat="43.5341972" lon="11.2512255"><ele>395.6</ele><time>2026-05-02T14:17:45.972Z</time></trkpt><trkpt lat="43.5341858" lon="11.2511326"><ele>395.20000000000005</ele><time>2026-05-02T14:17:46.972Z</time></trkpt><trkpt lat="43.5341778" lon="11.2509946"><ele>394.79999999999995</ele><time>2026-05-02T14:17:48.973Z</time></trkpt><trkpt lat="43.5341583" lon="11.2508492"><ele>394.4</ele><time>2026-05-02T14:17:50.972Z</time></trkpt><trkpt lat="43.5341464" lon="11.2507638"><ele>394.0</ele><time>2026-05-02T14:17:51.972Z</time></trkpt><trkpt lat="43.5341209" lon="11.2506"><ele>393.83333333333337</ele><time>2026-05-02T14:17:53.972Z</time></trkpt><trkpt lat="43.5341104" lon="11.2505109"><ele>393.6666666666667</ele><time>2026-05-02T14:17:54.973Z</time></trkpt><trkpt lat="43.5340954" lon="11.2503393"><ele>393.5</ele><time>2026-05-02T14:17:56.972Z</time></trkpt><trkpt lat="43.5340896" lon="11.2502437"><ele>393.33333333333337</ele><time>2026-05-02T14:17:57.972Z</time></trkpt><trkpt lat="43.5340868" lon="11.2501428"><ele>393.1666666666667</ele><time>2026-05-02T14:17:58.972Z</time></trkpt><trkpt lat="43.5340903" lon="11.2500511"><ele>393.0</ele><time>2026-05-02T14:17:59.972Z</time></trkpt><trkpt lat="43.5341035" lon="11.2499034"><ele>393.00000000000006</ele><time>2026-05-02T14:18:01.972Z</time></trkpt><trkpt lat="43.5341147" lon="11.2498081"><ele>393.0</ele><time>2026-05-02T14:18:03.972Z</time></trkpt><trkpt lat="43.5341192" lon="11.2497102"><ele>393.0</ele><time>2026-05-02T14:18:06.972Z</time></trkpt><trkpt lat="43.5341438" lon="11.2496059"><ele>393.0</ele><time>2026-05-02T14:18:08.972Z</time></trkpt><trkpt lat="43.5341685" lon="11.2495232"><ele>393.0</ele><time>2026-05-02T14:18:09.972Z</time></trkpt><trkpt lat="43.5341871" lon="11.2494263"><ele>393.00000000000006</ele><time>2026-05-02T14:18:10.972Z</time></trkpt><trkpt lat="43.5342053" lon="11.2493202"><ele>393.0</ele><time>2026-05-02T14:18:11.972Z</time></trkpt><trkpt lat="43.5342257" lon="11.2492061"><ele>394.2</ele><time>2026-05-02T14:18:12.972Z</time></trkpt><trkpt lat="43.5342431" lon="11.2490689"><ele>395.4</ele><time>2026-05-02T14:18:13.972Z</time></trkpt><trkpt lat="43.5342703" lon="11.2489322"><ele>396.59999999999997</ele><time>2026-05-02T14:18:14.972Z</time></trkpt><trkpt lat="43.5342944" lon="11.2488156"><ele>397.79999999999995</ele><time>2026-05-02T14:18:15.972Z</time></trkpt><trkpt lat="43.5343191" lon="11.2487001"><ele>399.0</ele><time>2026-05-02T14:18:16.972Z</time></trkpt><trkpt lat="43.5343503" lon="11.2485847"><ele>400.2</ele><time>2026-05-02T14:18:17.972Z</time></trkpt><trkpt lat="43.5343864" lon="11.2484661"><ele>401.4</ele><time>2026-05-02T14:18:18.973Z</time></trkpt><trkpt lat="43.5344251" lon="11.2483522"><ele>402.6</ele><time>2026-05-02T14:18:19.972Z</time></trkpt><trkpt lat="43.5344575" lon="11.2482435"><ele>403.8</ele><time>2026-05-02T14:18:20.973Z</time></trkpt><trkpt lat="43.534504" lon="11.2481245"><ele>405.0</ele><time>2026-05-02T14:18:21.973Z</time></trkpt><trkpt lat="43.5345487" lon="11.2480204"><ele>406.0</ele><time>2026-05-02T14:18:22.972Z</time></trkpt><trkpt lat="43.5346043" lon="11.2479337"><ele>407.0</ele><time>2026-05-02T14:18:23.972Z</time></trkpt><trkpt lat="43.5346681" lon="11.2478613"><ele>408.0</ele><time>2026-05-02T14:18:24.972Z</time></trkpt><trkpt lat="43.5347339" lon="11.247808"><ele>409.0</ele><time>2026-05-02T14:18:25.972Z</time></trkpt><trkpt lat="43.5348013" lon="11.2477574"><ele>410.0</ele><time>2026-05-02T14:18:26.972Z</time></trkpt><trkpt lat="43.5348555" lon="11.2477034"><ele>411.0</ele><time>2026-05-02T14:18:27.972Z</time></trkpt><trkpt lat="43.5349196" lon="11.2475503"><ele>411.0</ele><time>2026-05-02T14:18:29.972Z</time></trkpt><trkpt lat="43.5349034" lon="11.2474489"><ele>411.0</ele><time>2026-05-02T14:18:30.972Z</time></trkpt><trkpt lat="43.5348788" lon="11.2473399"><ele>411.0</ele><time>2026-05-02T14:18:31.972Z</time></trkpt><trkpt lat="43.5348563" lon="11.2472179"><ele>411.0</ele><time>2026-05-02T14:18:32.972Z</time></trkpt><trkpt lat="43.5348416" lon="11.2470965"><ele>411.0</ele><time>2026-05-02T14:18:33.973Z</time></trkpt><trkpt lat="43.5348568" lon="11.246983"><ele>411.0</ele><time>2026-05-02T14:18:34.972Z</time></trkpt><trkpt lat="43.5348797" lon="11.2468699"><ele>411.20000000000005</ele><time>2026-05-02T14:18:35.973Z</time></trkpt><trkpt lat="43.5349056" lon="11.2467482"><ele>411.40000000000003</ele><time>2026-05-02T14:18:36.972Z</time></trkpt><trkpt lat="43.5349351" lon="11.2466268"><ele>411.6</ele><time>2026-05-02T14:18:37.972Z</time></trkpt><trkpt lat="43.5349735" lon="11.2465001"><ele>411.8</ele><time>2026-05-02T14:18:38.972Z</time></trkpt><trkpt lat="43.5350153" lon="11.2463685"><ele>412.0</ele><time>2026-05-02T14:18:39.972Z</time></trkpt><trkpt lat="43.5350615" lon="11.2462324"><ele>412.0</ele><time>2026-05-02T14:18:40.972Z</time></trkpt><trkpt lat="43.5351096" lon="11.2460877"><ele>412.0</ele><time>2026-05-02T14:18:41.973Z</time></trkpt><trkpt lat="43.535155" lon="11.2459626"><ele>412.0</ele><time>2026-05-02T14:18:42.972Z</time></trkpt><trkpt lat="43.5352006" lon="11.2458318"><ele>412.0</ele><time>2026-05-02T14:18:43.972Z</time></trkpt><trkpt lat="43.5352407" lon="11.2457084"><ele>412.0</ele><time>2026-05-02T14:18:44.972Z</time></trkpt><trkpt lat="43.5352796" lon="11.2455887"><ele>412.00000000000006</ele><time>2026-05-02T14:18:45.972Z</time></trkpt><trkpt lat="43.5353181" lon="11.2454838"><ele>412.0</ele><time>2026-05-02T14:18:46.972Z</time></trkpt><trkpt lat="43.535353" lon="11.2453838"><ele>412.0</ele><time>2026-05-02T14:18:47.973Z</time></trkpt><trkpt lat="43.5353895" lon="11.2452794"><ele>412.0</ele><time>2026-05-02T14:18:48.972Z</time></trkpt><trkpt lat="43.5354207" lon="11.245183"><ele>412.00000000000006</ele><time>2026-05-02T14:18:49.972Z</time></trkpt><trkpt lat="43.5354506" lon="11.2450934"><ele>412.0</ele><time>2026-05-02T14:18:50.972Z</time></trkpt><trkpt lat="43.5354902" lon="11.2449398"><ele>412.20000000000005</ele><time>2026-05-02T14:18:52.972Z</time></trkpt><trkpt lat="43.5354865" lon="11.2447955"><ele>412.4</ele><time>2026-05-02T14:18:54.971Z</time></trkpt><trkpt lat="43.535415" lon="11.2446591"><ele>412.6</ele><time>2026-05-02T14:18:56.971Z</time></trkpt><trkpt lat="43.5353682" lon="11.2445977"><ele>412.79999999999995</ele><time>2026-05-02T14:18:57.972Z</time></trkpt><trkpt lat="43.5352813" lon="11.2444934"><ele>413.0</ele><time>2026-05-02T14:18:59.971Z</time></trkpt><trkpt lat="43.5352393" lon="11.2443846"><ele>412.4</ele><time>2026-05-02T14:19:01.971Z</time></trkpt><trkpt lat="43.5352462" lon="11.244256"><ele>411.79999999999995</ele><time>2026-05-02T14:19:03.971Z</time></trkpt><trkpt lat="43.5352994" lon="11.2440804"><ele>411.2</ele><time>2026-05-02T14:19:05.971Z</time></trkpt><trkpt lat="43.5353347" lon="11.2439692"><ele>410.6</ele><time>2026-05-02T14:19:06.971Z</time></trkpt><trkpt lat="43.5353707" lon="11.2438446"><ele>410.0</ele><time>2026-05-02T14:19:07.971Z</time></trkpt><trkpt lat="43.5354172" lon="11.2437133"><ele>410.0</ele><time>2026-05-02T14:19:08.971Z</time></trkpt><trkpt lat="43.53547" lon="11.2435698"><ele>410.0</ele><time>2026-05-02T14:19:09.971Z</time></trkpt><trkpt lat="43.5355197" lon="11.2434294"><ele>410.0</ele><time>2026-05-02T14:19:10.971Z</time></trkpt><trkpt lat="43.535564" lon="11.2432956"><ele>410.0</ele><time>2026-05-02T14:19:11.972Z</time></trkpt><trkpt lat="43.5356066" lon="11.243167"><ele>410.0</ele><time>2026-05-02T14:19:12.971Z</time></trkpt><trkpt lat="43.5356507" lon="11.2430357"><ele>409.6</ele><time>2026-05-02T14:19:13.971Z</time></trkpt><trkpt lat="43.5356939" lon="11.2429042"><ele>409.2</ele><time>2026-05-02T14:19:14.972Z</time></trkpt><trkpt lat="43.5357348" lon="11.2427876"><ele>408.79999999999995</ele><time>2026-05-02T14:19:15.972Z</time></trkpt><trkpt lat="43.5357772" lon="11.2426922"><ele>408.4</ele><time>2026-05-02T14:19:16.971Z</time></trkpt><trkpt lat="43.5358274" lon="11.242587"><ele>408.0</ele><time>2026-05-02T14:19:17.971Z</time></trkpt><trkpt lat="43.535878" lon="11.2424876"><ele>408.0</ele><time>2026-05-02T14:19:18.972Z</time></trkpt><trkpt lat="43.5359316" lon="11.2423812"><ele>408.0</ele><time>2026-05-02T14:19:19.972Z</time></trkpt><trkpt lat="43.5359895" lon="11.242275"><ele>408.0</ele><time>2026-05-02T14:19:20.972Z</time></trkpt><trkpt lat="43.536052" lon="11.2421704"><ele>408.0</ele><time>2026-05-02T14:19:21.971Z</time></trkpt><trkpt lat="43.5361183" lon="11.2420597"><ele>408.0</ele><time>2026-05-02T14:19:22.972Z</time></trkpt><trkpt lat="43.5361926" lon="11.2419467"><ele>406.59999999999997</ele><time>2026-05-02T14:19:23.971Z</time></trkpt><trkpt lat="43.5362667" lon="11.2418359"><ele>405.2</ele><time>2026-05-02T14:19:24.971Z</time></trkpt><trkpt lat="43.5363341" lon="11.2417326"><ele>403.8</ele><time>2026-05-02T14:19:25.971Z</time></trkpt><trkpt lat="43.5363985" lon="11.2416354"><ele>402.4</ele><time>2026-05-02T14:19:26.971Z</time></trkpt><trkpt lat="43.5364602" lon="11.2415464"><ele>401.0</ele><time>2026-05-02T14:19:27.972Z</time></trkpt><trkpt lat="43.5365146" lon="11.2414574"><ele>400.66666666666663</ele><time>2026-05-02T14:19:28.971Z</time></trkpt><trkpt lat="43.5365595" lon="11.2413694"><ele>400.3333333333333</ele><time>2026-05-02T14:19:29.971Z</time></trkpt><trkpt lat="43.5366036" lon="11.2412679"><ele>400.0</ele><time>2026-05-02T14:19:30.971Z</time></trkpt><trkpt lat="43.536631" lon="11.2411521"><ele>399.66666666666663</ele><time>2026-05-02T14:19:31.971Z</time></trkpt><trkpt lat="43.5366462" lon="11.2410405"><ele>399.3333333333333</ele><time>2026-05-02T14:19:32.971Z</time></trkpt><trkpt lat="43.5366592" lon="11.2409194"><ele>399.0</ele><time>2026-05-02T14:19:33.972Z</time></trkpt><trkpt lat="43.5366701" lon="11.2407952"><ele>399.0</ele><time>2026-05-02T14:19:34.971Z</time></trkpt><trkpt lat="43.5366795" lon="11.2406635"><ele>399.0</ele><time>2026-05-02T14:19:35.971Z</time></trkpt><trkpt lat="43.5366875" lon="11.2405246"><ele>399.0</ele><time>2026-05-02T14:19:36.971Z</time></trkpt><trkpt lat="43.5366837" lon="11.2403952"><ele>399.0</ele><time>2026-05-02T14:19:37.971Z</time></trkpt><trkpt lat="43.5366639" lon="11.2402616"><ele>399.0</ele><time>2026-05-02T14:19:38.971Z</time></trkpt><trkpt lat="43.5366329" lon="11.2401224"><ele>398.8333333333333</ele><time>2026-05-02T14:19:39.972Z</time></trkpt><trkpt lat="43.5365906" lon="11.2399841"><ele>398.66666666666663</ele><time>2026-05-02T14:19:40.971Z</time></trkpt><trkpt lat="43.5365436" lon="11.2398631"><ele>398.5</ele><time>2026-05-02T14:19:41.972Z</time></trkpt><trkpt lat="43.5364987" lon="11.2397558"><ele>398.3333333333333</ele><time>2026-05-02T14:19:42.971Z</time></trkpt><trkpt lat="43.5364584" lon="11.2396612"><ele>398.16666666666663</ele><time>2026-05-02T14:19:43.971Z</time></trkpt><trkpt lat="43.5364237" lon="11.2395822"><ele>398.0</ele><time>2026-05-02T14:19:44.971Z</time></trkpt><trkpt lat="43.5363711" lon="11.2394713"><ele>397.99999999999994</ele><time>2026-05-02T14:19:46.971Z</time></trkpt><trkpt lat="43.5363298" lon="11.2393809"><ele>398.0</ele><time>2026-05-02T14:20:01.971Z</time></trkpt><trkpt lat="43.536282" lon="11.2392938"><ele>398.0</ele><time>2026-05-02T14:20:03.972Z</time></trkpt><trkpt lat="43.5362198" lon="11.2392311"><ele>398.0</ele><time>2026-05-02T14:20:06.972Z</time></trkpt><trkpt lat="43.5361532" lon="11.2392684"><ele>397.99999999999994</ele><time>2026-05-02T14:20:15.971Z</time></trkpt><trkpt lat="43.5361114" lon="11.239342"><ele>398.0</ele><time>2026-05-02T14:20:16.971Z</time></trkpt><trkpt lat="43.5360643" lon="11.2394356"><ele>397.5</ele><time>2026-05-02T14:20:17.971Z</time></trkpt><trkpt lat="43.536009" lon="11.2395544"><ele>397.0</ele><time>2026-05-02T14:20:18.971Z</time></trkpt><trkpt lat="43.5359359" lon="11.2396898"><ele>396.5</ele><time>2026-05-02T14:20:19.971Z</time></trkpt><trkpt lat="43.5358462" lon="11.2398501"><ele>396.0</ele><time>2026-05-02T14:20:20.971Z</time></trkpt><trkpt lat="43.5357516" lon="11.2400174"><ele>396.0</ele><time>2026-05-02T14:20:21.971Z</time></trkpt><trkpt lat="43.5356495" lon="11.2401876"><ele>396.0</ele><time>2026-05-02T14:20:22.971Z</time></trkpt><trkpt lat="43.5355343" lon="11.2403653"><ele>396.0</ele><time>2026-05-02T14:20:23.971Z</time></trkpt><trkpt lat="43.5354146" lon="11.2405324"><ele>394.0</ele><time>2026-05-02T14:20:24.971Z</time></trkpt><trkpt lat="43.5352805" lon="11.2406849"><ele>392.0</ele><time>2026-05-02T14:20:25.971Z</time></trkpt><trkpt lat="43.5351391" lon="11.2408258"><ele>390.0</ele><time>2026-05-02T14:20:26.971Z</time></trkpt><trkpt lat="43.534994" lon="11.2409627"><ele>390.0</ele><time>2026-05-02T14:20:27.971Z</time></trkpt><trkpt lat="43.5348479" lon="11.2410923"><ele>390.0</ele><time>2026-05-02T14:20:28.971Z</time></trkpt><trkpt lat="43.5347029" lon="11.2412148"><ele>390.0</ele><time>2026-05-02T14:20:29.971Z</time></trkpt><trkpt lat="43.5345548" lon="11.2413239"><ele>389.5</ele><time>2026-05-02T14:20:30.971Z</time></trkpt><trkpt lat="43.5344116" lon="11.2414184"><ele>389.0</ele><time>2026-05-02T14:20:31.971Z</time></trkpt><trkpt lat="43.5342781" lon="11.2414975"><ele>388.5</ele><time>2026-05-02T14:20:32.971Z</time></trkpt><trkpt lat="43.5341488" lon="11.2415698"><ele>388.0</ele><time>2026-05-02T14:20:33.972Z</time></trkpt><trkpt lat="43.5340227" lon="11.2416347"><ele>388.0</ele><time>2026-05-02T14:20:34.971Z</time></trkpt><trkpt lat="43.5338982" lon="11.2416888"><ele>388.0</ele><time>2026-05-02T14:20:35.971Z</time></trkpt><trkpt lat="43.5337779" lon="11.2417364"><ele>388.0</ele><time>2026-05-02T14:20:36.972Z</time></trkpt><trkpt lat="43.5336595" lon="11.241785"><ele>388.0</ele><time>2026-05-02T14:20:37.971Z</time></trkpt><trkpt lat="43.5335369" lon="11.2418337"><ele>387.5</ele><time>2026-05-02T14:20:38.971Z</time></trkpt><trkpt lat="43.5334119" lon="11.2418804"><ele>387.0</ele><time>2026-05-02T14:20:39.971Z</time></trkpt><trkpt lat="43.5332851" lon="11.241925"><ele>386.5</ele><time>2026-05-02T14:20:40.971Z</time></trkpt><trkpt lat="43.5331572" lon="11.2419617"><ele>386.0</ele><time>2026-05-02T14:20:41.971Z</time></trkpt><trkpt lat="43.5330274" lon="11.2419854"><ele>386.0</ele><time>2026-05-02T14:20:42.972Z</time></trkpt><trkpt lat="43.532896" lon="11.2419996"><ele>386.0</ele><time>2026-05-02T14:20:43.971Z</time></trkpt><trkpt lat="43.532768" lon="11.2420091"><ele>386.0</ele><time>2026-05-02T14:20:44.971Z</time></trkpt><trkpt lat="43.5326452" lon="11.2420109"><ele>386.0</ele><time>2026-05-02T14:20:45.972Z</time></trkpt><trkpt lat="43.5325329" lon="11.2420074"><ele>386.4</ele><time>2026-05-02T14:20:46.971Z</time></trkpt><trkpt lat="43.5324273" lon="11.2420012"><ele>386.8</ele><time>2026-05-02T14:20:47.971Z</time></trkpt><trkpt lat="43.5323344" lon="11.2420027"><ele>387.2</ele><time>2026-05-02T14:20:48.971Z</time></trkpt><trkpt lat="43.5322457" lon="11.2420015"><ele>387.59999999999997</ele><time>2026-05-02T14:20:49.972Z</time></trkpt><trkpt lat="43.5321556" lon="11.242002"><ele>388.0</ele><time>2026-05-02T14:20:50.971Z</time></trkpt><trkpt lat="43.5320673" lon="11.2419966"><ele>389.0</ele><time>2026-05-02T14:20:51.971Z</time></trkpt><trkpt lat="43.531972" lon="11.2419784"><ele>390.0</ele><time>2026-05-02T14:20:52.971Z</time></trkpt><trkpt lat="43.5318811" lon="11.2419434"><ele>391.0</ele><time>2026-05-02T14:20:53.971Z</time></trkpt><trkpt lat="43.5317833" lon="11.2418974"><ele>392.0</ele><time>2026-05-02T14:20:54.972Z</time></trkpt><trkpt lat="43.5316828" lon="11.2418312"><ele>393.0</ele><time>2026-05-02T14:20:55.971Z</time></trkpt><trkpt lat="43.5315782" lon="11.2417466"><ele>393.0</ele><time>2026-05-02T14:20:56.972Z</time></trkpt><trkpt lat="43.5314548" lon="11.2416458"><ele>393.0</ele><time>2026-05-02T14:20:57.971Z</time></trkpt><trkpt lat="43.5313067" lon="11.2415329"><ele>393.0</ele><time>2026-05-02T14:20:58.972Z</time></trkpt><trkpt lat="43.5311511" lon="11.2414069"><ele>394.66666666666663</ele><time>2026-05-02T14:20:59.971Z</time></trkpt><trkpt lat="43.5309785" lon="11.2412641"><ele>396.3333333333333</ele><time>2026-05-02T14:21:00.972Z</time></trkpt><trkpt lat="43.530799" lon="11.2411242"><ele>398.0</ele><time>2026-05-02T14:21:01.971Z</time></trkpt><trkpt lat="43.5306183" lon="11.2409891"><ele>398.0</ele><time>2026-05-02T14:21:02.971Z</time></trkpt><trkpt lat="43.5304259" lon="11.2408701"><ele>398.0</ele><time>2026-05-02T14:21:03.971Z</time></trkpt><trkpt lat="43.5302396" lon="11.2407811"><ele>398.0</ele><time>2026-05-02T14:21:04.971Z</time></trkpt><trkpt lat="43.5300525" lon="11.2407094"><ele>398.66666666666663</ele><time>2026-05-02T14:21:05.972Z</time></trkpt><trkpt lat="43.5298591" lon="11.2406436"><ele>399.33333333333337</ele><time>2026-05-02T14:21:06.972Z</time></trkpt><trkpt lat="43.529656" lon="11.2405931"><ele>400.0</ele><time>2026-05-02T14:21:07.971Z</time></trkpt><trkpt lat="43.5294391" lon="11.2405305"><ele>396.0</ele><time>2026-05-02T14:21:08.971Z</time></trkpt><trkpt lat="43.5292239" lon="11.2404415"><ele>392.0</ele><time>2026-05-02T14:21:09.971Z</time></trkpt><trkpt lat="43.5290133" lon="11.2403218"><ele>392.0</ele><time>2026-05-02T14:21:10.971Z</time></trkpt><trkpt lat="43.5287972" lon="11.2401796"><ele>392.0</ele><time>2026-05-02T14:21:11.971Z</time></trkpt><trkpt lat="43.5285859" lon="11.2400307"><ele>395.0</ele><time>2026-05-02T14:21:12.971Z</time></trkpt><trkpt lat="43.5283668" lon="11.2398799"><ele>398.0</ele><time>2026-05-02T14:21:13.971Z</time></trkpt><trkpt lat="43.5281669" lon="11.239736"><ele>399.0</ele><time>2026-05-02T14:21:14.972Z</time></trkpt><trkpt lat="43.5279756" lon="11.2396017"><ele>400.0</ele><time>2026-05-02T14:21:15.971Z</time></trkpt><trkpt lat="43.5277832" lon="11.239478"><ele>401.0</ele><time>2026-05-02T14:21:16.971Z</time></trkpt><trkpt lat="43.5275973" lon="11.2393532"><ele>401.0</ele><time>2026-05-02T14:21:17.971Z</time></trkpt><trkpt lat="43.5274053" lon="11.2392397"><ele>401.0</ele><time>2026-05-02T14:21:18.971Z</time></trkpt><trkpt lat="43.5271973" lon="11.239144"><ele>401.0</ele><time>2026-05-02T14:21:19.972Z</time></trkpt><trkpt lat="43.5269654" lon="11.2390578"><ele>401.3333333333333</ele><time>2026-05-02T14:21:20.971Z</time></trkpt><trkpt lat="43.5267524" lon="11.2389805"><ele>401.66666666666663</ele><time>2026-05-02T14:21:21.971Z</time></trkpt><trkpt lat="43.5265514" lon="11.2389059"><ele>402.0</ele><time>2026-05-02T14:21:22.971Z</time></trkpt><trkpt lat="43.5263579" lon="11.2388203"><ele>403.33333333333337</ele><time>2026-05-02T14:21:23.972Z</time></trkpt><trkpt lat="43.5261715" lon="11.2387329"><ele>404.6666666666667</ele><time>2026-05-02T14:21:24.971Z</time></trkpt><trkpt lat="43.5259768" lon="11.238641"><ele>406.0</ele><time>2026-05-02T14:21:25.971Z</time></trkpt><trkpt lat="43.5257827" lon="11.2385483"><ele>406.0</ele><time>2026-05-02T14:21:26.971Z</time></trkpt><trkpt lat="43.5256205" lon="11.2384764"><ele>406.0</ele><time>2026-05-02T14:21:27.971Z</time></trkpt><trkpt lat="43.5254637" lon="11.2384053"><ele>406.0</ele><time>2026-05-02T14:21:28.971Z</time></trkpt><trkpt lat="43.5253097" lon="11.2383399"><ele>406.0</ele><time>2026-05-02T14:21:29.971Z</time></trkpt><trkpt lat="43.5251536" lon="11.2383117"><ele>406.0</ele><time>2026-05-02T14:21:30.971Z</time></trkpt><trkpt lat="43.5249977" lon="11.2383321"><ele>406.0</ele><time>2026-05-02T14:21:31.971Z</time></trkpt><trkpt lat="43.5248516" lon="11.2384145"><ele>406.0</ele><time>2026-05-02T14:21:32.972Z</time></trkpt><trkpt lat="43.5247059" lon="11.2385578"><ele>406.0</ele><time>2026-05-02T14:21:33.971Z</time></trkpt><trkpt lat="43.5245808" lon="11.2387235"><ele>406.0</ele><time>2026-05-02T14:21:34.971Z</time></trkpt><trkpt lat="43.5244684" lon="11.2388799"><ele>407.33333333333337</ele><time>2026-05-02T14:21:35.971Z</time></trkpt><trkpt lat="43.5243778" lon="11.2390789"><ele>408.66666666666663</ele><time>2026-05-02T14:21:36.971Z</time></trkpt><trkpt lat="43.5243014" lon="11.2393158"><ele>410.0</ele><time>2026-05-02T14:21:37.972Z</time></trkpt><trkpt lat="43.5242006" lon="11.2395573"><ele>410.0</ele><time>2026-05-02T14:21:38.972Z</time></trkpt><trkpt lat="43.5240816" lon="11.2397803"><ele>410.0</ele><time>2026-05-02T14:21:39.971Z</time></trkpt><trkpt lat="43.5239738" lon="11.2399728"><ele>410.0</ele><time>2026-05-02T14:21:40.971Z</time></trkpt><trkpt lat="43.523871" lon="11.2401394"><ele>411.0</ele><time>2026-05-02T14:21:41.971Z</time></trkpt><trkpt lat="43.5237851" lon="11.2402875"><ele>412.0</ele><time>2026-05-02T14:21:42.971Z</time></trkpt><trkpt lat="43.5236683" lon="11.2404194"><ele>413.0</ele><time>2026-05-02T14:21:43.971Z</time></trkpt><trkpt lat="43.5235415" lon="11.2405351"><ele>414.0</ele><time>2026-05-02T14:21:44.972Z</time></trkpt><trkpt lat="43.5233942" lon="11.2406399"><ele>415.33333333333337</ele><time>2026-05-02T14:21:45.971Z</time></trkpt><trkpt lat="43.5232407" lon="11.2407271"><ele>416.6666666666667</ele><time>2026-05-02T14:21:46.971Z</time></trkpt><trkpt lat="43.5230952" lon="11.2408118"><ele>418.0</ele><time>2026-05-02T14:21:47.971Z</time></trkpt><trkpt lat="43.5229488" lon="11.24088"><ele>417.6666666666667</ele><time>2026-05-02T14:21:48.971Z</time></trkpt><trkpt lat="43.5228022" lon="11.241008"><ele>417.33333333333337</ele><time>2026-05-02T14:21:49.971Z</time></trkpt><trkpt lat="43.5226481" lon="11.2411883"><ele>417.0</ele><time>2026-05-02T14:21:50.971Z</time></trkpt><trkpt lat="43.5224975" lon="11.2413859"><ele>417.66666666666663</ele><time>2026-05-02T14:21:51.971Z</time></trkpt><trkpt lat="43.522358" lon="11.2416032"><ele>418.3333333333333</ele><time>2026-05-02T14:21:52.971Z</time></trkpt><trkpt lat="43.5222317" lon="11.2418541"><ele>419.0</ele><time>2026-05-02T14:21:53.971Z</time></trkpt><trkpt lat="43.5221262" lon="11.242112"><ele>421.3333333333333</ele><time>2026-05-02T14:21:54.971Z</time></trkpt><trkpt lat="43.5220422" lon="11.2423785"><ele>423.66666666666663</ele><time>2026-05-02T14:21:55.971Z</time></trkpt><trkpt lat="43.521977" lon="11.2426369"><ele>426.0</ele><time>2026-05-02T14:21:56.971Z</time></trkpt><trkpt lat="43.5219175" lon="11.2428865"><ele>426.0</ele><time>2026-05-02T14:21:57.971Z</time></trkpt><trkpt lat="43.5218608" lon="11.2431222"><ele>426.0</ele><time>2026-05-02T14:21:58.972Z</time></trkpt><trkpt lat="43.5218062" lon="11.2433572"><ele>426.0</ele><time>2026-05-02T14:21:59.971Z</time></trkpt><trkpt lat="43.5217531" lon="11.2435971"><ele>427.0</ele><time>2026-05-02T14:22:00.971Z</time></trkpt><trkpt lat="43.5217008" lon="11.2438428"><ele>428.0</ele><time>2026-05-02T14:22:01.971Z</time></trkpt><trkpt lat="43.5216472" lon="11.2441007"><ele>429.0</ele><time>2026-05-02T14:22:02.971Z</time></trkpt><trkpt lat="43.5215963" lon="11.244354"><ele>429.0</ele><time>2026-05-02T14:22:03.971Z</time></trkpt><trkpt lat="43.5215457" lon="11.2445832"><ele>429.0</ele><time>2026-05-02T14:22:04.971Z</time></trkpt><trkpt lat="43.5214885" lon="11.2448039"><ele>429.0</ele><time>2026-05-02T14:22:05.971Z</time></trkpt><trkpt lat="43.5214133" lon="11.2450123"><ele>429.33333333333337</ele><time>2026-05-02T14:22:06.971Z</time></trkpt><trkpt lat="43.5213112" lon="11.2452125"><ele>429.6666666666667</ele><time>2026-05-02T14:22:07.972Z</time></trkpt><trkpt lat="43.5211857" lon="11.2453936"><ele>430.0</ele><time>2026-05-02T14:22:08.971Z</time></trkpt><trkpt lat="43.5210188" lon="11.2455486"><ele>429.0</ele><time>2026-05-02T14:22:09.971Z</time></trkpt><trkpt lat="43.5208277" lon="11.2456917"><ele>428.0</ele><time>2026-05-02T14:22:10.971Z</time></trkpt><trkpt lat="43.5206378" lon="11.2458177"><ele>427.0</ele><time>2026-05-02T14:22:11.971Z</time></trkpt><trkpt lat="43.5204635" lon="11.2459274"><ele>426.33333333333337</ele><time>2026-05-02T14:22:12.971Z</time></trkpt><trkpt lat="43.5203037" lon="11.2460301"><ele>425.66666666666663</ele><time>2026-05-02T14:22:13.972Z</time></trkpt><trkpt lat="43.5201385" lon="11.2461401"><ele>425.0</ele><time>2026-05-02T14:22:14.971Z</time></trkpt><trkpt lat="43.5199777" lon="11.2462755"><ele>425.0</ele><time>2026-05-02T14:22:15.971Z</time></trkpt><trkpt lat="43.5198286" lon="11.2464362"><ele>425.0</ele><time>2026-05-02T14:22:16.971Z</time></trkpt><trkpt lat="43.5196829" lon="11.2466037"><ele>425.0</ele><time>2026-05-02T14:22:17.971Z</time></trkpt><trkpt lat="43.5195357" lon="11.2467797"><ele>423.3333333333333</ele><time>2026-05-02T14:22:18.971Z</time></trkpt><trkpt lat="43.5193932" lon="11.2469409"><ele>421.66666666666663</ele><time>2026-05-02T14:22:19.972Z</time></trkpt><trkpt lat="43.5192459" lon="11.2470984"><ele>420.0</ele><time>2026-05-02T14:22:20.971Z</time></trkpt><trkpt lat="43.519091" lon="11.247265"><ele>419.0</ele><time>2026-05-02T14:22:21.971Z</time></trkpt><trkpt lat="43.5189303" lon="11.2474036"><ele>418.0</ele><time>2026-05-02T14:22:22.971Z</time></trkpt><trkpt lat="43.5187648" lon="11.2475471"><ele>417.0</ele><time>2026-05-02T14:22:23.971Z</time></trkpt><trkpt lat="43.5185989" lon="11.2476806"><ele>415.66666666666663</ele><time>2026-05-02T14:22:24.971Z</time></trkpt><trkpt lat="43.51843" lon="11.2477949"><ele>414.3333333333333</ele><time>2026-05-02T14:22:25.971Z</time></trkpt><trkpt lat="43.5182576" lon="11.2478885"><ele>413.0</ele><time>2026-05-02T14:22:26.971Z</time></trkpt><trkpt lat="43.518084" lon="11.2479668"><ele>413.0</ele><time>2026-05-02T14:22:27.971Z</time></trkpt><trkpt lat="43.5179114" lon="11.2480228"><ele>413.0</ele><time>2026-05-02T14:22:28.972Z</time></trkpt><trkpt lat="43.517749" lon="11.2480593"><ele>413.0</ele><time>2026-05-02T14:22:29.971Z</time></trkpt><trkpt lat="43.5175911" lon="11.2480721"><ele>412.25</ele><time>2026-05-02T14:22:30.971Z</time></trkpt><trkpt lat="43.5174419" lon="11.2480691"><ele>411.5</ele><time>2026-05-02T14:22:31.971Z</time></trkpt><trkpt lat="43.5173132" lon="11.2480645"><ele>410.75</ele><time>2026-05-02T14:22:32.971Z</time></trkpt><trkpt lat="43.5172055" lon="11.2480436"><ele>410.0</ele><time>2026-05-02T14:22:33.971Z</time></trkpt><trkpt lat="43.5171056" lon="11.2480193"><ele>411.3333333333333</ele><time>2026-05-02T14:22:34.971Z</time></trkpt><trkpt lat="43.5170298" lon="11.2480085"><ele>412.66666666666663</ele><time>2026-05-02T14:22:35.971Z</time></trkpt><trkpt lat="43.5169422" lon="11.2480575"><ele>414.0</ele><time>2026-05-02T14:22:37.971Z</time></trkpt><trkpt lat="43.5169405" lon="11.2481593"><ele>415.33333333333337</ele><time>2026-05-02T14:22:39.971Z</time></trkpt><trkpt lat="43.5169925" lon="11.2482608"><ele>416.6666666666667</ele><time>2026-05-02T14:22:41.971Z</time></trkpt><trkpt lat="43.5170445" lon="11.2483344"><ele>418.0</ele><time>2026-05-02T14:22:42.971Z</time></trkpt><trkpt lat="43.5171286" lon="11.2484451"><ele>418.2</ele><time>2026-05-02T14:22:44.971Z</time></trkpt><trkpt lat="43.5171553" lon="11.2485511"><ele>418.4</ele><time>2026-05-02T14:22:46.971Z</time></trkpt><trkpt lat="43.517225" lon="11.248685"><ele>418.59999999999997</ele><time>2026-05-02T14:22:48.972Z</time></trkpt><trkpt lat="43.5172443" lon="11.248813"><ele>418.79999999999995</ele><time>2026-05-02T14:22:50.971Z</time></trkpt><trkpt lat="43.5171776" lon="11.2489503"><ele>419.0</ele><time>2026-05-02T14:22:52.971Z</time></trkpt><trkpt lat="43.5170814" lon="11.2490096"><ele>417.0</ele><time>2026-05-02T14:22:53.971Z</time></trkpt><trkpt lat="43.5169926" lon="11.249062"><ele>415.0</ele><time>2026-05-02T14:22:54.971Z</time></trkpt><trkpt lat="43.5169025" lon="11.249093"><ele>413.0</ele><time>2026-05-02T14:22:55.972Z</time></trkpt><trkpt lat="43.5168035" lon="11.2491112"><ele>411.0</ele><time>2026-05-02T14:22:56.971Z</time></trkpt><trkpt lat="43.5167038" lon="11.2491251"><ele>409.0</ele><time>2026-05-02T14:22:57.971Z</time></trkpt><trkpt lat="43.5166076" lon="11.2491565"><ele>409.0</ele><time>2026-05-02T14:22:58.971Z</time></trkpt><trkpt lat="43.5165152" lon="11.2491699"><ele>409.0</ele><time>2026-05-02T14:22:59.971Z</time></trkpt><trkpt lat="43.5164221" lon="11.2491847"><ele>409.0</ele><time>2026-05-02T14:23:00.971Z</time></trkpt><trkpt lat="43.5163323" lon="11.2491745"><ele>409.0</ele><time>2026-05-02T14:23:01.971Z</time></trkpt><trkpt lat="43.5162299" lon="11.2491515"><ele>409.0</ele><time>2026-05-02T14:23:02.971Z</time></trkpt><trkpt lat="43.5161196" lon="11.2491315"><ele>410.0</ele><time>2026-05-02T14:23:03.971Z</time></trkpt><trkpt lat="43.5159937" lon="11.2491102"><ele>411.0</ele><time>2026-05-02T14:23:04.971Z</time></trkpt><trkpt lat="43.5158772" lon="11.249083"><ele>412.0</ele><time>2026-05-02T14:23:05.971Z</time></trkpt><trkpt lat="43.5157684" lon="11.2490222"><ele>413.0</ele><time>2026-05-02T14:23:06.971Z</time></trkpt><trkpt lat="43.5156706" lon="11.2489518"><ele>412.99999999999994</ele><time>2026-05-02T14:23:07.972Z</time></trkpt><trkpt lat="43.5155826" lon="11.2489202"><ele>413.0</ele><time>2026-05-02T14:23:08.971Z</time></trkpt><trkpt lat="43.5155013" lon="11.2489302"><ele>413.0</ele><time>2026-05-02T14:23:09.972Z</time></trkpt><trkpt lat="43.5154389" lon="11.2489692"><ele>413.0</ele><time>2026-05-02T14:23:10.971Z</time></trkpt><trkpt lat="43.5153979" lon="11.2490363"><ele>412.99999999999994</ele><time>2026-05-02T14:23:11.972Z</time></trkpt><trkpt lat="43.5153874" lon="11.2492154"><ele>413.0</ele><time>2026-05-02T14:23:13.972Z</time></trkpt><trkpt lat="43.5154258" lon="11.2493003"><ele>410.59999999999997</ele><time>2026-05-02T14:23:14.971Z</time></trkpt><trkpt lat="43.5154937" lon="11.2493848"><ele>408.2</ele><time>2026-05-02T14:23:15.971Z</time></trkpt><trkpt lat="43.5155813" lon="11.2494688"><ele>405.8</ele><time>2026-05-02T14:23:16.971Z</time></trkpt><trkpt lat="43.5156687" lon="11.2495543"><ele>403.4</ele><time>2026-05-02T14:23:17.971Z</time></trkpt><trkpt lat="43.5157543" lon="11.2496413"><ele>401.0</ele><time>2026-05-02T14:23:18.971Z</time></trkpt><trkpt lat="43.5158398" lon="11.2497177"><ele>400.99999999999994</ele><time>2026-05-02T14:23:19.971Z</time></trkpt><trkpt lat="43.5159212" lon="11.2497804"><ele>401.0</ele><time>2026-05-02T14:23:20.971Z</time></trkpt><trkpt lat="43.5159928" lon="11.2498344"><ele>401.0</ele><time>2026-05-02T14:23:21.971Z</time></trkpt><trkpt lat="43.5160651" lon="11.2499388"><ele>401.0</ele><time>2026-05-02T14:23:23.971Z</time></trkpt><trkpt lat="43.5161041" lon="11.2500116"><ele>400.99999999999994</ele><time>2026-05-02T14:23:25.971Z</time></trkpt><trkpt lat="43.5161685" lon="11.2500885"><ele>401.0</ele><time>2026-05-02T14:23:40.971Z</time></trkpt><trkpt lat="43.5161379" lon="11.2502148"><ele>413.0</ele><time>2026-05-02T14:23:43.971Z</time></trkpt><trkpt lat="43.5155826" lon="11.2489202"><ele>412.99999999999994</ele><time>2026-05-02T14:23:08.971Z</time></trkpt><trkpt lat="43.5155013" lon="11.2489302"><ele>413.0</ele><time>2026-05-02T14:23:09.972Z</time></trkpt><trkpt lat="43.5154389" lon="11.2489692"><ele>413.0</ele><time>2026-05-02T14:23:10.971Z</time></trkpt><trkpt lat="43.5153979" lon="11.2490363"><ele>413.0</ele><time>2026-05-02T14:23:11.972Z</time></trkpt><trkpt lat="43.5153874" lon="11.2492154"><ele>412.99999999999994</ele><time>2026-05-02T14:23:13.972Z</time></trkpt><trkpt lat="43.5154258" lon="11.2493003"><ele>413.0</ele><time>2026-05-02T14:23:14.971Z</time></trkpt><trkpt lat="43.5154937" lon="11.2493848"><ele>410.59999999999997</ele><time>2026-05-02T14:23:15.971Z</time></trkpt><trkpt lat="43.5155813" lon="11.2494688"><ele>408.2</ele><time>2026-05-02T14:23:16.971Z</time></trkpt><trkpt lat="43.5156687" lon="11.2495543"><ele>405.8</ele><time>2026-05-02T14:23:17.971Z</time></trkpt><trkpt lat="43.5157543" lon="11.2496413"><ele>403.4</ele><time>2026-05-02T14:23:18.971Z</time></trkpt><trkpt lat="43.5158398" lon="11.2497177"><ele>401.0</ele><time>2026-05-02T14:23:19.971Z</time></trkpt><trkpt lat="43.5159212" lon="11.2497804"><ele>400.99999999999994</ele><time>2026-05-02T14:23:20.971Z</time></trkpt><trkpt lat="43.5159928" lon="11.2498344"><ele>401.0</ele><time>2026-05-02T14:23:21.971Z</time></trkpt><trkpt lat="43.5160651" lon="11.2499388"><ele>401.0</ele><time>2026-05-02T14:23:23.971Z</time></trkpt><trkpt lat="43.5161041" lon="11.2500116"><ele>401.0</ele><time>2026-05-02T14:23:25.971Z</time></trkpt><trkpt lat="43.5161685" lon="11.2500885"><ele>400.99999999999994</ele><time>2026-05-02T14:23:40.971Z</time></trkpt><trkpt lat="43.5161379" lon="11.2502148"><ele>401.0</ele><time>2026-05-02T14:23:43.971Z</time></trkpt><trkpt lat="43.5160497" lon="11.2502613"><ele>401.0</ele><time>2026-05-02T14:23:45.971Z</time></trkpt><trkpt lat="43.5159752" lon="11.2502852"><ele>401.0</ele><time>2026-05-02T14:23:46.971Z</time></trkpt><trkpt lat="43.5158796" lon="11.250304"><ele>401.0</ele><time>2026-05-02T14:23:47.971Z</time></trkpt><trkpt lat="43.5157689" lon="11.2503318"><ele>401.0</ele><time>2026-05-02T14:23:48.972Z</time></trkpt><trkpt lat="43.515661" lon="11.2503677"><ele>401.0</ele><time>2026-05-02T14:23:49.971Z</time></trkpt><trkpt lat="43.5155606" lon="11.2503976"><ele>400.99999999999994</ele><time>2026-05-02T14:23:50.97Z</time></trkpt><trkpt lat="43.5154748" lon="11.2504225"><ele>401.0</ele><time>2026-05-02T14:23:51.971Z</time></trkpt><trkpt lat="43.515389" lon="11.2504381"><ele>401.0</ele><time>2026-05-02T14:23:52.97Z</time></trkpt><trkpt lat="43.5153113" lon="11.2504296"><ele>401.0</ele><time>2026-05-02T14:23:53.97Z</time></trkpt><trkpt lat="43.5152178" lon="11.2504134"><ele>400.99999999999994</ele><time>2026-05-02T14:23:54.97Z</time></trkpt><trkpt lat="43.5151179" lon="11.2503805"><ele>401.0</ele><time>2026-05-02T14:23:55.97Z</time></trkpt><trkpt lat="43.5150235" lon="11.250346"><ele>402.66666666666663</ele><time>2026-05-02T14:23:56.97Z</time></trkpt><trkpt lat="43.5149454" lon="11.2503162"><ele>404.3333333333333</ele><time>2026-05-02T14:23:57.97Z</time></trkpt><trkpt lat="43.5148731" lon="11.2503037"><ele>406.0</ele><time>2026-05-02T14:23:58.97Z</time></trkpt><trkpt lat="43.5148082" lon="11.2502964"><ele>407.66666666666663</ele><time>2026-05-02T14:23:59.97Z</time></trkpt><trkpt lat="43.5146957" lon="11.2503052"><ele>409.3333333333333</ele><time>2026-05-02T14:24:01.971Z</time></trkpt><trkpt lat="43.5146331" lon="11.2503745"><ele>411.0</ele><time>2026-05-02T14:24:03.97Z</time></trkpt><trkpt lat="43.5146668" lon="11.2505167"><ele>411.0</ele><time>2026-05-02T14:24:05.97Z</time></trkpt><trkpt lat="43.5147187" lon="11.2506157"><ele>411.0</ele><time>2026-05-02T14:24:06.97Z</time></trkpt><trkpt lat="43.5147773" lon="11.2507262"><ele>411.0</ele><time>2026-05-02T14:24:07.97Z</time></trkpt><trkpt lat="43.5148425" lon="11.2508489"><ele>411.0</ele><time>2026-05-02T14:24:08.97Z</time></trkpt><trkpt lat="43.5149128" lon="11.2509833"><ele>411.0</ele><time>2026-05-02T14:24:09.97Z</time></trkpt><trkpt lat="43.5149823" lon="11.2511124"><ele>414.6</ele><time>2026-05-02T14:24:10.97Z</time></trkpt><trkpt lat="43.515041" lon="11.2512395"><ele>418.20000000000005</ele><time>2026-05-02T14:24:11.97Z</time></trkpt><trkpt lat="43.5150974" lon="11.2513537"><ele>421.79999999999995</ele><time>2026-05-02T14:24:12.97Z</time></trkpt><trkpt lat="43.5151476" lon="11.2514637"><ele>425.4</ele><time>2026-05-02T14:24:13.97Z</time></trkpt><trkpt lat="43.5151908" lon="11.2515607"><ele>429.0</ele><time>2026-05-02T14:24:14.97Z</time></trkpt><trkpt lat="43.515228" lon="11.2516466"><ele>431.4</ele><time>2026-05-02T14:24:15.97Z</time></trkpt><trkpt lat="43.5152546" lon="11.2517371"><ele>433.79999999999995</ele><time>2026-05-02T14:24:16.97Z</time></trkpt><trkpt lat="43.5152513" lon="11.2518823"><ele>436.20000000000005</ele><time>2026-05-02T14:24:18.97Z</time></trkpt><trkpt lat="43.5151978" lon="11.2519658"><ele>438.6</ele><time>2026-05-02T14:24:20.97Z</time></trkpt><trkpt lat="43.5150774" lon="11.2519994"><ele>441.0</ele><time>2026-05-02T14:24:22.97Z</time></trkpt><trkpt lat="43.5149828" lon="11.2519829"><ele>441.0</ele><time>2026-05-02T14:24:23.97Z</time></trkpt><trkpt lat="43.5148796" lon="11.2519728"><ele>441.0</ele><time>2026-05-02T14:24:24.97Z</time></trkpt><trkpt lat="43.5147719" lon="11.2519641"><ele>441.0</ele><time>2026-05-02T14:24:25.97Z</time></trkpt><trkpt lat="43.5146622" lon="11.2519631"><ele>441.0</ele><time>2026-05-02T14:24:26.97Z</time></trkpt><trkpt lat="43.5145553" lon="11.2519677"><ele>441.0</ele><time>2026-05-02T14:24:27.97Z</time></trkpt><trkpt lat="43.5144571" lon="11.2519787"><ele>443.1666666666667</ele><time>2026-05-02T14:24:28.97Z</time></trkpt><trkpt lat="43.5143805" lon="11.2520034"><ele>445.33333333333337</ele><time>2026-05-02T14:24:29.97Z</time></trkpt><trkpt lat="43.5142638" lon="11.2520455"><ele>447.5</ele><time>2026-05-02T14:24:31.97Z</time></trkpt><trkpt lat="43.5142013" lon="11.2520653"><ele>449.6666666666667</ele><time>2026-05-02T14:24:32.97Z</time></trkpt><trkpt lat="43.5141324" lon="11.2520926"><ele>451.83333333333337</ele><time>2026-05-02T14:24:33.971Z</time></trkpt><trkpt lat="43.5140586" lon="11.2521203"><ele>454.0</ele><time>2026-05-02T14:24:34.971Z</time></trkpt><trkpt lat="43.5139836" lon="11.2521479"><ele>454.00000000000006</ele><time>2026-05-02T14:24:35.97Z</time></trkpt><trkpt lat="43.5139083" lon="11.2521703"><ele>454.0</ele><time>2026-05-02T14:24:36.971Z</time></trkpt><trkpt lat="43.5138369" lon="11.2521929"><ele>454.0</ele><time>2026-05-02T14:24:37.97Z</time></trkpt><trkpt lat="43.5137709" lon="11.2522131"><ele>454.0</ele><time>2026-05-02T14:24:38.97Z</time></trkpt><trkpt lat="43.5137045" lon="11.2522293"><ele>454.00000000000006</ele><time>2026-05-02T14:24:39.97Z</time></trkpt><trkpt lat="43.513586" lon="11.2522524"><ele>454.0</ele><time>2026-05-02T14:24:41.97Z</time></trkpt><trkpt lat="43.5134919" lon="11.2522343"><ele>455.33333333333337</ele><time>2026-05-02T14:24:43.97Z</time></trkpt><trkpt lat="43.5134008" lon="11.2521948"><ele>456.6666666666667</ele><time>2026-05-02T14:24:45.97Z</time></trkpt><trkpt lat="43.5133029" lon="11.2521749"><ele>458.0</ele><time>2026-05-02T14:24:47.971Z</time></trkpt><trkpt lat="43.513234" lon="11.2521811"><ele>459.33333333333337</ele><time>2026-05-02T14:24:49.97Z</time></trkpt><trkpt lat="43.513166" lon="11.2522259"><ele>460.6666666666667</ele><time>2026-05-02T14:24:51.971Z</time></trkpt><trkpt lat="43.5130828" lon="11.2523128"><ele>462.0</ele><time>2026-05-02T14:24:53.971Z</time></trkpt><trkpt lat="43.5129697" lon="11.2523822"><ele>462.5</ele><time>2026-05-02T14:24:55.971Z</time></trkpt><trkpt lat="43.5129064" lon="11.2524128"><ele>463.0</ele><time>2026-05-02T14:24:56.97Z</time></trkpt><trkpt lat="43.5128344" lon="11.2524442"><ele>463.5</ele><time>2026-05-02T14:24:57.97Z</time></trkpt><trkpt lat="43.512763" lon="11.25248"><ele>464.0</ele><time>2026-05-02T14:24:58.97Z</time></trkpt><trkpt lat="43.5126939" lon="11.2525169"><ele>464.5</ele><time>2026-05-02T14:24:59.97Z</time></trkpt><trkpt lat="43.5126181" lon="11.2525466"><ele>465.0</ele><time>2026-05-02T14:25:00.971Z</time></trkpt><trkpt lat="43.5125409" lon="11.2525808"><ele>466.42857142857144</ele><time>2026-05-02T14:25:01.97Z</time></trkpt><trkpt lat="43.5124707" lon="11.2526157"><ele>467.8571428571429</ele><time>2026-05-02T14:25:02.97Z</time></trkpt><trkpt lat="43.512404" lon="11.252646"><ele>469.28571428571433</ele><time>2026-05-02T14:25:03.971Z</time></trkpt><trkpt lat="43.5123372" lon="11.2526744"><ele>470.7142857142857</ele><time>2026-05-02T14:25:04.971Z</time></trkpt><trkpt lat="43.5122759" lon="11.2527039"><ele>472.1428571428572</ele><time>2026-05-02T14:25:05.97Z</time></trkpt><trkpt lat="43.5122132" lon="11.2527267"><ele>473.5714285714286</ele><time>2026-05-02T14:25:06.97Z</time></trkpt><trkpt lat="43.512148" lon="11.2527589"><ele>475.0</ele><time>2026-05-02T14:25:07.97Z</time></trkpt><trkpt lat="43.5120836" lon="11.2527897"><ele>476.2</ele><time>2026-05-02T14:25:08.97Z</time></trkpt><trkpt lat="43.5119688" lon="11.2528456"><ele>477.4</ele><time>2026-05-02T14:25:10.97Z</time></trkpt><trkpt lat="43.5118642" lon="11.2528784"><ele>478.6</ele><time>2026-05-02T14:25:12.97Z</time></trkpt><trkpt lat="43.5117637" lon="11.2529111"><ele>479.8</ele><time>2026-05-02T14:25:14.97Z</time></trkpt><trkpt lat="43.5116648" lon="11.2529565"><ele>481.0</ele><time>2026-05-02T14:25:16.97Z</time></trkpt><trkpt lat="43.5115501" lon="11.2530042"><ele>481.0</ele><time>2026-05-02T14:25:18.97Z</time></trkpt><trkpt lat="43.5114374" lon="11.2530508"><ele>481.0</ele><time>2026-05-02T14:25:20.97Z</time></trkpt><trkpt lat="43.5113359" lon="11.2531011"><ele>481.0</ele><time>2026-05-02T14:25:22.97Z</time></trkpt><trkpt lat="43.5112258" lon="11.2531455"><ele>481.0</ele><time>2026-05-02T14:25:24.97Z</time></trkpt><trkpt lat="43.5111168" lon="11.2531881"><ele>479.6</ele><time>2026-05-02T14:25:26.97Z</time></trkpt><trkpt lat="43.5110303" lon="11.2532259"><ele>478.20000000000005</ele><time>2026-05-02T14:25:28.97Z</time></trkpt><trkpt lat="43.5109271" lon="11.2532673"><ele>476.79999999999995</ele><time>2026-05-02T14:25:30.971Z</time></trkpt><trkpt lat="43.5108288" lon="11.2533103"><ele>475.4</ele><time>2026-05-02T14:25:32.971Z</time></trkpt><trkpt lat="43.5107221" lon="11.2533368"><ele>474.0</ele><time>2026-05-02T14:25:34.97Z</time></trkpt><trkpt lat="43.5106337" lon="11.2533755"><ele>474.0</ele><time>2026-05-02T14:25:36.97Z</time></trkpt><trkpt lat="43.5105585" lon="11.2534189"><ele>474.0</ele><time>2026-05-02T14:25:38.97Z</time></trkpt><trkpt lat="43.5104974" lon="11.2534523"><ele>474.0</ele><time>2026-05-02T14:25:40.971Z</time></trkpt><trkpt lat="43.510432" lon="11.2534757"><ele>474.0</ele><time>2026-05-02T14:25:42.971Z</time></trkpt><trkpt lat="43.510321" lon="11.2534823"><ele>474.0</ele><time>2026-05-02T14:25:44.97Z</time></trkpt><trkpt lat="43.5102536" lon="11.2534831"><ele>474.0</ele><time>2026-05-02T14:25:45.97Z</time></trkpt><trkpt lat="43.5101865" lon="11.2534984"><ele>474.0</ele><time>2026-05-02T14:25:46.971Z</time></trkpt><trkpt lat="43.51012" lon="11.2535215"><ele>474.0</ele><time>2026-05-02T14:25:47.971Z</time></trkpt><trkpt lat="43.5100136" lon="11.2535794"><ele>474.0</ele><time>2026-05-02T14:25:49.97Z</time></trkpt><trkpt lat="43.5099407" lon="11.2536818"><ele>474.0</ele><time>2026-05-02T14:25:51.97Z</time></trkpt><trkpt lat="43.509872" lon="11.253777"><ele>474.0</ele><time>2026-05-02T14:25:53.97Z</time></trkpt><trkpt lat="43.5098093" lon="11.2538292"><ele>474.0</ele><time>2026-05-02T14:25:55.97Z</time></trkpt><trkpt lat="43.5097347" lon="11.2538656"><ele>474.0</ele><time>2026-05-02T14:25:57.971Z</time></trkpt><trkpt lat="43.5096598" lon="11.2539107"><ele>474.0</ele><time>2026-05-02T14:25:59.97Z</time></trkpt><trkpt lat="43.509587" lon="11.2539705"><ele>474.0</ele><time>2026-05-02T14:26:01.971Z</time></trkpt><trkpt lat="43.5095215" lon="11.2540306"><ele>474.0</ele><time>2026-05-02T14:26:03.97Z</time></trkpt><trkpt lat="43.5094445" lon="11.254094"><ele>474.0</ele><time>2026-05-02T14:26:05.97Z</time></trkpt><trkpt lat="43.5093524" lon="11.2541444"><ele>476.0</ele><time>2026-05-02T14:26:07.97Z</time></trkpt><trkpt lat="43.5092818" lon="11.2542288"><ele>478.0</ele><time>2026-05-02T14:26:09.97Z</time></trkpt><trkpt lat="43.509231" lon="11.2542961"><ele>480.0</ele><time>2026-05-02T14:26:11.971Z</time></trkpt><trkpt lat="43.5091783" lon="11.2543697"><ele>482.0</ele><time>2026-05-02T14:26:13.97Z</time></trkpt><trkpt lat="43.509127" lon="11.2544435"><ele>484.0</ele><time>2026-05-02T14:26:15.97Z</time></trkpt><trkpt lat="43.5090827" lon="11.2545195"><ele>486.0</ele><time>2026-05-02T14:26:17.97Z</time></trkpt><trkpt lat="43.5090401" lon="11.2546093"><ele>486.0</ele><time>2026-05-02T14:26:19.97Z</time></trkpt><trkpt lat="43.5090014" lon="11.2546954"><ele>486.0</ele><time>2026-05-02T14:26:21.97Z</time></trkpt><trkpt lat="43.5089565" lon="11.2547794"><ele>486.0</ele><time>2026-05-02T14:26:23.97Z</time></trkpt><trkpt lat="43.5089038" lon="11.2548904"><ele>486.0</ele><time>2026-05-02T14:26:25.97Z</time></trkpt><trkpt lat="43.5088292" lon="11.2550092"><ele>486.0</ele><time>2026-05-02T14:26:27.971Z</time></trkpt><trkpt lat="43.5087597" lon="11.2551052"><ele>488.5</ele><time>2026-05-02T14:26:29.97Z</time></trkpt><trkpt lat="43.5086956" lon="11.2551562"><ele>491.0</ele><time>2026-05-02T14:26:31.97Z</time></trkpt><trkpt lat="43.508602" lon="11.2551765"><ele>493.5</ele><time>2026-05-02T14:26:34.971Z</time></trkpt><trkpt lat="43.5085306" lon="11.2552096"><ele>496.0</ele><time>2026-05-02T14:26:36.97Z</time></trkpt><trkpt lat="43.5084651" lon="11.2552389"><ele>498.5</ele><time>2026-05-02T14:26:38.97Z</time></trkpt><trkpt lat="43.5083968" lon="11.2552804"><ele>501.0</ele><time>2026-05-02T14:26:40.97Z</time></trkpt><trkpt lat="43.5083279" lon="11.2553215"><ele>501.0</ele><time>2026-05-02T14:26:42.97Z</time></trkpt><trkpt lat="43.5082565" lon="11.2553695"><ele>501.0</ele><time>2026-05-02T14:26:44.97Z</time></trkpt><trkpt lat="43.5081955" lon="11.2553922"><ele>501.0</ele><time>2026-05-02T14:26:46.97Z</time></trkpt><trkpt lat="43.5081255" lon="11.2554145"><ele>501.0</ele><time>2026-05-02T14:26:48.97Z</time></trkpt><trkpt lat="43.5080376" lon="11.255442"><ele>501.0</ele><time>2026-05-02T14:26:50.97Z</time></trkpt><trkpt lat="43.5079486" lon="11.2554545"><ele>501.0</ele><time>2026-05-02T14:26:52.97Z</time></trkpt><trkpt lat="43.5078491" lon="11.2554641"><ele>503.0</ele><time>2026-05-02T14:26:54.97Z</time></trkpt><trkpt lat="43.5077228" lon="11.2554508"><ele>505.0</ele><time>2026-05-02T14:26:56.97Z</time></trkpt><trkpt lat="43.5076054" lon="11.2554546"><ele>507.0</ele><time>2026-05-02T14:26:58.971Z</time></trkpt><trkpt lat="43.5075379" lon="11.2554636"><ele>509.0</ele><time>2026-05-02T14:26:59.97Z</time></trkpt><trkpt lat="43.5074654" lon="11.2554751"><ele>511.0</ele><time>2026-05-02T14:27:00.97Z</time></trkpt><trkpt lat="43.5073903" lon="11.2554803"><ele>511.00000000000006</ele><time>2026-05-02T14:27:01.97Z</time></trkpt><trkpt lat="43.5073054" lon="11.2554719"><ele>511.0</ele><time>2026-05-02T14:27:02.97Z</time></trkpt><trkpt lat="43.5072255" lon="11.2554624"><ele>511.0</ele><time>2026-05-02T14:27:03.97Z</time></trkpt><trkpt lat="43.5071467" lon="11.2554618"><ele>511.0</ele><time>2026-05-02T14:27:04.97Z</time></trkpt><trkpt lat="43.5070776" lon="11.2554679"><ele>511.00000000000006</ele><time>2026-05-02T14:27:05.97Z</time></trkpt><trkpt lat="43.5070061" lon="11.2554667"><ele>511.0</ele><time>2026-05-02T14:27:06.971Z</time></trkpt><trkpt lat="43.5069405" lon="11.2554558"><ele>511.33333333333337</ele><time>2026-05-02T14:27:07.97Z</time></trkpt><trkpt lat="43.5068745" lon="11.2554371"><ele>511.6666666666667</ele><time>2026-05-02T14:27:08.97Z</time></trkpt><trkpt lat="43.5068066" lon="11.2554126"><ele>512.0</ele><time>2026-05-02T14:27:09.97Z</time></trkpt><trkpt lat="43.5067389" lon="11.2553882"><ele>512.3333333333334</ele><time>2026-05-02T14:27:10.97Z</time></trkpt><trkpt lat="43.5066778" lon="11.255364"><ele>512.6666666666666</ele><time>2026-05-02T14:27:11.971Z</time></trkpt><trkpt lat="43.5066168" lon="11.255337"><ele>513.0</ele><time>2026-05-02T14:27:12.971Z</time></trkpt><trkpt lat="43.5065086" lon="11.2552777"><ele>513.0</ele><time>2026-05-02T14:27:14.97Z</time></trkpt><trkpt lat="43.5064013" lon="11.2551863"><ele>513.0</ele><time>2026-05-02T14:27:16.97Z</time></trkpt><trkpt lat="43.5062945" lon="11.2551037"><ele>513.0</ele><time>2026-05-02T14:27:18.97Z</time></trkpt><trkpt lat="43.506208" lon="11.2550466"><ele>513.0</ele><time>2026-05-02T14:27:20.97Z</time></trkpt><trkpt lat="43.5061324" lon="11.2550047"><ele>513.0</ele><time>2026-05-02T14:27:22.97Z</time></trkpt><trkpt lat="43.5060219" lon="11.2549846"><ele>513.1666666666666</ele><time>2026-05-02T14:27:24.97Z</time></trkpt><trkpt lat="43.5059515" lon="11.2549861"><ele>513.3333333333334</ele><time>2026-05-02T14:27:25.97Z</time></trkpt><trkpt lat="43.5058817" lon="11.2549763"><ele>513.5</ele><time>2026-05-02T14:27:26.97Z</time></trkpt><trkpt lat="43.5058053" lon="11.254962"><ele>513.6666666666667</ele><time>2026-05-02T14:27:27.971Z</time></trkpt><trkpt lat="43.5057248" lon="11.254921"><ele>513.8333333333334</ele><time>2026-05-02T14:27:28.97Z</time></trkpt><trkpt lat="43.5056403" lon="11.2548758"><ele>514.0</ele><time>2026-05-02T14:27:29.971Z</time></trkpt><trkpt lat="43.5055507" lon="11.2548362"><ele>514.0</ele><time>2026-05-02T14:27:30.97Z</time></trkpt><trkpt lat="43.5054698" lon="11.2547978"><ele>514.0</ele><time>2026-05-02T14:27:31.97Z</time></trkpt><trkpt lat="43.5053902" lon="11.254757"><ele>514.0</ele><time>2026-05-02T14:27:32.97Z</time></trkpt><trkpt lat="43.505321" lon="11.2547127"><ele>514.0</ele><time>2026-05-02T14:27:33.97Z</time></trkpt><trkpt lat="43.5052598" lon="11.2546762"><ele>514.0</ele><time>2026-05-02T14:27:34.97Z</time></trkpt><trkpt lat="43.5051968" lon="11.2546494"><ele>514.0</ele><time>2026-05-02T14:27:35.97Z</time></trkpt><trkpt lat="43.5051309" lon="11.254637"><ele>514.0</ele><time>2026-05-02T14:27:36.971Z</time></trkpt><trkpt lat="43.5050685" lon="11.2546512"><ele>515.2</ele><time>2026-05-02T14:27:37.97Z</time></trkpt><trkpt lat="43.5049616" lon="11.2547595"><ele>516.4</ele><time>2026-05-02T14:27:39.97Z</time></trkpt><trkpt lat="43.5049077" lon="11.2548432"><ele>517.6</ele><time>2026-05-02T14:27:40.97Z</time></trkpt><trkpt lat="43.5048476" lon="11.2549386"><ele>518.8</ele><time>2026-05-02T14:27:41.97Z</time></trkpt><trkpt lat="43.5047844" lon="11.2550287"><ele>520.0</ele><time>2026-05-02T14:27:42.97Z</time></trkpt><trkpt lat="43.504723" lon="11.2551048"><ele>520.8333333333334</ele><time>2026-05-02T14:27:43.971Z</time></trkpt><trkpt lat="43.5046607" lon="11.2551826"><ele>521.6666666666667</ele><time>2026-05-02T14:27:44.971Z</time></trkpt><trkpt lat="43.5045978" lon="11.255257"><ele>522.5</ele><time>2026-05-02T14:27:45.97Z</time></trkpt><trkpt lat="43.5045315" lon="11.2553274"><ele>523.3333333333334</ele><time>2026-05-02T14:27:46.97Z</time></trkpt><trkpt lat="43.5044583" lon="11.2553912"><ele>524.1666666666666</ele><time>2026-05-02T14:27:47.97Z</time></trkpt><trkpt lat="43.5043931" lon="11.2554752"><ele>525.0</ele><time>2026-05-02T14:27:48.97Z</time></trkpt><trkpt lat="43.5043275" lon="11.2555776"><ele>526.2</ele><time>2026-05-02T14:27:49.971Z</time></trkpt><trkpt lat="43.5042589" lon="11.2556999"><ele>527.4</ele><time>2026-05-02T14:27:50.97Z</time></trkpt><trkpt lat="43.5041919" lon="11.2558129"><ele>528.6</ele><time>2026-05-02T14:27:51.97Z</time></trkpt><trkpt lat="43.504126" lon="11.2559145"><ele>529.8</ele><time>2026-05-02T14:27:52.97Z</time></trkpt><trkpt lat="43.5040567" lon="11.2560083"><ele>531.0</ele><time>2026-05-02T14:27:53.971Z</time></trkpt><trkpt lat="43.5039853" lon="11.2561037"><ele>531.0</ele><time>2026-05-02T14:27:54.97Z</time></trkpt><trkpt lat="43.503917" lon="11.2562117"><ele>531.0</ele><time>2026-05-02T14:27:55.97Z</time></trkpt><trkpt lat="43.5038573" lon="11.2563245"><ele>531.0</ele><time>2026-05-02T14:27:56.97Z</time></trkpt><trkpt lat="43.5038045" lon="11.2564454"><ele>531.0</ele><time>2026-05-02T14:27:57.971Z</time></trkpt><trkpt lat="43.5037481" lon="11.2565627"><ele>531.0</ele><time>2026-05-02T14:27:58.97Z</time></trkpt><trkpt lat="43.5036926" lon="11.2566712"><ele>531.6666666666666</ele><time>2026-05-02T14:27:59.97Z</time></trkpt><trkpt lat="43.5036308" lon="11.2567617"><ele>532.3333333333334</ele><time>2026-05-02T14:28:00.97Z</time></trkpt><trkpt lat="43.503556" lon="11.2568364"><ele>533.0</ele><time>2026-05-02T14:28:01.97Z</time></trkpt><trkpt lat="43.5034963" lon="11.2569091"><ele>533.6666666666667</ele><time>2026-05-02T14:28:02.97Z</time></trkpt><trkpt lat="43.5034522" lon="11.2569795"><ele>534.3333333333334</ele><time>2026-05-02T14:28:03.97Z</time></trkpt><trkpt lat="43.5034187" lon="11.2570604"><ele>535.0</ele><time>2026-05-02T14:28:04.97Z</time></trkpt><trkpt lat="43.5034011" lon="11.2572237"><ele>535.3333333333334</ele><time>2026-05-02T14:28:06.97Z</time></trkpt><trkpt lat="43.503416" lon="11.2573216"><ele>535.6666666666667</ele><time>2026-05-02T14:28:07.97Z</time></trkpt><trkpt lat="43.5034394" lon="11.2574322"><ele>536.0</ele><time>2026-05-02T14:28:08.97Z</time></trkpt><trkpt lat="43.5034642" lon="11.2575541"><ele>536.3333333333334</ele><time>2026-05-02T14:28:09.97Z</time></trkpt><trkpt lat="43.5034854" lon="11.2576808"><ele>536.6666666666666</ele><time>2026-05-02T14:28:10.971Z</time></trkpt><trkpt lat="43.5035016" lon="11.2578093"><ele>537.0</ele><time>2026-05-02T14:28:11.971Z</time></trkpt><trkpt lat="43.5035155" lon="11.2579237"><ele>537.0</ele><time>2026-05-02T14:28:12.971Z</time></trkpt><trkpt lat="43.5035311" lon="11.2580232"><ele>537.0</ele><time>2026-05-02T14:28:13.97Z</time></trkpt><trkpt lat="43.5035529" lon="11.2581064"><ele>537.0</ele><time>2026-05-02T14:28:14.97Z</time></trkpt><trkpt lat="43.5035952" lon="11.2581804"><ele>537.0</ele><time>2026-05-02T14:28:15.97Z</time></trkpt><trkpt lat="43.5036468" lon="11.2582594"><ele>537.0</ele><time>2026-05-02T14:28:16.97Z</time></trkpt><trkpt lat="43.5037113" lon="11.2583408"><ele>537.0</ele><time>2026-05-02T14:28:17.97Z</time></trkpt><trkpt lat="43.5037807" lon="11.2584133"><ele>537.5</ele><time>2026-05-02T14:28:18.97Z</time></trkpt><trkpt lat="43.5038503" lon="11.2584877"><ele>538.0</ele><time>2026-05-02T14:28:19.971Z</time></trkpt><trkpt lat="43.503925" lon="11.2585564"><ele>538.5</ele><time>2026-05-02T14:28:20.97Z</time></trkpt><trkpt lat="43.5039971" lon="11.2585982"><ele>539.0</ele><time>2026-05-02T14:28:21.97Z</time></trkpt><trkpt lat="43.5040672" lon="11.2586188"><ele>539.5</ele><time>2026-05-02T14:28:22.97Z</time></trkpt><trkpt lat="43.5041791" lon="11.2585909"><ele>540.0</ele><time>2026-05-02T14:28:24.97Z</time></trkpt><trkpt lat="43.5042938" lon="11.2585431"><ele>540.0</ele><time>2026-05-02T14:28:26.97Z</time></trkpt><trkpt lat="43.504415" lon="11.2585056"><ele>540.0</ele><time>2026-05-02T14:28:28.971Z</time></trkpt><trkpt lat="43.5044792" lon="11.2585097"><ele>540.0</ele><time>2026-05-02T14:28:29.97Z</time></trkpt><trkpt lat="43.5045483" lon="11.2585281"><ele>540.0</ele><time>2026-05-02T14:28:30.97Z</time></trkpt><trkpt lat="43.5046235" lon="11.2585477"><ele>540.0</ele><time>2026-05-02T14:28:31.97Z</time></trkpt><trkpt lat="43.5047049" lon="11.2585744"><ele>540.0</ele><time>2026-05-02T14:28:32.97Z</time></trkpt><trkpt lat="43.5047866" lon="11.2585784"><ele>540.6666666666666</ele><time>2026-05-02T14:28:33.97Z</time></trkpt><trkpt lat="43.5048664" lon="11.2585767"><ele>541.3333333333334</ele><time>2026-05-02T14:28:34.97Z</time></trkpt><trkpt lat="43.5049379" lon="11.25858"><ele>542.0</ele><time>2026-05-02T14:28:35.971Z</time></trkpt><trkpt lat="43.5050112" lon="11.2585942"><ele>542.6666666666667</ele><time>2026-05-02T14:28:36.97Z</time></trkpt><trkpt lat="43.5050873" lon="11.2586251"><ele>543.3333333333334</ele><time>2026-05-02T14:28:37.97Z</time></trkpt><trkpt lat="43.5051619" lon="11.2586684"><ele>544.0</ele><time>2026-05-02T14:28:38.97Z</time></trkpt><trkpt lat="43.5052311" lon="11.2587118"><ele>543.9999999999999</ele><time>2026-05-02T14:28:39.97Z</time></trkpt><trkpt lat="43.5052982" lon="11.2587587"><ele>544.0</ele><time>2026-05-02T14:28:40.97Z</time></trkpt><trkpt lat="43.5053699" lon="11.2588189"><ele>544.0</ele><time>2026-05-02T14:28:41.97Z</time></trkpt><trkpt lat="43.5054386" lon="11.2588679"><ele>544.0</ele><time>2026-05-02T14:28:42.97Z</time></trkpt><trkpt lat="43.5055099" lon="11.2588919"><ele>544.0</ele><time>2026-05-02T14:28:43.97Z</time></trkpt><trkpt lat="43.5055811" lon="11.2589126"><ele>543.9999999999999</ele><time>2026-05-02T14:28:44.97Z</time></trkpt><trkpt lat="43.5056458" lon="11.2589353"><ele>544.0</ele><time>2026-05-02T14:28:45.971Z</time></trkpt><trkpt lat="43.5057093" lon="11.2589642"><ele>544.1666666666667</ele><time>2026-05-02T14:28:46.97Z</time></trkpt><trkpt lat="43.5058197" lon="11.2590522"><ele>544.3333333333334</ele><time>2026-05-02T14:28:48.971Z</time></trkpt><trkpt lat="43.5058724" lon="11.2591056"><ele>544.5</ele><time>2026-05-02T14:28:49.971Z</time></trkpt><trkpt lat="43.5059429" lon="11.2592045"><ele>544.6666666666666</ele><time>2026-05-02T14:28:51.97Z</time></trkpt><trkpt lat="43.5059309" lon="11.2592941"><ele>544.8333333333333</ele><time>2026-05-02T14:28:53.969Z</time></trkpt><trkpt lat="43.5058522" lon="11.2593413"><ele>545.0</ele><time>2026-05-02T14:28:55.969Z</time></trkpt><trkpt lat="43.5057385" lon="11.2592947"><ele>545.0</ele><time>2026-05-02T14:28:57.969Z</time></trkpt><trkpt lat="43.5056603" lon="11.2592606"><ele>545.0</ele><time>2026-05-02T14:28:58.969Z</time></trkpt><trkpt lat="43.5055714" lon="11.2592426"><ele>545.0</ele><time>2026-05-02T14:28:59.969Z</time></trkpt><trkpt lat="43.5054764" lon="11.2592292"><ele>545.0</ele><time>2026-05-02T14:29:00.969Z</time></trkpt><trkpt lat="43.5053821" lon="11.259229"><ele>545.0</ele><time>2026-05-02T14:29:01.969Z</time></trkpt><trkpt lat="43.5052855" lon="11.259237"><ele>546.4</ele><time>2026-05-02T14:29:02.969Z</time></trkpt><trkpt lat="43.5051962" lon="11.259264"><ele>547.8</ele><time>2026-05-02T14:29:03.97Z</time></trkpt><trkpt lat="43.5050939" lon="11.259295"><ele>549.2</ele><time>2026-05-02T14:29:04.97Z</time></trkpt><trkpt lat="43.5049913" lon="11.2593169"><ele>550.6</ele><time>2026-05-02T14:29:05.969Z</time></trkpt><trkpt lat="43.5048964" lon="11.2593286"><ele>552.0</ele><time>2026-05-02T14:29:06.969Z</time></trkpt><trkpt lat="43.5048111" lon="11.2593392"><ele>552.0</ele><time>2026-05-02T14:29:07.969Z</time></trkpt><trkpt lat="43.5047334" lon="11.2593529"><ele>552.0</ele><time>2026-05-02T14:29:08.969Z</time></trkpt><trkpt lat="43.5046581" lon="11.259368"><ele>552.0</ele><time>2026-05-02T14:29:09.969Z</time></trkpt><trkpt lat="43.5045828" lon="11.2594"><ele>552.0</ele><time>2026-05-02T14:29:10.969Z</time></trkpt><trkpt lat="43.5045129" lon="11.2594481"><ele>552.0</ele><time>2026-05-02T14:29:11.969Z</time></trkpt><trkpt lat="43.5044398" lon="11.2595115"><ele>552.0</ele><time>2026-05-02T14:29:12.969Z</time></trkpt><trkpt lat="43.5043591" lon="11.2595866"><ele>552.2</ele><time>2026-05-02T14:29:13.969Z</time></trkpt><trkpt lat="43.504279" lon="11.2596768"><ele>552.4000000000001</ele><time>2026-05-02T14:29:14.97Z</time></trkpt><trkpt lat="43.5041985" lon="11.2597626"><ele>552.5999999999999</ele><time>2026-05-02T14:29:15.969Z</time></trkpt><trkpt lat="43.5041209" lon="11.2598511"><ele>552.8</ele><time>2026-05-02T14:29:16.969Z</time></trkpt><trkpt lat="43.5040488" lon="11.2599205"><ele>553.0</ele><time>2026-05-02T14:29:17.969Z</time></trkpt><trkpt lat="43.5039752" lon="11.259968"><ele>554.5</ele><time>2026-05-02T14:29:18.969Z</time></trkpt><trkpt lat="43.5039013" lon="11.2599864"><ele>556.0</ele><time>2026-05-02T14:29:19.969Z</time></trkpt><trkpt lat="43.503818" lon="11.2599932"><ele>557.5</ele><time>2026-05-02T14:29:20.969Z</time></trkpt><trkpt lat="43.5037285" lon="11.2600046"><ele>559.0</ele><time>2026-05-02T14:29:21.97Z</time></trkpt><trkpt lat="43.5036353" lon="11.2600181"><ele>560.5</ele><time>2026-05-02T14:29:22.97Z</time></trkpt><trkpt lat="43.5035433" lon="11.2600517"><ele>562.0</ele><time>2026-05-02T14:29:23.969Z</time></trkpt><trkpt lat="43.5034498" lon="11.2600989"><ele>563.2</ele><time>2026-05-02T14:29:24.969Z</time></trkpt><trkpt lat="43.5033573" lon="11.2601569"><ele>564.4000000000001</ele><time>2026-05-02T14:29:25.97Z</time></trkpt><trkpt lat="43.5032661" lon="11.2602063"><ele>565.5999999999999</ele><time>2026-05-02T14:29:26.969Z</time></trkpt><trkpt lat="43.5031756" lon="11.2602615"><ele>566.8</ele><time>2026-05-02T14:29:27.969Z</time></trkpt><trkpt lat="43.5030991" lon="11.2603128"><ele>568.0</ele><time>2026-05-02T14:29:28.969Z</time></trkpt><trkpt lat="43.5030216" lon="11.2603593"><ele>568.0</ele><time>2026-05-02T14:29:29.969Z</time></trkpt><trkpt lat="43.5029524" lon="11.2603987"><ele>568.0</ele><time>2026-05-02T14:29:30.969Z</time></trkpt><trkpt lat="43.5028952" lon="11.2604475"><ele>568.0</ele><time>2026-05-02T14:29:31.97Z</time></trkpt><trkpt lat="43.5028112" lon="11.2605636"><ele>568.0</ele><time>2026-05-02T14:29:33.969Z</time></trkpt><trkpt lat="43.5027916" lon="11.2607412"><ele>568.0</ele><time>2026-05-02T14:29:35.969Z</time></trkpt><trkpt lat="43.5028057" lon="11.2608494"><ele>567.6666666666667</ele><time>2026-05-02T14:29:36.969Z</time></trkpt><trkpt lat="43.5028241" lon="11.2609725"><ele>567.3333333333334</ele><time>2026-05-02T14:29:37.969Z</time></trkpt><trkpt lat="43.5028436" lon="11.2610938"><ele>567.0</ele><time>2026-05-02T14:29:38.969Z</time></trkpt><trkpt lat="43.5028535" lon="11.2612141"><ele>566.6666666666666</ele><time>2026-05-02T14:29:39.97Z</time></trkpt><trkpt lat="43.5028621" lon="11.2613346"><ele>566.3333333333333</ele><time>2026-05-02T14:29:40.969Z</time></trkpt><trkpt lat="43.5028678" lon="11.2614451"><ele>566.0</ele><time>2026-05-02T14:29:41.969Z</time></trkpt><trkpt lat="43.5028667" lon="11.2615526"><ele>565.5</ele><time>2026-05-02T14:29:42.969Z</time></trkpt><trkpt lat="43.5028563" lon="11.2616663"><ele>565.0</ele><time>2026-05-02T14:29:43.969Z</time></trkpt><trkpt lat="43.5028396" lon="11.261776"><ele>564.5</ele><time>2026-05-02T14:29:44.969Z</time></trkpt><trkpt lat="43.5028152" lon="11.2618756"><ele>564.0</ele><time>2026-05-02T14:29:45.97Z</time></trkpt><trkpt lat="43.5027912" lon="11.2619695"><ele>563.5</ele><time>2026-05-02T14:29:46.97Z</time></trkpt><trkpt lat="43.5027579" lon="11.262056"><ele>563.0</ele><time>2026-05-02T14:29:47.969Z</time></trkpt><trkpt lat="43.5026754" lon="11.2621823"><ele>563.0</ele><time>2026-05-02T14:29:49.969Z</time></trkpt><trkpt lat="43.50257" lon="11.2622755"><ele>563.0</ele><time>2026-05-02T14:29:51.969Z</time></trkpt><trkpt lat="43.5025014" lon="11.2623152"><ele>563.0</ele><time>2026-05-02T14:29:52.969Z</time></trkpt><trkpt lat="43.502421" lon="11.2623554"><ele>563.0</ele><time>2026-05-02T14:29:53.969Z</time></trkpt><trkpt lat="43.5023286" lon="11.262403"><ele>563.0</ele><time>2026-05-02T14:29:54.97Z</time></trkpt><trkpt lat="43.5022267" lon="11.2624568"><ele>564.4</ele><time>2026-05-02T14:29:55.969Z</time></trkpt><trkpt lat="43.5021265" lon="11.2625076"><ele>565.8</ele><time>2026-05-02T14:29:56.969Z</time></trkpt><trkpt lat="43.5020221" lon="11.2625605"><ele>567.2</ele><time>2026-05-02T14:29:57.969Z</time></trkpt><trkpt lat="43.5019299" lon="11.2626097"><ele>568.6</ele><time>2026-05-02T14:29:58.97Z</time></trkpt><trkpt lat="43.501838" lon="11.2626647"><ele>570.0</ele><time>2026-05-02T14:29:59.969Z</time></trkpt><trkpt lat="43.5017482" lon="11.2627254"><ele>570.2</ele><time>2026-05-02T14:30:00.969Z</time></trkpt><trkpt lat="43.5016555" lon="11.2627914"><ele>570.4</ele><time>2026-05-02T14:30:01.969Z</time></trkpt><trkpt lat="43.5015634" lon="11.2628623"><ele>570.6</ele><time>2026-05-02T14:30:02.969Z</time></trkpt><trkpt lat="43.5014749" lon="11.2629308"><ele>570.8</ele><time>2026-05-02T14:30:03.969Z</time></trkpt><trkpt lat="43.501392" lon="11.2629937"><ele>571.0</ele><time>2026-05-02T14:30:04.969Z</time></trkpt><trkpt lat="43.5013165" lon="11.2630558"><ele>571.7142857142858</ele><time>2026-05-02T14:30:05.969Z</time></trkpt><trkpt lat="43.5012553" lon="11.2631142"><ele>572.4285714285714</ele><time>2026-05-02T14:30:06.969Z</time></trkpt><trkpt lat="43.5011977" lon="11.2631604"><ele>573.1428571428571</ele><time>2026-05-02T14:30:07.969Z</time></trkpt><trkpt lat="43.5011384" lon="11.2631969"><ele>573.8571428571429</ele><time>2026-05-02T14:30:08.969Z</time></trkpt><trkpt lat="43.5010693" lon="11.2632145"><ele>574.5714285714286</ele><time>2026-05-02T14:30:09.969Z</time></trkpt><trkpt lat="43.500989" lon="11.2632333"><ele>575.2857142857143</ele><time>2026-05-02T14:30:10.969Z</time></trkpt><trkpt lat="43.5009042" lon="11.2632614"><ele>576.0</ele><time>2026-05-02T14:30:11.969Z</time></trkpt><trkpt lat="43.5008198" lon="11.2633126"><ele>576.0</ele><time>2026-05-02T14:30:12.969Z</time></trkpt><trkpt lat="43.5007346" lon="11.2633856"><ele>576.0</ele><time>2026-05-02T14:30:13.969Z</time></trkpt><trkpt lat="43.5006491" lon="11.2634704"><ele>576.0</ele><time>2026-05-02T14:30:14.969Z</time></trkpt><trkpt lat="43.5005636" lon="11.2635608"><ele>576.0</ele><time>2026-05-02T14:30:15.969Z</time></trkpt><trkpt lat="43.5004863" lon="11.2636461"><ele>576.0</ele><time>2026-05-02T14:30:16.97Z</time></trkpt><trkpt lat="43.5004098" lon="11.2637124"><ele>575.3333333333334</ele><time>2026-05-02T14:30:17.97Z</time></trkpt><trkpt lat="43.5003378" lon="11.2637822"><ele>574.6666666666666</ele><time>2026-05-02T14:30:18.969Z</time></trkpt><trkpt lat="43.5002621" lon="11.2638177"><ele>574.0</ele><time>2026-05-02T14:30:19.969Z</time></trkpt><trkpt lat="43.500179" lon="11.2638187"><ele>573.3333333333333</ele><time>2026-05-02T14:30:20.969Z</time></trkpt><trkpt lat="43.5000925" lon="11.2638163"><ele>572.6666666666666</ele><time>2026-05-02T14:30:21.969Z</time></trkpt><trkpt lat="43.5000003" lon="11.2638054"><ele>572.0</ele><time>2026-05-02T14:30:22.969Z</time></trkpt><trkpt lat="43.4999056" lon="11.2638025"><ele>572.0</ele><time>2026-05-02T14:30:23.97Z</time></trkpt><trkpt lat="43.4998205" lon="11.2638161"><ele>572.0</ele><time>2026-05-02T14:30:24.969Z</time></trkpt><trkpt lat="43.499748" lon="11.2638486"><ele>572.0</ele><time>2026-05-02T14:30:25.969Z</time></trkpt><trkpt lat="43.4996715" lon="11.2639053"><ele>572.0</ele><time>2026-05-02T14:30:26.969Z</time></trkpt><trkpt lat="43.4995891" lon="11.263943"><ele>572.0</ele><time>2026-05-02T14:30:27.969Z</time></trkpt><trkpt lat="43.4994984" lon="11.2639724"><ele>572.0</ele><time>2026-05-02T14:30:28.969Z</time></trkpt><trkpt lat="43.4994086" lon="11.2639878"><ele>573.2</ele><time>2026-05-02T14:30:29.969Z</time></trkpt><trkpt lat="43.4993051" lon="11.2639767"><ele>574.4000000000001</ele><time>2026-05-02T14:30:30.969Z</time></trkpt><trkpt lat="43.499199" lon="11.2639549"><ele>575.5999999999999</ele><time>2026-05-02T14:30:31.97Z</time></trkpt><trkpt lat="43.4990951" lon="11.2639313"><ele>576.8</ele><time>2026-05-02T14:30:32.969Z</time></trkpt><trkpt lat="43.4990003" lon="11.263908"><ele>578.0</ele><time>2026-05-02T14:30:33.97Z</time></trkpt><trkpt lat="43.4989146" lon="11.2638838"><ele>578.0</ele><time>2026-05-02T14:30:34.969Z</time></trkpt><trkpt lat="43.4988343" lon="11.2638807"><ele>578.0</ele><time>2026-05-02T14:30:35.969Z</time></trkpt><trkpt lat="43.498755" lon="11.2639006"><ele>578.0</ele><time>2026-05-02T14:30:36.97Z</time></trkpt><trkpt lat="43.4986799" lon="11.2639411"><ele>578.0</ele><time>2026-05-02T14:30:37.969Z</time></trkpt><trkpt lat="43.4986185" lon="11.2639737"><ele>578.0</ele><time>2026-05-02T14:30:38.969Z</time></trkpt><trkpt lat="43.4985567" lon="11.264"><ele>578.0</ele><time>2026-05-02T14:30:39.97Z</time></trkpt><trkpt lat="43.4984921" lon="11.2640048"><ele>578.0</ele><time>2026-05-02T14:30:40.969Z</time></trkpt><trkpt lat="43.4983826" lon="11.2639528"><ele>578.5714285714286</ele><time>2026-05-02T14:30:42.969Z</time></trkpt><trkpt lat="43.4983277" lon="11.2638959"><ele>579.1428571428571</ele><time>2026-05-02T14:30:43.97Z</time></trkpt><trkpt lat="43.4982741" lon="11.2638134"><ele>579.7142857142857</ele><time>2026-05-02T14:30:44.969Z</time></trkpt><trkpt lat="43.4982366" lon="11.2637241"><ele>580.2857142857142</ele><time>2026-05-02T14:30:45.969Z</time></trkpt><trkpt lat="43.4982027" lon="11.2636412"><ele>580.8571428571428</ele><time>2026-05-02T14:30:46.969Z</time></trkpt><trkpt lat="43.4981654" lon="11.2635565"><ele>581.4285714285714</ele><time>2026-05-02T14:30:47.969Z</time></trkpt><trkpt lat="43.4981225" lon="11.2634759"><ele>582.0</ele><time>2026-05-02T14:30:48.969Z</time></trkpt><trkpt lat="43.4980733" lon="11.2634217"><ele>582.0</ele><time>2026-05-02T14:30:49.969Z</time></trkpt><trkpt lat="43.4980164" lon="11.2633716"><ele>582.0</ele><time>2026-05-02T14:30:50.969Z</time></trkpt><trkpt lat="43.4979538" lon="11.2633255"><ele>582.0</ele><time>2026-05-02T14:30:51.969Z</time></trkpt><trkpt lat="43.497886" lon="11.2632869"><ele>582.0</ele><time>2026-05-02T14:30:52.969Z</time></trkpt><trkpt lat="43.497814" lon="11.2632617"><ele>582.0</ele><time>2026-05-02T14:30:53.969Z</time></trkpt><trkpt lat="43.4977464" lon="11.2632306"><ele>582.0</ele><time>2026-05-02T14:30:54.969Z</time></trkpt><trkpt lat="43.4976842" lon="11.2631744"><ele>582.0</ele><time>2026-05-02T14:30:55.969Z</time></trkpt><trkpt lat="43.4976267" lon="11.2631089"><ele>579.5</ele><time>2026-05-02T14:30:56.969Z</time></trkpt><trkpt lat="43.497578" lon="11.2630274"><ele>577.0</ele><time>2026-05-02T14:30:57.969Z</time></trkpt><trkpt lat="43.4975393" lon="11.2629253"><ele>574.5</ele><time>2026-05-02T14:30:58.969Z</time></trkpt><trkpt lat="43.4975167" lon="11.2628156"><ele>572.0</ele><time>2026-05-02T14:30:59.969Z</time></trkpt><trkpt lat="43.4974986" lon="11.2626863"><ele>569.5</ele><time>2026-05-02T14:31:00.969Z</time></trkpt><trkpt lat="43.497476" lon="11.2625585"><ele>567.0</ele><time>2026-05-02T14:31:01.969Z</time></trkpt><trkpt lat="43.4974434" lon="11.2624341"><ele>567.0</ele><time>2026-05-02T14:31:02.969Z</time></trkpt><trkpt lat="43.4974033" lon="11.262307"><ele>567.0</ele><time>2026-05-02T14:31:03.969Z</time></trkpt><trkpt lat="43.4973544" lon="11.2621742"><ele>567.0</ele><time>2026-05-02T14:31:04.969Z</time></trkpt><trkpt lat="43.4972958" lon="11.262054"><ele>567.0</ele><time>2026-05-02T14:31:05.969Z</time></trkpt><trkpt lat="43.4972266" lon="11.2619423"><ele>567.0</ele><time>2026-05-02T14:31:06.969Z</time></trkpt><trkpt lat="43.4971469" lon="11.2618375"><ele>567.4</ele><time>2026-05-02T14:31:07.97Z</time></trkpt><trkpt lat="43.4970616" lon="11.2617466"><ele>567.8000000000001</ele><time>2026-05-02T14:31:08.969Z</time></trkpt><trkpt lat="43.4969718" lon="11.2616709"><ele>568.2</ele><time>2026-05-02T14:31:09.969Z</time></trkpt><trkpt lat="43.4968858" lon="11.261605"><ele>568.6</ele><time>2026-05-02T14:31:10.969Z</time></trkpt><trkpt lat="43.4968025" lon="11.2615415"><ele>569.0</ele><time>2026-05-02T14:31:11.97Z</time></trkpt><trkpt lat="43.4967286" lon="11.2614716"><ele>569.4</ele><time>2026-05-02T14:31:12.969Z</time></trkpt><trkpt lat="43.4966627" lon="11.2613872"><ele>569.8</ele><time>2026-05-02T14:31:13.969Z</time></trkpt><trkpt lat="43.4966032" lon="11.261288"><ele>570.2</ele><time>2026-05-02T14:31:14.969Z</time></trkpt><trkpt lat="43.4965396" lon="11.261189"><ele>570.6</ele><time>2026-05-02T14:31:15.969Z</time></trkpt><trkpt lat="43.4964639" lon="11.2610943"><ele>571.0</ele><time>2026-05-02T14:31:16.969Z</time></trkpt><trkpt lat="43.4963873" lon="11.2609981"><ele>571.0</ele><time>2026-05-02T14:31:17.97Z</time></trkpt><trkpt lat="43.4963034" lon="11.2608934"><ele>571.0</ele><time>2026-05-02T14:31:18.97Z</time></trkpt><trkpt lat="43.4962242" lon="11.2607795"><ele>571.0</ele><time>2026-05-02T14:31:19.969Z</time></trkpt><trkpt lat="43.496146" lon="11.2606598"><ele>571.0</ele><time>2026-05-02T14:31:20.969Z</time></trkpt><trkpt lat="43.4960692" lon="11.2605341"><ele>573.0</ele><time>2026-05-02T14:31:21.969Z</time></trkpt><trkpt lat="43.4959904" lon="11.2604105"><ele>575.0</ele><time>2026-05-02T14:31:22.969Z</time></trkpt><trkpt lat="43.4959129" lon="11.2602817"><ele>577.0</ele><time>2026-05-02T14:31:23.969Z</time></trkpt><trkpt lat="43.4958362" lon="11.2601545"><ele>579.0</ele><time>2026-05-02T14:31:24.969Z</time></trkpt><trkpt lat="43.4957662" lon="11.2600299"><ele>579.0</ele><time>2026-05-02T14:31:25.97Z</time></trkpt><trkpt lat="43.4957032" lon="11.2599034"><ele>579.0</ele><time>2026-05-02T14:31:26.969Z</time></trkpt><trkpt lat="43.4956441" lon="11.2597849"><ele>579.0</ele><time>2026-05-02T14:31:27.969Z</time></trkpt><trkpt lat="43.495592" lon="11.2596839"><ele>579.0</ele><time>2026-05-02T14:31:28.969Z</time></trkpt><trkpt lat="43.4955423" lon="11.2596"><ele>579.0</ele><time>2026-05-02T14:31:29.969Z</time></trkpt><trkpt lat="43.4954824" lon="11.25953"><ele>579.6666666666666</ele><time>2026-05-02T14:31:30.969Z</time></trkpt><trkpt lat="43.4954146" lon="11.2594558"><ele>580.3333333333334</ele><time>2026-05-02T14:31:31.969Z</time></trkpt><trkpt lat="43.4953468" lon="11.2593958"><ele>581.0</ele><time>2026-05-02T14:31:32.969Z</time></trkpt><trkpt lat="43.4952727" lon="11.2593508"><ele>581.6666666666667</ele><time>2026-05-02T14:31:33.969Z</time></trkpt><trkpt lat="43.4951968" lon="11.2593099"><ele>582.3333333333334</ele><time>2026-05-02T14:31:34.969Z</time></trkpt><trkpt lat="43.495112" lon="11.2592842"><ele>583.0</ele><time>2026-05-02T14:31:35.97Z</time></trkpt><trkpt lat="43.495015" lon="11.2592598"><ele>583.0</ele><time>2026-05-02T14:31:36.969Z</time></trkpt><trkpt lat="43.4949144" lon="11.2592395"><ele>583.0</ele><time>2026-05-02T14:31:37.97Z</time></trkpt><trkpt lat="43.4948223" lon="11.2592224"><ele>583.0</ele><time>2026-05-02T14:31:38.969Z</time></trkpt><trkpt lat="43.4947285" lon="11.2592152"><ele>583.0</ele><time>2026-05-02T14:31:39.969Z</time></trkpt><trkpt lat="43.49464" lon="11.2592097"><ele>583.0</ele><time>2026-05-02T14:31:40.969Z</time></trkpt><trkpt lat="43.4945599" lon="11.2591955"><ele>582.6666666666667</ele><time>2026-05-02T14:31:41.969Z</time></trkpt><trkpt lat="43.4944941" lon="11.2591711"><ele>582.3333333333334</ele><time>2026-05-02T14:31:42.969Z</time></trkpt><trkpt lat="43.4944295" lon="11.259144"><ele>582.0</ele><time>2026-05-02T14:31:43.969Z</time></trkpt><trkpt lat="43.4943665" lon="11.2590996"><ele>581.6666666666666</ele><time>2026-05-02T14:31:44.969Z</time></trkpt><trkpt lat="43.4943165" lon="11.2590286"><ele>581.3333333333333</ele><time>2026-05-02T14:31:45.969Z</time></trkpt><trkpt lat="43.4942721" lon="11.2589333"><ele>581.0</ele><time>2026-05-02T14:31:46.969Z</time></trkpt><trkpt lat="43.4942275" lon="11.2588105"><ele>580.25</ele><time>2026-05-02T14:31:47.97Z</time></trkpt><trkpt lat="43.4941835" lon="11.2586738"><ele>579.5</ele><time>2026-05-02T14:31:48.969Z</time></trkpt><trkpt lat="43.4941298" lon="11.2585303"><ele>578.75</ele><time>2026-05-02T14:31:49.969Z</time></trkpt><trkpt lat="43.4940617" lon="11.2584019"><ele>578.0</ele><time>2026-05-02T14:31:50.97Z</time></trkpt><trkpt lat="43.4939874" lon="11.2582805"><ele>578.0</ele><time>2026-05-02T14:31:51.969Z</time></trkpt><trkpt lat="43.4939085" lon="11.258161"><ele>578.0</ele><time>2026-05-02T14:31:52.969Z</time></trkpt><trkpt lat="43.4938258" lon="11.2580542"><ele>578.0</ele><time>2026-05-02T14:31:53.969Z</time></trkpt><trkpt lat="43.4937452" lon="11.257984"><ele>578.0</ele><time>2026-05-02T14:31:54.97Z</time></trkpt><trkpt lat="43.493664" lon="11.257918"><ele>578.0</ele><time>2026-05-02T14:31:55.969Z</time></trkpt><trkpt lat="43.4935815" lon="11.2578704"><ele>580.0</ele><time>2026-05-02T14:31:56.969Z</time></trkpt><trkpt lat="43.4934962" lon="11.2578333"><ele>582.0</ele><time>2026-05-02T14:31:57.969Z</time></trkpt><trkpt lat="43.4934006" lon="11.2577928"><ele>584.0</ele><time>2026-05-02T14:31:58.969Z</time></trkpt><trkpt lat="43.4932834" lon="11.25774"><ele>586.0</ele><time>2026-05-02T14:31:59.969Z</time></trkpt><trkpt lat="43.4931664" lon="11.257676"><ele>588.0</ele><time>2026-05-02T14:32:00.969Z</time></trkpt><trkpt lat="43.4930551" lon="11.2576124"><ele>588.0</ele><time>2026-05-02T14:32:01.969Z</time></trkpt><trkpt lat="43.4929642" lon="11.2575796"><ele>588.0</ele><time>2026-05-02T14:32:02.97Z</time></trkpt><trkpt lat="43.4928778" lon="11.2575339"><ele>588.0</ele><time>2026-05-02T14:32:04.969Z</time></trkpt><trkpt lat="43.4929433" lon="11.257595"><ele>588.0</ele><time>2026-05-02T14:32:31.97Z</time></trkpt><trkpt lat="43.4930273" lon="11.2576388"><ele>588.0</ele><time>2026-05-02T14:32:33.969Z</time></trkpt><trkpt lat="43.4931276" lon="11.2577008"><ele>588.0</ele><time>2026-05-02T14:32:35.969Z</time></trkpt><trkpt lat="43.4931862" lon="11.2577331"><ele>588.0</ele><time>2026-05-02T14:32:36.969Z</time></trkpt><trkpt lat="43.4932561" lon="11.2577653"><ele>588.0</ele><time>2026-05-02T14:32:37.969Z</time></trkpt><trkpt lat="43.4933254" lon="11.2577954"><ele>588.0</ele><time>2026-05-02T14:32:38.969Z</time></trkpt><trkpt lat="43.4933968" lon="11.2578287"><ele>588.0</ele><time>2026-05-02T14:32:39.969Z</time></trkpt><trkpt lat="43.4934659" lon="11.2578607"><ele>588.0</ele><time>2026-05-02T14:32:40.969Z</time></trkpt><trkpt lat="43.4935399" lon="11.2578874"><ele>588.0</ele><time>2026-05-02T14:32:41.969Z</time></trkpt><trkpt lat="43.4936055" lon="11.2579111"><ele>588.0</ele><time>2026-05-02T14:32:42.969Z</time></trkpt><trkpt lat="43.4937066" lon="11.2579599"><ele>588.0</ele><time>2026-05-02T14:32:44.969Z</time></trkpt><trkpt lat="43.4937857" lon="11.2580377"><ele>588.0</ele><time>2026-05-02T14:32:46.969Z</time></trkpt><trkpt lat="43.4938561" lon="11.2581023"><ele>588.0</ele><time>2026-05-02T14:32:48.969Z</time></trkpt><trkpt lat="43.4939027" lon="11.2581607"><ele>588.0</ele><time>2026-05-02T14:32:50.969Z</time></trkpt><trkpt lat="43.4939708" lon="11.2581869"><ele>588.0</ele><time>2026-05-02T14:32:55.969Z</time></trkpt><trkpt lat="43.493977" lon="11.2580836"><ele>587.0</ele><time>2026-05-02T14:33:02.969Z</time></trkpt><trkpt lat="43.4939209" lon="11.2579681"><ele>586.0</ele><time>2026-05-02T14:33:05.969Z</time></trkpt><trkpt lat="43.4938612" lon="11.2578823"><ele>585.0</ele><time>2026-05-02T14:33:07.969Z</time></trkpt><trkpt lat="43.4938082" lon="11.2577824"><ele>584.0</ele><time>2026-05-02T14:33:09.969Z</time></trkpt><trkpt lat="43.4937737" lon="11.2576884"><ele>583.0</ele><time>2026-05-02T14:33:11.969Z</time></trkpt><trkpt lat="43.4937562" lon="11.2575794"><ele>582.0</ele><time>2026-05-02T14:33:13.969Z</time></trkpt><trkpt lat="43.4937697" lon="11.2574855"><ele>582.0</ele><time>2026-05-02T14:33:15.969Z</time></trkpt><trkpt lat="43.4937748" lon="11.257359"><ele>582.0</ele><time>2026-05-02T14:33:17.969Z</time></trkpt><trkpt lat="43.4937791" lon="11.2572104"><ele>582.0</ele><time>2026-05-02T14:33:19.969Z</time></trkpt><trkpt lat="43.4937736" lon="11.2570473"><ele>582.0</ele><time>2026-05-02T14:33:21.97Z</time></trkpt><trkpt lat="43.4937754" lon="11.2569153"><ele>582.0</ele><time>2026-05-02T14:33:23.969Z</time></trkpt><trkpt lat="43.4938049" lon="11.2567837"><ele>582.3333333333334</ele><time>2026-05-02T14:33:25.97Z</time></trkpt><trkpt lat="43.4938296" lon="11.2566721"><ele>582.6666666666666</ele><time>2026-05-02T14:33:27.97Z</time></trkpt><trkpt lat="43.49385" lon="11.2565893"><ele>583.0</ele><time>2026-05-02T14:33:29.969Z</time></trkpt><trkpt lat="43.4938687" lon="11.2564612"><ele>583.3333333333333</ele><time>2026-05-02T14:33:57.968Z</time></trkpt><trkpt lat="43.4938997" lon="11.2563764"><ele>583.6666666666666</ele><time>2026-05-02T14:34:00.968Z</time></trkpt><trkpt lat="43.4939678" lon="11.2562628"><ele>584.0</ele><time>2026-05-02T14:34:42.968Z</time></trkpt><trkpt lat="43.4940423" lon="11.2561947"><ele>584.0</ele><time>2026-05-02T14:34:45.969Z</time></trkpt><trkpt lat="43.4941231" lon="11.2561331"><ele>584.0</ele><time>2026-05-02T14:34:48.968Z</time></trkpt><trkpt lat="43.4942002" lon="11.256074"><ele>584.0</ele><time>2026-05-02T14:34:51.968Z</time></trkpt><trkpt lat="43.4942707" lon="11.2560091"><ele>584.0</ele><time>2026-05-02T14:34:54.968Z</time></trkpt><trkpt lat="43.4943211" lon="11.2559353"><ele>584.0</ele><time>2026-05-02T14:34:56.968Z</time></trkpt><trkpt lat="43.4943818" lon="11.255836"><ele>584.0</ele><time>2026-05-02T14:34:58.968Z</time></trkpt><trkpt lat="43.4944422" lon="11.2557325"><ele>584.0</ele><time>2026-05-02T14:35:00.968Z</time></trkpt><trkpt lat="43.4944839" lon="11.2556475"><ele>584.0</ele><time>2026-05-02T14:35:02.968Z</time></trkpt><trkpt lat="43.4944876" lon="11.2555383"><ele>584.0</ele><time>2026-05-02T14:35:05.968Z</time></trkpt><trkpt lat="43.4944432" lon="11.2554508"><ele>584.0</ele><time>2026-05-02T14:35:18.968Z</time></trkpt><trkpt lat="43.4945146" lon="11.2553001"><ele>584.0</ele><time>2026-05-02T14:35:20.968Z</time></trkpt><trkpt lat="43.4945715" lon="11.2551871"><ele>582.75</ele><time>2026-05-02T14:35:21.968Z</time></trkpt><trkpt lat="43.4946351" lon="11.2550743"><ele>581.5</ele><time>2026-05-02T14:35:22.968Z</time></trkpt><trkpt lat="43.4946671" lon="11.2549135"><ele>580.25</ele><time>2026-05-02T14:35:23.968Z</time></trkpt><trkpt lat="43.4947003" lon="11.2547457"><ele>579.0</ele><time>2026-05-02T14:35:24.968Z</time></trkpt><trkpt lat="43.4947102" lon="11.2545448"><ele>578.75</ele><time>2026-05-02T14:35:25.968Z</time></trkpt><trkpt lat="43.4947298" lon="11.2543596"><ele>578.5</ele><time>2026-05-02T14:35:26.968Z</time></trkpt><trkpt lat="43.4947279" lon="11.2541725"><ele>578.25</ele><time>2026-05-02T14:35:27.968Z</time></trkpt><trkpt lat="43.4947277" lon="11.2539855"><ele>578.0</ele><time>2026-05-02T14:35:28.968Z</time></trkpt><trkpt lat="43.4947394" lon="11.253808"><ele>576.75</ele><time>2026-05-02T14:35:29.968Z</time></trkpt><trkpt lat="43.4947505" lon="11.2536403"><ele>575.5</ele><time>2026-05-02T14:35:30.968Z</time></trkpt><trkpt lat="43.4947545" lon="11.2534687"><ele>574.25</ele><time>2026-05-02T14:35:31.968Z</time></trkpt><trkpt lat="43.4947796" lon="11.2533165"><ele>573.0</ele><time>2026-05-02T14:35:32.968Z</time></trkpt><trkpt lat="43.4948329" lon="11.2531673"><ele>571.25</ele><time>2026-05-02T14:35:33.969Z</time></trkpt><trkpt lat="43.4949188" lon="11.2530177"><ele>569.5</ele><time>2026-05-02T14:35:34.969Z</time></trkpt><trkpt lat="43.4950209" lon="11.2528742"><ele>567.75</ele><time>2026-05-02T14:35:35.969Z</time></trkpt><trkpt lat="43.4951246" lon="11.2527221"><ele>566.0</ele><time>2026-05-02T14:35:36.968Z</time></trkpt><trkpt lat="43.495217" lon="11.2525562"><ele>566.0</ele><time>2026-05-02T14:35:37.968Z</time></trkpt><trkpt lat="43.4952695" lon="11.252374"><ele>566.0</ele><time>2026-05-02T14:35:38.969Z</time></trkpt><trkpt lat="43.4953317" lon="11.2521777"><ele>566.0</ele><time>2026-05-02T14:35:39.968Z</time></trkpt><trkpt lat="43.4953783" lon="11.2519701"><ele>565.5</ele><time>2026-05-02T14:35:40.968Z</time></trkpt><trkpt lat="43.4954113" lon="11.2517667"><ele>565.0</ele><time>2026-05-02T14:35:41.968Z</time></trkpt><trkpt lat="43.4954398" lon="11.2515783"><ele>564.5</ele><time>2026-05-02T14:35:42.968Z</time></trkpt><trkpt lat="43.4954811" lon="11.2513942"><ele>564.0</ele><time>2026-05-02T14:35:43.968Z</time></trkpt><trkpt lat="43.4955462" lon="11.2512116"><ele>564.0</ele><time>2026-05-02T14:35:44.968Z</time></trkpt><trkpt lat="43.4956319" lon="11.2510312"><ele>564.0</ele><time>2026-05-02T14:35:45.968Z</time></trkpt><trkpt lat="43.495723" lon="11.2508503"><ele>564.0</ele><time>2026-05-02T14:35:46.969Z</time></trkpt><trkpt lat="43.4958225" lon="11.25068"><ele>564.0</ele><time>2026-05-02T14:35:47.968Z</time></trkpt><trkpt lat="43.4959251" lon="11.2505482"><ele>564.0</ele><time>2026-05-02T14:35:48.968Z</time></trkpt><trkpt lat="43.4960304" lon="11.2504667"><ele>564.0</ele><time>2026-05-02T14:35:49.968Z</time></trkpt><trkpt lat="43.4961464" lon="11.2504355"><ele>564.0</ele><time>2026-05-02T14:35:50.969Z</time></trkpt><trkpt lat="43.4962743" lon="11.2504534"><ele>563.6666666666666</ele><time>2026-05-02T14:35:51.968Z</time></trkpt><trkpt lat="43.4963986" lon="11.2505254"><ele>563.3333333333333</ele><time>2026-05-02T14:35:52.968Z</time></trkpt><trkpt lat="43.4965426" lon="11.2506207"><ele>563.0</ele><time>2026-05-02T14:35:53.968Z</time></trkpt><trkpt lat="43.4966856" lon="11.2507136"><ele>563.0</ele><time>2026-05-02T14:35:54.968Z</time></trkpt><trkpt lat="43.4968267" lon="11.2507986"><ele>563.0</ele><time>2026-05-02T14:35:55.968Z</time></trkpt><trkpt lat="43.4969627" lon="11.250866"><ele>563.0</ele><time>2026-05-02T14:35:56.968Z</time></trkpt><trkpt lat="43.49709" lon="11.2509243"><ele>563.0</ele><time>2026-05-02T14:35:57.969Z</time></trkpt><trkpt lat="43.4972137" lon="11.2509699"><ele>563.75</ele><time>2026-05-02T14:35:58.968Z</time></trkpt><trkpt lat="43.4973459" lon="11.2509936"><ele>564.5</ele><time>2026-05-02T14:35:59.968Z</time></trkpt><trkpt lat="43.4974793" lon="11.2509838"><ele>565.25</ele><time>2026-05-02T14:36:00.969Z</time></trkpt><trkpt lat="43.4976119" lon="11.2509406"><ele>566.0</ele><time>2026-05-02T14:36:01.968Z</time></trkpt><trkpt lat="43.4977439" lon="11.250857"><ele>566.0</ele><time>2026-05-02T14:36:02.968Z</time></trkpt><trkpt lat="43.4978696" lon="11.2507453"><ele>566.0</ele><time>2026-05-02T14:36:03.969Z</time></trkpt><trkpt lat="43.4979907" lon="11.2506082"><ele>566.0</ele><time>2026-05-02T14:36:04.968Z</time></trkpt><trkpt lat="43.4981137" lon="11.2504677"><ele>562.3333333333333</ele><time>2026-05-02T14:36:05.968Z</time></trkpt><trkpt lat="43.4982301" lon="11.250335"><ele>558.6666666666666</ele><time>2026-05-02T14:36:06.968Z</time></trkpt><trkpt lat="43.4983582" lon="11.2502129"><ele>555.0</ele><time>2026-05-02T14:36:07.968Z</time></trkpt><trkpt lat="43.4985038" lon="11.2501104"><ele>555.0</ele><time>2026-05-02T14:36:08.969Z</time></trkpt><trkpt lat="43.498657" lon="11.2500338"><ele>555.0</ele><time>2026-05-02T14:36:09.969Z</time></trkpt><trkpt lat="43.4988256" lon="11.2499816"><ele>555.0</ele><time>2026-05-02T14:36:10.968Z</time></trkpt><trkpt lat="43.4990024" lon="11.2499479"><ele>554.0</ele><time>2026-05-02T14:36:11.968Z</time></trkpt><trkpt lat="43.4991879" lon="11.2499227"><ele>553.0</ele><time>2026-05-02T14:36:12.968Z</time></trkpt><trkpt lat="43.4993759" lon="11.249898"><ele>552.0</ele><time>2026-05-02T14:36:13.968Z</time></trkpt><trkpt lat="43.4995735" lon="11.2498773"><ele>551.6666666666666</ele><time>2026-05-02T14:36:14.969Z</time></trkpt><trkpt lat="43.49977" lon="11.2498546"><ele>551.3333333333333</ele><time>2026-05-02T14:36:15.968Z</time></trkpt><trkpt lat="43.4999687" lon="11.2498288"><ele>551.0</ele><time>2026-05-02T14:36:16.968Z</time></trkpt><trkpt lat="43.5001649" lon="11.2498039"><ele>553.3333333333333</ele><time>2026-05-02T14:36:17.968Z</time></trkpt><trkpt lat="43.5003604" lon="11.2497804"><ele>555.6666666666666</ele><time>2026-05-02T14:36:18.968Z</time></trkpt><trkpt lat="43.5005566" lon="11.249759"><ele>558.0</ele><time>2026-05-02T14:36:19.968Z</time></trkpt><trkpt lat="43.50075" lon="11.2497449"><ele>558.3333333333334</ele><time>2026-05-02T14:36:20.969Z</time></trkpt><trkpt lat="43.5009451" lon="11.2497355"><ele>558.6666666666667</ele><time>2026-05-02T14:36:21.968Z</time></trkpt><trkpt lat="43.5011347" lon="11.2497211"><ele>559.0</ele><time>2026-05-02T14:36:22.968Z</time></trkpt><trkpt lat="43.5013136" lon="11.2497167"><ele>557.0</ele><time>2026-05-02T14:36:23.968Z</time></trkpt><trkpt lat="43.501476" lon="11.2497129"><ele>555.0</ele><time>2026-05-02T14:36:24.968Z</time></trkpt><trkpt lat="43.5016233" lon="11.2497091"><ele>553.0</ele><time>2026-05-02T14:36:25.968Z</time></trkpt><trkpt lat="43.5017523" lon="11.2497038"><ele>551.0</ele><time>2026-05-02T14:36:26.968Z</time></trkpt><trkpt lat="43.5018725" lon="11.249682"><ele>551.0</ele><time>2026-05-02T14:36:27.968Z</time></trkpt><trkpt lat="43.5019822" lon="11.2496299"><ele>551.0</ele><time>2026-05-02T14:36:28.968Z</time></trkpt><trkpt lat="43.5020745" lon="11.2495432"><ele>551.0</ele><time>2026-05-02T14:36:29.968Z</time></trkpt><trkpt lat="43.5021521" lon="11.2494183"><ele>551.0</ele><time>2026-05-02T14:36:30.968Z</time></trkpt><trkpt lat="43.5022037" lon="11.2492632"><ele>546.75</ele><time>2026-05-02T14:36:31.968Z</time></trkpt><trkpt lat="43.5022273" lon="11.2490832"><ele>542.5</ele><time>2026-05-02T14:36:32.968Z</time></trkpt><trkpt lat="43.5022301" lon="11.2488912"><ele>538.25</ele><time>2026-05-02T14:36:33.968Z</time></trkpt><trkpt lat="43.5022284" lon="11.2486826"><ele>534.0</ele><time>2026-05-02T14:36:34.968Z</time></trkpt><trkpt lat="43.5022365" lon="11.2484604"><ele>532.3333333333334</ele><time>2026-05-02T14:36:35.968Z</time></trkpt><trkpt lat="43.5022676" lon="11.2482286"><ele>530.6666666666667</ele><time>2026-05-02T14:36:36.968Z</time></trkpt><trkpt lat="43.5023083" lon="11.2479838"><ele>529.0</ele><time>2026-05-02T14:36:37.968Z</time></trkpt><trkpt lat="43.5023541" lon="11.247741"><ele>528.6666666666667</ele><time>2026-05-02T14:36:38.969Z</time></trkpt><trkpt lat="43.5023996" lon="11.2474946"><ele>528.3333333333334</ele><time>2026-05-02T14:36:39.968Z</time></trkpt><trkpt lat="43.5024492" lon="11.2472548"><ele>528.0</ele><time>2026-05-02T14:36:40.968Z</time></trkpt><trkpt lat="43.5024927" lon="11.2470154"><ele>526.6666666666666</ele><time>2026-05-02T14:36:41.968Z</time></trkpt><trkpt lat="43.5025528" lon="11.2467874"><ele>525.3333333333333</ele><time>2026-05-02T14:36:42.968Z</time></trkpt><trkpt lat="43.5026236" lon="11.2465652"><ele>524.0</ele><time>2026-05-02T14:36:43.968Z</time></trkpt><trkpt lat="43.5027104" lon="11.2463593"><ele>523.3333333333333</ele><time>2026-05-02T14:36:44.968Z</time></trkpt><trkpt lat="43.5028196" lon="11.2461753"><ele>522.6666666666666</ele><time>2026-05-02T14:36:45.968Z</time></trkpt><trkpt lat="43.5029539" lon="11.2460146"><ele>522.0</ele><time>2026-05-02T14:36:46.968Z</time></trkpt><trkpt lat="43.5030904" lon="11.2458654"><ele>524.0</ele><time>2026-05-02T14:36:47.968Z</time></trkpt><trkpt lat="43.5032314" lon="11.2457255"><ele>526.0</ele><time>2026-05-02T14:36:48.969Z</time></trkpt><trkpt lat="43.5033692" lon="11.2455791"><ele>528.0</ele><time>2026-05-02T14:36:49.968Z</time></trkpt><trkpt lat="43.5034799" lon="11.2453962"><ele>529.0</ele><time>2026-05-02T14:36:50.968Z</time></trkpt><trkpt lat="43.5036056" lon="11.2451945"><ele>530.0</ele><time>2026-05-02T14:36:51.968Z</time></trkpt><trkpt lat="43.5037454" lon="11.2450051"><ele>531.0</ele><time>2026-05-02T14:36:52.968Z</time></trkpt><trkpt lat="43.5038758" lon="11.2448189"><ele>529.0</ele><time>2026-05-02T14:36:53.968Z</time></trkpt><trkpt lat="43.5039988" lon="11.2446139"><ele>527.0</ele><time>2026-05-02T14:36:54.969Z</time></trkpt><trkpt lat="43.504152" lon="11.244425"><ele>525.0</ele><time>2026-05-02T14:36:55.968Z</time></trkpt><trkpt lat="43.5043145" lon="11.2442475"><ele>525.0</ele><time>2026-05-02T14:36:56.968Z</time></trkpt><trkpt lat="43.5044699" lon="11.2440706"><ele>525.0</ele><time>2026-05-02T14:36:57.968Z</time></trkpt><trkpt lat="43.5046147" lon="11.2439059"><ele>525.0</ele><time>2026-05-02T14:36:58.968Z</time></trkpt><trkpt lat="43.5047499" lon="11.2437518"><ele>524.3333333333334</ele><time>2026-05-02T14:36:59.968Z</time></trkpt><trkpt lat="43.5048792" lon="11.2436164"><ele>523.6666666666667</ele><time>2026-05-02T14:37:00.968Z</time></trkpt><trkpt lat="43.5050109" lon="11.243512"><ele>523.0</ele><time>2026-05-02T14:37:01.968Z</time></trkpt><trkpt lat="43.5051498" lon="11.2434312"><ele>523.0</ele><time>2026-05-02T14:37:02.968Z</time></trkpt><trkpt lat="43.5052967" lon="11.243362"><ele>523.0</ele><time>2026-05-02T14:37:03.969Z</time></trkpt><trkpt lat="43.5054346" lon="11.2433046"><ele>523.0</ele><time>2026-05-02T14:37:04.968Z</time></trkpt><trkpt lat="43.5055632" lon="11.2432707"><ele>523.0</ele><time>2026-05-02T14:37:05.969Z</time></trkpt><trkpt lat="43.5056917" lon="11.2432709"><ele>521.75</ele><time>2026-05-02T14:37:06.969Z</time></trkpt><trkpt lat="43.5058293" lon="11.2432949"><ele>520.5</ele><time>2026-05-02T14:37:07.969Z</time></trkpt><trkpt lat="43.5059735" lon="11.24336"><ele>519.25</ele><time>2026-05-02T14:37:08.968Z</time></trkpt><trkpt lat="43.50612" lon="11.2434367"><ele>518.0</ele><time>2026-05-02T14:37:09.969Z</time></trkpt><trkpt lat="43.5062616" lon="11.2435048"><ele>515.5</ele><time>2026-05-02T14:37:10.968Z</time></trkpt><trkpt lat="43.5063979" lon="11.243573"><ele>513.0</ele><time>2026-05-02T14:37:11.969Z</time></trkpt><trkpt lat="43.5065303" lon="11.2436226"><ele>510.5</ele><time>2026-05-02T14:37:12.968Z</time></trkpt><trkpt lat="43.5066542" lon="11.2436251"><ele>508.0</ele><time>2026-05-02T14:37:13.968Z</time></trkpt><trkpt lat="43.5067896" lon="11.243569"><ele>508.0</ele><time>2026-05-02T14:37:14.968Z</time></trkpt><trkpt lat="43.5069388" lon="11.2434713"><ele>508.0</ele><time>2026-05-02T14:37:15.968Z</time></trkpt><trkpt lat="43.50709" lon="11.2433547"><ele>508.0</ele><time>2026-05-02T14:37:16.968Z</time></trkpt><trkpt lat="43.5072595" lon="11.2432694"><ele>505.33333333333337</ele><time>2026-05-02T14:37:17.969Z</time></trkpt><trkpt lat="43.5074489" lon="11.243221"><ele>502.66666666666663</ele><time>2026-05-02T14:37:18.968Z</time></trkpt><trkpt lat="43.5076517" lon="11.2432007"><ele>500.0</ele><time>2026-05-02T14:37:19.968Z</time></trkpt><trkpt lat="43.5078518" lon="11.2432061"><ele>500.0</ele><time>2026-05-02T14:37:20.968Z</time></trkpt><trkpt lat="43.5080503" lon="11.243211"><ele>500.0</ele><time>2026-05-02T14:37:21.969Z</time></trkpt><trkpt lat="43.5082382" lon="11.2432167"><ele>500.0</ele><time>2026-05-02T14:37:22.968Z</time></trkpt><trkpt lat="43.5084064" lon="11.2432003"><ele>500.0</ele><time>2026-05-02T14:37:23.968Z</time></trkpt><trkpt lat="43.5085697" lon="11.243132"><ele>500.0</ele><time>2026-05-02T14:37:24.968Z</time></trkpt><trkpt lat="43.5087174" lon="11.243036"><ele>500.0</ele><time>2026-05-02T14:37:25.968Z</time></trkpt><trkpt lat="43.5088443" lon="11.2429427"><ele>500.0</ele><time>2026-05-02T14:37:26.968Z</time></trkpt><trkpt lat="43.5089522" lon="11.2428619"><ele>500.0</ele><time>2026-05-02T14:37:27.968Z</time></trkpt><trkpt lat="43.5090651" lon="11.2428192"><ele>500.0</ele><time>2026-05-02T14:37:28.968Z</time></trkpt><trkpt lat="43.5091909" lon="11.2428273"><ele>500.0</ele><time>2026-05-02T14:37:29.968Z</time></trkpt><trkpt lat="43.509326" lon="11.2428705"><ele>500.0</ele><time>2026-05-02T14:37:30.968Z</time></trkpt><trkpt lat="43.5094576" lon="11.2429332"><ele>500.0</ele><time>2026-05-02T14:37:31.968Z</time></trkpt><trkpt lat="43.5095852" lon="11.243007"><ele>500.0</ele><time>2026-05-02T14:37:32.969Z</time></trkpt><trkpt lat="43.5097024" lon="11.2431028"><ele>500.0</ele><time>2026-05-02T14:37:33.969Z</time></trkpt><trkpt lat="43.5098098" lon="11.2432406"><ele>497.3333333333333</ele><time>2026-05-02T14:37:34.968Z</time></trkpt><trkpt lat="43.5099078" lon="11.2434127"><ele>494.66666666666663</ele><time>2026-05-02T14:37:35.968Z</time></trkpt><trkpt lat="43.5100006" lon="11.2435952"><ele>492.0</ele><time>2026-05-02T14:37:36.968Z</time></trkpt><trkpt lat="43.5100883" lon="11.2437647"><ele>492.0</ele><time>2026-05-02T14:37:37.968Z</time></trkpt><trkpt lat="43.5101938" lon="11.2439095"><ele>492.0</ele><time>2026-05-02T14:37:38.968Z</time></trkpt><trkpt lat="43.5103246" lon="11.2440319"><ele>492.0</ele><time>2026-05-02T14:37:39.968Z</time></trkpt><trkpt lat="43.5104701" lon="11.2441313"><ele>490.0</ele><time>2026-05-02T14:37:40.968Z</time></trkpt><trkpt lat="43.5106293" lon="11.2442056"><ele>488.0</ele><time>2026-05-02T14:37:41.968Z</time></trkpt><trkpt lat="43.510774" lon="11.2442557"><ele>486.0</ele><time>2026-05-02T14:37:42.968Z</time></trkpt><trkpt lat="43.5109308" lon="11.2442787"><ele>486.0</ele><time>2026-05-02T14:37:43.968Z</time></trkpt><trkpt lat="43.5111008" lon="11.2442609"><ele>486.0</ele><time>2026-05-02T14:37:44.968Z</time></trkpt><trkpt lat="43.5112801" lon="11.2442163"><ele>486.0</ele><time>2026-05-02T14:37:45.969Z</time></trkpt><trkpt lat="43.5114715" lon="11.2441514"><ele>485.33333333333337</ele><time>2026-05-02T14:37:46.968Z</time></trkpt><trkpt lat="43.5116531" lon="11.2440825"><ele>484.6666666666667</ele><time>2026-05-02T14:37:47.968Z</time></trkpt><trkpt lat="43.511828" lon="11.2440102"><ele>484.0</ele><time>2026-05-02T14:37:48.968Z</time></trkpt><trkpt lat="43.5119919" lon="11.2439338"><ele>480.5</ele><time>2026-05-02T14:37:49.968Z</time></trkpt><trkpt lat="43.5121414" lon="11.2438738"><ele>477.0</ele><time>2026-05-02T14:37:50.968Z</time></trkpt><trkpt lat="43.5122741" lon="11.2438227"><ele>473.5</ele><time>2026-05-02T14:37:51.968Z</time></trkpt><trkpt lat="43.512397" lon="11.243779"><ele>470.0</ele><time>2026-05-02T14:37:52.968Z</time></trkpt><trkpt lat="43.5125175" lon="11.2437586"><ele>470.0</ele><time>2026-05-02T14:37:53.968Z</time></trkpt><trkpt lat="43.5126351" lon="11.2437778"><ele>470.0</ele><time>2026-05-02T14:37:54.968Z</time></trkpt><trkpt lat="43.5127483" lon="11.2438521"><ele>470.0</ele><time>2026-05-02T14:37:55.969Z</time></trkpt><trkpt lat="43.5128645" lon="11.243968"><ele>470.0</ele><time>2026-05-02T14:37:56.968Z</time></trkpt><trkpt lat="43.5129909" lon="11.2441022"><ele>467.66666666666663</ele><time>2026-05-02T14:37:57.969Z</time></trkpt><trkpt lat="43.5131141" lon="11.2442404"><ele>465.33333333333337</ele><time>2026-05-02T14:37:58.968Z</time></trkpt><trkpt lat="43.5132462" lon="11.2443558"><ele>463.0</ele><time>2026-05-02T14:37:59.968Z</time></trkpt><trkpt lat="43.5133729" lon="11.2444676"><ele>463.0</ele><time>2026-05-02T14:38:00.969Z</time></trkpt><trkpt lat="43.513487" lon="11.2445684"><ele>463.0</ele><time>2026-05-02T14:38:01.968Z</time></trkpt><trkpt lat="43.5135981" lon="11.2446573"><ele>463.0</ele><time>2026-05-02T14:38:02.968Z</time></trkpt><trkpt lat="43.5137076" lon="11.2447423"><ele>463.0</ele><time>2026-05-02T14:38:03.968Z</time></trkpt><trkpt lat="43.5138004" lon="11.2448448"><ele>460.0</ele><time>2026-05-02T14:38:04.968Z</time></trkpt><trkpt lat="43.5138731" lon="11.2449672"><ele>457.0</ele><time>2026-05-02T14:38:05.968Z</time></trkpt><trkpt lat="43.513912" lon="11.245104"><ele>454.0</ele><time>2026-05-02T14:38:06.969Z</time></trkpt><trkpt lat="43.5139127" lon="11.2452575"><ele>451.0</ele><time>2026-05-02T14:38:07.968Z</time></trkpt><trkpt lat="43.5138835" lon="11.2454147"><ele>451.0</ele><time>2026-05-02T14:38:08.968Z</time></trkpt><trkpt lat="43.5138435" lon="11.2455747"><ele>451.0</ele><time>2026-05-02T14:38:09.968Z</time></trkpt><trkpt lat="43.5138038" lon="11.245739"><ele>451.0</ele><time>2026-05-02T14:38:10.968Z</time></trkpt><trkpt lat="43.5137755" lon="11.2459022"><ele>451.0</ele><time>2026-05-02T14:38:11.969Z</time></trkpt><trkpt lat="43.5137832" lon="11.246059"><ele>450.5</ele><time>2026-05-02T14:38:12.969Z</time></trkpt><trkpt lat="43.5138392" lon="11.2462152"><ele>450.0</ele><time>2026-05-02T14:38:13.968Z</time></trkpt><trkpt lat="43.5139197" lon="11.2463591"><ele>449.5</ele><time>2026-05-02T14:38:14.968Z</time></trkpt><trkpt lat="43.5140251" lon="11.2464991"><ele>449.0</ele><time>2026-05-02T14:38:15.969Z</time></trkpt><trkpt lat="43.5141412" lon="11.246624"><ele>449.0</ele><time>2026-05-02T14:38:16.968Z</time></trkpt><trkpt lat="43.5142725" lon="11.2467408"><ele>449.0</ele><time>2026-05-02T14:38:17.969Z</time></trkpt><trkpt lat="43.5143936" lon="11.2468455"><ele>449.0</ele><time>2026-05-02T14:38:18.969Z</time></trkpt><trkpt lat="43.5145301" lon="11.2469064"><ele>449.0</ele><time>2026-05-02T14:38:19.968Z</time></trkpt><trkpt lat="43.5146824" lon="11.2469336"><ele>444.0</ele><time>2026-05-02T14:38:20.969Z</time></trkpt><trkpt lat="43.5148463" lon="11.2469409"><ele>439.0</ele><time>2026-05-02T14:38:21.968Z</time></trkpt><trkpt lat="43.5150046" lon="11.2469445"><ele>434.0</ele><time>2026-05-02T14:38:22.969Z</time></trkpt><trkpt lat="43.5151551" lon="11.2469647"><ele>434.0</ele><time>2026-05-02T14:38:23.968Z</time></trkpt><trkpt lat="43.5153096" lon="11.247017"><ele>434.0</ele><time>2026-05-02T14:38:24.968Z</time></trkpt><trkpt lat="43.5154733" lon="11.2470901"><ele>434.0</ele><time>2026-05-02T14:38:25.969Z</time></trkpt><trkpt lat="43.5156384" lon="11.2471745"><ele>431.3333333333333</ele><time>2026-05-02T14:38:26.968Z</time></trkpt><trkpt lat="43.5158088" lon="11.2472724"><ele>428.66666666666663</ele><time>2026-05-02T14:38:27.968Z</time></trkpt><trkpt lat="43.515965" lon="11.247376"><ele>426.0</ele><time>2026-05-02T14:38:28.968Z</time></trkpt><trkpt lat="43.5161096" lon="11.2475004"><ele>423.33333333333337</ele><time>2026-05-02T14:38:29.968Z</time></trkpt><trkpt lat="43.5162384" lon="11.2476366"><ele>420.6666666666667</ele><time>2026-05-02T14:38:30.968Z</time></trkpt><trkpt lat="43.5163596" lon="11.2477701"><ele>418.0</ele><time>2026-05-02T14:38:31.968Z</time></trkpt><trkpt lat="43.5164999" lon="11.2478811"><ele>418.0</ele><time>2026-05-02T14:38:32.968Z</time></trkpt><trkpt lat="43.5166508" lon="11.2479731"><ele>418.0</ele><time>2026-05-02T14:38:33.968Z</time></trkpt><trkpt lat="43.5168145" lon="11.2480386"><ele>418.0</ele><time>2026-05-02T14:38:34.968Z</time></trkpt><trkpt lat="43.516991" lon="11.2481009"><ele>418.33333333333337</ele><time>2026-05-02T14:38:35.968Z</time></trkpt><trkpt lat="43.5171684" lon="11.2481567"><ele>418.66666666666663</ele><time>2026-05-02T14:38:36.969Z</time></trkpt><trkpt lat="43.517349" lon="11.2481986"><ele>419.0</ele><time>2026-05-02T14:38:37.969Z</time></trkpt><trkpt lat="43.5175338" lon="11.2482131"><ele>419.0</ele><time>2026-05-02T14:38:38.968Z</time></trkpt><trkpt lat="43.5177221" lon="11.2482045"><ele>419.0</ele><time>2026-05-02T14:38:39.968Z</time></trkpt><trkpt lat="43.5179095" lon="11.2481716"><ele>419.0</ele><time>2026-05-02T14:38:40.968Z</time></trkpt><trkpt lat="43.5180977" lon="11.2481216"><ele>417.0</ele><time>2026-05-02T14:38:41.968Z</time></trkpt><trkpt lat="43.5182872" lon="11.2480456"><ele>415.0</ele><time>2026-05-02T14:38:42.968Z</time></trkpt><trkpt lat="43.5184735" lon="11.2479458"><ele>413.0</ele><time>2026-05-02T14:38:43.968Z</time></trkpt><trkpt lat="43.5186603" lon="11.2478246"><ele>414.3333333333333</ele><time>2026-05-02T14:38:44.968Z</time></trkpt><trkpt lat="43.5188458" lon="11.2476836"><ele>415.66666666666663</ele><time>2026-05-02T14:38:45.967Z</time></trkpt><trkpt lat="43.5190319" lon="11.2475226"><ele>417.0</ele><time>2026-05-02T14:38:46.967Z</time></trkpt><trkpt lat="43.5192145" lon="11.2473492"><ele>418.0</ele><time>2026-05-02T14:38:47.967Z</time></trkpt><trkpt lat="43.5193869" lon="11.2471608"><ele>419.0</ele><time>2026-05-02T14:38:48.967Z</time></trkpt><trkpt lat="43.5195497" lon="11.2469771"><ele>420.0</ele><time>2026-05-02T14:38:49.968Z</time></trkpt><trkpt lat="43.5197024" lon="11.2467978"><ele>421.66666666666663</ele><time>2026-05-02T14:38:50.967Z</time></trkpt><trkpt lat="43.5198366" lon="11.2466299"><ele>423.3333333333333</ele><time>2026-05-02T14:38:51.967Z</time></trkpt><trkpt lat="43.5199699" lon="11.2464716"><ele>425.0</ele><time>2026-05-02T14:38:52.967Z</time></trkpt><trkpt lat="43.5201189" lon="11.2463285"><ele>425.0</ele><time>2026-05-02T14:38:53.967Z</time></trkpt><trkpt lat="43.5202806" lon="11.2462176"><ele>425.0</ele><time>2026-05-02T14:38:54.967Z</time></trkpt><trkpt lat="43.5204481" lon="11.2461131"><ele>425.0</ele><time>2026-05-02T14:38:55.967Z</time></trkpt><trkpt lat="43.520617" lon="11.2460174"><ele>425.66666666666663</ele><time>2026-05-02T14:38:56.967Z</time></trkpt><trkpt lat="43.5207822" lon="11.245923"><ele>426.33333333333337</ele><time>2026-05-02T14:38:57.967Z</time></trkpt><trkpt lat="43.5209543" lon="11.2458348"><ele>427.0</ele><time>2026-05-02T14:38:58.968Z</time></trkpt><trkpt lat="43.5211181" lon="11.2457371"><ele>428.0</ele><time>2026-05-02T14:38:59.968Z</time></trkpt><trkpt lat="43.5212639" lon="11.2456026"><ele>429.0</ele><time>2026-05-02T14:39:00.967Z</time></trkpt><trkpt lat="43.5213917" lon="11.2454335"><ele>430.0</ele><time>2026-05-02T14:39:01.967Z</time></trkpt><trkpt lat="43.5215063" lon="11.2452454"><ele>430.0</ele><time>2026-05-02T14:39:02.967Z</time></trkpt><trkpt lat="43.5215929" lon="11.2450284"><ele>430.0</ele><time>2026-05-02T14:39:03.967Z</time></trkpt><trkpt lat="43.5216599" lon="11.2448001"><ele>430.0</ele><time>2026-05-02T14:39:04.967Z</time></trkpt><trkpt lat="43.5217127" lon="11.2445802"><ele>429.6666666666667</ele><time>2026-05-02T14:39:05.967Z</time></trkpt><trkpt lat="43.5217588" lon="11.2443692"><ele>429.33333333333337</ele><time>2026-05-02T14:39:06.967Z</time></trkpt><trkpt lat="43.5218014" lon="11.2441732"><ele>429.0</ele><time>2026-05-02T14:39:07.968Z</time></trkpt><trkpt lat="43.5218427" lon="11.2439675"><ele>429.0</ele><time>2026-05-02T14:39:08.968Z</time></trkpt><trkpt lat="43.5218929" lon="11.243745"><ele>429.0</ele><time>2026-05-02T14:39:09.967Z</time></trkpt><trkpt lat="43.5219445" lon="11.2435161"><ele>429.0</ele><time>2026-05-02T14:39:10.967Z</time></trkpt><trkpt lat="43.5220007" lon="11.2432844"><ele>428.0</ele><time>2026-05-02T14:39:11.967Z</time></trkpt><trkpt lat="43.5220581" lon="11.2430548"><ele>427.0</ele><time>2026-05-02T14:39:12.967Z</time></trkpt><trkpt lat="43.522114" lon="11.2428248"><ele>426.0</ele><time>2026-05-02T14:39:13.967Z</time></trkpt><trkpt lat="43.5221689" lon="11.242588"><ele>425.33333333333337</ele><time>2026-05-02T14:39:14.967Z</time></trkpt><trkpt lat="43.5222356" lon="11.2423498"><ele>424.6666666666667</ele><time>2026-05-02T14:39:15.967Z</time></trkpt><trkpt lat="43.5223173" lon="11.242116"><ele>424.0</ele><time>2026-05-02T14:39:16.968Z</time></trkpt><trkpt lat="43.5224188" lon="11.241883"><ele>422.33333333333337</ele><time>2026-05-02T14:39:17.967Z</time></trkpt><trkpt lat="43.5225424" lon="11.241651"><ele>420.66666666666663</ele><time>2026-05-02T14:39:18.967Z</time></trkpt><trkpt lat="43.5226805" lon="11.2414474"><ele>419.0</ele><time>2026-05-02T14:39:19.967Z</time></trkpt><trkpt lat="43.5228295" lon="11.2412542"><ele>418.66666666666663</ele><time>2026-05-02T14:39:20.967Z</time></trkpt><trkpt lat="43.5229861" lon="11.2410885"><ele>418.33333333333337</ele><time>2026-05-02T14:39:21.967Z</time></trkpt><trkpt lat="43.523165" lon="11.2409637"><ele>418.0</ele><time>2026-05-02T14:39:22.968Z</time></trkpt><trkpt lat="43.5233392" lon="11.2408651"><ele>418.0</ele><time>2026-05-02T14:39:23.967Z</time></trkpt><trkpt lat="43.5234997" lon="11.240785"><ele>418.0</ele><time>2026-05-02T14:39:24.967Z</time></trkpt><trkpt lat="43.5236395" lon="11.2406979"><ele>418.0</ele><time>2026-05-02T14:39:25.967Z</time></trkpt><trkpt lat="43.5237697" lon="11.2405836"><ele>416.6666666666667</ele><time>2026-05-02T14:39:26.967Z</time></trkpt><trkpt lat="43.5238943" lon="11.240451"><ele>415.33333333333337</ele><time>2026-05-02T14:39:27.968Z</time></trkpt><trkpt lat="43.5240071" lon="11.2402871"><ele>414.0</ele><time>2026-05-02T14:39:28.967Z</time></trkpt><trkpt lat="43.5241127" lon="11.2401125"><ele>414.0</ele><time>2026-05-02T14:39:29.967Z</time></trkpt><trkpt lat="43.5242155" lon="11.2399168"><ele>414.0</ele><time>2026-05-02T14:39:30.967Z</time></trkpt><trkpt lat="43.5243028" lon="11.2397013"><ele>414.0</ele><time>2026-05-02T14:39:31.967Z</time></trkpt><trkpt lat="43.5243604" lon="11.2394786"><ele>412.66666666666663</ele><time>2026-05-02T14:39:32.967Z</time></trkpt><trkpt lat="43.5244156" lon="11.239253"><ele>411.3333333333333</ele><time>2026-05-02T14:39:33.967Z</time></trkpt><trkpt lat="43.5245004" lon="11.2390578"><ele>410.0</ele><time>2026-05-02T14:39:34.967Z</time></trkpt><trkpt lat="43.5245997" lon="11.2388889"><ele>408.66666666666663</ele><time>2026-05-02T14:39:35.967Z</time></trkpt><trkpt lat="43.5247098" lon="11.2387294"><ele>407.33333333333337</ele><time>2026-05-02T14:39:36.968Z</time></trkpt><trkpt lat="43.5248247" lon="11.2385877"><ele>406.0</ele><time>2026-05-02T14:39:37.967Z</time></trkpt><trkpt lat="43.5249478" lon="11.2384847"><ele>406.0</ele><time>2026-05-02T14:39:38.967Z</time></trkpt><trkpt lat="43.5250773" lon="11.2384199"><ele>406.0</ele><time>2026-05-02T14:39:39.967Z</time></trkpt><trkpt lat="43.5252165" lon="11.2384024"><ele>406.0</ele><time>2026-05-02T14:39:40.967Z</time></trkpt><trkpt lat="43.5253741" lon="11.238428"><ele>406.0</ele><time>2026-05-02T14:39:41.968Z</time></trkpt><trkpt lat="43.5255494" lon="11.2384816"><ele>406.0</ele><time>2026-05-02T14:39:42.968Z</time></trkpt><trkpt lat="43.5257328" lon="11.2385469"><ele>406.0</ele><time>2026-05-02T14:39:43.967Z</time></trkpt><trkpt lat="43.5259083" lon="11.2386175"><ele>406.0</ele><time>2026-05-02T14:39:44.967Z</time></trkpt><trkpt lat="43.5260778" lon="11.238698"><ele>404.6666666666667</ele><time>2026-05-02T14:39:45.967Z</time></trkpt><trkpt lat="43.5262384" lon="11.2387622"><ele>403.33333333333337</ele><time>2026-05-02T14:39:46.967Z</time></trkpt><trkpt lat="43.5263911" lon="11.2388231"><ele>402.0</ele><time>2026-05-02T14:39:47.967Z</time></trkpt><trkpt lat="43.5265415" lon="11.2388777"><ele>402.0</ele><time>2026-05-02T14:39:48.967Z</time></trkpt><trkpt lat="43.5266969" lon="11.2389376"><ele>402.0</ele><time>2026-05-02T14:39:49.967Z</time></trkpt><trkpt lat="43.5268525" lon="11.2389951"><ele>402.0</ele><time>2026-05-02T14:39:50.967Z</time></trkpt><trkpt lat="43.5270141" lon="11.2390494"><ele>401.66666666666663</ele><time>2026-05-02T14:39:51.967Z</time></trkpt><trkpt lat="43.5271693" lon="11.2391057"><ele>401.3333333333333</ele><time>2026-05-02T14:39:52.967Z</time></trkpt><trkpt lat="43.527324" lon="11.239173"><ele>401.0</ele><time>2026-05-02T14:39:53.967Z</time></trkpt><trkpt lat="43.5274798" lon="11.2392519"><ele>401.0</ele><time>2026-05-02T14:39:54.968Z</time></trkpt><trkpt lat="43.5276429" lon="11.2393474"><ele>401.0</ele><time>2026-05-02T14:39:55.968Z</time></trkpt><trkpt lat="43.5278049" lon="11.239453"><ele>401.0</ele><time>2026-05-02T14:39:56.967Z</time></trkpt><trkpt lat="43.5279612" lon="11.2395549"><ele>402.0</ele><time>2026-05-02T14:39:57.967Z</time></trkpt><trkpt lat="43.5281411" lon="11.2396656"><ele>403.0</ele><time>2026-05-02T14:39:58.967Z</time></trkpt><trkpt lat="43.5283427" lon="11.2397938"><ele>404.0</ele><time>2026-05-02T14:39:59.967Z</time></trkpt><trkpt lat="43.5285591" lon="11.2399495"><ele>398.0</ele><time>2026-05-02T14:40:00.967Z</time></trkpt><trkpt lat="43.5287846" lon="11.2401311"><ele>392.0</ele><time>2026-05-02T14:40:01.967Z</time></trkpt><trkpt lat="43.5290243" lon="11.2403091"><ele>392.0</ele><time>2026-05-02T14:40:02.968Z</time></trkpt><trkpt lat="43.5292793" lon="11.2404637"><ele>392.0</ele><time>2026-05-02T14:40:03.967Z</time></trkpt><trkpt lat="43.5295352" lon="11.240588"><ele>396.0</ele><time>2026-05-02T14:40:04.968Z</time></trkpt><trkpt lat="43.5297752" lon="11.2406789"><ele>400.0</ele><time>2026-05-02T14:40:05.967Z</time></trkpt><trkpt lat="43.5300006" lon="11.240742"><ele>400.0</ele><time>2026-05-02T14:40:06.967Z</time></trkpt><trkpt lat="43.5302136" lon="11.2408159"><ele>400.0</ele><time>2026-05-02T14:40:07.967Z</time></trkpt><trkpt lat="43.5304155" lon="11.2409012"><ele>400.0</ele><time>2026-05-02T14:40:08.968Z</time></trkpt><trkpt lat="43.5305985" lon="11.2409924"><ele>399.33333333333337</ele><time>2026-05-02T14:40:09.968Z</time></trkpt><trkpt lat="43.5307656" lon="11.2410892"><ele>398.66666666666663</ele><time>2026-05-02T14:40:10.967Z</time></trkpt><trkpt lat="43.5309264" lon="11.2411979"><ele>398.0</ele><time>2026-05-02T14:40:11.967Z</time></trkpt><trkpt lat="43.5310774" lon="11.2413127"><ele>398.0</ele><time>2026-05-02T14:40:12.967Z</time></trkpt><trkpt lat="43.5312217" lon="11.2414317"><ele>398.0</ele><time>2026-05-02T14:40:13.968Z</time></trkpt><trkpt lat="43.5313632" lon="11.2415333"><ele>398.0</ele><time>2026-05-02T14:40:14.967Z</time></trkpt><trkpt lat="43.531482" lon="11.2416445"><ele>396.75</ele><time>2026-05-02T14:40:15.967Z</time></trkpt><trkpt lat="43.5316027" lon="11.2417443"><ele>395.5</ele><time>2026-05-02T14:40:16.967Z</time></trkpt><trkpt lat="43.5317126" lon="11.2418332"><ele>394.25</ele><time>2026-05-02T14:40:17.967Z</time></trkpt><trkpt lat="43.5318213" lon="11.2419151"><ele>393.0</ele><time>2026-05-02T14:40:18.967Z</time></trkpt><trkpt lat="43.5319126" lon="11.2419701"><ele>393.0</ele><time>2026-05-02T14:40:19.967Z</time></trkpt><trkpt lat="43.531997" lon="11.242014"><ele>393.0</ele><time>2026-05-02T14:40:20.967Z</time></trkpt><trkpt lat="43.5320724" lon="11.2420422"><ele>393.0</ele><time>2026-05-02T14:40:21.968Z</time></trkpt><trkpt lat="43.5321375" lon="11.2420545"><ele>393.0</ele><time>2026-05-02T14:40:22.967Z</time></trkpt><trkpt lat="43.5322301" lon="11.2420531"><ele>393.0</ele><time>2026-05-02T14:40:24.967Z</time></trkpt><trkpt lat="43.5323101" lon="11.2420249"><ele>393.0</ele><time>2026-05-02T14:41:13.967Z</time></trkpt><trkpt lat="43.5323857" lon="11.2420203"><ele>391.75</ele><time>2026-05-02T14:41:14.968Z</time></trkpt><trkpt lat="43.5324934" lon="11.2420181"><ele>390.5</ele><time>2026-05-02T14:41:15.967Z</time></trkpt><trkpt lat="43.532623" lon="11.2420226"><ele>389.25</ele><time>2026-05-02T14:41:16.967Z</time></trkpt><trkpt lat="43.5327764" lon="11.2420317"><ele>388.0</ele><time>2026-05-02T14:41:17.967Z</time></trkpt><trkpt lat="43.5329405" lon="11.2420258"><ele>387.33333333333337</ele><time>2026-05-02T14:41:18.967Z</time></trkpt><trkpt lat="43.5331112" lon="11.2420199"><ele>386.66666666666663</ele><time>2026-05-02T14:41:19.967Z</time></trkpt><trkpt lat="43.5332967" lon="11.2419903"><ele>386.0</ele><time>2026-05-02T14:41:20.967Z</time></trkpt><trkpt lat="43.5334995" lon="11.2419158"><ele>386.0</ele><time>2026-05-02T14:41:21.967Z</time></trkpt><trkpt lat="43.5337142" lon="11.2418412"><ele>386.0</ele><time>2026-05-02T14:41:22.967Z</time></trkpt><trkpt lat="43.5339226" lon="11.2417614"><ele>386.0</ele><time>2026-05-02T14:41:23.967Z</time></trkpt><trkpt lat="43.5341263" lon="11.2416719"><ele>385.66666666666663</ele><time>2026-05-02T14:41:24.967Z</time></trkpt><trkpt lat="43.5343109" lon="11.2415681"><ele>385.33333333333337</ele><time>2026-05-02T14:41:25.968Z</time></trkpt><trkpt lat="43.5344828" lon="11.2414586"><ele>385.0</ele><time>2026-05-02T14:41:26.967Z</time></trkpt><trkpt lat="43.534654" lon="11.2413459"><ele>386.6666666666667</ele><time>2026-05-02T14:41:27.967Z</time></trkpt><trkpt lat="43.5348303" lon="11.2412172"><ele>388.33333333333337</ele><time>2026-05-02T14:41:28.967Z</time></trkpt><trkpt lat="43.5350018" lon="11.241074"><ele>390.0</ele><time>2026-05-02T14:41:29.968Z</time></trkpt><trkpt lat="43.5351743" lon="11.2409124"><ele>390.0</ele><time>2026-05-02T14:41:30.967Z</time></trkpt><trkpt lat="43.5353406" lon="11.2407365"><ele>390.0</ele><time>2026-05-02T14:41:31.968Z</time></trkpt><trkpt lat="43.5355053" lon="11.2405435"><ele>390.0</ele><time>2026-05-02T14:41:32.967Z</time></trkpt><trkpt lat="43.5356603" lon="11.2403352"><ele>392.0</ele><time>2026-05-02T14:41:33.967Z</time></trkpt><trkpt lat="43.535797" lon="11.2401241"><ele>394.0</ele><time>2026-05-02T14:41:34.967Z</time></trkpt><trkpt lat="43.5359103" lon="11.2399146"><ele>396.0</ele><time>2026-05-02T14:41:35.967Z</time></trkpt><trkpt lat="43.5360106" lon="11.2397171"><ele>396.66666666666663</ele><time>2026-05-02T14:41:36.968Z</time></trkpt><trkpt lat="43.536108" lon="11.2395197"><ele>397.3333333333333</ele><time>2026-05-02T14:41:37.967Z</time></trkpt><trkpt lat="43.5362004" lon="11.239312"><ele>398.0</ele><time>2026-05-02T14:41:38.967Z</time></trkpt><trkpt lat="43.5362803" lon="11.2390788"><ele>398.0</ele><time>2026-05-02T14:41:39.967Z</time></trkpt><trkpt lat="43.5363549" lon="11.2388413"><ele>398.0</ele><time>2026-05-02T14:41:40.967Z</time></trkpt><trkpt lat="43.5364272" lon="11.2386012"><ele>398.0</ele><time>2026-05-02T14:41:41.967Z</time></trkpt><trkpt lat="43.5365037" lon="11.2383528"><ele>398.66666666666663</ele><time>2026-05-02T14:41:42.967Z</time></trkpt><trkpt lat="43.5365823" lon="11.238106"><ele>399.33333333333337</ele><time>2026-05-02T14:41:43.968Z</time></trkpt><trkpt lat="43.5366618" lon="11.2378692"><ele>400.0</ele><time>2026-05-02T14:41:44.967Z</time></trkpt><trkpt lat="43.5367517" lon="11.2376411"><ele>400.0</ele><time>2026-05-02T14:41:45.967Z</time></trkpt><trkpt lat="43.5368535" lon="11.2374285"><ele>400.0</ele><time>2026-05-02T14:41:46.968Z</time></trkpt><trkpt lat="43.5369779" lon="11.2372437"><ele>400.0</ele><time>2026-05-02T14:41:47.967Z</time></trkpt><trkpt lat="43.5371223" lon="11.2370779"><ele>398.33333333333337</ele><time>2026-05-02T14:41:48.967Z</time></trkpt><trkpt lat="43.5372736" lon="11.2369251"><ele>396.66666666666663</ele><time>2026-05-02T14:41:49.967Z</time></trkpt><trkpt lat="43.5374249" lon="11.2367838"><ele>395.0</ele><time>2026-05-02T14:41:50.967Z</time></trkpt><trkpt lat="43.5375806" lon="11.2366517"><ele>395.0</ele><time>2026-05-02T14:41:51.967Z</time></trkpt><trkpt lat="43.5377312" lon="11.2365281"><ele>395.0</ele><time>2026-05-02T14:41:52.967Z</time></trkpt><trkpt lat="43.5378804" lon="11.2364015"><ele>395.0</ele><time>2026-05-02T14:41:53.967Z</time></trkpt><trkpt lat="43.5380154" lon="11.2362734"><ele>395.0</ele><time>2026-05-02T14:41:54.967Z</time></trkpt><trkpt lat="43.5381261" lon="11.2361265"><ele>395.0</ele><time>2026-05-02T14:41:55.967Z</time></trkpt><trkpt lat="43.5382072" lon="11.2359549"><ele>395.0</ele><time>2026-05-02T14:41:56.967Z</time></trkpt><trkpt lat="43.5382767" lon="11.2357549"><ele>394.0</ele><time>2026-05-02T14:41:57.968Z</time></trkpt><trkpt lat="43.5383258" lon="11.2355272"><ele>393.0</ele><time>2026-05-02T14:41:58.968Z</time></trkpt><trkpt lat="43.5383569" lon="11.2352693"><ele>392.0</ele><time>2026-05-02T14:41:59.967Z</time></trkpt><trkpt lat="43.5383733" lon="11.2349904"><ele>389.66666666666663</ele><time>2026-05-02T14:42:00.967Z</time></trkpt><trkpt lat="43.5383812" lon="11.2347014"><ele>387.33333333333337</ele><time>2026-05-02T14:42:01.967Z</time></trkpt><trkpt lat="43.5383878" lon="11.2344133"><ele>385.0</ele><time>2026-05-02T14:42:02.967Z</time></trkpt><trkpt lat="43.5383987" lon="11.2341308"><ele>382.6666666666667</ele><time>2026-05-02T14:42:03.967Z</time></trkpt><trkpt lat="43.5384096" lon="11.2338522"><ele>380.33333333333337</ele><time>2026-05-02T14:42:04.967Z</time></trkpt><trkpt lat="43.5384174" lon="11.2335697"><ele>378.0</ele><time>2026-05-02T14:42:05.967Z</time></trkpt><trkpt lat="43.5384228" lon="11.2332904"><ele>377.6666666666667</ele><time>2026-05-02T14:42:06.968Z</time></trkpt><trkpt lat="43.5384265" lon="11.2330142"><ele>377.33333333333337</ele><time>2026-05-02T14:42:07.967Z</time></trkpt><trkpt lat="43.5384386" lon="11.2327516"><ele>377.0</ele><time>2026-05-02T14:42:08.967Z</time></trkpt><trkpt lat="43.5384634" lon="11.2325019"><ele>377.33333333333337</ele><time>2026-05-02T14:42:09.967Z</time></trkpt><trkpt lat="43.5385257" lon="11.232271"><ele>377.6666666666667</ele><time>2026-05-02T14:42:10.967Z</time></trkpt><trkpt lat="43.5386113" lon="11.2320591"><ele>378.0</ele><time>2026-05-02T14:42:11.967Z</time></trkpt><trkpt lat="43.5387219" lon="11.2318626"><ele>378.3333333333333</ele><time>2026-05-02T14:42:12.967Z</time></trkpt><trkpt lat="43.5388557" lon="11.2316925"><ele>378.66666666666663</ele><time>2026-05-02T14:42:13.967Z</time></trkpt><trkpt lat="43.5390198" lon="11.2315472"><ele>379.0</ele><time>2026-05-02T14:42:14.967Z</time></trkpt><trkpt lat="43.5392077" lon="11.2314196"><ele>379.0</ele><time>2026-05-02T14:42:15.968Z</time></trkpt><trkpt lat="43.5394166" lon="11.2312997"><ele>379.0</ele><time>2026-05-02T14:42:16.967Z</time></trkpt><trkpt lat="43.5396225" lon="11.231191"><ele>379.0</ele><time>2026-05-02T14:42:17.967Z</time></trkpt><trkpt lat="43.5398353" lon="11.2310684"><ele>376.0</ele><time>2026-05-02T14:42:18.967Z</time></trkpt><trkpt lat="43.5400452" lon="11.2309514"><ele>373.0</ele><time>2026-05-02T14:42:19.967Z</time></trkpt><trkpt lat="43.5402539" lon="11.2308423"><ele>372.0</ele><time>2026-05-02T14:42:20.968Z</time></trkpt><trkpt lat="43.5404522" lon="11.2307475"><ele>371.0</ele><time>2026-05-02T14:42:21.967Z</time></trkpt><trkpt lat="43.5406449" lon="11.2306552"><ele>370.0</ele><time>2026-05-02T14:42:22.967Z</time></trkpt><trkpt lat="43.5408464" lon="11.2305413"><ele>369.0</ele><time>2026-05-02T14:42:23.967Z</time></trkpt><trkpt lat="43.5410712" lon="11.2304366"><ele>368.0</ele><time>2026-05-02T14:42:24.967Z</time></trkpt><trkpt lat="43.5413153" lon="11.2303408"><ele>367.0</ele><time>2026-05-02T14:42:25.968Z</time></trkpt><trkpt lat="43.5415627" lon="11.2302528"><ele>366.0</ele><time>2026-05-02T14:42:26.967Z</time></trkpt><trkpt lat="43.5418013" lon="11.2301703"><ele>366.0</ele><time>2026-05-02T14:42:27.967Z</time></trkpt><trkpt lat="43.5420272" lon="11.2300897"><ele>366.0</ele><time>2026-05-02T14:42:28.968Z</time></trkpt><trkpt lat="43.5422445" lon="11.2300144"><ele>365.6666666666667</ele><time>2026-05-02T14:42:29.968Z</time></trkpt><trkpt lat="43.5424453" lon="11.2299367"><ele>365.33333333333337</ele><time>2026-05-02T14:42:30.967Z</time></trkpt><trkpt lat="43.5426503" lon="11.2298784"><ele>365.0</ele><time>2026-05-02T14:42:31.967Z</time></trkpt><trkpt lat="43.5428702" lon="11.2298427"><ele>365.0</ele><time>2026-05-02T14:42:32.968Z</time></trkpt><trkpt lat="43.5430912" lon="11.2297877"><ele>365.0</ele><time>2026-05-02T14:42:33.968Z</time></trkpt><trkpt lat="43.5432969" lon="11.229693"><ele>365.0</ele><time>2026-05-02T14:42:34.967Z</time></trkpt><trkpt lat="43.5435079" lon="11.2295727"><ele>364.0</ele><time>2026-05-02T14:42:35.968Z</time></trkpt><trkpt lat="43.5437286" lon="11.2294082"><ele>363.0</ele><time>2026-05-02T14:42:36.967Z</time></trkpt><trkpt lat="43.5439523" lon="11.2292309"><ele>363.0</ele><time>2026-05-02T14:42:37.967Z</time></trkpt><trkpt lat="43.5441661" lon="11.2290556"><ele>363.0</ele><time>2026-05-02T14:42:38.967Z</time></trkpt><trkpt lat="43.5443683" lon="11.2288911"><ele>360.0</ele><time>2026-05-02T14:42:39.967Z</time></trkpt><trkpt lat="43.5445653" lon="11.2287246"><ele>357.0</ele><time>2026-05-02T14:42:40.967Z</time></trkpt><trkpt lat="43.5447612" lon="11.2285618"><ele>357.0</ele><time>2026-05-02T14:42:41.968Z</time></trkpt><trkpt lat="43.5449605" lon="11.2284169"><ele>357.0</ele><time>2026-05-02T14:42:42.967Z</time></trkpt><trkpt lat="43.5451623" lon="11.2282634"><ele>354.5</ele><time>2026-05-02T14:42:43.967Z</time></trkpt><trkpt lat="43.5453648" lon="11.2281084"><ele>352.0</ele><time>2026-05-02T14:42:44.967Z</time></trkpt><trkpt lat="43.5455592" lon="11.2279608"><ele>352.0</ele><time>2026-05-02T14:42:45.967Z</time></trkpt><trkpt lat="43.5457432" lon="11.2278196"><ele>352.0</ele><time>2026-05-02T14:42:46.967Z</time></trkpt><trkpt lat="43.5459203" lon="11.2276826"><ele>352.0</ele><time>2026-05-02T14:42:47.968Z</time></trkpt><trkpt lat="43.5460951" lon="11.227544"><ele>351.3333333333333</ele><time>2026-05-02T14:42:48.967Z</time></trkpt><trkpt lat="43.546269" lon="11.227408"><ele>350.6666666666667</ele><time>2026-05-02T14:42:49.967Z</time></trkpt><trkpt lat="43.5464312" lon="11.2272805"><ele>350.0</ele><time>2026-05-02T14:42:50.968Z</time></trkpt><trkpt lat="43.5465869" lon="11.2271636"><ele>350.0</ele><time>2026-05-02T14:42:51.967Z</time></trkpt><trkpt lat="43.5467303" lon="11.2270439"><ele>350.0</ele><time>2026-05-02T14:42:52.968Z</time></trkpt><trkpt lat="43.5468649" lon="11.2269243"><ele>350.0</ele><time>2026-05-02T14:42:53.967Z</time></trkpt><trkpt lat="43.5469896" lon="11.2268063"><ele>350.0</ele><time>2026-05-02T14:42:54.967Z</time></trkpt><trkpt lat="43.5471073" lon="11.2266933"><ele>350.0</ele><time>2026-05-02T14:42:55.967Z</time></trkpt><trkpt lat="43.5472214" lon="11.2265859"><ele>350.0</ele><time>2026-05-02T14:42:56.967Z</time></trkpt><trkpt lat="43.5473376" lon="11.2264754"><ele>350.0</ele><time>2026-05-02T14:42:57.967Z</time></trkpt><trkpt lat="43.5474551" lon="11.2263531"><ele>350.0</ele><time>2026-05-02T14:42:58.967Z</time></trkpt><trkpt lat="43.5475686" lon="11.226221"><ele>350.0</ele><time>2026-05-02T14:42:59.967Z</time></trkpt><trkpt lat="43.5476772" lon="11.226083"><ele>350.0</ele><time>2026-05-02T14:43:00.967Z</time></trkpt><trkpt lat="43.5477836" lon="11.2259408"><ele>350.0</ele><time>2026-05-02T14:43:01.967Z</time></trkpt><trkpt lat="43.5478793" lon="11.2257705"><ele>345.33333333333337</ele><time>2026-05-02T14:43:02.967Z</time></trkpt><trkpt lat="43.547961" lon="11.2255849"><ele>340.6666666666667</ele><time>2026-05-02T14:43:03.967Z</time></trkpt><trkpt lat="43.548032" lon="11.2253892"><ele>336.0</ele><time>2026-05-02T14:43:04.968Z</time></trkpt><trkpt lat="43.5480942" lon="11.2251845"><ele>336.0</ele><time>2026-05-02T14:43:05.967Z</time></trkpt><trkpt lat="43.5481462" lon="11.2249838"><ele>336.0</ele><time>2026-05-02T14:43:06.967Z</time></trkpt><trkpt lat="43.5482011" lon="11.2247978"><ele>336.0</ele><time>2026-05-02T14:43:07.967Z</time></trkpt><trkpt lat="43.5482915" lon="11.2246226"><ele>339.0</ele><time>2026-05-02T14:43:08.967Z</time></trkpt><trkpt lat="43.5484008" lon="11.2244816"><ele>342.0</ele><time>2026-05-02T14:43:09.967Z</time></trkpt><trkpt lat="43.5485325" lon="11.2243698"><ele>345.0</ele><time>2026-05-02T14:43:10.967Z</time></trkpt><trkpt lat="43.5486775" lon="11.2242603"><ele>345.0</ele><time>2026-05-02T14:43:11.967Z</time></trkpt><trkpt lat="43.5488324" lon="11.2241523"><ele>345.0</ele><time>2026-05-02T14:43:12.968Z</time></trkpt><trkpt lat="43.5489953" lon="11.2240461"><ele>345.0</ele><time>2026-05-02T14:43:13.967Z</time></trkpt><trkpt lat="43.5491499" lon="11.2239293"><ele>345.0</ele><time>2026-05-02T14:43:14.967Z</time></trkpt><trkpt lat="43.5493049" lon="11.2238027"><ele>345.0</ele><time>2026-05-02T14:43:15.967Z</time></trkpt><trkpt lat="43.5494638" lon="11.2236883"><ele>345.0</ele><time>2026-05-02T14:43:16.967Z</time></trkpt><trkpt lat="43.5496282" lon="11.2235794"><ele>340.6666666666667</ele><time>2026-05-02T14:43:17.967Z</time></trkpt><trkpt lat="43.5497896" lon="11.2234628"><ele>336.33333333333337</ele><time>2026-05-02T14:43:18.967Z</time></trkpt><trkpt lat="43.5499486" lon="11.2233519"><ele>332.0</ele><time>2026-05-02T14:43:19.968Z</time></trkpt><trkpt lat="43.5500871" lon="11.2232288"><ele>333.6666666666667</ele><time>2026-05-02T14:43:20.967Z</time></trkpt><trkpt lat="43.5502219" lon="11.223129"><ele>335.3333333333333</ele><time>2026-05-02T14:43:21.967Z</time></trkpt><trkpt lat="43.5503696" lon="11.2230608"><ele>337.0</ele><time>2026-05-02T14:43:22.967Z</time></trkpt><trkpt lat="43.5505185" lon="11.2230122"><ele>337.0</ele><time>2026-05-02T14:43:23.967Z</time></trkpt><trkpt lat="43.5506713" lon="11.2229808"><ele>337.0</ele><time>2026-05-02T14:43:24.967Z</time></trkpt><trkpt lat="43.5508119" lon="11.222964"><ele>337.0</ele><time>2026-05-02T14:43:25.967Z</time></trkpt><trkpt lat="43.5509355" lon="11.2229426"><ele>337.0</ele><time>2026-05-02T14:43:26.967Z</time></trkpt><trkpt lat="43.5510535" lon="11.2228946"><ele>337.0</ele><time>2026-05-02T14:43:27.968Z</time></trkpt><trkpt lat="43.551173" lon="11.2228004"><ele>337.0</ele><time>2026-05-02T14:43:28.968Z</time></trkpt><trkpt lat="43.551304" lon="11.2226677"><ele>337.0</ele><time>2026-05-02T14:43:29.967Z</time></trkpt><trkpt lat="43.5514356" lon="11.2225138"><ele>333.66666666666663</ele><time>2026-05-02T14:43:30.967Z</time></trkpt><trkpt lat="43.5515582" lon="11.2223672"><ele>330.3333333333333</ele><time>2026-05-02T14:43:31.967Z</time></trkpt><trkpt lat="43.5516796" lon="11.2222154"><ele>327.0</ele><time>2026-05-02T14:43:32.967Z</time></trkpt><trkpt lat="43.5518059" lon="11.2220745"><ele>327.0</ele><time>2026-05-02T14:43:33.967Z</time></trkpt><trkpt lat="43.5519173" lon="11.2219402"><ele>327.0</ele><time>2026-05-02T14:43:34.968Z</time></trkpt><trkpt lat="43.5520333" lon="11.2218327"><ele>327.0</ele><time>2026-05-02T14:43:35.968Z</time></trkpt><trkpt lat="43.5521717" lon="11.2217484"><ele>327.0</ele><time>2026-05-02T14:43:36.967Z</time></trkpt><trkpt lat="43.5523222" lon="11.2216854"><ele>323.6666666666667</ele><time>2026-05-02T14:43:37.967Z</time></trkpt><trkpt lat="43.552461" lon="11.2216236"><ele>320.33333333333337</ele><time>2026-05-02T14:43:38.968Z</time></trkpt><trkpt lat="43.5526121" lon="11.2215765"><ele>317.0</ele><time>2026-05-02T14:43:39.967Z</time></trkpt><trkpt lat="43.5527762" lon="11.2215434"><ele>316.0</ele><time>2026-05-02T14:43:40.967Z</time></trkpt><trkpt lat="43.5529158" lon="11.2215407"><ele>315.0</ele><time>2026-05-02T14:43:41.967Z</time></trkpt><trkpt lat="43.5530673" lon="11.2215662"><ele>314.0</ele><time>2026-05-02T14:43:42.967Z</time></trkpt><trkpt lat="43.5532237" lon="11.2216088"><ele>314.0</ele><time>2026-05-02T14:43:43.967Z</time></trkpt><trkpt lat="43.5533812" lon="11.2216594"><ele>314.0</ele><time>2026-05-02T14:43:44.967Z</time></trkpt><trkpt lat="43.55353" lon="11.2217216"><ele>314.0</ele><time>2026-05-02T14:43:45.968Z</time></trkpt><trkpt lat="43.5536705" lon="11.2218033"><ele>317.0</ele><time>2026-05-02T14:43:46.967Z</time></trkpt><trkpt lat="43.5538158" lon="11.2218909"><ele>320.0</ele><time>2026-05-02T14:43:47.967Z</time></trkpt><trkpt lat="43.5539552" lon="11.2220054"><ele>323.0</ele><time>2026-05-02T14:43:48.967Z</time></trkpt><trkpt lat="43.5540935" lon="11.2221356"><ele>323.0</ele><time>2026-05-02T14:43:49.967Z</time></trkpt><trkpt lat="43.5542286" lon="11.2222805"><ele>323.0</ele><time>2026-05-02T14:43:50.966Z</time></trkpt><trkpt lat="43.5543816" lon="11.2223879"><ele>323.0</ele><time>2026-05-02T14:43:51.966Z</time></trkpt><trkpt lat="43.5545381" lon="11.2224851"><ele>320.33333333333337</ele><time>2026-05-02T14:43:52.966Z</time></trkpt><trkpt lat="43.5546881" lon="11.2225633"><ele>317.6666666666667</ele><time>2026-05-02T14:43:53.966Z</time></trkpt><trkpt lat="43.5548247" lon="11.2226597"><ele>315.0</ele><time>2026-05-02T14:43:54.966Z</time></trkpt><trkpt lat="43.5549591" lon="11.2227547"><ele>315.0</ele><time>2026-05-02T14:43:55.966Z</time></trkpt><trkpt lat="43.5550936" lon="11.2228317"><ele>315.0</ele><time>2026-05-02T14:43:56.967Z</time></trkpt><trkpt lat="43.5552249" lon="11.2228679"><ele>315.0</ele><time>2026-05-02T14:43:57.967Z</time></trkpt><trkpt lat="43.5553563" lon="11.2228663"><ele>315.0</ele><time>2026-05-02T14:43:58.966Z</time></trkpt><trkpt lat="43.5554864" lon="11.2228505"><ele>314.75</ele><time>2026-05-02T14:43:59.966Z</time></trkpt><trkpt lat="43.5556148" lon="11.2227902"><ele>314.5</ele><time>2026-05-02T14:44:00.966Z</time></trkpt><trkpt lat="43.555748" lon="11.2227376"><ele>314.25</ele><time>2026-05-02T14:44:01.967Z</time></trkpt><trkpt lat="43.5558922" lon="11.2227296"><ele>314.0</ele><time>2026-05-02T14:44:02.966Z</time></trkpt><trkpt lat="43.5560293" lon="11.2227669"><ele>314.0</ele><time>2026-05-02T14:44:03.966Z</time></trkpt><trkpt lat="43.5561589" lon="11.2227975"><ele>314.0</ele><time>2026-05-02T14:44:04.966Z</time></trkpt><trkpt lat="43.5562929" lon="11.2228179"><ele>314.0</ele><time>2026-05-02T14:44:05.967Z</time></trkpt><trkpt lat="43.556429" lon="11.22279"><ele>314.0</ele><time>2026-05-02T14:44:06.967Z</time></trkpt><trkpt lat="43.5565535" lon="11.2227525"><ele>312.75</ele><time>2026-05-02T14:44:07.967Z</time></trkpt><trkpt lat="43.5566745" lon="11.2227202"><ele>311.5</ele><time>2026-05-02T14:44:08.966Z</time></trkpt><trkpt lat="43.5567892" lon="11.2227153"><ele>310.25</ele><time>2026-05-02T14:44:09.966Z</time></trkpt><trkpt lat="43.5568975" lon="11.2227595"><ele>309.0</ele><time>2026-05-02T14:44:10.966Z</time></trkpt><trkpt lat="43.5569913" lon="11.222835"><ele>310.0</ele><time>2026-05-02T14:44:11.966Z</time></trkpt><trkpt lat="43.557069" lon="11.2229462"><ele>311.0</ele><time>2026-05-02T14:44:12.966Z</time></trkpt><trkpt lat="43.5571299" lon="11.2230905"><ele>312.0</ele><time>2026-05-02T14:44:13.966Z</time></trkpt><trkpt lat="43.5571777" lon="11.2232451"><ele>313.0</ele><time>2026-05-02T14:44:14.966Z</time></trkpt><trkpt lat="43.557232" lon="11.2233906"><ele>309.75</ele><time>2026-05-02T14:44:15.966Z</time></trkpt><trkpt lat="43.5573049" lon="11.2235257"><ele>306.5</ele><time>2026-05-02T14:44:16.966Z</time></trkpt><trkpt lat="43.5574035" lon="11.2236388"><ele>303.25</ele><time>2026-05-02T14:44:17.967Z</time></trkpt><trkpt lat="43.5575069" lon="11.2237472"><ele>300.0</ele><time>2026-05-02T14:44:18.966Z</time></trkpt><trkpt lat="43.5576031" lon="11.2238736"><ele>298.5</ele><time>2026-05-02T14:44:19.966Z</time></trkpt><trkpt lat="43.5577022" lon="11.2240151"><ele>297.0</ele><time>2026-05-02T14:44:20.966Z</time></trkpt><trkpt lat="43.5577852" lon="11.2241526"><ele>295.5</ele><time>2026-05-02T14:44:21.966Z</time></trkpt><trkpt lat="43.5578608" lon="11.2242697"><ele>294.0</ele><time>2026-05-02T14:44:22.966Z</time></trkpt><trkpt lat="43.5579258" lon="11.2243966"><ele>294.0</ele><time>2026-05-02T14:44:23.967Z</time></trkpt><trkpt lat="43.5579989" lon="11.2245033"><ele>294.0</ele><time>2026-05-02T14:44:24.966Z</time></trkpt><trkpt lat="43.5580831" lon="11.2245837"><ele>294.0</ele><time>2026-05-02T14:44:25.966Z</time></trkpt><trkpt lat="43.5581867" lon="11.2246387"><ele>294.0</ele><time>2026-05-02T14:44:26.966Z</time></trkpt><trkpt lat="43.5582993" lon="11.224641"><ele>294.0</ele><time>2026-05-02T14:44:27.967Z</time></trkpt><trkpt lat="43.5584154" lon="11.2246261"><ele>294.0</ele><time>2026-05-02T14:44:28.966Z</time></trkpt><trkpt lat="43.5585308" lon="11.2246247"><ele>294.0</ele><time>2026-05-02T14:44:29.966Z</time></trkpt><trkpt lat="43.5586493" lon="11.2246649"><ele>294.0</ele><time>2026-05-02T14:44:30.966Z</time></trkpt><trkpt lat="43.5587678" lon="11.2247476"><ele>294.0</ele><time>2026-05-02T14:44:31.966Z</time></trkpt><trkpt lat="43.5588798" lon="11.2248637"><ele>290.75</ele><time>2026-05-02T14:44:32.966Z</time></trkpt><trkpt lat="43.558984" lon="11.2249853"><ele>287.5</ele><time>2026-05-02T14:44:33.967Z</time></trkpt><trkpt lat="43.5590808" lon="11.2250919"><ele>284.25</ele><time>2026-05-02T14:44:34.966Z</time></trkpt><trkpt lat="43.5591894" lon="11.2251731"><ele>281.0</ele><time>2026-05-02T14:44:35.966Z</time></trkpt><trkpt lat="43.5592973" lon="11.2252179"><ele>281.0</ele><time>2026-05-02T14:44:36.966Z</time></trkpt><trkpt lat="43.5594162" lon="11.2252138"><ele>281.0</ele><time>2026-05-02T14:44:37.966Z</time></trkpt><trkpt lat="43.5595472" lon="11.2251606"><ele>281.0</ele><time>2026-05-02T14:44:38.966Z</time></trkpt><trkpt lat="43.5597034" lon="11.2250757"><ele>281.0</ele><time>2026-05-02T14:44:39.966Z</time></trkpt><trkpt lat="43.5598823" lon="11.2249699"><ele>280.0</ele><time>2026-05-02T14:44:40.966Z</time></trkpt><trkpt lat="43.5600795" lon="11.2248687"><ele>279.0</ele><time>2026-05-02T14:44:41.966Z</time></trkpt><trkpt lat="43.5602516" lon="11.2247763"><ele>278.0</ele><time>2026-05-02T14:44:42.966Z</time></trkpt><trkpt lat="43.5604196" lon="11.2246864"><ele>274.0</ele><time>2026-05-02T14:44:43.966Z</time></trkpt><trkpt lat="43.560588" lon="11.2246082"><ele>270.0</ele><time>2026-05-02T14:44:44.967Z</time></trkpt><trkpt lat="43.560749" lon="11.2245292"><ele>266.0</ele><time>2026-05-02T14:44:45.966Z</time></trkpt><trkpt lat="43.5608951" lon="11.2244553"><ele>266.0</ele><time>2026-05-02T14:44:46.966Z</time></trkpt><trkpt lat="43.561036" lon="11.2243748"><ele>266.0</ele><time>2026-05-02T14:44:47.966Z</time></trkpt><trkpt lat="43.5611709" lon="11.2242566"><ele>266.0</ele><time>2026-05-02T14:44:48.966Z</time></trkpt><trkpt lat="43.5613003" lon="11.2241021"><ele>262.0</ele><time>2026-05-02T14:44:49.966Z</time></trkpt><trkpt lat="43.5614232" lon="11.2239356"><ele>258.0</ele><time>2026-05-02T14:44:50.966Z</time></trkpt><trkpt lat="43.5615488" lon="11.2237777"><ele>254.0</ele><time>2026-05-02T14:44:51.966Z</time></trkpt><trkpt lat="43.5616734" lon="11.2236382"><ele>254.0</ele><time>2026-05-02T14:44:52.966Z</time></trkpt><trkpt lat="43.5618049" lon="11.2235312"><ele>254.0</ele><time>2026-05-02T14:44:53.966Z</time></trkpt><trkpt lat="43.5619295" lon="11.2234463"><ele>254.0</ele><time>2026-05-02T14:44:54.966Z</time></trkpt><trkpt lat="43.5620293" lon="11.2233746"><ele>254.0</ele><time>2026-05-02T14:44:55.967Z</time></trkpt><trkpt lat="43.5621359" lon="11.2233642"><ele>252.00000000000003</ele><time>2026-05-02T14:44:56.966Z</time></trkpt><trkpt lat="43.5622002" lon="11.2232809"><ele>250.0</ele><time>2026-05-02T14:44:57.966Z</time></trkpt><trkpt lat="43.56223" lon="11.2231912"><ele>248.0</ele><time>2026-05-02T14:44:58.966Z</time></trkpt><trkpt lat="43.5622164" lon="11.2231052"><ele>246.0</ele><time>2026-05-02T14:44:59.966Z</time></trkpt><trkpt lat="43.5621631" lon="11.2230207"><ele>244.00000000000003</ele><time>2026-05-02T14:45:00.967Z</time></trkpt><trkpt lat="43.5620837" lon="11.2229327"><ele>242.0</ele><time>2026-05-02T14:45:01.966Z</time></trkpt><trkpt lat="43.5619782" lon="11.2228506"><ele>241.5</ele><time>2026-05-02T14:45:02.966Z</time></trkpt><trkpt lat="43.5618509" lon="11.2227655"><ele>241.0</ele><time>2026-05-02T14:45:03.966Z</time></trkpt><trkpt lat="43.5617263" lon="11.2227204"><ele>240.5</ele><time>2026-05-02T14:45:04.966Z</time></trkpt><trkpt lat="43.5616096" lon="11.2226882"><ele>240.0</ele><time>2026-05-02T14:45:05.966Z</time></trkpt><trkpt lat="43.5615058" lon="11.2226461"><ele>240.0</ele><time>2026-05-02T14:45:06.966Z</time></trkpt><trkpt lat="43.5614207" lon="11.2225773"><ele>240.0</ele><time>2026-05-02T14:45:07.967Z</time></trkpt><trkpt lat="43.561357" lon="11.222489"><ele>240.0</ele><time>2026-05-02T14:45:08.967Z</time></trkpt><trkpt lat="43.5613197" lon="11.2223744"><ele>240.0</ele><time>2026-05-02T14:45:09.966Z</time></trkpt><trkpt lat="43.5613208" lon="11.2222358"><ele>240.0</ele><time>2026-05-02T14:45:10.966Z</time></trkpt><trkpt lat="43.5613641" lon="11.2221091"><ele>240.25</ele><time>2026-05-02T14:45:11.967Z</time></trkpt><trkpt lat="43.5614387" lon="11.2220073"><ele>240.5</ele><time>2026-05-02T14:45:12.966Z</time></trkpt><trkpt lat="43.5615561" lon="11.221934"><ele>240.75</ele><time>2026-05-02T14:45:13.966Z</time></trkpt><trkpt lat="43.5617119" lon="11.2218616"><ele>241.0</ele><time>2026-05-02T14:45:14.966Z</time></trkpt><trkpt lat="43.5618861" lon="11.2217816"><ele>242.66666666666666</ele><time>2026-05-02T14:45:15.967Z</time></trkpt><trkpt lat="43.5620775" lon="11.2216843"><ele>244.33333333333331</ele><time>2026-05-02T14:45:16.966Z</time></trkpt><trkpt lat="43.562282" lon="11.2215819"><ele>246.0</ele><time>2026-05-02T14:45:17.966Z</time></trkpt><trkpt lat="43.5624896" lon="11.2214813"><ele>246.0</ele><time>2026-05-02T14:45:18.966Z</time></trkpt><trkpt lat="43.5626841" lon="11.2213917"><ele>246.0</ele><time>2026-05-02T14:45:19.967Z</time></trkpt><trkpt lat="43.5628764" lon="11.2213096"><ele>246.0</ele><time>2026-05-02T14:45:20.966Z</time></trkpt><trkpt lat="43.5630559" lon="11.2212455"><ele>241.33333333333331</ele><time>2026-05-02T14:45:21.966Z</time></trkpt><trkpt lat="43.5632297" lon="11.2211806"><ele>236.66666666666666</ele><time>2026-05-02T14:45:22.966Z</time></trkpt><trkpt lat="43.5633865" lon="11.2211129"><ele>232.0</ele><time>2026-05-02T14:45:23.966Z</time></trkpt><trkpt lat="43.5635207" lon="11.2210157"><ele>232.0</ele><time>2026-05-02T14:45:24.966Z</time></trkpt><trkpt lat="43.563635" lon="11.2208697"><ele>232.0</ele><time>2026-05-02T14:45:25.966Z</time></trkpt><trkpt lat="43.563732" lon="11.220681"><ele>232.0</ele><time>2026-05-02T14:45:26.966Z</time></trkpt><trkpt lat="43.5638087" lon="11.2204485"><ele>226.33333333333331</ele><time>2026-05-02T14:45:27.966Z</time></trkpt><trkpt lat="43.5638754" lon="11.2202023"><ele>220.66666666666669</ele><time>2026-05-02T14:45:28.966Z</time></trkpt><trkpt lat="43.5639367" lon="11.2199434"><ele>215.0</ele><time>2026-05-02T14:45:29.966Z</time></trkpt><trkpt lat="43.5640098" lon="11.2196771"><ele>215.0</ele><time>2026-05-02T14:45:30.967Z</time></trkpt><trkpt lat="43.5640836" lon="11.2193719"><ele>215.0</ele><time>2026-05-02T14:45:31.966Z</time></trkpt><trkpt lat="43.5641582" lon="11.2190763"><ele>216.0</ele><time>2026-05-02T14:45:32.966Z</time></trkpt><trkpt lat="43.5642301" lon="11.2187887"><ele>217.0</ele><time>2026-05-02T14:45:33.966Z</time></trkpt><trkpt lat="43.5642964" lon="11.2185133"><ele>218.0</ele><time>2026-05-02T14:45:34.967Z</time></trkpt><trkpt lat="43.5643592" lon="11.2182456"><ele>218.0</ele><time>2026-05-02T14:45:35.966Z</time></trkpt><trkpt lat="43.5644205" lon="11.2179877"><ele>218.0</ele><time>2026-05-02T14:45:36.966Z</time></trkpt><trkpt lat="43.5644786" lon="11.2177322"><ele>218.0</ele><time>2026-05-02T14:45:37.966Z</time></trkpt><trkpt lat="43.5645518" lon="11.2175058"><ele>213.33333333333334</ele><time>2026-05-02T14:45:38.966Z</time></trkpt><trkpt lat="43.5646262" lon="11.2173102"><ele>208.66666666666669</ele><time>2026-05-02T14:45:39.966Z</time></trkpt><trkpt lat="43.5647379" lon="11.2171362"><ele>204.0</ele><time>2026-05-02T14:45:40.966Z</time></trkpt><trkpt lat="43.5648733" lon="11.2169885"><ele>204.0</ele><time>2026-05-02T14:45:41.966Z</time></trkpt><trkpt lat="43.565035" lon="11.216876"><ele>204.0</ele><time>2026-05-02T14:45:42.966Z</time></trkpt><trkpt lat="43.5652302" lon="11.216779"><ele>204.0</ele><time>2026-05-02T14:45:43.967Z</time></trkpt><trkpt lat="43.5654386" lon="11.2166811"><ele>204.0</ele><time>2026-05-02T14:45:44.966Z</time></trkpt><trkpt lat="43.5656578" lon="11.21658"><ele>204.0</ele><time>2026-05-02T14:45:45.966Z</time></trkpt><trkpt lat="43.5658919" lon="11.216486"><ele>205.5</ele><time>2026-05-02T14:45:46.966Z</time></trkpt><trkpt lat="43.5661228" lon="11.2163943"><ele>207.0</ele><time>2026-05-02T14:45:47.966Z</time></trkpt><trkpt lat="43.5663445" lon="11.2163133"><ele>207.0</ele><time>2026-05-02T14:45:48.966Z</time></trkpt><trkpt lat="43.5665561" lon="11.2162578"><ele>207.0</ele><time>2026-05-02T14:45:49.966Z</time></trkpt><trkpt lat="43.5667636" lon="11.2162145"><ele>207.0</ele><time>2026-05-02T14:45:50.966Z</time></trkpt><trkpt lat="43.5669588" lon="11.2161729"><ele>204.0</ele><time>2026-05-02T14:45:51.966Z</time></trkpt><trkpt lat="43.5671482" lon="11.2161364"><ele>201.0</ele><time>2026-05-02T14:45:52.966Z</time></trkpt><trkpt lat="43.567332" lon="11.216099"><ele>198.0</ele><time>2026-05-02T14:45:53.966Z</time></trkpt><trkpt lat="43.5675168" lon="11.2160656"><ele>198.0</ele><time>2026-05-02T14:45:54.966Z</time></trkpt><trkpt lat="43.5676911" lon="11.2160261"><ele>198.0</ele><time>2026-05-02T14:45:55.966Z</time></trkpt><trkpt lat="43.5678732" lon="11.2159696"><ele>198.0</ele><time>2026-05-02T14:45:56.966Z</time></trkpt><trkpt lat="43.5680725" lon="11.2159028"><ele>195.0</ele><time>2026-05-02T14:45:57.966Z</time></trkpt><trkpt lat="43.5682712" lon="11.2158385"><ele>192.0</ele><time>2026-05-02T14:45:58.966Z</time></trkpt><trkpt lat="43.5684646" lon="11.2157652"><ele>189.0</ele><time>2026-05-02T14:45:59.967Z</time></trkpt><trkpt lat="43.5686584" lon="11.2156843"><ele>191.66666666666669</ele><time>2026-05-02T14:46:00.967Z</time></trkpt><trkpt lat="43.5688575" lon="11.2156024"><ele>194.33333333333334</ele><time>2026-05-02T14:46:01.966Z</time></trkpt><trkpt lat="43.5690633" lon="11.2155209"><ele>197.0</ele><time>2026-05-02T14:46:02.966Z</time></trkpt><trkpt lat="43.569263" lon="11.215447"><ele>197.0</ele><time>2026-05-02T14:46:03.966Z</time></trkpt><trkpt lat="43.5694554" lon="11.2153722"><ele>197.0</ele><time>2026-05-02T14:46:04.966Z</time></trkpt><trkpt lat="43.5696406" lon="11.2152923"><ele>197.0</ele><time>2026-05-02T14:46:05.966Z</time></trkpt><trkpt lat="43.5698154" lon="11.2152145"><ele>193.33333333333334</ele><time>2026-05-02T14:46:06.966Z</time></trkpt><trkpt lat="43.569982" lon="11.2151444"><ele>189.66666666666669</ele><time>2026-05-02T14:46:07.966Z</time></trkpt><trkpt lat="43.5701399" lon="11.2150758"><ele>186.0</ele><time>2026-05-02T14:46:08.966Z</time></trkpt><trkpt lat="43.5702875" lon="11.2150164"><ele>185.0</ele><time>2026-05-02T14:46:09.966Z</time></trkpt><trkpt lat="43.5704311" lon="11.2149728"><ele>184.0</ele><time>2026-05-02T14:46:10.966Z</time></trkpt><trkpt lat="43.5705685" lon="11.2149575"><ele>183.0</ele><time>2026-05-02T14:46:11.967Z</time></trkpt><trkpt lat="43.5706975" lon="11.2149669"><ele>182.0</ele><time>2026-05-02T14:46:12.967Z</time></trkpt><trkpt lat="43.5708278" lon="11.2150011"><ele>182.0</ele><time>2026-05-02T14:46:13.966Z</time></trkpt><trkpt lat="43.5709554" lon="11.2150687"><ele>182.0</ele><time>2026-05-02T14:46:14.966Z</time></trkpt><trkpt lat="43.5710728" lon="11.2151676"><ele>182.0</ele><time>2026-05-02T14:46:15.966Z</time></trkpt><trkpt lat="43.5711806" lon="11.2152877"><ele>182.0</ele><time>2026-05-02T14:46:16.966Z</time></trkpt><trkpt lat="43.5712717" lon="11.2154069"><ele>181.5</ele><time>2026-05-02T14:46:17.967Z</time></trkpt><trkpt lat="43.5713627" lon="11.2155263"><ele>181.0</ele><time>2026-05-02T14:46:18.967Z</time></trkpt><trkpt lat="43.5714532" lon="11.21565"><ele>180.5</ele><time>2026-05-02T14:46:19.967Z</time></trkpt><trkpt lat="43.5715472" lon="11.2157801"><ele>180.0</ele><time>2026-05-02T14:46:20.966Z</time></trkpt><trkpt lat="43.5716355" lon="11.2158981"><ele>180.0</ele><time>2026-05-02T14:46:21.966Z</time></trkpt><trkpt lat="43.5717191" lon="11.216021"><ele>180.0</ele><time>2026-05-02T14:46:22.966Z</time></trkpt><trkpt lat="43.5718046" lon="11.2161412"><ele>180.0</ele><time>2026-05-02T14:46:23.966Z</time></trkpt><trkpt lat="43.5719015" lon="11.2162487"><ele>180.0</ele><time>2026-05-02T14:46:24.966Z</time></trkpt><trkpt lat="43.5720078" lon="11.216344"><ele>179.75</ele><time>2026-05-02T14:46:25.966Z</time></trkpt><trkpt lat="43.5721249" lon="11.2164273"><ele>179.5</ele><time>2026-05-02T14:46:26.967Z</time></trkpt><trkpt lat="43.57225" lon="11.2165028"><ele>179.25</ele><time>2026-05-02T14:46:27.966Z</time></trkpt><trkpt lat="43.5723858" lon="11.2165498"><ele>179.0</ele><time>2026-05-02T14:46:28.966Z</time></trkpt><trkpt lat="43.5725352" lon="11.2165869"><ele>180.33333333333331</ele><time>2026-05-02T14:46:29.966Z</time></trkpt><trkpt lat="43.5726941" lon="11.2165966"><ele>181.66666666666666</ele><time>2026-05-02T14:46:30.966Z</time></trkpt><trkpt lat="43.5728624" lon="11.2165699"><ele>183.0</ele><time>2026-05-02T14:46:31.966Z</time></trkpt><trkpt lat="43.5730189" lon="11.2165197"><ele>182.0</ele><time>2026-05-02T14:46:32.966Z</time></trkpt><trkpt lat="43.573167" lon="11.2164532"><ele>181.0</ele><time>2026-05-02T14:46:33.966Z</time></trkpt><trkpt lat="43.5732933" lon="11.2163788"><ele>180.0</ele><time>2026-05-02T14:46:34.967Z</time></trkpt><trkpt lat="43.5733973" lon="11.2163107"><ele>179.0</ele><time>2026-05-02T14:46:35.966Z</time></trkpt><trkpt lat="43.5734903" lon="11.2162431"><ele>179.0</ele><time>2026-05-02T14:46:36.966Z</time></trkpt><trkpt lat="43.5736046" lon="11.216167"><ele>179.0</ele><time>2026-05-02T14:46:37.966Z</time></trkpt><trkpt lat="43.5737322" lon="11.2160725"><ele>179.0</ele><time>2026-05-02T14:46:38.966Z</time></trkpt><trkpt lat="43.5738739" lon="11.215992"><ele>179.0</ele><time>2026-05-02T14:46:39.966Z</time></trkpt><trkpt lat="43.5740325" lon="11.2159258"><ele>179.33333333333331</ele><time>2026-05-02T14:46:40.966Z</time></trkpt><trkpt lat="43.5741919" lon="11.2158449"><ele>179.66666666666666</ele><time>2026-05-02T14:46:41.966Z</time></trkpt><trkpt lat="43.574362" lon="11.2157644"><ele>180.0</ele><time>2026-05-02T14:46:42.966Z</time></trkpt><trkpt lat="43.574543" lon="11.2156883"><ele>178.66666666666666</ele><time>2026-05-02T14:46:43.967Z</time></trkpt><trkpt lat="43.5747263" lon="11.2156154"><ele>177.33333333333331</ele><time>2026-05-02T14:46:44.966Z</time></trkpt><trkpt lat="43.5749082" lon="11.2155418"><ele>176.0</ele><time>2026-05-02T14:46:45.966Z</time></trkpt><trkpt lat="43.57509" lon="11.2154668"><ele>176.0</ele><time>2026-05-02T14:46:46.967Z</time></trkpt><trkpt lat="43.5752729" lon="11.2153983"><ele>176.0</ele><time>2026-05-02T14:46:47.966Z</time></trkpt><trkpt lat="43.575443" lon="11.2153257"><ele>176.0</ele><time>2026-05-02T14:46:48.966Z</time></trkpt><trkpt lat="43.5756058" lon="11.2152525"><ele>176.33333333333331</ele><time>2026-05-02T14:46:49.966Z</time></trkpt><trkpt lat="43.5757605" lon="11.2151905"><ele>176.66666666666666</ele><time>2026-05-02T14:46:50.966Z</time></trkpt><trkpt lat="43.575909" lon="11.2151304"><ele>177.0</ele><time>2026-05-02T14:46:51.966Z</time></trkpt><trkpt lat="43.5760471" lon="11.2150707"><ele>177.0</ele><time>2026-05-02T14:46:52.966Z</time></trkpt><trkpt lat="43.5761838" lon="11.2150064"><ele>177.0</ele><time>2026-05-02T14:46:53.967Z</time></trkpt><trkpt lat="43.5763302" lon="11.2149347"><ele>177.0</ele><time>2026-05-02T14:46:54.966Z</time></trkpt><trkpt lat="43.5764793" lon="11.214866"><ele>175.66666666666666</ele><time>2026-05-02T14:46:55.966Z</time></trkpt><trkpt lat="43.5766291" lon="11.2147951"><ele>174.33333333333331</ele><time>2026-05-02T14:46:56.966Z</time></trkpt><trkpt lat="43.576779" lon="11.2147259"><ele>173.0</ele><time>2026-05-02T14:46:57.966Z</time></trkpt><trkpt lat="43.5769287" lon="11.214662"><ele>173.66666666666666</ele><time>2026-05-02T14:46:58.966Z</time></trkpt><trkpt lat="43.5770801" lon="11.2145963"><ele>174.33333333333334</ele><time>2026-05-02T14:46:59.966Z</time></trkpt><trkpt lat="43.5772304" lon="11.2145223"><ele>175.0</ele><time>2026-05-02T14:47:00.966Z</time></trkpt><trkpt lat="43.5773736" lon="11.2144311"><ele>175.0</ele><time>2026-05-02T14:47:01.966Z</time></trkpt><trkpt lat="43.5775142" lon="11.2143079"><ele>175.0</ele><time>2026-05-02T14:47:02.966Z</time></trkpt><trkpt lat="43.5776471" lon="11.2141579"><ele>175.0</ele><time>2026-05-02T14:47:03.966Z</time></trkpt><trkpt lat="43.5777741" lon="11.2139923"><ele>175.33333333333334</ele><time>2026-05-02T14:47:04.966Z</time></trkpt><trkpt lat="43.5778913" lon="11.2138264"><ele>175.66666666666666</ele><time>2026-05-02T14:47:05.966Z</time></trkpt><trkpt lat="43.5780048" lon="11.2136741"><ele>176.0</ele><time>2026-05-02T14:47:06.966Z</time></trkpt><trkpt lat="43.5781151" lon="11.2135242"><ele>176.0</ele><time>2026-05-02T14:47:07.966Z</time></trkpt><trkpt lat="43.5782105" lon="11.2133832"><ele>176.0</ele><time>2026-05-02T14:47:08.967Z</time></trkpt><trkpt lat="43.5783146" lon="11.2132364"><ele>176.0</ele><time>2026-05-02T14:47:09.967Z</time></trkpt><trkpt lat="43.5784204" lon="11.2130928"><ele>176.0</ele><time>2026-05-02T14:47:10.966Z</time></trkpt><trkpt lat="43.5785363" lon="11.2129506"><ele>175.66666666666666</ele><time>2026-05-02T14:47:11.966Z</time></trkpt><trkpt lat="43.578663" lon="11.2128206"><ele>175.33333333333334</ele><time>2026-05-02T14:47:12.966Z</time></trkpt><trkpt lat="43.5787964" lon="11.212709"><ele>175.0</ele><time>2026-05-02T14:47:13.966Z</time></trkpt><trkpt lat="43.5789412" lon="11.212622"><ele>175.0</ele><time>2026-05-02T14:47:14.966Z</time></trkpt><trkpt lat="43.5790906" lon="11.2125481"><ele>175.0</ele><time>2026-05-02T14:47:15.967Z</time></trkpt><trkpt lat="43.5792397" lon="11.212472"><ele>175.0</ele><time>2026-05-02T14:47:16.966Z</time></trkpt><trkpt lat="43.5793796" lon="11.2124015"><ele>175.0</ele><time>2026-05-02T14:47:17.966Z</time></trkpt><trkpt lat="43.5795067" lon="11.2123393"><ele>175.0</ele><time>2026-05-02T14:47:18.966Z</time></trkpt><trkpt lat="43.5796299" lon="11.2122813"><ele>175.0</ele><time>2026-05-02T14:47:19.966Z</time></trkpt><trkpt lat="43.5797528" lon="11.2122229"><ele>175.0</ele><time>2026-05-02T14:47:20.966Z</time></trkpt><trkpt lat="43.5798733" lon="11.21217"><ele>174.75</ele><time>2026-05-02T14:47:21.966Z</time></trkpt><trkpt lat="43.5800007" lon="11.2121314"><ele>174.5</ele><time>2026-05-02T14:47:22.966Z</time></trkpt><trkpt lat="43.5801333" lon="11.2121097"><ele>174.25</ele><time>2026-05-02T14:47:23.966Z</time></trkpt><trkpt lat="43.5802718" lon="11.2120828"><ele>174.0</ele><time>2026-05-02T14:47:24.966Z</time></trkpt><trkpt lat="43.5804115" lon="11.2120482"><ele>174.0</ele><time>2026-05-02T14:47:25.966Z</time></trkpt><trkpt lat="43.5805679" lon="11.2120239"><ele>174.0</ele><time>2026-05-02T14:47:26.966Z</time></trkpt><trkpt lat="43.5807238" lon="11.211996"><ele>174.0</ele><time>2026-05-02T14:47:27.966Z</time></trkpt><trkpt lat="43.5808654" lon="11.2119773"><ele>174.0</ele><time>2026-05-02T14:47:28.966Z</time></trkpt><trkpt lat="43.5810103" lon="11.211976"><ele>174.0</ele><time>2026-05-02T14:47:29.966Z</time></trkpt><trkpt lat="43.5811603" lon="11.2120016"><ele>174.0</ele><time>2026-05-02T14:47:30.966Z</time></trkpt><trkpt lat="43.5812919" lon="11.2120305"><ele>174.0</ele><time>2026-05-02T14:47:31.966Z</time></trkpt><trkpt lat="43.5814382" lon="11.2120742"><ele>174.66666666666666</ele><time>2026-05-02T14:47:32.966Z</time></trkpt><trkpt lat="43.5815933" lon="11.2120743"><ele>175.33333333333331</ele><time>2026-05-02T14:47:33.967Z</time></trkpt><trkpt lat="43.5817441" lon="11.2120366"><ele>176.0</ele><time>2026-05-02T14:47:34.966Z</time></trkpt><trkpt lat="43.5818917" lon="11.211989"><ele>176.5</ele><time>2026-05-02T14:47:35.966Z</time></trkpt><trkpt lat="43.582025" lon="11.2119291"><ele>177.0</ele><time>2026-05-02T14:47:36.966Z</time></trkpt><trkpt lat="43.5821587" lon="11.2118664"><ele>177.5</ele><time>2026-05-02T14:47:37.966Z</time></trkpt><trkpt lat="43.5822959" lon="11.2118007"><ele>178.0</ele><time>2026-05-02T14:47:38.966Z</time></trkpt><trkpt lat="43.5824299" lon="11.2117378"><ele>178.0</ele><time>2026-05-02T14:47:39.966Z</time></trkpt><trkpt lat="43.5825606" lon="11.2116765"><ele>178.0</ele><time>2026-05-02T14:47:40.966Z</time></trkpt><trkpt lat="43.582683" lon="11.2116214"><ele>178.0</ele><time>2026-05-02T14:47:41.966Z</time></trkpt><trkpt lat="43.5827915" lon="11.2115731"><ele>178.0</ele><time>2026-05-02T14:47:42.966Z</time></trkpt><trkpt lat="43.5828878" lon="11.2115308"><ele>177.99999999999997</ele><time>2026-05-02T14:47:43.966Z</time></trkpt><trkpt lat="43.5829702" lon="11.2114961"><ele>178.0</ele><time>2026-05-02T14:47:44.966Z</time></trkpt><trkpt lat="43.5830353" lon="11.2114705"><ele>178.0</ele><time>2026-05-02T14:47:45.966Z</time></trkpt><trkpt lat="43.5831102" lon="11.2114655"><ele>178.0</ele><time>2026-05-02T14:47:47.967Z</time></trkpt><trkpt lat="43.5831518" lon="11.2115328"><ele>178.0</ele><time>2026-05-02T14:47:58.966Z</time></trkpt><trkpt lat="43.5831788" lon="11.2116216"><ele>177.99999999999997</ele><time>2026-05-02T14:48:00.967Z</time></trkpt><trkpt lat="43.5832409" lon="11.2116518"><ele>178.0</ele><time>2026-05-02T14:48:09.966Z</time></trkpt><trkpt lat="43.583247" lon="11.2117606"><ele>178.0</ele><time>2026-05-02T14:48:14.966Z</time></trkpt><trkpt lat="43.5832816" lon="11.2118483"><ele>178.0</ele><time>2026-05-02T14:48:34.967Z</time></trkpt><trkpt lat="43.5833438" lon="11.2119712"><ele>178.0</ele><time>2026-05-02T14:48:36.966Z</time></trkpt><trkpt lat="43.583404" lon="11.2120633"><ele>178.0</ele><time>2026-05-02T14:48:37.966Z</time></trkpt><trkpt lat="43.5834686" lon="11.2121772"><ele>178.0</ele><time>2026-05-02T14:48:38.966Z</time></trkpt><trkpt lat="43.5835342" lon="11.212303"><ele>177.5</ele><time>2026-05-02T14:48:39.967Z</time></trkpt><trkpt lat="43.5836104" lon="11.2124383"><ele>177.0</ele><time>2026-05-02T14:48:40.966Z</time></trkpt><trkpt lat="43.5836808" lon="11.2125583"><ele>176.5</ele><time>2026-05-02T14:48:41.966Z</time></trkpt><trkpt lat="43.5837562" lon="11.212679"><ele>176.0</ele><time>2026-05-02T14:48:42.967Z</time></trkpt><trkpt lat="43.5838299" lon="11.2127978"><ele>176.0</ele><time>2026-05-02T14:48:43.966Z</time></trkpt><trkpt lat="43.5838995" lon="11.2129143"><ele>176.0</ele><time>2026-05-02T14:48:44.966Z</time></trkpt><trkpt lat="43.583969" lon="11.2130296"><ele>176.0</ele><time>2026-05-02T14:48:45.966Z</time></trkpt><trkpt lat="43.5840384" lon="11.2131411"><ele>176.0</ele><time>2026-05-02T14:48:46.966Z</time></trkpt><trkpt lat="43.5841096" lon="11.2132412"><ele>176.0</ele><time>2026-05-02T14:48:47.966Z</time></trkpt><trkpt lat="43.5841731" lon="11.2133515"><ele>177.0</ele><time>2026-05-02T14:48:48.967Z</time></trkpt><trkpt lat="43.5842346" lon="11.2134682"><ele>178.0</ele><time>2026-05-02T14:48:49.966Z</time></trkpt><trkpt lat="43.5842869" lon="11.2135922"><ele>179.0</ele><time>2026-05-02T14:48:50.966Z</time></trkpt><trkpt lat="43.5843248" lon="11.2137235"><ele>180.0</ele><time>2026-05-02T14:48:51.966Z</time></trkpt><trkpt lat="43.5843577" lon="11.2138546"><ele>181.0</ele><time>2026-05-02T14:48:52.966Z</time></trkpt><trkpt lat="43.5843862" lon="11.2139855"><ele>181.20000000000002</ele><time>2026-05-02T14:48:53.966Z</time></trkpt><trkpt lat="43.5844155" lon="11.2141116"><ele>181.4</ele><time>2026-05-02T14:48:54.966Z</time></trkpt><trkpt lat="43.5844494" lon="11.2142413"><ele>181.6</ele><time>2026-05-02T14:48:55.966Z</time></trkpt><trkpt lat="43.584483" lon="11.2143591"><ele>181.8</ele><time>2026-05-02T14:48:56.966Z</time></trkpt><trkpt lat="43.5845208" lon="11.2144797"><ele>182.0</ele><time>2026-05-02T14:48:57.966Z</time></trkpt><trkpt lat="43.58458" lon="11.2145983"><ele>182.0</ele><time>2026-05-02T14:48:58.966Z</time></trkpt><trkpt lat="43.5846502" lon="11.2147097"><ele>182.0</ele><time>2026-05-02T14:48:59.966Z</time></trkpt><trkpt lat="43.5847343" lon="11.2148169"><ele>182.0</ele><time>2026-05-02T14:49:00.966Z</time></trkpt><trkpt lat="43.584818" lon="11.2149427"><ele>182.0</ele><time>2026-05-02T14:49:01.966Z</time></trkpt><trkpt lat="43.5849017" lon="11.2150449"><ele>182.25</ele><time>2026-05-02T14:49:02.966Z</time></trkpt><trkpt lat="43.5849876" lon="11.2151521"><ele>182.5</ele><time>2026-05-02T14:49:03.966Z</time></trkpt><trkpt lat="43.5850706" lon="11.2152678"><ele>182.75</ele><time>2026-05-02T14:49:04.966Z</time></trkpt><trkpt lat="43.5851478" lon="11.2153834"><ele>183.0</ele><time>2026-05-02T14:49:05.966Z</time></trkpt><trkpt lat="43.5852179" lon="11.2154909"><ele>183.0</ele><time>2026-05-02T14:49:06.966Z</time></trkpt><trkpt lat="43.5852803" lon="11.2155873"><ele>183.0</ele><time>2026-05-02T14:49:07.966Z</time></trkpt><trkpt lat="43.5853361" lon="11.215694"><ele>183.0</ele><time>2026-05-02T14:49:08.966Z</time></trkpt><trkpt lat="43.5853805" lon="11.2158124"><ele>183.0</ele><time>2026-05-02T14:49:09.966Z</time></trkpt><trkpt lat="43.5854115" lon="11.2159451"><ele>183.0</ele><time>2026-05-02T14:49:10.967Z</time></trkpt><trkpt lat="43.585439" lon="11.2160882"><ele>184.0</ele><time>2026-05-02T14:49:11.966Z</time></trkpt><trkpt lat="43.5854735" lon="11.2162457"><ele>185.0</ele><time>2026-05-02T14:49:12.966Z</time></trkpt><trkpt lat="43.5855147" lon="11.2164042"><ele>186.0</ele><time>2026-05-02T14:49:13.966Z</time></trkpt><trkpt lat="43.5855626" lon="11.2165558"><ele>187.0</ele><time>2026-05-02T14:49:14.966Z</time></trkpt><trkpt lat="43.5856086" lon="11.216686"><ele>187.0</ele><time>2026-05-02T14:49:15.967Z</time></trkpt><trkpt lat="43.5856624" lon="11.2168103"><ele>187.0</ele><time>2026-05-02T14:49:16.965Z</time></trkpt><trkpt lat="43.5857169" lon="11.2169236"><ele>187.0</ele><time>2026-05-02T14:49:17.965Z</time></trkpt><trkpt lat="43.5857687" lon="11.2170238"><ele>187.0</ele><time>2026-05-02T14:49:18.965Z</time></trkpt><trkpt lat="43.5858177" lon="11.2171103"><ele>187.0</ele><time>2026-05-02T14:49:19.965Z</time></trkpt><trkpt lat="43.5858606" lon="11.2171832"><ele>187.0</ele><time>2026-05-02T14:49:20.965Z</time></trkpt><trkpt lat="43.5858926" lon="11.2172648"><ele>187.39999999999998</ele><time>2026-05-02T14:49:21.965Z</time></trkpt><trkpt lat="43.5859079" lon="11.2173695"><ele>187.79999999999998</ele><time>2026-05-02T14:49:22.966Z</time></trkpt><trkpt lat="43.5859128" lon="11.2174932"><ele>188.2</ele><time>2026-05-02T14:49:23.966Z</time></trkpt><trkpt lat="43.585913" lon="11.2176542"><ele>188.6</ele><time>2026-05-02T14:49:24.965Z</time></trkpt><trkpt lat="43.5859028" lon="11.2178396"><ele>189.0</ele><time>2026-05-02T14:49:25.965Z</time></trkpt><trkpt lat="43.5858927" lon="11.2180275"><ele>189.5</ele><time>2026-05-02T14:49:26.965Z</time></trkpt><trkpt lat="43.5858768" lon="11.2182153"><ele>190.0</ele><time>2026-05-02T14:49:27.965Z</time></trkpt><trkpt lat="43.5858559" lon="11.218383"><ele>190.5</ele><time>2026-05-02T14:49:28.966Z</time></trkpt><trkpt lat="43.5858281" lon="11.2185499"><ele>191.0</ele><time>2026-05-02T14:49:29.965Z</time></trkpt><trkpt lat="43.5857984" lon="11.2187125"><ele>191.0</ele><time>2026-05-02T14:49:30.965Z</time></trkpt><trkpt lat="43.585769" lon="11.2188621"><ele>191.0</ele><time>2026-05-02T14:49:31.965Z</time></trkpt><trkpt lat="43.5857398" lon="11.2189923"><ele>191.0</ele><time>2026-05-02T14:49:32.965Z</time></trkpt><trkpt lat="43.5857186" lon="11.219116"><ele>191.0</ele><time>2026-05-02T14:49:33.965Z</time></trkpt><trkpt lat="43.5857079" lon="11.2192446"><ele>191.0</ele><time>2026-05-02T14:49:34.965Z</time></trkpt><trkpt lat="43.585717" lon="11.2193732"><ele>191.33333333333331</ele><time>2026-05-02T14:49:35.965Z</time></trkpt><trkpt lat="43.5857365" lon="11.2194971"><ele>191.66666666666666</ele><time>2026-05-02T14:49:36.966Z</time></trkpt><trkpt lat="43.585761" lon="11.2196257"><ele>192.0</ele><time>2026-05-02T14:49:37.965Z</time></trkpt><trkpt lat="43.5857874" lon="11.2197345"><ele>192.33333333333331</ele><time>2026-05-02T14:49:38.966Z</time></trkpt><trkpt lat="43.5858113" lon="11.2198341"><ele>192.66666666666666</ele><time>2026-05-02T14:49:39.965Z</time></trkpt><trkpt lat="43.5858344" lon="11.2199201"><ele>193.0</ele><time>2026-05-02T14:49:40.965Z</time></trkpt><trkpt lat="43.5858488" lon="11.2200542"><ele>193.4</ele><time>2026-05-02T14:49:42.965Z</time></trkpt><trkpt lat="43.5858076" lon="11.2201903"><ele>193.8</ele><time>2026-05-02T14:49:44.966Z</time></trkpt><trkpt lat="43.585746" lon="11.2202954"><ele>194.2</ele><time>2026-05-02T14:49:46.966Z</time></trkpt><trkpt lat="43.5856844" lon="11.2204228"><ele>194.6</ele><time>2026-05-02T14:49:48.966Z</time></trkpt><trkpt lat="43.585621" lon="11.2205544"><ele>195.0</ele><time>2026-05-02T14:49:50.966Z</time></trkpt><trkpt lat="43.5855693" lon="11.2206593"><ele>195.6</ele><time>2026-05-02T14:49:52.965Z</time></trkpt><trkpt lat="43.5855253" lon="11.2207431"><ele>196.2</ele><time>2026-05-02T14:49:54.965Z</time></trkpt><trkpt lat="43.5854832" lon="11.2208423"><ele>196.8</ele><time>2026-05-02T14:49:57.966Z</time></trkpt><trkpt lat="43.5854582" lon="11.2209824"><ele>197.4</ele><time>2026-05-02T14:50:06.965Z</time></trkpt><trkpt lat="43.5854785" lon="11.2211349"><ele>198.0</ele><time>2026-05-02T14:50:08.965Z</time></trkpt><trkpt lat="43.5855012" lon="11.2212782"><ele>198.0</ele><time>2026-05-02T14:50:10.965Z</time></trkpt><trkpt lat="43.5854986" lon="11.2214438"><ele>198.0</ele><time>2026-05-02T14:50:12.965Z</time></trkpt><trkpt lat="43.585483" lon="11.2215843"><ele>198.0</ele><time>2026-05-02T14:50:14.965Z</time></trkpt><trkpt lat="43.585476" lon="11.2217268"><ele>198.0</ele><time>2026-05-02T14:50:16.965Z</time></trkpt><trkpt lat="43.5854516" lon="11.2218945"><ele>198.66666666666666</ele><time>2026-05-02T14:50:18.965Z</time></trkpt><trkpt lat="43.5854399" lon="11.2219831"><ele>199.33333333333331</ele><time>2026-05-02T14:50:19.966Z</time></trkpt><trkpt lat="43.5854387" lon="11.2221484"><ele>200.0</ele><time>2026-05-02T14:50:21.965Z</time></trkpt><trkpt lat="43.5854445" lon="11.2222411"><ele>200.66666666666666</ele><time>2026-05-02T14:50:22.965Z</time></trkpt><trkpt lat="43.5854495" lon="11.2223342"><ele>201.33333333333331</ele><time>2026-05-02T14:50:23.965Z</time></trkpt><trkpt lat="43.5854502" lon="11.2224291"><ele>202.0</ele><time>2026-05-02T14:50:24.966Z</time></trkpt><trkpt lat="43.5854498" lon="11.2225166"><ele>202.0</ele><time>2026-05-02T14:50:25.966Z</time></trkpt><trkpt lat="43.5854452" lon="11.2226651"><ele>202.0</ele><time>2026-05-02T14:50:27.965Z</time></trkpt><trkpt lat="43.5854298" lon="11.2228083"><ele>202.0</ele><time>2026-05-02T14:50:29.966Z</time></trkpt><trkpt lat="43.5854157" lon="11.2229272"><ele>202.0</ele><time>2026-05-02T14:50:31.966Z</time></trkpt><trkpt lat="43.585402" lon="11.2230389"><ele>202.0</ele><time>2026-05-02T14:50:33.965Z</time></trkpt><trkpt lat="43.5853748" lon="11.2231413"><ele>203.0</ele><time>2026-05-02T14:50:35.965Z</time></trkpt><trkpt lat="43.5853452" lon="11.2232491"><ele>204.0</ele><time>2026-05-02T14:50:37.965Z</time></trkpt><trkpt lat="43.5853358" lon="11.2233953"><ele>205.0</ele><time>2026-05-02T14:50:39.965Z</time></trkpt><trkpt lat="43.5853168" lon="11.2235422"><ele>206.0</ele><time>2026-05-02T14:50:41.965Z</time></trkpt><trkpt lat="43.5852751" lon="11.2236957"><ele>207.0</ele><time>2026-05-02T14:50:43.965Z</time></trkpt><trkpt lat="43.5852242" lon="11.223857"><ele>207.0</ele><time>2026-05-02T14:50:45.965Z</time></trkpt><trkpt lat="43.5852023" lon="11.2239489"><ele>207.0</ele><time>2026-05-02T14:50:46.965Z</time></trkpt><trkpt lat="43.5851784" lon="11.2240451"><ele>207.0</ele><time>2026-05-02T14:50:47.965Z</time></trkpt><trkpt lat="43.5851609" lon="11.2241412"><ele>207.0</ele><time>2026-05-02T14:50:48.966Z</time></trkpt><trkpt lat="43.5851406" lon="11.2242301"><ele>207.0</ele><time>2026-05-02T14:50:49.965Z</time></trkpt><trkpt lat="43.585109" lon="11.2243869"><ele>207.0</ele><time>2026-05-02T14:50:51.965Z</time></trkpt><trkpt lat="43.5850675" lon="11.2245588"><ele>207.0</ele><time>2026-05-02T14:50:53.965Z</time></trkpt><trkpt lat="43.5850304" lon="11.2247165"><ele>207.0</ele><time>2026-05-02T14:50:55.965Z</time></trkpt><trkpt lat="43.5849893" lon="11.2248574"><ele>207.0</ele><time>2026-05-02T14:50:57.966Z</time></trkpt><trkpt lat="43.5849614" lon="11.2249359"><ele>207.0</ele><time>2026-05-02T14:50:58.965Z</time></trkpt><trkpt lat="43.5849307" lon="11.2250191"><ele>207.0</ele><time>2026-05-02T14:50:59.965Z</time></trkpt><trkpt lat="43.5848784" lon="11.2251661"><ele>207.5</ele><time>2026-05-02T14:51:01.965Z</time></trkpt><trkpt lat="43.5848648" lon="11.2252979"><ele>208.0</ele><time>2026-05-02T14:51:03.965Z</time></trkpt><trkpt lat="43.5849013" lon="11.2254252"><ele>208.5</ele><time>2026-05-02T14:51:05.965Z</time></trkpt><trkpt lat="43.5849391" lon="11.225509"><ele>209.0</ele><time>2026-05-02T14:51:06.966Z</time></trkpt><trkpt lat="43.5849816" lon="11.2255886"><ele>209.5</ele><time>2026-05-02T14:51:07.965Z</time></trkpt><trkpt lat="43.5850303" lon="11.2256692"><ele>210.0</ele><time>2026-05-02T14:51:08.966Z</time></trkpt><trkpt lat="43.5850821" lon="11.2257447"><ele>210.5</ele><time>2026-05-02T14:51:09.965Z</time></trkpt><trkpt lat="43.5851398" lon="11.225868"><ele>211.0</ele><time>2026-05-02T14:51:11.966Z</time></trkpt><trkpt lat="43.5851534" lon="11.2259801"><ele>211.5</ele><time>2026-05-02T14:51:13.965Z</time></trkpt><trkpt lat="43.5851807" lon="11.2260725"><ele>212.0</ele><time>2026-05-02T14:51:16.966Z</time></trkpt><trkpt lat="43.5851971" lon="11.226178"><ele>212.5</ele><time>2026-05-02T14:51:18.965Z</time></trkpt><trkpt lat="43.5852651" lon="11.2262955"><ele>213.0</ele><time>2026-05-02T14:51:20.965Z</time></trkpt><trkpt lat="43.585332" lon="11.2264166"><ele>213.0</ele><time>2026-05-02T14:51:22.965Z</time></trkpt><trkpt lat="43.5853392" lon="11.2265232"><ele>213.0</ele><time>2026-05-02T14:51:24.965Z</time></trkpt><trkpt lat="43.5853" lon="11.2266111"><ele>213.0</ele><time>2026-05-02T14:51:27.965Z</time></trkpt><trkpt lat="43.5852358" lon="11.22661"><ele>213.0</ele><time>2026-05-02T14:52:54.966Z</time></trkpt><trkpt lat="43.5852686" lon="11.226514"><ele>213.0</ele><time>2026-05-02T14:53:46.965Z</time></trkpt><trkpt lat="43.585283" lon="11.2263977"><ele>213.0</ele><time>2026-05-02T14:53:48.966Z</time></trkpt><trkpt lat="43.5852385" lon="11.2262827"><ele>213.0</ele><time>2026-05-02T14:53:50.965Z</time></trkpt><trkpt lat="43.5851835" lon="11.2261915"><ele>213.0</ele><time>2026-05-02T14:53:52.965Z</time></trkpt><trkpt lat="43.5851426" lon="11.2260889"><ele>213.0</ele><time>2026-05-02T14:53:55.965Z</time></trkpt><trkpt lat="43.5851209" lon="11.2259779"><ele>213.0</ele><time>2026-05-02T14:53:58.965Z</time></trkpt><trkpt lat="43.5851404" lon="11.2258665"><ele>213.0</ele><time>2026-05-02T14:54:01.965Z</time></trkpt><trkpt lat="43.58521" lon="11.2258455"><ele>213.0</ele><time>2026-05-02T14:54:03.965Z</time></trkpt><trkpt lat="43.5852856" lon="11.2258502"><ele>213.60000000000002</ele><time>2026-05-02T14:54:05.965Z</time></trkpt><trkpt lat="43.5853535" lon="11.2258144"><ele>214.20000000000002</ele><time>2026-05-02T14:54:07.965Z</time></trkpt><trkpt lat="43.5854296" lon="11.2257014"><ele>214.8</ele><time>2026-05-02T14:54:09.965Z</time></trkpt><trkpt lat="43.5855134" lon="11.2256016"><ele>215.4</ele><time>2026-05-02T14:54:11.965Z</time></trkpt><trkpt lat="43.5855807" lon="11.2255214"><ele>216.0</ele><time>2026-05-02T14:54:13.965Z</time></trkpt><trkpt lat="43.5856373" lon="11.2255781"><ele>217.57142857142856</ele><time>2026-05-02T14:54:16.965Z</time></trkpt><trkpt lat="43.5855864" lon="11.2257253"><ele>219.14285714285714</ele><time>2026-05-02T14:54:18.966Z</time></trkpt><trkpt lat="43.5855609" lon="11.225809"><ele>220.71428571428572</ele><time>2026-05-02T14:54:19.965Z</time></trkpt><trkpt lat="43.5855474" lon="11.2258976"><ele>222.28571428571428</ele><time>2026-05-02T14:54:20.965Z</time></trkpt><trkpt lat="43.5855476" lon="11.2259864"><ele>223.8571428571429</ele><time>2026-05-02T14:54:21.965Z</time></trkpt><trkpt lat="43.5855562" lon="11.2260761"><ele>225.42857142857144</ele><time>2026-05-02T14:54:22.965Z</time></trkpt><trkpt lat="43.5855765" lon="11.2261614"><ele>227.0</ele><time>2026-05-02T14:54:23.966Z</time></trkpt><trkpt lat="43.5856241" lon="11.2263088"><ele>227.0</ele><time>2026-05-02T14:54:25.965Z</time></trkpt><trkpt lat="43.5856643" lon="11.2264465"><ele>227.0</ele><time>2026-05-02T14:54:27.965Z</time></trkpt><trkpt lat="43.5857039" lon="11.2265541"><ele>227.0</ele><time>2026-05-02T14:54:29.965Z</time></trkpt><trkpt lat="43.5857819" lon="11.2266423"><ele>227.0</ele><time>2026-05-02T14:54:31.965Z</time></trkpt><trkpt lat="43.5858492" lon="11.2266909"><ele>227.0</ele><time>2026-05-02T14:54:32.965Z</time></trkpt><trkpt lat="43.5859346" lon="11.2267431"><ele>226.33333333333334</ele><time>2026-05-02T14:54:33.965Z</time></trkpt><trkpt lat="43.5860164" lon="11.2267931"><ele>225.66666666666669</ele><time>2026-05-02T14:54:34.965Z</time></trkpt><trkpt lat="43.5860803" lon="11.2268349"><ele>225.0</ele><time>2026-05-02T14:54:35.965Z</time></trkpt><trkpt lat="43.5861366" lon="11.2268834"><ele>224.33333333333331</ele><time>2026-05-02T14:54:36.966Z</time></trkpt><trkpt lat="43.5861907" lon="11.2269905"><ele>223.66666666666666</ele><time>2026-05-02T14:54:38.964Z</time></trkpt><trkpt lat="43.5861635" lon="11.2271085"><ele>223.0</ele><time>2026-05-02T14:54:40.964Z</time></trkpt><trkpt lat="43.5861123" lon="11.2271715"><ele>222.99999999999997</ele><time>2026-05-02T14:54:41.964Z</time></trkpt><trkpt lat="43.5860487" lon="11.2272415"><ele>223.0</ele><time>2026-05-02T14:54:42.965Z</time></trkpt><trkpt lat="43.5859853" lon="11.2273132"><ele>223.0</ele><time>2026-05-02T14:54:43.964Z</time></trkpt><trkpt lat="43.5859306" lon="11.2273727"><ele>223.0</ele><time>2026-05-02T14:54:44.964Z</time></trkpt><trkpt lat="43.5858656" lon="11.2274501"><ele>222.99999999999997</ele><time>2026-05-02T14:54:46.965Z</time></trkpt><trkpt lat="43.5858177" lon="11.22751"><ele>223.0</ele><time>2026-05-02T14:55:31.964Z</time></trkpt><trkpt lat="43.5857407" lon="11.2276259"><ele>223.33333333333331</ele><time>2026-05-02T14:55:33.964Z</time></trkpt><trkpt lat="43.5856951" lon="11.2277023"><ele>223.66666666666666</ele><time>2026-05-02T14:55:34.964Z</time></trkpt><trkpt lat="43.5856486" lon="11.2277856"><ele>224.0</ele><time>2026-05-02T14:55:35.964Z</time></trkpt><trkpt lat="43.5856037" lon="11.2278721"><ele>224.33333333333331</ele><time>2026-05-02T14:55:36.964Z</time></trkpt><trkpt lat="43.5855684" lon="11.2279636"><ele>224.66666666666666</ele><time>2026-05-02T14:55:37.964Z</time></trkpt><trkpt lat="43.5855388" lon="11.2280597"><ele>225.0</ele><time>2026-05-02T14:55:38.964Z</time></trkpt><trkpt lat="43.5855068" lon="11.2282193"><ele>225.0</ele><time>2026-05-02T14:55:40.964Z</time></trkpt><trkpt lat="43.5854889" lon="11.2283607"><ele>225.0</ele><time>2026-05-02T14:55:42.965Z</time></trkpt><trkpt lat="43.5854823" lon="11.2284505"><ele>225.0</ele><time>2026-05-02T14:55:44.964Z</time></trkpt><trkpt lat="43.5855173" lon="11.2283662"><ele>225.0</ele><time>2026-05-02T14:55:49.965Z</time></trkpt><trkpt lat="43.5855078" lon="11.2282324"><ele>225.0</ele><time>2026-05-02T14:55:51.964Z</time></trkpt><trkpt lat="43.5855308" lon="11.2281409"><ele>225.0</ele><time>2026-05-02T14:55:52.964Z</time></trkpt><trkpt lat="43.5855567" lon="11.2280529"><ele>223.6</ele><time>2026-05-02T14:55:53.964Z</time></trkpt><trkpt lat="43.5856089" lon="11.2279021"><ele>222.2</ele><time>2026-05-02T14:55:55.964Z</time></trkpt><trkpt lat="43.5856702" lon="11.2277807"><ele>220.8</ele><time>2026-05-02T14:55:57.964Z</time></trkpt><trkpt lat="43.5857533" lon="11.2276394"><ele>219.4</ele><time>2026-05-02T14:55:59.964Z</time></trkpt><trkpt lat="43.5858024" lon="11.2275627"><ele>218.0</ele><time>2026-05-02T14:56:00.964Z</time></trkpt><trkpt lat="43.5858611" lon="11.2274844"><ele>218.00000000000003</ele><time>2026-05-02T14:56:01.964Z</time></trkpt><trkpt lat="43.5859245" lon="11.2274037"><ele>218.0</ele><time>2026-05-02T14:56:02.964Z</time></trkpt><trkpt lat="43.5859863" lon="11.227326"><ele>218.0</ele><time>2026-05-02T14:56:03.965Z</time></trkpt><trkpt lat="43.5860485" lon="11.2272568"><ele>218.0</ele><time>2026-05-02T14:56:04.965Z</time></trkpt><trkpt lat="43.5861039" lon="11.2271887"><ele>218.00000000000003</ele><time>2026-05-02T14:56:05.964Z</time></trkpt><trkpt lat="43.5861762" lon="11.2270788"><ele>218.0</ele><time>2026-05-02T14:56:07.964Z</time></trkpt><trkpt lat="43.5862051" lon="11.2269585"><ele>218.83333333333334</ele><time>2026-05-02T14:56:09.964Z</time></trkpt><trkpt lat="43.5861628" lon="11.2268524"><ele>219.66666666666669</ele><time>2026-05-02T14:56:11.965Z</time></trkpt><trkpt lat="43.5860575" lon="11.226768"><ele>220.5</ele><time>2026-05-02T14:56:13.964Z</time></trkpt><trkpt lat="43.5859898" lon="11.2267261"><ele>221.33333333333331</ele><time>2026-05-02T14:56:14.965Z</time></trkpt><trkpt lat="43.5859286" lon="11.2266899"><ele>222.16666666666666</ele><time>2026-05-02T14:56:15.964Z</time></trkpt><trkpt lat="43.5858687" lon="11.226651"><ele>223.0</ele><time>2026-05-02T14:56:16.964Z</time></trkpt><trkpt lat="43.5857614" lon="11.2265831"><ele>223.0</ele><time>2026-05-02T14:56:18.964Z</time></trkpt><trkpt lat="43.585682" lon="11.2264998"><ele>223.0</ele><time>2026-05-02T14:56:20.964Z</time></trkpt><trkpt lat="43.5856652" lon="11.2263796"><ele>223.0</ele><time>2026-05-02T14:56:22.964Z</time></trkpt><trkpt lat="43.5856227" lon="11.2262273"><ele>223.0</ele><time>2026-05-02T14:56:24.964Z</time></trkpt><trkpt lat="43.585579" lon="11.2260796"><ele>223.0</ele><time>2026-05-02T14:56:26.965Z</time></trkpt><trkpt lat="43.585564" lon="11.2259255"><ele>223.66666666666666</ele><time>2026-05-02T14:56:28.964Z</time></trkpt><trkpt lat="43.5855723" lon="11.2257905"><ele>224.33333333333331</ele><time>2026-05-02T14:56:30.964Z</time></trkpt><trkpt lat="43.5856149" lon="11.2256431"><ele>225.0</ele><time>2026-05-02T14:56:32.964Z</time></trkpt><trkpt lat="43.5856625" lon="11.2255378"><ele>225.66666666666669</ele><time>2026-05-02T14:56:34.964Z</time></trkpt><trkpt lat="43.5857103" lon="11.2254632"><ele>226.33333333333334</ele><time>2026-05-02T14:56:36.964Z</time></trkpt><trkpt lat="43.5857572" lon="11.2253855"><ele>227.0</ele><time>2026-05-02T14:56:39.964Z</time></trkpt><trkpt lat="43.5858334" lon="11.225316"><ele>228.6</ele><time>2026-05-02T14:56:44.964Z</time></trkpt><trkpt lat="43.5859145" lon="11.2253442"><ele>230.2</ele><time>2026-05-02T14:56:46.964Z</time></trkpt><trkpt lat="43.5859875" lon="11.2254151"><ele>231.8</ele><time>2026-05-02T14:56:48.964Z</time></trkpt><trkpt lat="43.5860566" lon="11.2254981"><ele>233.4</ele><time>2026-05-02T14:56:50.964Z</time></trkpt><trkpt lat="43.5861352" lon="11.2255807"><ele>235.0</ele><time>2026-05-02T14:56:52.964Z</time></trkpt><trkpt lat="43.5862117" lon="11.2256512"><ele>235.0</ele><time>2026-05-02T14:56:54.964Z</time></trkpt><trkpt lat="43.5863015" lon="11.2257183"><ele>235.0</ele><time>2026-05-02T14:56:56.964Z</time></trkpt><trkpt lat="43.586396" lon="11.2257998"><ele>235.0</ele><time>2026-05-02T14:56:58.964Z</time></trkpt><trkpt lat="43.5865047" lon="11.2258908"><ele>235.0</ele><time>2026-05-02T14:57:00.965Z</time></trkpt><trkpt lat="43.5865999" lon="11.225979"><ele>235.0</ele><time>2026-05-02T14:57:02.964Z</time></trkpt><trkpt lat="43.5866774" lon="11.2260742"><ele>235.0</ele><time>2026-05-02T14:57:04.964Z</time></trkpt><trkpt lat="43.5867345" lon="11.2261565"><ele>235.0</ele><time>2026-05-02T14:57:06.964Z</time></trkpt><trkpt lat="43.5868051" lon="11.2262151"><ele>235.0</ele><time>2026-05-02T14:57:09.964Z</time></trkpt><trkpt lat="43.5868903" lon="11.2262478"><ele>235.0</ele><time>2026-05-02T14:57:11.965Z</time></trkpt><trkpt lat="43.5869954" lon="11.2262931"><ele>236.6</ele><time>2026-05-02T14:57:13.964Z</time></trkpt><trkpt lat="43.587098" lon="11.226315"><ele>238.2</ele><time>2026-05-02T14:57:15.964Z</time></trkpt><trkpt lat="43.5871999" lon="11.2263081"><ele>239.8</ele><time>2026-05-02T14:57:17.964Z</time></trkpt><trkpt lat="43.5872987" lon="11.2263029"><ele>241.4</ele><time>2026-05-02T14:57:19.965Z</time></trkpt><trkpt lat="43.5873557" lon="11.2262612"><ele>243.0</ele><time>2026-05-02T14:57:21.964Z</time></trkpt><trkpt lat="43.5874597" lon="11.2262309"><ele>243.0</ele><time>2026-05-02T14:57:23.964Z</time></trkpt><trkpt lat="43.5875604" lon="11.2261721"><ele>243.0</ele><time>2026-05-02T14:57:25.965Z</time></trkpt><trkpt lat="43.5876531" lon="11.2261029"><ele>243.0</ele><time>2026-05-02T14:57:27.964Z</time></trkpt><trkpt lat="43.5877509" lon="11.2260201"><ele>243.0</ele><time>2026-05-02T14:57:29.964Z</time></trkpt><trkpt lat="43.5878475" lon="11.2259309"><ele>243.0</ele><time>2026-05-02T14:57:31.964Z</time></trkpt><trkpt lat="43.5879505" lon="11.2258418"><ele>245.0</ele><time>2026-05-02T14:57:33.964Z</time></trkpt><trkpt lat="43.5880385" lon="11.2257679"><ele>247.0</ele><time>2026-05-02T14:57:35.964Z</time></trkpt><trkpt lat="43.5880995" lon="11.2257268"><ele>249.0</ele><time>2026-05-02T14:57:37.964Z</time></trkpt><trkpt lat="43.5881797" lon="11.2257085"><ele>251.0</ele><time>2026-05-02T14:57:40.964Z</time></trkpt><trkpt lat="43.5882406" lon="11.2257937"><ele>253.0</ele><time>2026-05-02T14:57:42.964Z</time></trkpt><trkpt lat="43.5883134" lon="11.2259291"><ele>252.99999999999997</ele><time>2026-05-02T14:57:44.964Z</time></trkpt><trkpt lat="43.588356" lon="11.226005"><ele>253.0</ele><time>2026-05-02T14:57:45.965Z</time></trkpt><trkpt lat="43.5883986" lon="11.226083"><ele>253.0</ele><time>2026-05-02T14:57:46.965Z</time></trkpt><trkpt lat="43.5884494" lon="11.2261604"><ele>253.0</ele><time>2026-05-02T14:57:47.965Z</time></trkpt><trkpt lat="43.5885047" lon="11.2262376"><ele>252.99999999999997</ele><time>2026-05-02T14:57:48.965Z</time></trkpt><trkpt lat="43.5885589" lon="11.2263173"><ele>253.0</ele><time>2026-05-02T14:57:49.964Z</time></trkpt><trkpt lat="43.588615" lon="11.2263993"><ele>252.99999999999997</ele><time>2026-05-02T14:57:50.964Z</time></trkpt><trkpt lat="43.5886732" lon="11.2264758"><ele>253.0</ele><time>2026-05-02T14:57:51.964Z</time></trkpt><trkpt lat="43.5887303" lon="11.2265581"><ele>253.0</ele><time>2026-05-02T14:57:52.964Z</time></trkpt><trkpt lat="43.5887877" lon="11.2266373"><ele>253.0</ele><time>2026-05-02T14:57:53.964Z</time></trkpt><trkpt lat="43.5888421" lon="11.2267114"><ele>252.99999999999997</ele><time>2026-05-02T14:57:54.964Z</time></trkpt><trkpt lat="43.5888966" lon="11.226793"><ele>253.0</ele><time>2026-05-02T14:57:55.964Z</time></trkpt><trkpt lat="43.5889501" lon="11.2268721"><ele>254.83333333333331</ele><time>2026-05-02T14:57:56.964Z</time></trkpt><trkpt lat="43.589005" lon="11.2269485"><ele>256.66666666666663</ele><time>2026-05-02T14:57:57.965Z</time></trkpt><trkpt lat="43.5890633" lon="11.227025"><ele>258.5</ele><time>2026-05-02T14:57:58.965Z</time></trkpt><trkpt lat="43.5891171" lon="11.2270987"><ele>260.3333333333333</ele><time>2026-05-02T14:57:59.964Z</time></trkpt><trkpt lat="43.5891714" lon="11.2271706"><ele>262.1666666666667</ele><time>2026-05-02T14:58:00.964Z</time></trkpt><trkpt lat="43.5892213" lon="11.2272401"><ele>264.0</ele><time>2026-05-02T14:58:01.964Z</time></trkpt><trkpt lat="43.5892726" lon="11.2273145"><ele>265.0</ele><time>2026-05-02T14:58:02.964Z</time></trkpt><trkpt lat="43.5893238" lon="11.2273888"><ele>266.0</ele><time>2026-05-02T14:58:03.965Z</time></trkpt><trkpt lat="43.589375" lon="11.2274693"><ele>267.0</ele><time>2026-05-02T14:58:04.964Z</time></trkpt><trkpt lat="43.5894297" lon="11.227547"><ele>268.0</ele><time>2026-05-02T14:58:05.964Z</time></trkpt><trkpt lat="43.5894817" lon="11.2276191"><ele>269.0</ele><time>2026-05-02T14:58:06.964Z</time></trkpt><trkpt lat="43.5895581" lon="11.227734"><ele>270.0</ele><time>2026-05-02T14:58:08.964Z</time></trkpt><trkpt lat="43.5896075" lon="11.2278678"><ele>270.6666666666667</ele><time>2026-05-02T14:58:10.965Z</time></trkpt><trkpt lat="43.5896404" lon="11.2280251"><ele>271.3333333333333</ele><time>2026-05-02T14:58:12.964Z</time></trkpt><trkpt lat="43.5896651" lon="11.2281113"><ele>272.0</ele><time>2026-05-02T14:58:13.965Z</time></trkpt><trkpt lat="43.5897004" lon="11.2281924"><ele>272.66666666666663</ele><time>2026-05-02T14:58:14.964Z</time></trkpt><trkpt lat="43.5897378" lon="11.2282687"><ele>273.3333333333333</ele><time>2026-05-02T14:58:15.964Z</time></trkpt><trkpt lat="43.5897813" lon="11.2283393"><ele>274.0</ele><time>2026-05-02T14:58:16.964Z</time></trkpt><trkpt lat="43.5898625" lon="11.2284289"><ele>275.4</ele><time>2026-05-02T14:58:18.965Z</time></trkpt><trkpt lat="43.5899456" lon="11.2284583"><ele>276.79999999999995</ele><time>2026-05-02T14:58:20.964Z</time></trkpt><trkpt lat="43.5900552" lon="11.2284303"><ele>278.20000000000005</ele><time>2026-05-02T14:58:22.964Z</time></trkpt><trkpt lat="43.5901576" lon="11.2284336"><ele>279.6</ele><time>2026-05-02T14:58:24.964Z</time></trkpt><trkpt lat="43.590245" lon="11.2285086"><ele>281.0</ele><time>2026-05-02T14:58:26.964Z</time></trkpt><trkpt lat="43.5903222" lon="11.2286347"><ele>280.28571428571433</ele><time>2026-05-02T14:58:28.964Z</time></trkpt><trkpt lat="43.5903497" lon="11.2287176"><ele>279.57142857142856</ele><time>2026-05-02T14:58:29.964Z</time></trkpt><trkpt lat="43.590373" lon="11.2288017"><ele>278.8571428571429</ele><time>2026-05-02T14:58:30.964Z</time></trkpt><trkpt lat="43.5903956" lon="11.2288962"><ele>278.14285714285717</ele><time>2026-05-02T14:58:31.964Z</time></trkpt><trkpt lat="43.5904171" lon="11.2289962"><ele>277.42857142857144</ele><time>2026-05-02T14:58:32.965Z</time></trkpt><trkpt lat="43.5904397" lon="11.2290928"><ele>276.7142857142857</ele><time>2026-05-02T14:58:33.964Z</time></trkpt><trkpt lat="43.5904594" lon="11.2291856"><ele>276.0</ele><time>2026-05-02T14:58:34.964Z</time></trkpt><trkpt lat="43.5904987" lon="11.2293524"><ele>278.3333333333333</ele><time>2026-05-02T14:58:36.964Z</time></trkpt><trkpt lat="43.5905405" lon="11.2295048"><ele>280.6666666666667</ele><time>2026-05-02T14:58:38.964Z</time></trkpt><trkpt lat="43.5905792" lon="11.2296502"><ele>283.0</ele><time>2026-05-02T14:58:40.964Z</time></trkpt><trkpt lat="43.5906039" lon="11.2297334"><ele>285.33333333333337</ele><time>2026-05-02T14:58:41.965Z</time></trkpt><trkpt lat="43.5906288" lon="11.229817"><ele>287.6666666666667</ele><time>2026-05-02T14:58:42.964Z</time></trkpt><trkpt lat="43.5906502" lon="11.2299308"><ele>290.0</ele><time>2026-05-02T14:58:44.964Z</time></trkpt><trkpt lat="43.5907083" lon="11.2300521"><ele>291.4</ele><time>2026-05-02T14:58:46.964Z</time></trkpt><trkpt lat="43.5907501" lon="11.2301269"><ele>292.8</ele><time>2026-05-02T14:58:47.964Z</time></trkpt><trkpt lat="43.5908344" lon="11.2302383"><ele>294.2</ele><time>2026-05-02T14:58:49.964Z</time></trkpt><trkpt lat="43.5908875" lon="11.2302899"><ele>295.6</ele><time>2026-05-02T14:58:50.964Z</time></trkpt><trkpt lat="43.5909886" lon="11.2304053"><ele>297.0</ele><time>2026-05-02T14:58:52.964Z</time></trkpt><trkpt lat="43.5910798" lon="11.2305184"><ele>296.1666666666667</ele><time>2026-05-02T14:58:54.964Z</time></trkpt><trkpt lat="43.5911861" lon="11.2306317"><ele>295.3333333333333</ele><time>2026-05-02T14:58:56.965Z</time></trkpt><trkpt lat="43.5912456" lon="11.2306966"><ele>294.5</ele><time>2026-05-02T14:58:57.964Z</time></trkpt><trkpt lat="43.5913022" lon="11.2307558"><ele>293.66666666666663</ele><time>2026-05-02T14:58:58.965Z</time></trkpt><trkpt lat="43.5913525" lon="11.2308231"><ele>292.8333333333333</ele><time>2026-05-02T14:58:59.964Z</time></trkpt><trkpt lat="43.5913978" lon="11.2308919"><ele>292.0</ele><time>2026-05-02T14:59:00.964Z</time></trkpt><trkpt lat="43.5914494" lon="11.2309534"><ele>292.0</ele><time>2026-05-02T14:59:01.964Z</time></trkpt><trkpt lat="43.5914994" lon="11.2310195"><ele>292.0</ele><time>2026-05-02T14:59:02.964Z</time></trkpt><trkpt lat="43.5915611" lon="11.2310828"><ele>292.0</ele><time>2026-05-02T14:59:03.964Z</time></trkpt><trkpt lat="43.5916142" lon="11.2311608"><ele>292.0</ele><time>2026-05-02T14:59:04.965Z</time></trkpt><trkpt lat="43.5916961" lon="11.2312662"><ele>292.0</ele><time>2026-05-02T14:59:06.964Z</time></trkpt><trkpt lat="43.5917435" lon="11.2313391"><ele>292.0</ele><time>2026-05-02T14:59:08.964Z</time></trkpt><trkpt lat="43.5917877" lon="11.2314365"><ele>292.16666666666663</ele><time>2026-05-02T14:59:43.963Z</time></trkpt><trkpt lat="43.5918016" lon="11.2315688"><ele>292.3333333333333</ele><time>2026-05-02T15:00:39.963Z</time></trkpt><trkpt lat="43.5918138" lon="11.2316588"><ele>292.5</ele><time>2026-05-02T15:00:40.963Z</time></trkpt><trkpt lat="43.5918337" lon="11.2317568"><ele>292.6666666666667</ele><time>2026-05-02T15:00:41.963Z</time></trkpt><trkpt lat="43.5918606" lon="11.2318548"><ele>292.83333333333337</ele><time>2026-05-02T15:00:42.963Z</time></trkpt><trkpt lat="43.5918841" lon="11.231959"><ele>293.0</ele><time>2026-05-02T15:00:43.963Z</time></trkpt><trkpt lat="43.5919074" lon="11.2320636"><ele>292.99999999999994</ele><time>2026-05-02T15:00:44.963Z</time></trkpt><trkpt lat="43.5919308" lon="11.23217"><ele>293.0</ele><time>2026-05-02T15:00:45.964Z</time></trkpt><trkpt lat="43.5919494" lon="11.2322654"><ele>293.0</ele><time>2026-05-02T15:00:46.963Z</time></trkpt><trkpt lat="43.5919675" lon="11.2323565"><ele>293.0</ele><time>2026-05-02T15:00:47.963Z</time></trkpt><trkpt lat="43.5919834" lon="11.2324433"><ele>293.0</ele><time>2026-05-02T15:00:48.963Z</time></trkpt><trkpt lat="43.5920025" lon="11.2325589"><ele>292.99999999999994</ele><time>2026-05-02T15:00:50.963Z</time></trkpt><trkpt lat="43.5920434" lon="11.2326469"><ele>293.0</ele><time>2026-05-02T15:00:53.963Z</time></trkpt><trkpt lat="43.5921049" lon="11.2326981"><ele>293.83333333333337</ele><time>2026-05-02T15:00:56.963Z</time></trkpt><trkpt lat="43.5921349" lon="11.232821"><ele>294.6666666666667</ele><time>2026-05-02T15:00:58.963Z</time></trkpt><trkpt lat="43.5921586" lon="11.2329867"><ele>295.5</ele><time>2026-05-02T15:01:00.963Z</time></trkpt><trkpt lat="43.5921789" lon="11.2331044"><ele>296.3333333333333</ele><time>2026-05-02T15:01:01.963Z</time></trkpt><trkpt lat="43.5921965" lon="11.2331893"><ele>297.16666666666663</ele><time>2026-05-02T15:01:02.963Z</time></trkpt><trkpt lat="43.5922171" lon="11.2332749"><ele>298.0</ele><time>2026-05-02T15:01:03.963Z</time></trkpt><trkpt lat="43.5922348" lon="11.2333587"><ele>299.2</ele><time>2026-05-02T15:01:04.963Z</time></trkpt><trkpt lat="43.5922519" lon="11.2334438"><ele>300.4</ele><time>2026-05-02T15:01:05.963Z</time></trkpt><trkpt lat="43.5922868" lon="11.2336009"><ele>301.59999999999997</ele><time>2026-05-02T15:01:07.964Z</time></trkpt><trkpt lat="43.5923428" lon="11.2337132"><ele>302.8</ele><time>2026-05-02T15:01:09.963Z</time></trkpt><trkpt lat="43.5923941" lon="11.2338176"><ele>304.0</ele><time>2026-05-02T15:01:11.964Z</time></trkpt><trkpt lat="43.5924193" lon="11.233984"><ele>305.16666666666663</ele><time>2026-05-02T15:01:13.964Z</time></trkpt><trkpt lat="43.5924336" lon="11.2340772"><ele>306.3333333333333</ele><time>2026-05-02T15:01:14.963Z</time></trkpt><trkpt lat="43.5924542" lon="11.2341754"><ele>307.5</ele><time>2026-05-02T15:01:15.963Z</time></trkpt><trkpt lat="43.592469" lon="11.2342667"><ele>308.6666666666667</ele><time>2026-05-02T15:01:16.963Z</time></trkpt><trkpt lat="43.592502" lon="11.2344153"><ele>309.83333333333337</ele><time>2026-05-02T15:01:18.963Z</time></trkpt><trkpt lat="43.5925274" lon="11.2345471"><ele>311.0</ele><time>2026-05-02T15:01:20.963Z</time></trkpt><trkpt lat="43.5925223" lon="11.2346713"><ele>311.0</ele><time>2026-05-02T15:01:22.963Z</time></trkpt><trkpt lat="43.5925101" lon="11.2347817"><ele>311.0</ele><time>2026-05-02T15:01:24.964Z</time></trkpt><trkpt lat="43.5925636" lon="11.2349101"><ele>311.0</ele><time>2026-05-02T15:01:26.963Z</time></trkpt><trkpt lat="43.5926466" lon="11.235051"><ele>311.0</ele><time>2026-05-02T15:01:28.963Z</time></trkpt><trkpt lat="43.5926956" lon="11.2351308"><ele>311.0</ele><time>2026-05-02T15:01:29.963Z</time></trkpt><trkpt lat="43.5927474" lon="11.2352313"><ele>311.8</ele><time>2026-05-02T15:01:30.963Z</time></trkpt><trkpt lat="43.592804" lon="11.2353292"><ele>312.6</ele><time>2026-05-02T15:01:31.964Z</time></trkpt><trkpt lat="43.592868" lon="11.235427"><ele>313.4</ele><time>2026-05-02T15:01:32.963Z</time></trkpt><trkpt lat="43.5929313" lon="11.2355255"><ele>314.2</ele><time>2026-05-02T15:01:33.963Z</time></trkpt><trkpt lat="43.5929889" lon="11.2356214"><ele>315.0</ele><time>2026-05-02T15:01:34.963Z</time></trkpt><trkpt lat="43.5930418" lon="11.2357161"><ele>316.0</ele><time>2026-05-02T15:01:35.963Z</time></trkpt><trkpt lat="43.5930915" lon="11.2358023"><ele>317.0</ele><time>2026-05-02T15:01:36.963Z</time></trkpt><trkpt lat="43.5931331" lon="11.2358692"><ele>318.0</ele><time>2026-05-02T15:01:37.963Z</time></trkpt><trkpt lat="43.5932178" lon="11.2359867"><ele>319.0</ele><time>2026-05-02T15:01:39.963Z</time></trkpt><trkpt lat="43.5933068" lon="11.2360311"><ele>320.0</ele><time>2026-05-02T15:01:41.963Z</time></trkpt><trkpt lat="43.5934273" lon="11.236018"><ele>320.0</ele><time>2026-05-02T15:01:43.963Z</time></trkpt><trkpt lat="43.5935065" lon="11.2359824"><ele>320.0</ele><time>2026-05-02T15:01:44.964Z</time></trkpt><trkpt lat="43.5935933" lon="11.2359426"><ele>320.0</ele><time>2026-05-02T15:01:45.963Z</time></trkpt><trkpt lat="43.5936786" lon="11.2358928"><ele>320.0</ele><time>2026-05-02T15:01:46.963Z</time></trkpt><trkpt lat="43.5937643" lon="11.2358356"><ele>320.0</ele><time>2026-05-02T15:01:47.963Z</time></trkpt><trkpt lat="43.5938544" lon="11.2357834"><ele>320.6</ele><time>2026-05-02T15:01:48.963Z</time></trkpt><trkpt lat="43.5939476" lon="11.2357336"><ele>321.2</ele><time>2026-05-02T15:01:49.963Z</time></trkpt><trkpt lat="43.594039" lon="11.235701"><ele>321.79999999999995</ele><time>2026-05-02T15:01:50.963Z</time></trkpt><trkpt lat="43.5941305" lon="11.2356708"><ele>322.4</ele><time>2026-05-02T15:01:51.964Z</time></trkpt><trkpt lat="43.5942171" lon="11.2356481"><ele>323.0</ele><time>2026-05-02T15:01:52.963Z</time></trkpt><trkpt lat="43.594287" lon="11.2356109"><ele>323.0</ele><time>2026-05-02T15:01:53.964Z</time></trkpt><trkpt lat="43.5943557" lon="11.235582"><ele>323.0</ele><time>2026-05-02T15:01:54.964Z</time></trkpt><trkpt lat="43.5944592" lon="11.2355121"><ele>323.0</ele><time>2026-05-02T15:01:56.964Z</time></trkpt><trkpt lat="43.5945228" lon="11.2354671"><ele>323.0</ele><time>2026-05-02T15:01:58.963Z</time></trkpt><trkpt lat="43.5945701" lon="11.2352992"><ele>323.0</ele><time>2026-05-02T15:02:04.963Z</time></trkpt><trkpt lat="43.5945748" lon="11.2351815"><ele>322.79999999999995</ele><time>2026-05-02T15:02:05.963Z</time></trkpt><trkpt lat="43.5945916" lon="11.2350565"><ele>322.6</ele><time>2026-05-02T15:02:06.963Z</time></trkpt><trkpt lat="43.5946066" lon="11.2349314"><ele>322.4</ele><time>2026-05-02T15:02:07.963Z</time></trkpt><trkpt lat="43.5946224" lon="11.2347937"><ele>322.20000000000005</ele><time>2026-05-02T15:02:08.963Z</time></trkpt><trkpt lat="43.5946354" lon="11.2346454"><ele>322.0</ele><time>2026-05-02T15:02:09.963Z</time></trkpt><trkpt lat="43.594641" lon="11.2344874"><ele>321.75</ele><time>2026-05-02T15:02:10.964Z</time></trkpt><trkpt lat="43.5946478" lon="11.2343122"><ele>321.5</ele><time>2026-05-02T15:02:11.963Z</time></trkpt><trkpt lat="43.594657" lon="11.2341258"><ele>321.25</ele><time>2026-05-02T15:02:12.963Z</time></trkpt><trkpt lat="43.5946772" lon="11.2339467"><ele>321.0</ele><time>2026-05-02T15:02:13.963Z</time></trkpt><trkpt lat="43.594703" lon="11.2337684"><ele>321.0</ele><time>2026-05-02T15:02:14.963Z</time></trkpt><trkpt lat="43.5947422" lon="11.2335881"><ele>321.0</ele><time>2026-05-02T15:02:15.963Z</time></trkpt><trkpt lat="43.5948205" lon="11.2333978"><ele>321.0</ele><time>2026-05-02T15:02:16.963Z</time></trkpt><trkpt lat="43.5949716" lon="11.2331943"><ele>320.0</ele><time>2026-05-02T15:02:17.963Z</time></trkpt><trkpt lat="43.5950133" lon="11.2330056"><ele>319.0</ele><time>2026-05-02T15:02:18.963Z</time></trkpt><trkpt lat="43.5950764" lon="11.2328188"><ele>318.0</ele><time>2026-05-02T15:02:19.963Z</time></trkpt><trkpt lat="43.5951406" lon="11.2326355"><ele>317.0</ele><time>2026-05-02T15:02:20.963Z</time></trkpt><trkpt lat="43.595209" lon="11.2324604"><ele>317.75</ele><time>2026-05-02T15:02:21.963Z</time></trkpt><trkpt lat="43.5952834" lon="11.2322927"><ele>318.5</ele><time>2026-05-02T15:02:22.964Z</time></trkpt><trkpt lat="43.5953669" lon="11.2321259"><ele>319.25</ele><time>2026-05-02T15:02:23.963Z</time></trkpt><trkpt lat="43.5954561" lon="11.2319605"><ele>320.0</ele><time>2026-05-02T15:02:24.963Z</time></trkpt><trkpt lat="43.5955524" lon="11.2318068"><ele>320.0</ele><time>2026-05-02T15:02:25.963Z</time></trkpt><trkpt lat="43.5956551" lon="11.231657"><ele>320.0</ele><time>2026-05-02T15:02:26.964Z</time></trkpt><trkpt lat="43.5957661" lon="11.2315108"><ele>320.0</ele><time>2026-05-02T15:02:27.963Z</time></trkpt><trkpt lat="43.5958804" lon="11.2313602"><ele>317.33333333333337</ele><time>2026-05-02T15:02:28.963Z</time></trkpt><trkpt lat="43.5959994" lon="11.2312039"><ele>314.6666666666667</ele><time>2026-05-02T15:02:29.964Z</time></trkpt><trkpt lat="43.5961192" lon="11.2310415"><ele>312.0</ele><time>2026-05-02T15:02:30.964Z</time></trkpt><trkpt lat="43.5962501" lon="11.2308858"><ele>311.3333333333333</ele><time>2026-05-02T15:02:31.963Z</time></trkpt><trkpt lat="43.5963784" lon="11.2307454"><ele>310.66666666666663</ele><time>2026-05-02T15:02:32.963Z</time></trkpt><trkpt lat="43.5965025" lon="11.2305985"><ele>310.0</ele><time>2026-05-02T15:02:33.963Z</time></trkpt><trkpt lat="43.5966214" lon="11.2304496"><ele>308.3333333333333</ele><time>2026-05-02T15:02:34.963Z</time></trkpt><trkpt lat="43.5967406" lon="11.2303027"><ele>306.6666666666667</ele><time>2026-05-02T15:02:35.963Z</time></trkpt><trkpt lat="43.5968583" lon="11.2301557"><ele>305.0</ele><time>2026-05-02T15:02:36.963Z</time></trkpt><trkpt lat="43.5969769" lon="11.2300091"><ele>304.5</ele><time>2026-05-02T15:02:37.963Z</time></trkpt><trkpt lat="43.5970959" lon="11.2298676"><ele>304.0</ele><time>2026-05-02T15:02:38.963Z</time></trkpt><trkpt lat="43.5972063" lon="11.2297285"><ele>303.5</ele><time>2026-05-02T15:02:39.963Z</time></trkpt><trkpt lat="43.5973104" lon="11.2295961"><ele>303.0</ele><time>2026-05-02T15:02:40.963Z</time></trkpt><trkpt lat="43.5974084" lon="11.2294694"><ele>303.0</ele><time>2026-05-02T15:02:41.964Z</time></trkpt><trkpt lat="43.5974986" lon="11.2293443"><ele>303.0</ele><time>2026-05-02T15:02:42.963Z</time></trkpt><trkpt lat="43.5975832" lon="11.2292231"><ele>303.0</ele><time>2026-05-02T15:02:43.964Z</time></trkpt><trkpt lat="43.5976592" lon="11.2291082"><ele>303.0</ele><time>2026-05-02T15:02:44.963Z</time></trkpt><trkpt lat="43.5977262" lon="11.2290063"><ele>302.6666666666667</ele><time>2026-05-02T15:02:45.964Z</time></trkpt><trkpt lat="43.5977851" lon="11.2289167"><ele>302.3333333333333</ele><time>2026-05-02T15:02:46.963Z</time></trkpt><trkpt lat="43.5978375" lon="11.2288396"><ele>302.0</ele><time>2026-05-02T15:02:47.963Z</time></trkpt><trkpt lat="43.5979211" lon="11.2287515"><ele>301.66666666666663</ele><time>2026-05-02T15:02:49.963Z</time></trkpt><trkpt lat="43.597956" lon="11.2288739"><ele>301.3333333333333</ele><time>2026-05-02T15:02:52.964Z</time></trkpt><trkpt lat="43.5979445" lon="11.2289723"><ele>301.0</ele><time>2026-05-02T15:02:53.963Z</time></trkpt><trkpt lat="43.5979376" lon="11.2291058"><ele>299.75</ele><time>2026-05-02T15:02:54.963Z</time></trkpt><trkpt lat="43.5979501" lon="11.2292648"><ele>298.5</ele><time>2026-05-02T15:02:55.963Z</time></trkpt><trkpt lat="43.5979746" lon="11.229466"><ele>297.25</ele><time>2026-05-02T15:02:56.963Z</time></trkpt><trkpt lat="43.5980696" lon="11.2296774"><ele>296.0</ele><time>2026-05-02T15:02:57.963Z</time></trkpt><trkpt lat="43.5980728" lon="11.2298958"><ele>294.6666666666667</ele><time>2026-05-02T15:02:58.963Z</time></trkpt><trkpt lat="43.598105" lon="11.2301204"><ele>293.3333333333333</ele><time>2026-05-02T15:02:59.963Z</time></trkpt><trkpt lat="43.5981419" lon="11.2303314"><ele>292.0</ele><time>2026-05-02T15:03:00.963Z</time></trkpt><trkpt lat="43.5981739" lon="11.2305268"><ele>291.0</ele><time>2026-05-02T15:03:01.963Z</time></trkpt><trkpt lat="43.5982039" lon="11.2307163"><ele>290.0</ele><time>2026-05-02T15:03:02.964Z</time></trkpt><trkpt lat="43.5982326" lon="11.2308958"><ele>289.0</ele><time>2026-05-02T15:03:03.963Z</time></trkpt><trkpt lat="43.5982663" lon="11.2310729"><ele>288.0</ele><time>2026-05-02T15:03:04.963Z</time></trkpt><trkpt lat="43.5983152" lon="11.231252"><ele>288.0</ele><time>2026-05-02T15:03:05.963Z</time></trkpt><trkpt lat="43.5983786" lon="11.2314257"><ele>288.0</ele><time>2026-05-02T15:03:06.964Z</time></trkpt><trkpt lat="43.5984666" lon="11.2315702"><ele>288.0</ele><time>2026-05-02T15:03:07.963Z</time></trkpt><trkpt lat="43.5985718" lon="11.2316893"><ele>288.0</ele><time>2026-05-02T15:03:08.963Z</time></trkpt><trkpt lat="43.5986903" lon="11.2317631"><ele>286.75</ele><time>2026-05-02T15:03:09.963Z</time></trkpt><trkpt lat="43.5988212" lon="11.2317756"><ele>285.5</ele><time>2026-05-02T15:03:10.963Z</time></trkpt><trkpt lat="43.598961" lon="11.231752"><ele>284.25</ele><time>2026-05-02T15:03:11.963Z</time></trkpt><trkpt lat="43.5990864" lon="11.2316832"><ele>283.0</ele><time>2026-05-02T15:03:12.963Z</time></trkpt><trkpt lat="43.5992172" lon="11.2316491"><ele>283.0</ele><time>2026-05-02T15:03:13.963Z</time></trkpt><trkpt lat="43.5993377" lon="11.2316486"><ele>283.0</ele><time>2026-05-02T15:03:14.963Z</time></trkpt><trkpt lat="43.5994381" lon="11.2317075"><ele>283.0</ele><time>2026-05-02T15:03:15.963Z</time></trkpt><trkpt lat="43.5995248" lon="11.2318062"><ele>283.0</ele><time>2026-05-02T15:03:16.963Z</time></trkpt><trkpt lat="43.5996424" lon="11.2319281"><ele>285.25</ele><time>2026-05-02T15:03:17.963Z</time></trkpt><trkpt lat="43.5997491" lon="11.2320667"><ele>287.5</ele><time>2026-05-02T15:03:18.963Z</time></trkpt><trkpt lat="43.5998613" lon="11.2321902"><ele>289.75</ele><time>2026-05-02T15:03:19.963Z</time></trkpt><trkpt lat="43.5999776" lon="11.2322849"><ele>292.0</ele><time>2026-05-02T15:03:20.963Z</time></trkpt><trkpt lat="43.6001012" lon="11.2323682"><ele>292.6</ele><time>2026-05-02T15:03:21.964Z</time></trkpt><trkpt lat="43.6002064" lon="11.2324577"><ele>293.2</ele><time>2026-05-02T15:03:22.963Z</time></trkpt><trkpt lat="43.6002935" lon="11.2325535"><ele>293.8</ele><time>2026-05-02T15:03:23.963Z</time></trkpt><trkpt lat="43.6003659" lon="11.2326676"><ele>294.4</ele><time>2026-05-02T15:03:24.963Z</time></trkpt><trkpt lat="43.6004287" lon="11.2327795"><ele>295.0</ele><time>2026-05-02T15:03:25.963Z</time></trkpt><trkpt lat="43.6005035" lon="11.23289"><ele>295.3333333333333</ele><time>2026-05-02T15:03:26.963Z</time></trkpt><trkpt lat="43.6006021" lon="11.2330098"><ele>295.6666666666667</ele><time>2026-05-02T15:03:27.963Z</time></trkpt><trkpt lat="43.6007285" lon="11.2332044"><ele>296.0</ele><time>2026-05-02T15:03:28.963Z</time></trkpt><trkpt lat="43.600848" lon="11.2333247"><ele>295.0</ele><time>2026-05-02T15:03:29.962Z</time></trkpt><trkpt lat="43.6009591" lon="11.2334365"><ele>294.0</ele><time>2026-05-02T15:03:30.963Z</time></trkpt><trkpt lat="43.6010671" lon="11.2335602"><ele>293.0</ele><time>2026-05-02T15:03:31.962Z</time></trkpt><trkpt lat="43.6011709" lon="11.2337057"><ele>292.0</ele><time>2026-05-02T15:03:32.962Z</time></trkpt><trkpt lat="43.6012717" lon="11.2338658"><ele>293.66666666666663</ele><time>2026-05-02T15:03:33.962Z</time></trkpt><trkpt lat="43.6013697" lon="11.2340288"><ele>295.3333333333333</ele><time>2026-05-02T15:03:34.962Z</time></trkpt><trkpt lat="43.6014759" lon="11.2341817"><ele>297.0</ele><time>2026-05-02T15:03:35.963Z</time></trkpt><trkpt lat="43.601586" lon="11.2343236"><ele>297.0</ele><time>2026-05-02T15:03:36.962Z</time></trkpt><trkpt lat="43.601705" lon="11.2344531"><ele>297.0</ele><time>2026-05-02T15:03:37.962Z</time></trkpt><trkpt lat="43.6018405" lon="11.2345747"><ele>297.0</ele><time>2026-05-02T15:03:38.963Z</time></trkpt><trkpt lat="43.6019913" lon="11.2346889"><ele>298.0</ele><time>2026-05-02T15:03:39.962Z</time></trkpt><trkpt lat="43.6021457" lon="11.2348029"><ele>299.0</ele><time>2026-05-02T15:03:40.962Z</time></trkpt><trkpt lat="43.6022904" lon="11.2349157"><ele>300.0</ele><time>2026-05-02T15:03:41.962Z</time></trkpt><trkpt lat="43.6024181" lon="11.235016"><ele>301.0</ele><time>2026-05-02T15:03:42.963Z</time></trkpt><trkpt lat="43.6025431" lon="11.2351047"><ele>302.0</ele><time>2026-05-02T15:03:43.962Z</time></trkpt><trkpt lat="43.6026677" lon="11.2351688"><ele>303.0</ele><time>2026-05-02T15:03:44.962Z</time></trkpt><trkpt lat="43.6027983" lon="11.2351941"><ele>304.0</ele><time>2026-05-02T15:03:45.962Z</time></trkpt><trkpt lat="43.602937" lon="11.2351815"><ele>308.0</ele><time>2026-05-02T15:03:46.963Z</time></trkpt><trkpt lat="43.6030862" lon="11.2351363"><ele>312.0</ele><time>2026-05-02T15:03:47.962Z</time></trkpt><trkpt lat="43.6032459" lon="11.2350957"><ele>316.0</ele><time>2026-05-02T15:03:48.962Z</time></trkpt><trkpt lat="43.6033926" lon="11.2350504"><ele>316.0</ele><time>2026-05-02T15:03:49.963Z</time></trkpt><trkpt lat="43.60353" lon="11.2350033"><ele>316.0</ele><time>2026-05-02T15:03:50.962Z</time></trkpt><trkpt lat="43.6036548" lon="11.2349635"><ele>316.0</ele><time>2026-05-02T15:03:51.962Z</time></trkpt><trkpt lat="43.6037708" lon="11.234931"><ele>316.0</ele><time>2026-05-02T15:03:52.962Z</time></trkpt><trkpt lat="43.6038815" lon="11.2349051"><ele>318.4</ele><time>2026-05-02T15:03:53.962Z</time></trkpt><trkpt lat="43.6039859" lon="11.2349077"><ele>320.8</ele><time>2026-05-02T15:03:54.963Z</time></trkpt><trkpt lat="43.6040865" lon="11.2349442"><ele>323.2</ele><time>2026-05-02T15:03:55.962Z</time></trkpt><trkpt lat="43.60419" lon="11.2350028"><ele>325.59999999999997</ele><time>2026-05-02T15:03:56.963Z</time></trkpt><trkpt lat="43.6042987" lon="11.2350669"><ele>328.0</ele><time>2026-05-02T15:03:57.962Z</time></trkpt><trkpt lat="43.604412" lon="11.2351167"><ele>328.5</ele><time>2026-05-02T15:03:58.962Z</time></trkpt><trkpt lat="43.6045418" lon="11.2351462"><ele>329.0</ele><time>2026-05-02T15:03:59.963Z</time></trkpt><trkpt lat="43.6046711" lon="11.2351548"><ele>329.5</ele><time>2026-05-02T15:04:00.963Z</time></trkpt><trkpt lat="43.6047919" lon="11.235151"><ele>330.0</ele><time>2026-05-02T15:04:01.962Z</time></trkpt><trkpt lat="43.6049069" lon="11.2351554"><ele>330.0</ele><time>2026-05-02T15:04:02.962Z</time></trkpt><trkpt lat="43.6050166" lon="11.2351574"><ele>330.0</ele><time>2026-05-02T15:04:03.962Z</time></trkpt><trkpt lat="43.605125" lon="11.2351574"><ele>330.0</ele><time>2026-05-02T15:04:04.962Z</time></trkpt><trkpt lat="43.6052294" lon="11.235154"><ele>330.0</ele><time>2026-05-02T15:04:05.962Z</time></trkpt><trkpt lat="43.6053289" lon="11.2351525"><ele>330.0</ele><time>2026-05-02T15:04:06.962Z</time></trkpt><trkpt lat="43.6054236" lon="11.2351495"><ele>327.6</ele><time>2026-05-02T15:04:07.962Z</time></trkpt><trkpt lat="43.605518" lon="11.2351598"><ele>325.2</ele><time>2026-05-02T15:04:08.962Z</time></trkpt><trkpt lat="43.6056163" lon="11.2351933"><ele>322.8</ele><time>2026-05-02T15:04:09.962Z</time></trkpt><trkpt lat="43.6057166" lon="11.2352708"><ele>320.4</ele><time>2026-05-02T15:04:10.962Z</time></trkpt><trkpt lat="43.6058134" lon="11.2353789"><ele>318.0</ele><time>2026-05-02T15:04:11.962Z</time></trkpt><trkpt lat="43.6059126" lon="11.2355179"><ele>318.0</ele><time>2026-05-02T15:04:12.962Z</time></trkpt><trkpt lat="43.6060007" lon="11.2356862"><ele>318.0</ele><time>2026-05-02T15:04:13.962Z</time></trkpt><trkpt lat="43.6060852" lon="11.2358526"><ele>318.0</ele><time>2026-05-02T15:04:14.962Z</time></trkpt><trkpt lat="43.6061645" lon="11.2360068"><ele>318.0</ele><time>2026-05-02T15:04:15.963Z</time></trkpt><trkpt lat="43.6062504" lon="11.2361487"><ele>318.0</ele><time>2026-05-02T15:04:16.963Z</time></trkpt><trkpt lat="43.6063439" lon="11.2362934"><ele>318.0</ele><time>2026-05-02T15:04:17.962Z</time></trkpt><trkpt lat="43.6064449" lon="11.2364389"><ele>318.0</ele><time>2026-05-02T15:04:18.963Z</time></trkpt><trkpt lat="43.6065542" lon="11.2365861"><ele>318.0</ele><time>2026-05-02T15:04:19.962Z</time></trkpt><trkpt lat="43.6066662" lon="11.2367496"><ele>319.3333333333333</ele><time>2026-05-02T15:04:20.963Z</time></trkpt><trkpt lat="43.6067775" lon="11.236921"><ele>320.66666666666663</ele><time>2026-05-02T15:04:21.962Z</time></trkpt><trkpt lat="43.6068856" lon="11.2370906"><ele>322.0</ele><time>2026-05-02T15:04:22.962Z</time></trkpt><trkpt lat="43.6070095" lon="11.2372448"><ele>326.0</ele><time>2026-05-02T15:04:23.962Z</time></trkpt><trkpt lat="43.607162" lon="11.2373855"><ele>330.0</ele><time>2026-05-02T15:04:24.962Z</time></trkpt><trkpt lat="43.6073142" lon="11.2375323"><ele>334.0</ele><time>2026-05-02T15:04:25.962Z</time></trkpt><trkpt lat="43.6074682" lon="11.2376799"><ele>334.0</ele><time>2026-05-02T15:04:26.962Z</time></trkpt><trkpt lat="43.6076155" lon="11.2378416"><ele>334.0</ele><time>2026-05-02T15:04:27.962Z</time></trkpt><trkpt lat="43.6077584" lon="11.2380026"><ele>334.0</ele><time>2026-05-02T15:04:28.962Z</time></trkpt><trkpt lat="43.6078905" lon="11.2381642"><ele>336.25</ele><time>2026-05-02T15:04:29.962Z</time></trkpt><trkpt lat="43.608007" lon="11.2382971"><ele>338.5</ele><time>2026-05-02T15:04:30.962Z</time></trkpt><trkpt lat="43.608108" lon="11.2384063"><ele>340.75</ele><time>2026-05-02T15:04:31.962Z</time></trkpt><trkpt lat="43.6082094" lon="11.2384825"><ele>343.0</ele><time>2026-05-02T15:04:32.962Z</time></trkpt><trkpt lat="43.6083279" lon="11.2385121"><ele>343.0</ele><time>2026-05-02T15:04:33.962Z</time></trkpt><trkpt lat="43.6084522" lon="11.2385243"><ele>343.0</ele><time>2026-05-02T15:04:34.962Z</time></trkpt><trkpt lat="43.6085654" lon="11.2385477"><ele>343.0</ele><time>2026-05-02T15:04:35.962Z</time></trkpt><trkpt lat="43.6086628" lon="11.2385644"><ele>343.0</ele><time>2026-05-02T15:04:36.963Z</time></trkpt><trkpt lat="43.6087588" lon="11.2385808"><ele>343.0</ele><time>2026-05-02T15:04:37.962Z</time></trkpt><trkpt lat="43.6088513" lon="11.2386178"><ele>342.5</ele><time>2026-05-02T15:04:38.962Z</time></trkpt><trkpt lat="43.6089483" lon="11.2386768"><ele>342.0</ele><time>2026-05-02T15:04:39.963Z</time></trkpt><trkpt lat="43.6090506" lon="11.238768"><ele>341.5</ele><time>2026-05-02T15:04:40.962Z</time></trkpt><trkpt lat="43.6091602" lon="11.2388895"><ele>341.0</ele><time>2026-05-02T15:04:41.963Z</time></trkpt><trkpt lat="43.6092692" lon="11.2389837"><ele>340.5</ele><time>2026-05-02T15:04:42.962Z</time></trkpt><trkpt lat="43.6093799" lon="11.2390719"><ele>340.0</ele><time>2026-05-02T15:04:43.962Z</time></trkpt><trkpt lat="43.6094926" lon="11.2391599"><ele>339.5</ele><time>2026-05-02T15:04:44.962Z</time></trkpt><trkpt lat="43.6096064" lon="11.2392341"><ele>339.0</ele><time>2026-05-02T15:04:45.962Z</time></trkpt><trkpt lat="43.609724" lon="11.2392923"><ele>339.0</ele><time>2026-05-02T15:04:46.962Z</time></trkpt><trkpt lat="43.6098487" lon="11.2393295"><ele>339.0</ele><time>2026-05-02T15:04:47.962Z</time></trkpt><trkpt lat="43.6099802" lon="11.2393344"><ele>339.0</ele><time>2026-05-02T15:04:48.962Z</time></trkpt><trkpt lat="43.6101219" lon="11.239309"><ele>339.0</ele><time>2026-05-02T15:04:49.962Z</time></trkpt><trkpt lat="43.6102716" lon="11.2392685"><ele>337.0</ele><time>2026-05-02T15:04:50.962Z</time></trkpt><trkpt lat="43.6104216" lon="11.2392225"><ele>335.0</ele><time>2026-05-02T15:04:51.962Z</time></trkpt><trkpt lat="43.6105611" lon="11.2391939"><ele>333.0</ele><time>2026-05-02T15:04:52.962Z</time></trkpt><trkpt lat="43.6106986" lon="11.2391667"><ele>331.0</ele><time>2026-05-02T15:04:53.962Z</time></trkpt><trkpt lat="43.6108278" lon="11.2391407"><ele>331.0</ele><time>2026-05-02T15:04:54.962Z</time></trkpt><trkpt lat="43.6109466" lon="11.2391031"><ele>331.0</ele><time>2026-05-02T15:04:55.962Z</time></trkpt><trkpt lat="43.6110567" lon="11.2390662"><ele>331.0</ele><time>2026-05-02T15:04:56.963Z</time></trkpt><trkpt lat="43.6111667" lon="11.2390505"><ele>331.0</ele><time>2026-05-02T15:04:57.962Z</time></trkpt><trkpt lat="43.6112788" lon="11.239079"><ele>328.0</ele><time>2026-05-02T15:04:58.962Z</time></trkpt><trkpt lat="43.6113934" lon="11.2391486"><ele>325.0</ele><time>2026-05-02T15:04:59.962Z</time></trkpt><trkpt lat="43.611511" lon="11.2392661"><ele>322.0</ele><time>2026-05-02T15:05:00.962Z</time></trkpt><trkpt lat="43.6116379" lon="11.2394135"><ele>319.0</ele><time>2026-05-02T15:05:01.962Z</time></trkpt><trkpt lat="43.6117823" lon="11.2395779"><ele>319.0</ele><time>2026-05-02T15:05:02.962Z</time></trkpt><trkpt lat="43.6119464" lon="11.2397642"><ele>319.0</ele><time>2026-05-02T15:05:03.962Z</time></trkpt><trkpt lat="43.6121088" lon="11.2399525"><ele>319.0</ele><time>2026-05-02T15:05:04.962Z</time></trkpt><trkpt lat="43.6122557" lon="11.2401393"><ele>321.3333333333333</ele><time>2026-05-02T15:05:05.962Z</time></trkpt><trkpt lat="43.6123878" lon="11.2402954"><ele>323.6666666666667</ele><time>2026-05-02T15:05:06.962Z</time></trkpt><trkpt lat="43.6125063" lon="11.2404285"><ele>326.0</ele><time>2026-05-02T15:05:07.962Z</time></trkpt><trkpt lat="43.6126065" lon="11.2405456"><ele>328.0</ele><time>2026-05-02T15:05:08.962Z</time></trkpt><trkpt lat="43.6127053" lon="11.2406341"><ele>330.0</ele><time>2026-05-02T15:05:09.962Z</time></trkpt><trkpt lat="43.6128116" lon="11.2406976"><ele>332.0</ele><time>2026-05-02T15:05:10.963Z</time></trkpt><trkpt lat="43.6129177" lon="11.2407502"><ele>334.0</ele><time>2026-05-02T15:05:11.962Z</time></trkpt><trkpt lat="43.6130163" lon="11.2408054"><ele>334.25</ele><time>2026-05-02T15:05:12.962Z</time></trkpt><trkpt lat="43.6131197" lon="11.2408679"><ele>334.5</ele><time>2026-05-02T15:05:13.962Z</time></trkpt><trkpt lat="43.613239" lon="11.2409524"><ele>334.75</ele><time>2026-05-02T15:05:14.962Z</time></trkpt><trkpt lat="43.6133403" lon="11.2410293"><ele>335.0</ele><time>2026-05-02T15:05:15.962Z</time></trkpt><trkpt lat="43.6134719" lon="11.241125"><ele>335.0</ele><time>2026-05-02T15:05:16.962Z</time></trkpt><trkpt lat="43.6136346" lon="11.241258"><ele>335.0</ele><time>2026-05-02T15:05:17.962Z</time></trkpt><trkpt lat="43.6138073" lon="11.2414075"><ele>335.0</ele><time>2026-05-02T15:05:18.963Z</time></trkpt><trkpt lat="43.6139897" lon="11.2415627"><ele>332.0</ele><time>2026-05-02T15:05:19.963Z</time></trkpt><trkpt lat="43.614169" lon="11.2417181"><ele>329.0</ele><time>2026-05-02T15:05:20.963Z</time></trkpt><trkpt lat="43.6143433" lon="11.2418639"><ele>326.0</ele><time>2026-05-02T15:05:21.962Z</time></trkpt><trkpt lat="43.6145164" lon="11.2420104"><ele>324.0</ele><time>2026-05-02T15:05:22.962Z</time></trkpt><trkpt lat="43.6146859" lon="11.2421493"><ele>322.0</ele><time>2026-05-02T15:05:23.962Z</time></trkpt><trkpt lat="43.6148531" lon="11.2422815"><ele>320.0</ele><time>2026-05-02T15:05:24.962Z</time></trkpt><trkpt lat="43.6150097" lon="11.2424145"><ele>320.0</ele><time>2026-05-02T15:05:25.962Z</time></trkpt><trkpt lat="43.6151589" lon="11.2425391"><ele>320.0</ele><time>2026-05-02T15:05:26.962Z</time></trkpt><trkpt lat="43.6152987" lon="11.2426496"><ele>320.0</ele><time>2026-05-02T15:05:27.962Z</time></trkpt><trkpt lat="43.6154271" lon="11.2427531"><ele>318.25</ele><time>2026-05-02T15:05:28.962Z</time></trkpt><trkpt lat="43.6155374" lon="11.2428577"><ele>316.5</ele><time>2026-05-02T15:05:29.962Z</time></trkpt><trkpt lat="43.6156336" lon="11.2429735"><ele>314.75</ele><time>2026-05-02T15:05:30.962Z</time></trkpt><trkpt lat="43.6157313" lon="11.2431071"><ele>313.0</ele><time>2026-05-02T15:05:31.962Z</time></trkpt><trkpt lat="43.6158282" lon="11.243254"><ele>312.75</ele><time>2026-05-02T15:05:32.962Z</time></trkpt><trkpt lat="43.6159175" lon="11.2434068"><ele>312.5</ele><time>2026-05-02T15:05:33.962Z</time></trkpt><trkpt lat="43.6160045" lon="11.2435635"><ele>312.25</ele><time>2026-05-02T15:05:34.962Z</time></trkpt><trkpt lat="43.6160903" lon="11.2437097"><ele>312.0</ele><time>2026-05-02T15:05:35.962Z</time></trkpt><trkpt lat="43.6161887" lon="11.2438352"><ele>311.5</ele><time>2026-05-02T15:05:36.962Z</time></trkpt><trkpt lat="43.6163078" lon="11.2439332"><ele>311.0</ele><time>2026-05-02T15:05:37.963Z</time></trkpt><trkpt lat="43.6164493" lon="11.2440056"><ele>310.5</ele><time>2026-05-02T15:05:38.963Z</time></trkpt><trkpt lat="43.6166012" lon="11.2440486"><ele>310.0</ele><time>2026-05-02T15:05:39.962Z</time></trkpt><trkpt lat="43.6167521" lon="11.2440736"><ele>311.25</ele><time>2026-05-02T15:05:40.962Z</time></trkpt><trkpt lat="43.6168903" lon="11.2440938"><ele>312.5</ele><time>2026-05-02T15:05:41.962Z</time></trkpt><trkpt lat="43.6170099" lon="11.2441197"><ele>313.75</ele><time>2026-05-02T15:05:42.962Z</time></trkpt><trkpt lat="43.617114" lon="11.2441452"><ele>315.0</ele><time>2026-05-02T15:05:43.962Z</time></trkpt><trkpt lat="43.6172073" lon="11.2441574"><ele>315.4</ele><time>2026-05-02T15:05:44.962Z</time></trkpt><trkpt lat="43.6173011" lon="11.2441685"><ele>315.8</ele><time>2026-05-02T15:05:45.962Z</time></trkpt><trkpt lat="43.617399" lon="11.2441968"><ele>316.2</ele><time>2026-05-02T15:05:46.962Z</time></trkpt><trkpt lat="43.6175042" lon="11.2442486"><ele>316.6</ele><time>2026-05-02T15:05:47.962Z</time></trkpt><trkpt lat="43.6176121" lon="11.244327"><ele>317.0</ele><time>2026-05-02T15:05:48.962Z</time></trkpt><trkpt lat="43.6177076" lon="11.2444317"><ele>317.0</ele><time>2026-05-02T15:05:49.962Z</time></trkpt><trkpt lat="43.6177979" lon="11.2445506"><ele>317.0</ele><time>2026-05-02T15:05:50.962Z</time></trkpt><trkpt lat="43.6178848" lon="11.2446547"><ele>317.0</ele><time>2026-05-02T15:05:51.962Z</time></trkpt><trkpt lat="43.6179817" lon="11.2447555"><ele>317.0</ele><time>2026-05-02T15:05:52.962Z</time></trkpt><trkpt lat="43.6181155" lon="11.2448367"><ele>315.5</ele><time>2026-05-02T15:05:53.962Z</time></trkpt><trkpt lat="43.6182441" lon="11.2449396"><ele>314.0</ele><time>2026-05-02T15:05:54.962Z</time></trkpt><trkpt lat="43.6183539" lon="11.2450435"><ele>312.5</ele><time>2026-05-02T15:05:55.962Z</time></trkpt><trkpt lat="43.6184582" lon="11.2451348"><ele>311.0</ele><time>2026-05-02T15:05:56.962Z</time></trkpt><trkpt lat="43.6185573" lon="11.245209"><ele>310.0</ele><time>2026-05-02T15:05:57.962Z</time></trkpt><trkpt lat="43.618659" lon="11.2452631"><ele>309.0</ele><time>2026-05-02T15:05:58.962Z</time></trkpt><trkpt lat="43.6187684" lon="11.245281"><ele>308.0</ele><time>2026-05-02T15:05:59.962Z</time></trkpt><trkpt lat="43.6188958" lon="11.2452612"><ele>307.0</ele><time>2026-05-02T15:06:00.962Z</time></trkpt><trkpt lat="43.6190441" lon="11.2452148"><ele>307.0</ele><time>2026-05-02T15:06:01.963Z</time></trkpt><trkpt lat="43.6192108" lon="11.2451514"><ele>307.0</ele><time>2026-05-02T15:06:02.963Z</time></trkpt><trkpt lat="43.6193811" lon="11.2451084"><ele>307.0</ele><time>2026-05-02T15:06:03.962Z</time></trkpt><trkpt lat="43.6195771" lon="11.2450656"><ele>309.66666666666663</ele><time>2026-05-02T15:06:04.963Z</time></trkpt><trkpt lat="43.6197589" lon="11.2450169"><ele>312.3333333333333</ele><time>2026-05-02T15:06:05.962Z</time></trkpt><trkpt lat="43.619923" lon="11.244975"><ele>315.0</ele><time>2026-05-02T15:06:06.962Z</time></trkpt><trkpt lat="43.6200742" lon="11.2449351"><ele>315.0</ele><time>2026-05-02T15:06:07.962Z</time></trkpt><trkpt lat="43.620216" lon="11.2448989"><ele>315.0</ele><time>2026-05-02T15:06:08.963Z</time></trkpt><trkpt lat="43.6203516" lon="11.2448681"><ele>315.0</ele><time>2026-05-02T15:06:09.962Z</time></trkpt><trkpt lat="43.6204778" lon="11.2448408"><ele>315.0</ele><time>2026-05-02T15:06:10.962Z</time></trkpt><trkpt lat="43.6205995" lon="11.2448189"><ele>315.4</ele><time>2026-05-02T15:06:11.963Z</time></trkpt><trkpt lat="43.6206971" lon="11.244816"><ele>315.8</ele><time>2026-05-02T15:06:12.962Z</time></trkpt><trkpt lat="43.6207789" lon="11.2448233"><ele>316.2</ele><time>2026-05-02T15:06:13.962Z</time></trkpt><trkpt lat="43.6208608" lon="11.2448481"><ele>316.6</ele><time>2026-05-02T15:06:14.963Z</time></trkpt><trkpt lat="43.6209504" lon="11.2448875"><ele>317.0</ele><time>2026-05-02T15:06:15.962Z</time></trkpt><trkpt lat="43.6210472" lon="11.2449366"><ele>317.0</ele><time>2026-05-02T15:06:16.962Z</time></trkpt><trkpt lat="43.6211463" lon="11.2449969"><ele>317.0</ele><time>2026-05-02T15:06:17.962Z</time></trkpt><trkpt lat="43.6212377" lon="11.2450453"><ele>317.0</ele><time>2026-05-02T15:06:18.963Z</time></trkpt><trkpt lat="43.6213199" lon="11.2450884"><ele>317.0</ele><time>2026-05-02T15:06:19.962Z</time></trkpt><trkpt lat="43.6213915" lon="11.2451264"><ele>317.0</ele><time>2026-05-02T15:06:20.962Z</time></trkpt><trkpt lat="43.6214931" lon="11.2451834"><ele>316.6666666666667</ele><time>2026-05-02T15:06:22.962Z</time></trkpt><trkpt lat="43.6215652" lon="11.2452319"><ele>316.33333333333337</ele><time>2026-05-02T15:06:29.962Z</time></trkpt><trkpt lat="43.6216576" lon="11.2451978"><ele>316.0</ele><time>2026-05-02T15:06:31.962Z</time></trkpt><trkpt lat="43.6217249" lon="11.2451582"><ele>315.6666666666667</ele><time>2026-05-02T15:06:32.962Z</time></trkpt><trkpt lat="43.6217997" lon="11.2451018"><ele>315.3333333333333</ele><time>2026-05-02T15:06:33.962Z</time></trkpt><trkpt lat="43.6218793" lon="11.2450267"><ele>315.0</ele><time>2026-05-02T15:06:34.962Z</time></trkpt><trkpt lat="43.6219467" lon="11.2449281"><ele>314.6666666666667</ele><time>2026-05-02T15:06:35.963Z</time></trkpt><trkpt lat="43.6219946" lon="11.2448299"><ele>314.3333333333333</ele><time>2026-05-02T15:06:36.962Z</time></trkpt><trkpt lat="43.6220311" lon="11.2447321"><ele>314.0</ele><time>2026-05-02T15:06:37.962Z</time></trkpt><trkpt lat="43.6220603" lon="11.2446404"><ele>313.66666666666663</ele><time>2026-05-02T15:06:38.963Z</time></trkpt><trkpt lat="43.6220879" lon="11.2445518"><ele>313.3333333333333</ele><time>2026-05-02T15:06:39.962Z</time></trkpt><trkpt lat="43.6221302" lon="11.2444188"><ele>313.0</ele><time>2026-05-02T15:06:41.962Z</time></trkpt><trkpt lat="43.6221577" lon="11.2443377"><ele>312.3333333333333</ele><time>2026-05-02T15:07:16.962Z</time></trkpt><trkpt lat="43.6221624" lon="11.2442428"><ele>311.66666666666663</ele><time>2026-05-02T15:07:18.962Z</time></trkpt><trkpt lat="43.6221813" lon="11.2441577"><ele>311.0</ele><time>2026-05-02T15:07:19.963Z</time></trkpt><trkpt lat="43.6222069" lon="11.2440697"><ele>310.3333333333333</ele><time>2026-05-02T15:07:20.962Z</time></trkpt><trkpt lat="43.6222402" lon="11.2439884"><ele>309.6666666666667</ele><time>2026-05-02T15:07:21.962Z</time></trkpt><trkpt lat="43.6222815" lon="11.2439183"><ele>309.0</ele><time>2026-05-02T15:07:22.962Z</time></trkpt><trkpt lat="43.6223907" lon="11.2438351"><ele>309.0</ele><time>2026-05-02T15:07:24.962Z</time></trkpt><trkpt lat="43.6224584" lon="11.2438204"><ele>309.0</ele><time>2026-05-02T15:07:25.962Z</time></trkpt><trkpt lat="43.622536" lon="11.2438431"><ele>309.0</ele><time>2026-05-02T15:07:26.962Z</time></trkpt><trkpt lat="43.6226159" lon="11.2438997"><ele>309.0</ele><time>2026-05-02T15:07:27.962Z</time></trkpt><trkpt lat="43.6226973" lon="11.2440001"><ele>309.0</ele><time>2026-05-02T15:07:28.962Z</time></trkpt><trkpt lat="43.6227771" lon="11.2441063"><ele>306.59999999999997</ele><time>2026-05-02T15:07:29.962Z</time></trkpt><trkpt lat="43.6228458" lon="11.2442347"><ele>304.2</ele><time>2026-05-02T15:07:30.962Z</time></trkpt><trkpt lat="43.6229144" lon="11.2443457"><ele>301.79999999999995</ele><time>2026-05-02T15:07:31.962Z</time></trkpt><trkpt lat="43.6229774" lon="11.2444493"><ele>299.4</ele><time>2026-05-02T15:07:32.963Z</time></trkpt><trkpt lat="43.6230397" lon="11.2445409"><ele>297.0</ele><time>2026-05-02T15:07:33.963Z</time></trkpt><trkpt lat="43.6231072" lon="11.2446093"><ele>297.0</ele><time>2026-05-02T15:07:34.962Z</time></trkpt><trkpt lat="43.6231846" lon="11.2446466"><ele>297.0</ele><time>2026-05-02T15:07:35.962Z</time></trkpt><trkpt lat="43.6232642" lon="11.2446531"><ele>297.0</ele><time>2026-05-02T15:07:36.962Z</time></trkpt><trkpt lat="43.6233409" lon="11.2446351"><ele>297.0</ele><time>2026-05-02T15:07:37.962Z</time></trkpt><trkpt lat="43.6234202" lon="11.2445708"><ele>297.0</ele><time>2026-05-02T15:07:38.962Z</time></trkpt><trkpt lat="43.6234921" lon="11.2444695"><ele>297.0</ele><time>2026-05-02T15:07:39.962Z</time></trkpt><trkpt lat="43.6235616" lon="11.2443335"><ele>297.0</ele><time>2026-05-02T15:07:40.962Z</time></trkpt><trkpt lat="43.6236307" lon="11.2441726"><ele>297.0</ele><time>2026-05-02T15:07:41.962Z</time></trkpt><trkpt lat="43.6236994" lon="11.2440022"><ele>297.0</ele><time>2026-05-02T15:07:42.962Z</time></trkpt><trkpt lat="43.6237678" lon="11.243823"><ele>297.0</ele><time>2026-05-02T15:07:43.962Z</time></trkpt><trkpt lat="43.6238372" lon="11.2436305"><ele>297.75</ele><time>2026-05-02T15:07:44.962Z</time></trkpt><trkpt lat="43.6239009" lon="11.2434684"><ele>298.5</ele><time>2026-05-02T15:07:45.963Z</time></trkpt><trkpt lat="43.6239692" lon="11.2433111"><ele>299.25</ele><time>2026-05-02T15:07:46.962Z</time></trkpt><trkpt lat="43.6240357" lon="11.243163"><ele>300.0</ele><time>2026-05-02T15:07:47.962Z</time></trkpt><trkpt lat="43.6241058" lon="11.243018"><ele>300.0</ele><time>2026-05-02T15:07:48.962Z</time></trkpt><trkpt lat="43.6241831" lon="11.2428921"><ele>300.0</ele><time>2026-05-02T15:07:49.963Z</time></trkpt><trkpt lat="43.624275" lon="11.2428097"><ele>300.0</ele><time>2026-05-02T15:07:50.963Z</time></trkpt><trkpt lat="43.6243802" lon="11.2427405"><ele>300.0</ele><time>2026-05-02T15:07:51.963Z</time></trkpt><trkpt lat="43.6244909" lon="11.2425891"><ele>301.25</ele><time>2026-05-02T15:07:52.962Z</time></trkpt><trkpt lat="43.624603" lon="11.2424606"><ele>302.5</ele><time>2026-05-02T15:07:53.962Z</time></trkpt><trkpt lat="43.6247156" lon="11.2423238"><ele>303.75</ele><time>2026-05-02T15:07:54.962Z</time></trkpt><trkpt lat="43.624822" lon="11.2422003"><ele>305.0</ele><time>2026-05-02T15:07:55.962Z</time></trkpt><trkpt lat="43.6249282" lon="11.2421068"><ele>305.0</ele><time>2026-05-02T15:07:56.963Z</time></trkpt><trkpt lat="43.6250387" lon="11.2420365"><ele>305.0</ele><time>2026-05-02T15:07:57.963Z</time></trkpt><trkpt lat="43.6251616" lon="11.2419969"><ele>305.0</ele><time>2026-05-02T15:07:58.962Z</time></trkpt><trkpt lat="43.6253071" lon="11.2419872"><ele>305.0</ele><time>2026-05-02T15:07:59.962Z</time></trkpt><trkpt lat="43.6254571" lon="11.2419969"><ele>306.75</ele><time>2026-05-02T15:08:00.963Z</time></trkpt><trkpt lat="43.6256118" lon="11.2420049"><ele>308.5</ele><time>2026-05-02T15:08:01.962Z</time></trkpt><trkpt lat="43.6257578" lon="11.2419868"><ele>310.25</ele><time>2026-05-02T15:08:02.962Z</time></trkpt><trkpt lat="43.6258994" lon="11.2419574"><ele>312.0</ele><time>2026-05-02T15:08:03.962Z</time></trkpt><trkpt lat="43.6260196" lon="11.2419319"><ele>312.0</ele><time>2026-05-02T15:08:04.963Z</time></trkpt><trkpt lat="43.6261246" lon="11.2419"><ele>312.0</ele><time>2026-05-02T15:08:05.962Z</time></trkpt><trkpt lat="43.6262087" lon="11.2418742"><ele>312.0</ele><time>2026-05-02T15:08:06.962Z</time></trkpt><trkpt lat="43.6263168" lon="11.2418526"><ele>312.0</ele><time>2026-05-02T15:08:08.962Z</time></trkpt><trkpt lat="43.626404" lon="11.2418105"><ele>312.0</ele><time>2026-05-02T15:08:10.962Z</time></trkpt><trkpt lat="43.6264867" lon="11.2417769"><ele>312.8</ele><time>2026-05-02T15:08:11.962Z</time></trkpt><trkpt lat="43.6265942" lon="11.2417459"><ele>313.6</ele><time>2026-05-02T15:08:12.963Z</time></trkpt><trkpt lat="43.6267002" lon="11.2417107"><ele>314.40000000000003</ele><time>2026-05-02T15:08:13.962Z</time></trkpt><trkpt lat="43.6267972" lon="11.2416884"><ele>315.2</ele><time>2026-05-02T15:08:14.962Z</time></trkpt><trkpt lat="43.6268762" lon="11.2416624"><ele>316.0</ele><time>2026-05-02T15:08:15.963Z</time></trkpt><trkpt lat="43.6269391" lon="11.2416085"><ele>316.75</ele><time>2026-05-02T15:08:16.962Z</time></trkpt><trkpt lat="43.627007" lon="11.2415199"><ele>317.5</ele><time>2026-05-02T15:08:17.961Z</time></trkpt><trkpt lat="43.6270782" lon="11.2413755"><ele>318.25</ele><time>2026-05-02T15:08:18.961Z</time></trkpt><trkpt lat="43.6271465" lon="11.2411982"><ele>319.0</ele><time>2026-05-02T15:08:19.961Z</time></trkpt><trkpt lat="43.6272163" lon="11.2410051"><ele>317.25</ele><time>2026-05-02T15:08:20.962Z</time></trkpt><trkpt lat="43.6272827" lon="11.2408202"><ele>315.5</ele><time>2026-05-02T15:08:21.962Z</time></trkpt><trkpt lat="43.6273436" lon="11.2406407"><ele>313.75</ele><time>2026-05-02T15:08:22.961Z</time></trkpt><trkpt lat="43.6273979" lon="11.2404715"><ele>312.0</ele><time>2026-05-02T15:08:23.961Z</time></trkpt><trkpt lat="43.6274583" lon="11.2403072"><ele>310.75</ele><time>2026-05-02T15:08:24.961Z</time></trkpt><trkpt lat="43.6275208" lon="11.240147"><ele>309.5</ele><time>2026-05-02T15:08:25.961Z</time></trkpt><trkpt lat="43.6275764" lon="11.2399832"><ele>308.25</ele><time>2026-05-02T15:08:26.961Z</time></trkpt><trkpt lat="43.6276366" lon="11.2398161"><ele>307.0</ele><time>2026-05-02T15:08:27.961Z</time></trkpt><trkpt lat="43.6276934" lon="11.2396503"><ele>307.25</ele><time>2026-05-02T15:08:28.962Z</time></trkpt><trkpt lat="43.6277456" lon="11.2395002"><ele>307.5</ele><time>2026-05-02T15:08:29.961Z</time></trkpt><trkpt lat="43.6277942" lon="11.2393602"><ele>307.75</ele><time>2026-05-02T15:08:30.961Z</time></trkpt><trkpt lat="43.6278618" lon="11.2392303"><ele>308.0</ele><time>2026-05-02T15:08:31.961Z</time></trkpt><trkpt lat="43.6279694" lon="11.2391329"><ele>308.0</ele><time>2026-05-02T15:08:32.961Z</time></trkpt><trkpt lat="43.6280917" lon="11.2390347"><ele>308.0</ele><time>2026-05-02T15:08:33.961Z</time></trkpt><trkpt lat="43.6282148" lon="11.2389532"><ele>308.0</ele><time>2026-05-02T15:08:34.961Z</time></trkpt><trkpt lat="43.6283313" lon="11.2388768"><ele>308.0</ele><time>2026-05-02T15:08:35.961Z</time></trkpt><trkpt lat="43.6284622" lon="11.2388073"><ele>305.0</ele><time>2026-05-02T15:08:36.962Z</time></trkpt><trkpt lat="43.6285974" lon="11.2387506"><ele>302.0</ele><time>2026-05-02T15:08:37.961Z</time></trkpt><trkpt lat="43.628732" lon="11.2387084"><ele>299.0</ele><time>2026-05-02T15:08:38.961Z</time></trkpt><trkpt lat="43.6288628" lon="11.2386637"><ele>296.0</ele><time>2026-05-02T15:08:39.961Z</time></trkpt><trkpt lat="43.6289854" lon="11.2386227"><ele>296.0</ele><time>2026-05-02T15:08:40.962Z</time></trkpt><trkpt lat="43.6291041" lon="11.2385788"><ele>296.0</ele><time>2026-05-02T15:08:41.961Z</time></trkpt><trkpt lat="43.629211" lon="11.238521"><ele>296.0</ele><time>2026-05-02T15:08:42.961Z</time></trkpt><trkpt lat="43.6292968" lon="11.2384265"><ele>296.0</ele><time>2026-05-02T15:08:43.961Z</time></trkpt><trkpt lat="43.6293598" lon="11.2382999"><ele>296.0</ele><time>2026-05-02T15:08:44.961Z</time></trkpt><trkpt lat="43.6294072" lon="11.2381418"><ele>296.0</ele><time>2026-05-02T15:08:45.962Z</time></trkpt><trkpt lat="43.6294267" lon="11.2379682"><ele>296.0</ele><time>2026-05-02T15:08:46.962Z</time></trkpt><trkpt lat="43.6294481" lon="11.2377792"><ele>296.0</ele><time>2026-05-02T15:08:47.961Z</time></trkpt><trkpt lat="43.6294924" lon="11.2375886"><ele>296.6666666666667</ele><time>2026-05-02T15:08:48.961Z</time></trkpt><trkpt lat="43.6295794" lon="11.2374182"><ele>297.3333333333333</ele><time>2026-05-02T15:08:49.961Z</time></trkpt><trkpt lat="43.6296996" lon="11.2372606"><ele>298.0</ele><time>2026-05-02T15:08:50.961Z</time></trkpt><trkpt lat="43.6298248" lon="11.2371081"><ele>296.3333333333333</ele><time>2026-05-02T15:08:51.961Z</time></trkpt><trkpt lat="43.6299548" lon="11.2369648"><ele>294.6666666666667</ele><time>2026-05-02T15:08:52.962Z</time></trkpt><trkpt lat="43.6300859" lon="11.236832"><ele>293.0</ele><time>2026-05-02T15:08:53.961Z</time></trkpt><trkpt lat="43.630217" lon="11.2367198"><ele>292.5</ele><time>2026-05-02T15:08:54.961Z</time></trkpt><trkpt lat="43.6303507" lon="11.2366252"><ele>292.0</ele><time>2026-05-02T15:08:55.961Z</time></trkpt><trkpt lat="43.6304853" lon="11.2365475"><ele>291.5</ele><time>2026-05-02T15:08:56.961Z</time></trkpt><trkpt lat="43.630616" lon="11.2364776"><ele>291.0</ele><time>2026-05-02T15:08:57.961Z</time></trkpt><trkpt lat="43.6307453" lon="11.2364071"><ele>291.0</ele><time>2026-05-02T15:08:58.962Z</time></trkpt><trkpt lat="43.6308722" lon="11.2363422"><ele>291.0</ele><time>2026-05-02T15:08:59.961Z</time></trkpt><trkpt lat="43.6309948" lon="11.2362779"><ele>291.0</ele><time>2026-05-02T15:09:00.961Z</time></trkpt><trkpt lat="43.6311156" lon="11.2362206"><ele>291.0</ele><time>2026-05-02T15:09:01.961Z</time></trkpt><trkpt lat="43.6312361" lon="11.236168"><ele>290.75</ele><time>2026-05-02T15:09:02.961Z</time></trkpt><trkpt lat="43.6313489" lon="11.2361087"><ele>290.5</ele><time>2026-05-02T15:09:03.961Z</time></trkpt><trkpt lat="43.6314683" lon="11.2360553"><ele>290.25</ele><time>2026-05-02T15:09:04.961Z</time></trkpt><trkpt lat="43.6315902" lon="11.2360028"><ele>290.0</ele><time>2026-05-02T15:09:05.961Z</time></trkpt><trkpt lat="43.6317151" lon="11.2359477"><ele>290.0</ele><time>2026-05-02T15:09:06.961Z</time></trkpt><trkpt lat="43.6318391" lon="11.2358898"><ele>290.0</ele><time>2026-05-02T15:09:07.962Z</time></trkpt><trkpt lat="43.6319617" lon="11.235828"><ele>290.0</ele><time>2026-05-02T15:09:08.961Z</time></trkpt><trkpt lat="43.6320868" lon="11.2357684"><ele>290.0</ele><time>2026-05-02T15:09:09.961Z</time></trkpt><trkpt lat="43.6322058" lon="11.2357035"><ele>287.5</ele><time>2026-05-02T15:09:10.961Z</time></trkpt><trkpt lat="43.6323239" lon="11.2356348"><ele>285.0</ele><time>2026-05-02T15:09:11.962Z</time></trkpt><trkpt lat="43.6324467" lon="11.235569"><ele>282.5</ele><time>2026-05-02T15:09:12.961Z</time></trkpt><trkpt lat="43.6325708" lon="11.2354968"><ele>280.0</ele><time>2026-05-02T15:09:13.961Z</time></trkpt><trkpt lat="43.6326973" lon="11.2353933"><ele>281.0</ele><time>2026-05-02T15:09:14.961Z</time></trkpt><trkpt lat="43.6328113" lon="11.2352671"><ele>282.0</ele><time>2026-05-02T15:09:15.961Z</time></trkpt><trkpt lat="43.6329098" lon="11.2351205"><ele>283.0</ele><time>2026-05-02T15:09:16.961Z</time></trkpt><trkpt lat="43.6329949" lon="11.2349593"><ele>284.0</ele><time>2026-05-02T15:09:17.961Z</time></trkpt><trkpt lat="43.633063" lon="11.2347799"><ele>284.0</ele><time>2026-05-02T15:09:18.961Z</time></trkpt><trkpt lat="43.633118" lon="11.2345798"><ele>284.0</ele><time>2026-05-02T15:09:19.961Z</time></trkpt><trkpt lat="43.6331571" lon="11.2343656"><ele>284.0</ele><time>2026-05-02T15:09:20.961Z</time></trkpt><trkpt lat="43.6331963" lon="11.2341413"><ele>284.0</ele><time>2026-05-02T15:09:21.961Z</time></trkpt><trkpt lat="43.6332326" lon="11.2339072"><ele>284.0</ele><time>2026-05-02T15:09:22.961Z</time></trkpt><trkpt lat="43.6332697" lon="11.2336771"><ele>284.0</ele><time>2026-05-02T15:09:23.962Z</time></trkpt><trkpt lat="43.6333069" lon="11.2334443"><ele>284.0</ele><time>2026-05-02T15:09:24.961Z</time></trkpt><trkpt lat="43.6333408" lon="11.2332138"><ele>284.0</ele><time>2026-05-02T15:09:25.961Z</time></trkpt><trkpt lat="43.6333763" lon="11.2329908"><ele>284.0</ele><time>2026-05-02T15:09:26.961Z</time></trkpt><trkpt lat="43.6334114" lon="11.2327757"><ele>283.75</ele><time>2026-05-02T15:09:27.961Z</time></trkpt><trkpt lat="43.6334449" lon="11.232581"><ele>283.5</ele><time>2026-05-02T15:09:28.961Z</time></trkpt><trkpt lat="43.6334736" lon="11.2323995"><ele>283.25</ele><time>2026-05-02T15:09:29.961Z</time></trkpt><trkpt lat="43.6334964" lon="11.2322394"><ele>283.0</ele><time>2026-05-02T15:09:30.961Z</time></trkpt><trkpt lat="43.6335204" lon="11.232093"><ele>284.16666666666663</ele><time>2026-05-02T15:09:31.962Z</time></trkpt><trkpt lat="43.6335436" lon="11.2319533"><ele>285.3333333333333</ele><time>2026-05-02T15:09:32.961Z</time></trkpt><trkpt lat="43.6335672" lon="11.2318316"><ele>286.5</ele><time>2026-05-02T15:09:33.961Z</time></trkpt><trkpt lat="43.6335936" lon="11.2317134"><ele>287.6666666666667</ele><time>2026-05-02T15:09:34.962Z</time></trkpt><trkpt lat="43.6336238" lon="11.2316141"><ele>288.83333333333337</ele><time>2026-05-02T15:09:35.962Z</time></trkpt><trkpt lat="43.6336558" lon="11.2315371"><ele>290.0</ele><time>2026-05-02T15:09:36.961Z</time></trkpt><trkpt lat="43.6337251" lon="11.2314419"><ele>290.4</ele><time>2026-05-02T15:09:38.962Z</time></trkpt><trkpt lat="43.6338093" lon="11.2313963"><ele>290.8</ele><time>2026-05-02T15:09:40.961Z</time></trkpt><trkpt lat="43.6338398" lon="11.2313077"><ele>291.2</ele><time>2026-05-02T15:09:42.961Z</time></trkpt><trkpt lat="43.6337791" lon="11.2312624"><ele>291.6</ele><time>2026-05-02T15:09:44.961Z</time></trkpt><trkpt lat="43.6336392" lon="11.2312838"><ele>292.0</ele><time>2026-05-02T15:09:46.961Z</time></trkpt><trkpt lat="43.6335579" lon="11.2312541"><ele>292.6</ele><time>2026-05-02T15:09:47.962Z</time></trkpt><trkpt lat="43.6334639" lon="11.2312087"><ele>293.2</ele><time>2026-05-02T15:09:48.961Z</time></trkpt><trkpt lat="43.6333633" lon="11.2311564"><ele>293.8</ele><time>2026-05-02T15:09:49.962Z</time></trkpt><trkpt lat="43.6332588" lon="11.2311043"><ele>294.4</ele><time>2026-05-02T15:09:50.961Z</time></trkpt><trkpt lat="43.6331488" lon="11.2310541"><ele>295.0</ele><time>2026-05-02T15:09:51.961Z</time></trkpt><trkpt lat="43.6330458" lon="11.2309964"><ele>295.0</ele><time>2026-05-02T15:09:52.961Z</time></trkpt><trkpt lat="43.6329437" lon="11.2309413"><ele>295.0</ele><time>2026-05-02T15:09:53.961Z</time></trkpt><trkpt lat="43.6328407" lon="11.2308753"><ele>295.0</ele><time>2026-05-02T15:09:54.962Z</time></trkpt><trkpt lat="43.6327363" lon="11.2308118"><ele>295.0</ele><time>2026-05-02T15:09:55.961Z</time></trkpt><trkpt lat="43.6326272" lon="11.230728"><ele>294.75</ele><time>2026-05-02T15:09:56.962Z</time></trkpt><trkpt lat="43.6325247" lon="11.2306336"><ele>294.5</ele><time>2026-05-02T15:09:57.961Z</time></trkpt><trkpt lat="43.6324262" lon="11.230538"><ele>294.25</ele><time>2026-05-02T15:09:58.961Z</time></trkpt><trkpt lat="43.6323321" lon="11.2304427"><ele>294.0</ele><time>2026-05-02T15:09:59.961Z</time></trkpt><trkpt lat="43.6322461" lon="11.2303521"><ele>294.0</ele><time>2026-05-02T15:10:00.961Z</time></trkpt><trkpt lat="43.6321627" lon="11.2302671"><ele>294.0</ele><time>2026-05-02T15:10:01.961Z</time></trkpt><trkpt lat="43.6320777" lon="11.230189"><ele>294.0</ele><time>2026-05-02T15:10:02.961Z</time></trkpt><trkpt lat="43.6319944" lon="11.2301206"><ele>294.0</ele><time>2026-05-02T15:10:03.961Z</time></trkpt><trkpt lat="43.6319222" lon="11.2300609"><ele>294.0</ele><time>2026-05-02T15:10:04.961Z</time></trkpt><trkpt lat="43.6318548" lon="11.2300049"><ele>293.8</ele><time>2026-05-02T15:10:05.961Z</time></trkpt><trkpt lat="43.6317893" lon="11.2299607"><ele>293.59999999999997</ele><time>2026-05-02T15:10:06.962Z</time></trkpt><trkpt lat="43.6317239" lon="11.2299156"><ele>293.4</ele><time>2026-05-02T15:10:07.961Z</time></trkpt><trkpt lat="43.6316589" lon="11.229872"><ele>293.2</ele><time>2026-05-02T15:10:08.961Z</time></trkpt><trkpt lat="43.6315685" lon="11.22981"><ele>293.0</ele><time>2026-05-02T15:10:10.961Z</time></trkpt><trkpt lat="43.6314562" lon="11.2296892"><ele>293.6666666666667</ele><time>2026-05-02T15:10:49.961Z</time></trkpt><trkpt lat="43.6314457" lon="11.2295974"><ele>294.33333333333337</ele><time>2026-05-02T15:10:50.962Z</time></trkpt><trkpt lat="43.6314504" lon="11.2295105"><ele>295.0</ele><time>2026-05-02T15:10:51.961Z</time></trkpt><trkpt lat="43.6314901" lon="11.2293807"><ele>295.6666666666667</ele><time>2026-05-02T15:10:53.961Z</time></trkpt><trkpt lat="43.6315653" lon="11.2293614"><ele>296.3333333333333</ele><time>2026-05-02T15:10:56.961Z</time></trkpt><trkpt lat="43.6316216" lon="11.2294446"><ele>297.0</ele><time>2026-05-02T15:11:12.962Z</time></trkpt><trkpt lat="43.6316057" lon="11.2295349"><ele>297.0</ele><time>2026-05-02T15:11:16.961Z</time></trkpt></trkseg></trk></gpx>